<?xml version="1.0" encoding="UTF-8" standalone="no" ?>
<gpx xmlns="http://www.topografix.com/GPX/1/1" xmlns:xsi="http://www.w3.org/2001/XMLSchema-instance" xsi:schemaLocation="http://www.topografix.com/GPX/1/1 http://www.topografix.com/GPX/1/1/gpx.xsd" version="1.1" creator="VisuGPX - https://www.visugpx.com">
  <metadata>
    <name>chusclan 2016</name>
    <desc><![CDATA[rando chusclan 2016 super parcour
]]></desc>
  </metadata>
  <trk>
    <name><![CDATA[CHUSÇIAN20163:32:29]]></name>
    <trkseg>
      <trkpt lat="43.99544" lon="5.05663">
        <ele>-8.03</ele>
        <time>2016-11-19T07:35:21Z</time>
      </trkpt>
      <trkpt lat="44.14775" lon="4.67226">
        <ele>-8.03</ele>
        <time>2016-11-19T07:35:22Z</time>
      </trkpt>
      <trkpt lat="44.14777" lon="4.67226">
        <ele>-4.19</ele>
        <time>2016-11-19T07:35:25Z</time>
      </trkpt>
      <trkpt lat="44.14777" lon="4.67226">
        <ele>-4.19</ele>
        <time>2016-11-19T07:35:26Z</time>
      </trkpt>
      <trkpt lat="44.14779" lon="4.67225">
        <ele>0.62</ele>
        <time>2016-11-19T07:35:28Z</time>
      </trkpt>
      <trkpt lat="44.1478" lon="4.67225">
        <ele>0.62</ele>
        <time>2016-11-19T07:35:29Z</time>
      </trkpt>
      <trkpt lat="44.1478" lon="4.67225">
        <ele>3.5</ele>
        <time>2016-11-19T07:35:31Z</time>
      </trkpt>
      <trkpt lat="44.14781" lon="4.67225">
        <ele>7.83</ele>
        <time>2016-11-19T07:35:34Z</time>
      </trkpt>
      <trkpt lat="44.14782" lon="4.67226">
        <ele>11.67</ele>
        <time>2016-11-19T07:35:37Z</time>
      </trkpt>
      <trkpt lat="44.14782" lon="4.67226">
        <ele>15.04</ele>
        <time>2016-11-19T07:35:40Z</time>
      </trkpt>
      <trkpt lat="44.14782" lon="4.67227">
        <ele>17.92</ele>
        <time>2016-11-19T07:35:43Z</time>
      </trkpt>
      <trkpt lat="44.14782" lon="4.67227">
        <ele>73.68</ele>
        <time>2016-11-19T07:35:44Z</time>
      </trkpt>
      <trkpt lat="44.14782" lon="4.67227">
        <ele>73.68</ele>
        <time>2016-11-19T07:35:45Z</time>
      </trkpt>
      <trkpt lat="44.14782" lon="4.67227">
        <ele>46.76</ele>
        <time>2016-11-19T07:35:48Z</time>
      </trkpt>
      <trkpt lat="44.14782" lon="4.67227">
        <ele>46.76</ele>
        <time>2016-11-19T07:35:49Z</time>
      </trkpt>
      <trkpt lat="44.14779" lon="4.67227">
        <ele>47.24</ele>
        <time>2016-11-19T07:36:16Z</time>
      </trkpt>
      <trkpt lat="44.14782" lon="4.67226">
        <ele>47.24</ele>
        <time>2016-11-19T07:36:31Z</time>
      </trkpt>
      <trkpt lat="44.14779" lon="4.67226">
        <ele>47.24</ele>
        <time>2016-11-19T07:36:42Z</time>
      </trkpt>
      <trkpt lat="44.14777" lon="4.67227">
        <ele>47.24</ele>
        <time>2016-11-19T07:37:02Z</time>
      </trkpt>
      <trkpt lat="44.14777" lon="4.67226">
        <ele>47.24</ele>
        <time>2016-11-19T07:37:23Z</time>
      </trkpt>
      <trkpt lat="44.14777" lon="4.67225">
        <ele>46.76</ele>
        <time>2016-11-19T07:37:47Z</time>
      </trkpt>
      <trkpt lat="44.14778" lon="4.67224">
        <ele>46.76</ele>
        <time>2016-11-19T07:38:12Z</time>
      </trkpt>
      <trkpt lat="44.14786" lon="4.67224">
        <ele>46.76</ele>
        <time>2016-11-19T07:38:25Z</time>
      </trkpt>
      <trkpt lat="44.14791" lon="4.67229">
        <ele>46.76</ele>
        <time>2016-11-19T07:38:38Z</time>
      </trkpt>
      <trkpt lat="44.1479" lon="4.67231">
        <ele>46.76</ele>
        <time>2016-11-19T07:38:39Z</time>
      </trkpt>
      <trkpt lat="44.14786" lon="4.67242">
        <ele>46.76</ele>
        <time>2016-11-19T07:38:48Z</time>
      </trkpt>
      <trkpt lat="44.14783" lon="4.67244">
        <ele>46.76</ele>
        <time>2016-11-19T07:38:50Z</time>
      </trkpt>
      <trkpt lat="44.14776" lon="4.67245">
        <ele>46.76</ele>
        <time>2016-11-19T07:38:54Z</time>
      </trkpt>
      <trkpt lat="44.14739" lon="4.67256">
        <ele>46.76</ele>
        <time>2016-11-19T07:39:09Z</time>
      </trkpt>
      <trkpt lat="44.14736" lon="4.6726">
        <ele>46.76</ele>
        <time>2016-11-19T07:39:11Z</time>
      </trkpt>
      <trkpt lat="44.14736" lon="4.67263">
        <ele>46.76</ele>
        <time>2016-11-19T07:39:12Z</time>
      </trkpt>
      <trkpt lat="44.14736" lon="4.67267">
        <ele>46.76</ele>
        <time>2016-11-19T07:39:13Z</time>
      </trkpt>
      <trkpt lat="44.14737" lon="4.67271">
        <ele>46.76</ele>
        <time>2016-11-19T07:39:14Z</time>
      </trkpt>
      <trkpt lat="44.14737" lon="4.67276">
        <ele>46.76</ele>
        <time>2016-11-19T07:39:15Z</time>
      </trkpt>
      <trkpt lat="44.14758" lon="4.67351">
        <ele>46.76</ele>
        <time>2016-11-19T07:39:28Z</time>
      </trkpt>
      <trkpt lat="44.14758" lon="4.67358">
        <ele>46.76</ele>
        <time>2016-11-19T07:39:29Z</time>
      </trkpt>
      <trkpt lat="44.14757" lon="4.67387">
        <ele>46.76</ele>
        <time>2016-11-19T07:39:33Z</time>
      </trkpt>
      <trkpt lat="44.14757" lon="4.67393">
        <ele>46.76</ele>
        <time>2016-11-19T07:39:34Z</time>
      </trkpt>
      <trkpt lat="44.14747" lon="4.67436">
        <ele>45.32</ele>
        <time>2016-11-19T07:39:45Z</time>
      </trkpt>
      <trkpt lat="44.14737" lon="4.67482">
        <ele>45.32</ele>
        <time>2016-11-19T07:39:57Z</time>
      </trkpt>
      <trkpt lat="44.14718" lon="4.67578">
        <ele>44.84</ele>
        <time>2016-11-19T07:40:13Z</time>
      </trkpt>
      <trkpt lat="44.14715" lon="4.67589">
        <ele>44.84</ele>
        <time>2016-11-19T07:40:15Z</time>
      </trkpt>
      <trkpt lat="44.14714" lon="4.67595">
        <ele>44.84</ele>
        <time>2016-11-19T07:40:16Z</time>
      </trkpt>
      <trkpt lat="44.14696" lon="4.67689">
        <ele>44.84</ele>
        <time>2016-11-19T07:40:33Z</time>
      </trkpt>
      <trkpt lat="44.14691" lon="4.67713">
        <ele>44.84</ele>
        <time>2016-11-19T07:40:37Z</time>
      </trkpt>
      <trkpt lat="44.1469" lon="4.67719">
        <ele>44.84</ele>
        <time>2016-11-19T07:40:38Z</time>
      </trkpt>
      <trkpt lat="44.14674" lon="4.6779">
        <ele>44.84</ele>
        <time>2016-11-19T07:40:52Z</time>
      </trkpt>
      <trkpt lat="44.1466" lon="4.67842">
        <ele>46.28</ele>
        <time>2016-11-19T07:41:03Z</time>
      </trkpt>
      <trkpt lat="44.14659" lon="4.6785">
        <ele>46.76</ele>
        <time>2016-11-19T07:41:06Z</time>
      </trkpt>
      <trkpt lat="44.1466" lon="4.67852">
        <ele>46.76</ele>
        <time>2016-11-19T07:41:07Z</time>
      </trkpt>
      <trkpt lat="44.14662" lon="4.67856">
        <ele>46.76</ele>
        <time>2016-11-19T07:41:08Z</time>
      </trkpt>
      <trkpt lat="44.14665" lon="4.67858">
        <ele>46.76</ele>
        <time>2016-11-19T07:41:09Z</time>
      </trkpt>
      <trkpt lat="44.14669" lon="4.67861">
        <ele>46.76</ele>
        <time>2016-11-19T07:41:10Z</time>
      </trkpt>
      <trkpt lat="44.14721" lon="4.67884">
        <ele>46.76</ele>
        <time>2016-11-19T07:41:24Z</time>
      </trkpt>
      <trkpt lat="44.14776" lon="4.67902">
        <ele>46.76</ele>
        <time>2016-11-19T07:41:38Z</time>
      </trkpt>
      <trkpt lat="44.14801" lon="4.67909">
        <ele>45.32</ele>
        <time>2016-11-19T07:41:44Z</time>
      </trkpt>
      <trkpt lat="44.14809" lon="4.6791">
        <ele>44.84</ele>
        <time>2016-11-19T07:41:46Z</time>
      </trkpt>
      <trkpt lat="44.14812" lon="4.67908">
        <ele>44.84</ele>
        <time>2016-11-19T07:41:47Z</time>
      </trkpt>
      <trkpt lat="44.14814" lon="4.67905">
        <ele>44.84</ele>
        <time>2016-11-19T07:41:48Z</time>
      </trkpt>
      <trkpt lat="44.14816" lon="4.67899">
        <ele>43.88</ele>
        <time>2016-11-19T07:41:49Z</time>
      </trkpt>
      <trkpt lat="44.14817" lon="4.67891">
        <ele>42.92</ele>
        <time>2016-11-19T07:41:50Z</time>
      </trkpt>
      <trkpt lat="44.14818" lon="4.67883">
        <ele>42.44</ele>
        <time>2016-11-19T07:41:51Z</time>
      </trkpt>
      <trkpt lat="44.14824" lon="4.67844">
        <ele>42.44</ele>
        <time>2016-11-19T07:41:56Z</time>
      </trkpt>
      <trkpt lat="44.14828" lon="4.6783">
        <ele>42.44</ele>
        <time>2016-11-19T07:41:58Z</time>
      </trkpt>
      <trkpt lat="44.14842" lon="4.67771">
        <ele>42.44</ele>
        <time>2016-11-19T07:42:07Z</time>
      </trkpt>
      <trkpt lat="44.14842" lon="4.67765">
        <ele>42.44</ele>
        <time>2016-11-19T07:42:08Z</time>
      </trkpt>
      <trkpt lat="44.14843" lon="4.67759">
        <ele>42.44</ele>
        <time>2016-11-19T07:42:09Z</time>
      </trkpt>
      <trkpt lat="44.14844" lon="4.67753">
        <ele>42.44</ele>
        <time>2016-11-19T07:42:10Z</time>
      </trkpt>
      <trkpt lat="44.14845" lon="4.67747">
        <ele>42.44</ele>
        <time>2016-11-19T07:42:11Z</time>
      </trkpt>
      <trkpt lat="44.14855" lon="4.67699">
        <ele>42.44</ele>
        <time>2016-11-19T07:42:19Z</time>
      </trkpt>
      <trkpt lat="44.14859" lon="4.67675">
        <ele>42.44</ele>
        <time>2016-11-19T07:42:23Z</time>
      </trkpt>
      <trkpt lat="44.14873" lon="4.67608">
        <ele>42.44</ele>
        <time>2016-11-19T07:42:36Z</time>
      </trkpt>
      <trkpt lat="44.14902" lon="4.6755">
        <ele>45.32</ele>
        <time>2016-11-19T07:42:50Z</time>
      </trkpt>
      <trkpt lat="44.14928" lon="4.67506">
        <ele>45.8</ele>
        <time>2016-11-19T07:43:02Z</time>
      </trkpt>
      <trkpt lat="44.14954" lon="4.67461">
        <ele>45.8</ele>
        <time>2016-11-19T07:43:14Z</time>
      </trkpt>
      <trkpt lat="44.14967" lon="4.67426">
        <ele>45.8</ele>
        <time>2016-11-19T07:43:26Z</time>
      </trkpt>
      <trkpt lat="44.14982" lon="4.67386">
        <ele>45.8</ele>
        <time>2016-11-19T07:43:38Z</time>
      </trkpt>
      <trkpt lat="44.15" lon="4.6735">
        <ele>45.8</ele>
        <time>2016-11-19T07:43:47Z</time>
      </trkpt>
      <trkpt lat="44.15005" lon="4.67327">
        <ele>45.8</ele>
        <time>2016-11-19T07:43:52Z</time>
      </trkpt>
      <trkpt lat="44.15009" lon="4.67313">
        <ele>45.8</ele>
        <time>2016-11-19T07:43:56Z</time>
      </trkpt>
      <trkpt lat="44.15009" lon="4.67294">
        <ele>45.8</ele>
        <time>2016-11-19T07:44:01Z</time>
      </trkpt>
      <trkpt lat="44.15019" lon="4.67235">
        <ele>45.8</ele>
        <time>2016-11-19T07:44:15Z</time>
      </trkpt>
      <trkpt lat="44.15018" lon="4.67221">
        <ele>45.8</ele>
        <time>2016-11-19T07:44:19Z</time>
      </trkpt>
      <trkpt lat="44.15015" lon="4.67218">
        <ele>45.8</ele>
        <time>2016-11-19T07:44:21Z</time>
      </trkpt>
      <trkpt lat="44.15013" lon="4.67218">
        <ele>45.8</ele>
        <time>2016-11-19T07:44:22Z</time>
      </trkpt>
      <trkpt lat="44.15011" lon="4.67218">
        <ele>45.8</ele>
        <time>2016-11-19T07:44:23Z</time>
      </trkpt>
      <trkpt lat="44.1501" lon="4.67216">
        <ele>45.8</ele>
        <time>2016-11-19T07:44:24Z</time>
      </trkpt>
      <trkpt lat="44.15009" lon="4.67213">
        <ele>45.8</ele>
        <time>2016-11-19T07:44:25Z</time>
      </trkpt>
      <trkpt lat="44.15009" lon="4.67209">
        <ele>44.84</ele>
        <time>2016-11-19T07:44:26Z</time>
      </trkpt>
      <trkpt lat="44.15009" lon="4.67202">
        <ele>43.4</ele>
        <time>2016-11-19T07:44:27Z</time>
      </trkpt>
      <trkpt lat="44.15009" lon="4.67195">
        <ele>43.4</ele>
        <time>2016-11-19T07:44:28Z</time>
      </trkpt>
      <trkpt lat="44.15009" lon="4.67188">
        <ele>43.4</ele>
        <time>2016-11-19T07:44:29Z</time>
      </trkpt>
      <trkpt lat="44.1501" lon="4.67181">
        <ele>42.92</ele>
        <time>2016-11-19T07:44:30Z</time>
      </trkpt>
      <trkpt lat="44.15011" lon="4.67174">
        <ele>42.92</ele>
        <time>2016-11-19T07:44:31Z</time>
      </trkpt>
      <trkpt lat="44.15011" lon="4.67168">
        <ele>42.44</ele>
        <time>2016-11-19T07:44:32Z</time>
      </trkpt>
      <trkpt lat="44.15011" lon="4.67161">
        <ele>42.44</ele>
        <time>2016-11-19T07:44:33Z</time>
      </trkpt>
      <trkpt lat="44.1501" lon="4.67154">
        <ele>42.44</ele>
        <time>2016-11-19T07:44:34Z</time>
      </trkpt>
      <trkpt lat="44.15009" lon="4.67147">
        <ele>42.44</ele>
        <time>2016-11-19T07:44:35Z</time>
      </trkpt>
      <trkpt lat="44.15008" lon="4.6714">
        <ele>42.44</ele>
        <time>2016-11-19T07:44:36Z</time>
      </trkpt>
      <trkpt lat="44.14992" lon="4.67065">
        <ele>41.95</ele>
        <time>2016-11-19T07:44:48Z</time>
      </trkpt>
      <trkpt lat="44.14982" lon="4.66999">
        <ele>41.95</ele>
        <time>2016-11-19T07:44:59Z</time>
      </trkpt>
      <trkpt lat="44.1496" lon="4.6691">
        <ele>41.95</ele>
        <time>2016-11-19T07:45:15Z</time>
      </trkpt>
      <trkpt lat="44.14938" lon="4.66824">
        <ele>41.95</ele>
        <time>2016-11-19T07:45:31Z</time>
      </trkpt>
      <trkpt lat="44.14911" lon="4.66731">
        <ele>41.95</ele>
        <time>2016-11-19T07:45:49Z</time>
      </trkpt>
      <trkpt lat="44.14891" lon="4.6666">
        <ele>41.95</ele>
        <time>2016-11-19T07:46:03Z</time>
      </trkpt>
      <trkpt lat="44.14868" lon="4.66592">
        <ele>41.95</ele>
        <time>2016-11-19T07:46:17Z</time>
      </trkpt>
      <trkpt lat="44.14867" lon="4.66586">
        <ele>41.95</ele>
        <time>2016-11-19T07:46:18Z</time>
      </trkpt>
      <trkpt lat="44.14865" lon="4.6651">
        <ele>41.95</ele>
        <time>2016-11-19T07:46:32Z</time>
      </trkpt>
      <trkpt lat="44.14871" lon="4.66445">
        <ele>43.4</ele>
        <time>2016-11-19T07:46:44Z</time>
      </trkpt>
      <trkpt lat="44.14874" lon="4.66422">
        <ele>43.88</ele>
        <time>2016-11-19T07:46:48Z</time>
      </trkpt>
      <trkpt lat="44.14878" lon="4.66411">
        <ele>43.88</ele>
        <time>2016-11-19T07:46:50Z</time>
      </trkpt>
      <trkpt lat="44.14906" lon="4.66355">
        <ele>43.88</ele>
        <time>2016-11-19T07:47:01Z</time>
      </trkpt>
      <trkpt lat="44.14937" lon="4.66313">
        <ele>44.36</ele>
        <time>2016-11-19T07:47:13Z</time>
      </trkpt>
      <trkpt lat="44.14938" lon="4.66312">
        <ele>44.36</ele>
        <time>2016-11-19T07:47:14Z</time>
      </trkpt>
      <trkpt lat="44.14958" lon="4.66326">
        <ele>42.44</ele>
        <time>2016-11-19T07:47:20Z</time>
      </trkpt>
      <trkpt lat="44.14973" lon="4.66341">
        <ele>42.44</ele>
        <time>2016-11-19T07:47:24Z</time>
      </trkpt>
      <trkpt lat="44.15002" lon="4.66369">
        <ele>42.44</ele>
        <time>2016-11-19T07:47:32Z</time>
      </trkpt>
      <trkpt lat="44.15018" lon="4.66423">
        <ele>42.44</ele>
        <time>2016-11-19T07:47:43Z</time>
      </trkpt>
      <trkpt lat="44.15046" lon="4.6642">
        <ele>43.88</ele>
        <time>2016-11-19T07:47:51Z</time>
      </trkpt>
      <trkpt lat="44.1505" lon="4.66418">
        <ele>43.88</ele>
        <time>2016-11-19T07:47:52Z</time>
      </trkpt>
      <trkpt lat="44.15074" lon="4.6641">
        <ele>43.88</ele>
        <time>2016-11-19T07:47:58Z</time>
      </trkpt>
      <trkpt lat="44.15093" lon="4.6643">
        <ele>44.36</ele>
        <time>2016-11-19T07:48:06Z</time>
      </trkpt>
      <trkpt lat="44.15101" lon="4.66428">
        <ele>44.36</ele>
        <time>2016-11-19T07:48:09Z</time>
      </trkpt>
      <trkpt lat="44.15116" lon="4.66425">
        <ele>44.36</ele>
        <time>2016-11-19T07:48:21Z</time>
      </trkpt>
      <trkpt lat="44.15119" lon="4.66424">
        <ele>44.36</ele>
        <time>2016-11-19T07:48:24Z</time>
      </trkpt>
      <trkpt lat="44.15121" lon="4.66425">
        <ele>44.36</ele>
        <time>2016-11-19T07:48:26Z</time>
      </trkpt>
      <trkpt lat="44.15141" lon="4.6642">
        <ele>44.36</ele>
        <time>2016-11-19T07:48:38Z</time>
      </trkpt>
      <trkpt lat="44.15142" lon="4.66419">
        <ele>44.36</ele>
        <time>2016-11-19T07:48:39Z</time>
      </trkpt>
      <trkpt lat="44.15145" lon="4.6639">
        <ele>44.36</ele>
        <time>2016-11-19T07:48:46Z</time>
      </trkpt>
      <trkpt lat="44.15166" lon="4.66379">
        <ele>44.36</ele>
        <time>2016-11-19T07:48:53Z</time>
      </trkpt>
      <trkpt lat="44.15208" lon="4.66364">
        <ele>44.36</ele>
        <time>2016-11-19T07:49:04Z</time>
      </trkpt>
      <trkpt lat="44.15253" lon="4.66354">
        <ele>44.36</ele>
        <time>2016-11-19T07:49:17Z</time>
      </trkpt>
      <trkpt lat="44.15303" lon="4.66345">
        <ele>44.36</ele>
        <time>2016-11-19T07:49:31Z</time>
      </trkpt>
      <trkpt lat="44.15306" lon="4.66346">
        <ele>44.36</ele>
        <time>2016-11-19T07:49:32Z</time>
      </trkpt>
      <trkpt lat="44.15318" lon="4.66362">
        <ele>44.84</ele>
        <time>2016-11-19T07:49:38Z</time>
      </trkpt>
      <trkpt lat="44.15371" lon="4.66354">
        <ele>45.32</ele>
        <time>2016-11-19T07:49:54Z</time>
      </trkpt>
      <trkpt lat="44.15384" lon="4.66353">
        <ele>45.32</ele>
        <time>2016-11-19T07:49:58Z</time>
      </trkpt>
      <trkpt lat="44.15389" lon="4.66358">
        <ele>45.32</ele>
        <time>2016-11-19T07:50:00Z</time>
      </trkpt>
      <trkpt lat="44.1539" lon="4.66362">
        <ele>45.32</ele>
        <time>2016-11-19T07:50:01Z</time>
      </trkpt>
      <trkpt lat="44.1539" lon="4.66367">
        <ele>45.32</ele>
        <time>2016-11-19T07:50:02Z</time>
      </trkpt>
      <trkpt lat="44.15389" lon="4.66372">
        <ele>45.32</ele>
        <time>2016-11-19T07:50:03Z</time>
      </trkpt>
      <trkpt lat="44.15388" lon="4.66378">
        <ele>45.32</ele>
        <time>2016-11-19T07:50:04Z</time>
      </trkpt>
      <trkpt lat="44.15387" lon="4.66383">
        <ele>45.32</ele>
        <time>2016-11-19T07:50:05Z</time>
      </trkpt>
      <trkpt lat="44.15384" lon="4.66409">
        <ele>46.76</ele>
        <time>2016-11-19T07:50:10Z</time>
      </trkpt>
      <trkpt lat="44.15382" lon="4.66485">
        <ele>47.24</ele>
        <time>2016-11-19T07:50:24Z</time>
      </trkpt>
      <trkpt lat="44.15385" lon="4.66487">
        <ele>47.24</ele>
        <time>2016-11-19T07:50:25Z</time>
      </trkpt>
      <trkpt lat="44.15391" lon="4.66487">
        <ele>47.24</ele>
        <time>2016-11-19T07:50:27Z</time>
      </trkpt>
      <trkpt lat="44.15436" lon="4.66488">
        <ele>47.24</ele>
        <time>2016-11-19T07:50:39Z</time>
      </trkpt>
      <trkpt lat="44.15477" lon="4.66492">
        <ele>47.24</ele>
        <time>2016-11-19T07:50:50Z</time>
      </trkpt>
      <trkpt lat="44.15481" lon="4.66533">
        <ele>47.72</ele>
        <time>2016-11-19T07:50:59Z</time>
      </trkpt>
      <trkpt lat="44.15513" lon="4.6654">
        <ele>48.2</ele>
        <time>2016-11-19T07:51:09Z</time>
      </trkpt>
      <trkpt lat="44.15547" lon="4.66541">
        <ele>49.16</ele>
        <time>2016-11-19T07:51:19Z</time>
      </trkpt>
      <trkpt lat="44.15566" lon="4.6654">
        <ele>49.65</ele>
        <time>2016-11-19T07:51:26Z</time>
      </trkpt>
      <trkpt lat="44.15621" lon="4.66563">
        <ele>51.09</ele>
        <time>2016-11-19T07:51:43Z</time>
      </trkpt>
      <trkpt lat="44.15631" lon="4.66567">
        <ele>52.05</ele>
        <time>2016-11-19T07:51:47Z</time>
      </trkpt>
      <trkpt lat="44.1563" lon="4.66576">
        <ele>52.05</ele>
        <time>2016-11-19T07:51:50Z</time>
      </trkpt>
      <trkpt lat="44.15627" lon="4.66579">
        <ele>52.05</ele>
        <time>2016-11-19T07:51:51Z</time>
      </trkpt>
      <trkpt lat="44.15624" lon="4.66583">
        <ele>52.05</ele>
        <time>2016-11-19T07:51:52Z</time>
      </trkpt>
      <trkpt lat="44.15622" lon="4.66587">
        <ele>52.05</ele>
        <time>2016-11-19T07:51:53Z</time>
      </trkpt>
      <trkpt lat="44.1561" lon="4.66608">
        <ele>52.05</ele>
        <time>2016-11-19T07:51:58Z</time>
      </trkpt>
      <trkpt lat="44.1561" lon="4.66611">
        <ele>52.05</ele>
        <time>2016-11-19T07:51:59Z</time>
      </trkpt>
      <trkpt lat="44.15612" lon="4.66613">
        <ele>52.05</ele>
        <time>2016-11-19T07:52:00Z</time>
      </trkpt>
      <trkpt lat="44.15615" lon="4.66613">
        <ele>52.05</ele>
        <time>2016-11-19T07:52:01Z</time>
      </trkpt>
      <trkpt lat="44.15619" lon="4.66614">
        <ele>52.05</ele>
        <time>2016-11-19T07:52:02Z</time>
      </trkpt>
      <trkpt lat="44.1568" lon="4.66633">
        <ele>53.49</ele>
        <time>2016-11-19T07:52:20Z</time>
      </trkpt>
      <trkpt lat="44.15752" lon="4.66658">
        <ele>55.89</ele>
        <time>2016-11-19T07:52:41Z</time>
      </trkpt>
      <trkpt lat="44.15811" lon="4.66677">
        <ele>57.82</ele>
        <time>2016-11-19T07:52:58Z</time>
      </trkpt>
      <trkpt lat="44.1586" lon="4.66687">
        <ele>59.26</ele>
        <time>2016-11-19T07:53:13Z</time>
      </trkpt>
      <trkpt lat="44.15883" lon="4.66655">
        <ele>59.26</ele>
        <time>2016-11-19T07:53:23Z</time>
      </trkpt>
      <trkpt lat="44.15914" lon="4.66641">
        <ele>60.7</ele>
        <time>2016-11-19T07:53:34Z</time>
      </trkpt>
      <trkpt lat="44.1595" lon="4.66647">
        <ele>62.14</ele>
        <time>2016-11-19T07:53:46Z</time>
      </trkpt>
      <trkpt lat="44.15977" lon="4.66668">
        <ele>63.58</ele>
        <time>2016-11-19T07:53:58Z</time>
      </trkpt>
      <trkpt lat="44.16012" lon="4.66671">
        <ele>66.47</ele>
        <time>2016-11-19T07:54:09Z</time>
      </trkpt>
      <trkpt lat="44.16017" lon="4.66634">
        <ele>68.87</ele>
        <time>2016-11-19T07:54:18Z</time>
      </trkpt>
      <trkpt lat="44.16022" lon="4.66611">
        <ele>70.31</ele>
        <time>2016-11-19T07:54:23Z</time>
      </trkpt>
      <trkpt lat="44.16015" lon="4.66602">
        <ele>71.27</ele>
        <time>2016-11-19T07:54:30Z</time>
      </trkpt>
      <trkpt lat="44.16019" lon="4.66598">
        <ele>71.76</ele>
        <time>2016-11-19T07:54:35Z</time>
      </trkpt>
      <trkpt lat="44.16017" lon="4.66593">
        <ele>71.76</ele>
        <time>2016-11-19T07:54:39Z</time>
      </trkpt>
      <trkpt lat="44.16019" lon="4.66577">
        <ele>71.76</ele>
        <time>2016-11-19T07:54:45Z</time>
      </trkpt>
      <trkpt lat="44.16023" lon="4.66558">
        <ele>73.2</ele>
        <time>2016-11-19T07:54:50Z</time>
      </trkpt>
      <trkpt lat="44.16031" lon="4.66537">
        <ele>75.12</ele>
        <time>2016-11-19T07:54:57Z</time>
      </trkpt>
      <trkpt lat="44.16043" lon="4.665">
        <ele>75.6</ele>
        <time>2016-11-19T07:55:08Z</time>
      </trkpt>
      <trkpt lat="44.16045" lon="4.66481">
        <ele>75.6</ele>
        <time>2016-11-19T07:55:15Z</time>
      </trkpt>
      <trkpt lat="44.16048" lon="4.66479">
        <ele>75.6</ele>
        <time>2016-11-19T07:55:16Z</time>
      </trkpt>
      <trkpt lat="44.16051" lon="4.66477">
        <ele>75.6</ele>
        <time>2016-11-19T07:55:17Z</time>
      </trkpt>
      <trkpt lat="44.16053" lon="4.66474">
        <ele>76.56</ele>
        <time>2016-11-19T07:55:18Z</time>
      </trkpt>
      <trkpt lat="44.16054" lon="4.66472">
        <ele>77.52</ele>
        <time>2016-11-19T07:55:19Z</time>
      </trkpt>
      <trkpt lat="44.16055" lon="4.66469">
        <ele>78</ele>
        <time>2016-11-19T07:55:20Z</time>
      </trkpt>
      <trkpt lat="44.16065" lon="4.66443">
        <ele>78.97</ele>
        <time>2016-11-19T07:55:30Z</time>
      </trkpt>
      <trkpt lat="44.16064" lon="4.66441">
        <ele>78.97</ele>
        <time>2016-11-19T07:55:31Z</time>
      </trkpt>
      <trkpt lat="44.16062" lon="4.66441">
        <ele>77.52</ele>
        <time>2016-11-19T07:55:32Z</time>
      </trkpt>
      <trkpt lat="44.1606" lon="4.66441">
        <ele>77.52</ele>
        <time>2016-11-19T07:55:33Z</time>
      </trkpt>
      <trkpt lat="44.16058" lon="4.6644">
        <ele>77.52</ele>
        <time>2016-11-19T07:55:34Z</time>
      </trkpt>
      <trkpt lat="44.16057" lon="4.66438">
        <ele>77.52</ele>
        <time>2016-11-19T07:55:35Z</time>
      </trkpt>
      <trkpt lat="44.16057" lon="4.66436">
        <ele>77.52</ele>
        <time>2016-11-19T07:55:36Z</time>
      </trkpt>
      <trkpt lat="44.16057" lon="4.66434">
        <ele>78.97</ele>
        <time>2016-11-19T07:55:37Z</time>
      </trkpt>
      <trkpt lat="44.16058" lon="4.66433">
        <ele>78.97</ele>
        <time>2016-11-19T07:55:38Z</time>
      </trkpt>
      <trkpt lat="44.16059" lon="4.66432">
        <ele>78.97</ele>
        <time>2016-11-19T07:55:39Z</time>
      </trkpt>
      <trkpt lat="44.1606" lon="4.6643">
        <ele>78.97</ele>
        <time>2016-11-19T07:55:40Z</time>
      </trkpt>
      <trkpt lat="44.16061" lon="4.66429">
        <ele>79.45</ele>
        <time>2016-11-19T07:55:41Z</time>
      </trkpt>
      <trkpt lat="44.16062" lon="4.66428">
        <ele>79.45</ele>
        <time>2016-11-19T07:55:42Z</time>
      </trkpt>
      <trkpt lat="44.16064" lon="4.66427">
        <ele>79.45</ele>
        <time>2016-11-19T07:55:43Z</time>
      </trkpt>
      <trkpt lat="44.16066" lon="4.66426">
        <ele>79.45</ele>
        <time>2016-11-19T07:55:44Z</time>
      </trkpt>
      <trkpt lat="44.16068" lon="4.66425">
        <ele>80.89</ele>
        <time>2016-11-19T07:55:45Z</time>
      </trkpt>
      <trkpt lat="44.1607" lon="4.66424">
        <ele>80.89</ele>
        <time>2016-11-19T07:55:46Z</time>
      </trkpt>
      <trkpt lat="44.16072" lon="4.66424">
        <ele>80.89</ele>
        <time>2016-11-19T07:55:47Z</time>
      </trkpt>
      <trkpt lat="44.16091" lon="4.66404">
        <ele>81.37</ele>
        <time>2016-11-19T07:55:57Z</time>
      </trkpt>
      <trkpt lat="44.16104" lon="4.66396">
        <ele>81.37</ele>
        <time>2016-11-19T07:56:05Z</time>
      </trkpt>
      <trkpt lat="44.16106" lon="4.66397">
        <ele>82.33</ele>
        <time>2016-11-19T07:56:07Z</time>
      </trkpt>
      <trkpt lat="44.16106" lon="4.66403">
        <ele>83.29</ele>
        <time>2016-11-19T07:56:10Z</time>
      </trkpt>
      <trkpt lat="44.16096" lon="4.66423">
        <ele>84.25</ele>
        <time>2016-11-19T07:56:18Z</time>
      </trkpt>
      <trkpt lat="44.16095" lon="4.66426">
        <ele>84.25</ele>
        <time>2016-11-19T07:56:19Z</time>
      </trkpt>
      <trkpt lat="44.16095" lon="4.66429">
        <ele>84.73</ele>
        <time>2016-11-19T07:56:20Z</time>
      </trkpt>
      <trkpt lat="44.16095" lon="4.66432">
        <ele>84.73</ele>
        <time>2016-11-19T07:56:21Z</time>
      </trkpt>
      <trkpt lat="44.16096" lon="4.66435">
        <ele>84.73</ele>
        <time>2016-11-19T07:56:22Z</time>
      </trkpt>
      <trkpt lat="44.16089" lon="4.66472">
        <ele>87.62</ele>
        <time>2016-11-19T07:56:35Z</time>
      </trkpt>
      <trkpt lat="44.16083" lon="4.66501">
        <ele>90.98</ele>
        <time>2016-11-19T07:56:46Z</time>
      </trkpt>
      <trkpt lat="44.1607" lon="4.66537">
        <ele>93.87</ele>
        <time>2016-11-19T07:57:00Z</time>
      </trkpt>
      <trkpt lat="44.16064" lon="4.66589">
        <ele>95.79</ele>
        <time>2016-11-19T07:57:16Z</time>
      </trkpt>
      <trkpt lat="44.16074" lon="4.66626">
        <ele>96.27</ele>
        <time>2016-11-19T07:57:28Z</time>
      </trkpt>
      <trkpt lat="44.16102" lon="4.66633">
        <ele>96.27</ele>
        <time>2016-11-19T07:57:39Z</time>
      </trkpt>
      <trkpt lat="44.16116" lon="4.66635">
        <ele>94.83</ele>
        <time>2016-11-19T07:57:45Z</time>
      </trkpt>
      <trkpt lat="44.16146" lon="4.66643">
        <ele>94.83</ele>
        <time>2016-11-19T07:58:00Z</time>
      </trkpt>
      <trkpt lat="44.16164" lon="4.66655">
        <ele>94.83</ele>
        <time>2016-11-19T07:58:11Z</time>
      </trkpt>
      <trkpt lat="44.16181" lon="4.66667">
        <ele>94.35</ele>
        <time>2016-11-19T07:58:21Z</time>
      </trkpt>
      <trkpt lat="44.16213" lon="4.66685">
        <ele>95.31</ele>
        <time>2016-11-19T07:58:34Z</time>
      </trkpt>
      <trkpt lat="44.16214" lon="4.66686">
        <ele>95.79</ele>
        <time>2016-11-19T07:58:35Z</time>
      </trkpt>
      <trkpt lat="44.16234" lon="4.66701">
        <ele>98.19</ele>
        <time>2016-11-19T07:58:46Z</time>
      </trkpt>
      <trkpt lat="44.1624" lon="4.66703">
        <ele>98.19</ele>
        <time>2016-11-19T07:58:49Z</time>
      </trkpt>
      <trkpt lat="44.16241" lon="4.66703">
        <ele>98.67</ele>
        <time>2016-11-19T07:58:50Z</time>
      </trkpt>
      <trkpt lat="44.16242" lon="4.66701">
        <ele>98.67</ele>
        <time>2016-11-19T07:58:51Z</time>
      </trkpt>
      <trkpt lat="44.16242" lon="4.66698">
        <ele>99.15</ele>
        <time>2016-11-19T07:58:52Z</time>
      </trkpt>
      <trkpt lat="44.16242" lon="4.66695">
        <ele>99.15</ele>
        <time>2016-11-19T07:58:53Z</time>
      </trkpt>
      <trkpt lat="44.16242" lon="4.66693">
        <ele>99.15</ele>
        <time>2016-11-19T07:58:54Z</time>
      </trkpt>
      <trkpt lat="44.16242" lon="4.66691">
        <ele>99.63</ele>
        <time>2016-11-19T07:58:55Z</time>
      </trkpt>
      <trkpt lat="44.16242" lon="4.6669">
        <ele>99.63</ele>
        <time>2016-11-19T07:58:56Z</time>
      </trkpt>
      <trkpt lat="44.16242" lon="4.66688">
        <ele>100.11</ele>
        <time>2016-11-19T07:58:57Z</time>
      </trkpt>
      <trkpt lat="44.16235" lon="4.66654">
        <ele>101.56</ele>
        <time>2016-11-19T07:59:11Z</time>
      </trkpt>
      <trkpt lat="44.16226" lon="4.66625">
        <ele>103.48</ele>
        <time>2016-11-19T07:59:22Z</time>
      </trkpt>
      <trkpt lat="44.16226" lon="4.66622">
        <ele>103.48</ele>
        <time>2016-11-19T07:59:23Z</time>
      </trkpt>
      <trkpt lat="44.16226" lon="4.66619">
        <ele>103.96</ele>
        <time>2016-11-19T07:59:24Z</time>
      </trkpt>
      <trkpt lat="44.16226" lon="4.66616">
        <ele>103.96</ele>
        <time>2016-11-19T07:59:25Z</time>
      </trkpt>
      <trkpt lat="44.16226" lon="4.66613">
        <ele>104.44</ele>
        <time>2016-11-19T07:59:26Z</time>
      </trkpt>
      <trkpt lat="44.1622" lon="4.66593">
        <ele>105.4</ele>
        <time>2016-11-19T07:59:37Z</time>
      </trkpt>
      <trkpt lat="44.1622" lon="4.66591">
        <ele>105.88</ele>
        <time>2016-11-19T07:59:38Z</time>
      </trkpt>
      <trkpt lat="44.1622" lon="4.66574">
        <ele>106.84</ele>
        <time>2016-11-19T07:59:47Z</time>
      </trkpt>
      <trkpt lat="44.16224" lon="4.66543">
        <ele>108.29</ele>
        <time>2016-11-19T07:59:57Z</time>
      </trkpt>
      <trkpt lat="44.16246" lon="4.66525">
        <ele>110.21</ele>
        <time>2016-11-19T08:00:08Z</time>
      </trkpt>
      <trkpt lat="44.16279" lon="4.6653">
        <ele>110.21</ele>
        <time>2016-11-19T08:00:21Z</time>
      </trkpt>
      <trkpt lat="44.16325" lon="4.66545">
        <ele>108.29</ele>
        <time>2016-11-19T08:00:37Z</time>
      </trkpt>
      <trkpt lat="44.16331" lon="4.66543">
        <ele>109.73</ele>
        <time>2016-11-19T08:00:40Z</time>
      </trkpt>
      <trkpt lat="44.16338" lon="4.66521">
        <ele>110.21</ele>
        <time>2016-11-19T08:00:53Z</time>
      </trkpt>
      <trkpt lat="44.16345" lon="4.66507">
        <ele>108.29</ele>
        <time>2016-11-19T08:00:58Z</time>
      </trkpt>
      <trkpt lat="44.16352" lon="4.665">
        <ele>107.81</ele>
        <time>2016-11-19T08:01:03Z</time>
      </trkpt>
      <trkpt lat="44.16352" lon="4.66513">
        <ele>109.73</ele>
        <time>2016-11-19T08:01:12Z</time>
      </trkpt>
      <trkpt lat="44.16352" lon="4.66516">
        <ele>110.21</ele>
        <time>2016-11-19T08:01:13Z</time>
      </trkpt>
      <trkpt lat="44.16349" lon="4.66547">
        <ele>112.13</ele>
        <time>2016-11-19T08:01:26Z</time>
      </trkpt>
      <trkpt lat="44.16352" lon="4.66558">
        <ele>113.09</ele>
        <time>2016-11-19T08:01:31Z</time>
      </trkpt>
      <trkpt lat="44.1636" lon="4.66552">
        <ele>115.01</ele>
        <time>2016-11-19T08:01:37Z</time>
      </trkpt>
      <trkpt lat="44.16364" lon="4.66539">
        <ele>115.01</ele>
        <time>2016-11-19T08:01:42Z</time>
      </trkpt>
      <trkpt lat="44.16382" lon="4.66524">
        <ele>115.5</ele>
        <time>2016-11-19T08:01:55Z</time>
      </trkpt>
      <trkpt lat="44.16387" lon="4.66527">
        <ele>115.98</ele>
        <time>2016-11-19T08:02:10Z</time>
      </trkpt>
      <trkpt lat="44.16388" lon="4.66526">
        <ele>115.98</ele>
        <time>2016-11-19T08:02:18Z</time>
      </trkpt>
      <trkpt lat="44.16392" lon="4.66541">
        <ele>117.9</ele>
        <time>2016-11-19T08:02:25Z</time>
      </trkpt>
      <trkpt lat="44.16392" lon="4.66549">
        <ele>119.82</ele>
        <time>2016-11-19T08:02:37Z</time>
      </trkpt>
      <trkpt lat="44.16394" lon="4.66545">
        <ele>119.82</ele>
        <time>2016-11-19T08:02:41Z</time>
      </trkpt>
      <trkpt lat="44.16399" lon="4.66545">
        <ele>120.3</ele>
        <time>2016-11-19T08:02:44Z</time>
      </trkpt>
      <trkpt lat="44.16413" lon="4.66539">
        <ele>120.78</ele>
        <time>2016-11-19T08:02:52Z</time>
      </trkpt>
      <trkpt lat="44.16423" lon="4.66539">
        <ele>120.78</ele>
        <time>2016-11-19T08:02:57Z</time>
      </trkpt>
      <trkpt lat="44.16438" lon="4.66544">
        <ele>120.78</ele>
        <time>2016-11-19T08:03:06Z</time>
      </trkpt>
      <trkpt lat="44.16439" lon="4.66548">
        <ele>120.78</ele>
        <time>2016-11-19T08:03:09Z</time>
      </trkpt>
      <trkpt lat="44.16434" lon="4.66574">
        <ele>122.71</ele>
        <time>2016-11-19T08:03:20Z</time>
      </trkpt>
      <trkpt lat="44.16431" lon="4.6659">
        <ele>124.63</ele>
        <time>2016-11-19T08:03:27Z</time>
      </trkpt>
      <trkpt lat="44.16425" lon="4.666">
        <ele>126.07</ele>
        <time>2016-11-19T08:03:33Z</time>
      </trkpt>
      <trkpt lat="44.16424" lon="4.66606">
        <ele>127.03</ele>
        <time>2016-11-19T08:03:36Z</time>
      </trkpt>
      <trkpt lat="44.16413" lon="4.66626">
        <ele>128.95</ele>
        <time>2016-11-19T08:03:48Z</time>
      </trkpt>
      <trkpt lat="44.16413" lon="4.66628">
        <ele>128.95</ele>
        <time>2016-11-19T08:03:49Z</time>
      </trkpt>
      <trkpt lat="44.16412" lon="4.6665">
        <ele>130.4</ele>
        <time>2016-11-19T08:03:58Z</time>
      </trkpt>
      <trkpt lat="44.16411" lon="4.66682">
        <ele>130.88</ele>
        <time>2016-11-19T08:04:11Z</time>
      </trkpt>
      <trkpt lat="44.16411" lon="4.66723">
        <ele>131.84</ele>
        <time>2016-11-19T08:04:25Z</time>
      </trkpt>
      <trkpt lat="44.16413" lon="4.66758">
        <ele>131.84</ele>
        <time>2016-11-19T08:04:34Z</time>
      </trkpt>
      <trkpt lat="44.16409" lon="4.66797">
        <ele>130.4</ele>
        <time>2016-11-19T08:04:45Z</time>
      </trkpt>
      <trkpt lat="44.16415" lon="4.6683">
        <ele>128.95</ele>
        <time>2016-11-19T08:04:51Z</time>
      </trkpt>
      <trkpt lat="44.1642" lon="4.6684">
        <ele>128.95</ele>
        <time>2016-11-19T08:05:03Z</time>
      </trkpt>
      <trkpt lat="44.16429" lon="4.66859">
        <ele>127.99</ele>
        <time>2016-11-19T08:05:16Z</time>
      </trkpt>
      <trkpt lat="44.16428" lon="4.66898">
        <ele>125.11</ele>
        <time>2016-11-19T08:05:25Z</time>
      </trkpt>
      <trkpt lat="44.16429" lon="4.66902">
        <ele>125.11</ele>
        <time>2016-11-19T08:05:27Z</time>
      </trkpt>
      <trkpt lat="44.16424" lon="4.6691">
        <ele>123.67</ele>
        <time>2016-11-19T08:05:31Z</time>
      </trkpt>
      <trkpt lat="44.16416" lon="4.66925">
        <ele>119.34</ele>
        <time>2016-11-19T08:05:37Z</time>
      </trkpt>
      <trkpt lat="44.16403" lon="4.66933">
        <ele>115.98</ele>
        <time>2016-11-19T08:05:42Z</time>
      </trkpt>
      <trkpt lat="44.16399" lon="4.66937">
        <ele>115.5</ele>
        <time>2016-11-19T08:05:43Z</time>
      </trkpt>
      <trkpt lat="44.16393" lon="4.66955">
        <ele>113.57</ele>
        <time>2016-11-19T08:05:47Z</time>
      </trkpt>
      <trkpt lat="44.16382" lon="4.66965">
        <ele>112.13</ele>
        <time>2016-11-19T08:05:52Z</time>
      </trkpt>
      <trkpt lat="44.16374" lon="4.66971">
        <ele>110.69</ele>
        <time>2016-11-19T08:05:54Z</time>
      </trkpt>
      <trkpt lat="44.1636" lon="4.66986">
        <ele>109.73</ele>
        <time>2016-11-19T08:05:58Z</time>
      </trkpt>
      <trkpt lat="44.16347" lon="4.66996">
        <ele>108.77</ele>
        <time>2016-11-19T08:06:02Z</time>
      </trkpt>
      <trkpt lat="44.16338" lon="4.67007">
        <ele>107.32</ele>
        <time>2016-11-19T08:06:05Z</time>
      </trkpt>
      <trkpt lat="44.1633" lon="4.67041">
        <ele>105.88</ele>
        <time>2016-11-19T08:06:12Z</time>
      </trkpt>
      <trkpt lat="44.16331" lon="4.67045">
        <ele>105.88</ele>
        <time>2016-11-19T08:06:13Z</time>
      </trkpt>
      <trkpt lat="44.16333" lon="4.67049">
        <ele>105.88</ele>
        <time>2016-11-19T08:06:14Z</time>
      </trkpt>
      <trkpt lat="44.16334" lon="4.67053">
        <ele>105.88</ele>
        <time>2016-11-19T08:06:15Z</time>
      </trkpt>
      <trkpt lat="44.16335" lon="4.67056">
        <ele>105.88</ele>
        <time>2016-11-19T08:06:16Z</time>
      </trkpt>
      <trkpt lat="44.16336" lon="4.67059">
        <ele>105.88</ele>
        <time>2016-11-19T08:06:17Z</time>
      </trkpt>
      <trkpt lat="44.16336" lon="4.67061">
        <ele>105.88</ele>
        <time>2016-11-19T08:06:18Z</time>
      </trkpt>
      <trkpt lat="44.16321" lon="4.67061">
        <ele>103</ele>
        <time>2016-11-19T08:06:24Z</time>
      </trkpt>
      <trkpt lat="44.16317" lon="4.67059">
        <ele>102.52</ele>
        <time>2016-11-19T08:06:25Z</time>
      </trkpt>
      <trkpt lat="44.16312" lon="4.67058">
        <ele>102.04</ele>
        <time>2016-11-19T08:06:26Z</time>
      </trkpt>
      <trkpt lat="44.16309" lon="4.6706">
        <ele>101.56</ele>
        <time>2016-11-19T08:06:27Z</time>
      </trkpt>
      <trkpt lat="44.16306" lon="4.67064">
        <ele>101.08</ele>
        <time>2016-11-19T08:06:28Z</time>
      </trkpt>
      <trkpt lat="44.16302" lon="4.67076">
        <ele>100.11</ele>
        <time>2016-11-19T08:06:30Z</time>
      </trkpt>
      <trkpt lat="44.16299" lon="4.6708">
        <ele>100.11</ele>
        <time>2016-11-19T08:06:31Z</time>
      </trkpt>
      <trkpt lat="44.16295" lon="4.67082">
        <ele>100.11</ele>
        <time>2016-11-19T08:06:32Z</time>
      </trkpt>
      <trkpt lat="44.16292" lon="4.67082">
        <ele>101.56</ele>
        <time>2016-11-19T08:06:33Z</time>
      </trkpt>
      <trkpt lat="44.16289" lon="4.67081">
        <ele>101.56</ele>
        <time>2016-11-19T08:06:34Z</time>
      </trkpt>
      <trkpt lat="44.16287" lon="4.67079">
        <ele>101.56</ele>
        <time>2016-11-19T08:06:35Z</time>
      </trkpt>
      <trkpt lat="44.16277" lon="4.67075">
        <ele>102.52</ele>
        <time>2016-11-19T08:06:41Z</time>
      </trkpt>
      <trkpt lat="44.16274" lon="4.67082">
        <ele>103.96</ele>
        <time>2016-11-19T08:06:46Z</time>
      </trkpt>
      <trkpt lat="44.16278" lon="4.67096">
        <ele>105.88</ele>
        <time>2016-11-19T08:06:53Z</time>
      </trkpt>
      <trkpt lat="44.16291" lon="4.67124">
        <ele>107.81</ele>
        <time>2016-11-19T08:07:05Z</time>
      </trkpt>
      <trkpt lat="44.16293" lon="4.67127">
        <ele>107.81</ele>
        <time>2016-11-19T08:07:06Z</time>
      </trkpt>
      <trkpt lat="44.16293" lon="4.6713">
        <ele>107.81</ele>
        <time>2016-11-19T08:07:07Z</time>
      </trkpt>
      <trkpt lat="44.16293" lon="4.67133">
        <ele>107.81</ele>
        <time>2016-11-19T08:07:08Z</time>
      </trkpt>
      <trkpt lat="44.16293" lon="4.67135">
        <ele>107.81</ele>
        <time>2016-11-19T08:07:09Z</time>
      </trkpt>
      <trkpt lat="44.16294" lon="4.67138">
        <ele>107.81</ele>
        <time>2016-11-19T08:07:10Z</time>
      </trkpt>
      <trkpt lat="44.16294" lon="4.67141">
        <ele>107.81</ele>
        <time>2016-11-19T08:07:11Z</time>
      </trkpt>
      <trkpt lat="44.16294" lon="4.67143">
        <ele>107.81</ele>
        <time>2016-11-19T08:07:12Z</time>
      </trkpt>
      <trkpt lat="44.16293" lon="4.67145">
        <ele>107.81</ele>
        <time>2016-11-19T08:07:13Z</time>
      </trkpt>
      <trkpt lat="44.16292" lon="4.67147">
        <ele>107.81</ele>
        <time>2016-11-19T08:07:14Z</time>
      </trkpt>
      <trkpt lat="44.16292" lon="4.6715">
        <ele>107.81</ele>
        <time>2016-11-19T08:07:15Z</time>
      </trkpt>
      <trkpt lat="44.16292" lon="4.67158">
        <ele>108.77</ele>
        <time>2016-11-19T08:07:18Z</time>
      </trkpt>
      <trkpt lat="44.16293" lon="4.67168">
        <ele>108.77</ele>
        <time>2016-11-19T08:07:21Z</time>
      </trkpt>
      <trkpt lat="44.16292" lon="4.67172">
        <ele>108.77</ele>
        <time>2016-11-19T08:07:22Z</time>
      </trkpt>
      <trkpt lat="44.16292" lon="4.67175">
        <ele>109.25</ele>
        <time>2016-11-19T08:07:23Z</time>
      </trkpt>
      <trkpt lat="44.16292" lon="4.67177">
        <ele>109.25</ele>
        <time>2016-11-19T08:07:24Z</time>
      </trkpt>
      <trkpt lat="44.16292" lon="4.6718">
        <ele>109.73</ele>
        <time>2016-11-19T08:07:25Z</time>
      </trkpt>
      <trkpt lat="44.16291" lon="4.67183">
        <ele>109.73</ele>
        <time>2016-11-19T08:07:26Z</time>
      </trkpt>
      <trkpt lat="44.16284" lon="4.67198">
        <ele>110.69</ele>
        <time>2016-11-19T08:07:32Z</time>
      </trkpt>
      <trkpt lat="44.1628" lon="4.67231">
        <ele>112.61</ele>
        <time>2016-11-19T08:07:45Z</time>
      </trkpt>
      <trkpt lat="44.16271" lon="4.67257">
        <ele>114.53</ele>
        <time>2016-11-19T08:07:57Z</time>
      </trkpt>
      <trkpt lat="44.1627" lon="4.6726">
        <ele>114.53</ele>
        <time>2016-11-19T08:07:58Z</time>
      </trkpt>
      <trkpt lat="44.16269" lon="4.6727">
        <ele>115.5</ele>
        <time>2016-11-19T08:08:03Z</time>
      </trkpt>
      <trkpt lat="44.16263" lon="4.67293">
        <ele>117.9</ele>
        <time>2016-11-19T08:08:15Z</time>
      </trkpt>
      <trkpt lat="44.16254" lon="4.67312">
        <ele>120.78</ele>
        <time>2016-11-19T08:08:29Z</time>
      </trkpt>
      <trkpt lat="44.16245" lon="4.67353">
        <ele>123.19</ele>
        <time>2016-11-19T08:08:40Z</time>
      </trkpt>
      <trkpt lat="44.16244" lon="4.67375">
        <ele>123.19</ele>
        <time>2016-11-19T08:08:44Z</time>
      </trkpt>
      <trkpt lat="44.16243" lon="4.67381">
        <ele>123.19</ele>
        <time>2016-11-19T08:08:45Z</time>
      </trkpt>
      <trkpt lat="44.16226" lon="4.67428">
        <ele>123.19</ele>
        <time>2016-11-19T08:08:55Z</time>
      </trkpt>
      <trkpt lat="44.16222" lon="4.67447">
        <ele>121.74</ele>
        <time>2016-11-19T08:08:59Z</time>
      </trkpt>
      <trkpt lat="44.16221" lon="4.67453">
        <ele>120.3</ele>
        <time>2016-11-19T08:09:00Z</time>
      </trkpt>
      <trkpt lat="44.1622" lon="4.67458">
        <ele>119.34</ele>
        <time>2016-11-19T08:09:01Z</time>
      </trkpt>
      <trkpt lat="44.1622" lon="4.67462">
        <ele>119.34</ele>
        <time>2016-11-19T08:09:02Z</time>
      </trkpt>
      <trkpt lat="44.16221" lon="4.67467">
        <ele>118.86</ele>
        <time>2016-11-19T08:09:03Z</time>
      </trkpt>
      <trkpt lat="44.16223" lon="4.67472">
        <ele>118.86</ele>
        <time>2016-11-19T08:09:04Z</time>
      </trkpt>
      <trkpt lat="44.16225" lon="4.67477">
        <ele>118.86</ele>
        <time>2016-11-19T08:09:05Z</time>
      </trkpt>
      <trkpt lat="44.16226" lon="4.67482">
        <ele>118.86</ele>
        <time>2016-11-19T08:09:06Z</time>
      </trkpt>
      <trkpt lat="44.16226" lon="4.67487">
        <ele>118.86</ele>
        <time>2016-11-19T08:09:07Z</time>
      </trkpt>
      <trkpt lat="44.16225" lon="4.67492">
        <ele>118.86</ele>
        <time>2016-11-19T08:09:08Z</time>
      </trkpt>
      <trkpt lat="44.16223" lon="4.67508">
        <ele>120.3</ele>
        <time>2016-11-19T08:09:11Z</time>
      </trkpt>
      <trkpt lat="44.16219" lon="4.67534">
        <ele>123.67</ele>
        <time>2016-11-19T08:09:20Z</time>
      </trkpt>
      <trkpt lat="44.16209" lon="4.67561">
        <ele>124.63</ele>
        <time>2016-11-19T08:09:31Z</time>
      </trkpt>
      <trkpt lat="44.16198" lon="4.67587">
        <ele>126.55</ele>
        <time>2016-11-19T08:09:42Z</time>
      </trkpt>
      <trkpt lat="44.16196" lon="4.67589">
        <ele>126.55</ele>
        <time>2016-11-19T08:09:43Z</time>
      </trkpt>
      <trkpt lat="44.16193" lon="4.6759">
        <ele>127.03</ele>
        <time>2016-11-19T08:09:44Z</time>
      </trkpt>
      <trkpt lat="44.16192" lon="4.67593">
        <ele>127.03</ele>
        <time>2016-11-19T08:09:45Z</time>
      </trkpt>
      <trkpt lat="44.1619" lon="4.67596">
        <ele>127.03</ele>
        <time>2016-11-19T08:09:46Z</time>
      </trkpt>
      <trkpt lat="44.1619" lon="4.67598">
        <ele>127.03</ele>
        <time>2016-11-19T08:09:47Z</time>
      </trkpt>
      <trkpt lat="44.16189" lon="4.67601">
        <ele>127.51</ele>
        <time>2016-11-19T08:09:48Z</time>
      </trkpt>
      <trkpt lat="44.16189" lon="4.67603">
        <ele>127.51</ele>
        <time>2016-11-19T08:09:49Z</time>
      </trkpt>
      <trkpt lat="44.16189" lon="4.67605">
        <ele>127.99</ele>
        <time>2016-11-19T08:09:50Z</time>
      </trkpt>
      <trkpt lat="44.16189" lon="4.67608">
        <ele>127.99</ele>
        <time>2016-11-19T08:09:51Z</time>
      </trkpt>
      <trkpt lat="44.16189" lon="4.6761">
        <ele>128.47</ele>
        <time>2016-11-19T08:09:52Z</time>
      </trkpt>
      <trkpt lat="44.16189" lon="4.67611">
        <ele>128.47</ele>
        <time>2016-11-19T08:09:53Z</time>
      </trkpt>
      <trkpt lat="44.16187" lon="4.67615">
        <ele>128.47</ele>
        <time>2016-11-19T08:09:54Z</time>
      </trkpt>
      <trkpt lat="44.16186" lon="4.67617">
        <ele>129.43</ele>
        <time>2016-11-19T08:09:55Z</time>
      </trkpt>
      <trkpt lat="44.16183" lon="4.6762">
        <ele>129.43</ele>
        <time>2016-11-19T08:09:57Z</time>
      </trkpt>
      <trkpt lat="44.16182" lon="4.67623">
        <ele>129.43</ele>
        <time>2016-11-19T08:09:58Z</time>
      </trkpt>
      <trkpt lat="44.16178" lon="4.67643">
        <ele>130.88</ele>
        <time>2016-11-19T08:10:05Z</time>
      </trkpt>
      <trkpt lat="44.16164" lon="4.67659">
        <ele>131.84</ele>
        <time>2016-11-19T08:10:15Z</time>
      </trkpt>
      <trkpt lat="44.16149" lon="4.67692">
        <ele>133.28</ele>
        <time>2016-11-19T08:10:26Z</time>
      </trkpt>
      <trkpt lat="44.16148" lon="4.67694">
        <ele>133.28</ele>
        <time>2016-11-19T08:10:27Z</time>
      </trkpt>
      <trkpt lat="44.16146" lon="4.67696">
        <ele>133.28</ele>
        <time>2016-11-19T08:10:28Z</time>
      </trkpt>
      <trkpt lat="44.16145" lon="4.67699">
        <ele>133.28</ele>
        <time>2016-11-19T08:10:29Z</time>
      </trkpt>
      <trkpt lat="44.16144" lon="4.67701">
        <ele>133.76</ele>
        <time>2016-11-19T08:10:30Z</time>
      </trkpt>
      <trkpt lat="44.16143" lon="4.67703">
        <ele>133.76</ele>
        <time>2016-11-19T08:10:31Z</time>
      </trkpt>
      <trkpt lat="44.16142" lon="4.67706">
        <ele>133.76</ele>
        <time>2016-11-19T08:10:32Z</time>
      </trkpt>
      <trkpt lat="44.1614" lon="4.67708">
        <ele>133.76</ele>
        <time>2016-11-19T08:10:33Z</time>
      </trkpt>
      <trkpt lat="44.16138" lon="4.6771">
        <ele>133.76</ele>
        <time>2016-11-19T08:10:34Z</time>
      </trkpt>
      <trkpt lat="44.16136" lon="4.67711">
        <ele>134.24</ele>
        <time>2016-11-19T08:10:35Z</time>
      </trkpt>
      <trkpt lat="44.16135" lon="4.67714">
        <ele>134.24</ele>
        <time>2016-11-19T08:10:36Z</time>
      </trkpt>
      <trkpt lat="44.16133" lon="4.67715">
        <ele>134.24</ele>
        <time>2016-11-19T08:10:37Z</time>
      </trkpt>
      <trkpt lat="44.16131" lon="4.67717">
        <ele>134.24</ele>
        <time>2016-11-19T08:10:38Z</time>
      </trkpt>
      <trkpt lat="44.1613" lon="4.6772">
        <ele>134.24</ele>
        <time>2016-11-19T08:10:39Z</time>
      </trkpt>
      <trkpt lat="44.16131" lon="4.67723">
        <ele>135.2</ele>
        <time>2016-11-19T08:10:40Z</time>
      </trkpt>
      <trkpt lat="44.16131" lon="4.67726">
        <ele>135.2</ele>
        <time>2016-11-19T08:10:41Z</time>
      </trkpt>
      <trkpt lat="44.16131" lon="4.67729">
        <ele>135.2</ele>
        <time>2016-11-19T08:10:42Z</time>
      </trkpt>
      <trkpt lat="44.1613" lon="4.67732">
        <ele>135.2</ele>
        <time>2016-11-19T08:10:43Z</time>
      </trkpt>
      <trkpt lat="44.16129" lon="4.67735">
        <ele>135.68</ele>
        <time>2016-11-19T08:10:44Z</time>
      </trkpt>
      <trkpt lat="44.16128" lon="4.67738">
        <ele>135.68</ele>
        <time>2016-11-19T08:10:45Z</time>
      </trkpt>
      <trkpt lat="44.16126" lon="4.67742">
        <ele>135.68</ele>
        <time>2016-11-19T08:10:46Z</time>
      </trkpt>
      <trkpt lat="44.16125" lon="4.67745">
        <ele>135.68</ele>
        <time>2016-11-19T08:10:47Z</time>
      </trkpt>
      <trkpt lat="44.16125" lon="4.67748">
        <ele>135.68</ele>
        <time>2016-11-19T08:10:48Z</time>
      </trkpt>
      <trkpt lat="44.16124" lon="4.67751">
        <ele>136.16</ele>
        <time>2016-11-19T08:10:49Z</time>
      </trkpt>
      <trkpt lat="44.16123" lon="4.67755">
        <ele>136.16</ele>
        <time>2016-11-19T08:10:50Z</time>
      </trkpt>
      <trkpt lat="44.16122" lon="4.67758">
        <ele>136.16</ele>
        <time>2016-11-19T08:10:51Z</time>
      </trkpt>
      <trkpt lat="44.16121" lon="4.67761">
        <ele>136.64</ele>
        <time>2016-11-19T08:10:52Z</time>
      </trkpt>
      <trkpt lat="44.1612" lon="4.67764">
        <ele>136.64</ele>
        <time>2016-11-19T08:10:53Z</time>
      </trkpt>
      <trkpt lat="44.16119" lon="4.67766">
        <ele>136.64</ele>
        <time>2016-11-19T08:10:54Z</time>
      </trkpt>
      <trkpt lat="44.16117" lon="4.67768">
        <ele>136.64</ele>
        <time>2016-11-19T08:10:55Z</time>
      </trkpt>
      <trkpt lat="44.16116" lon="4.67771">
        <ele>136.64</ele>
        <time>2016-11-19T08:10:56Z</time>
      </trkpt>
      <trkpt lat="44.16114" lon="4.67773">
        <ele>136.64</ele>
        <time>2016-11-19T08:10:57Z</time>
      </trkpt>
      <trkpt lat="44.16113" lon="4.67777">
        <ele>136.64</ele>
        <time>2016-11-19T08:10:58Z</time>
      </trkpt>
      <trkpt lat="44.16112" lon="4.67779">
        <ele>136.64</ele>
        <time>2016-11-19T08:10:59Z</time>
      </trkpt>
      <trkpt lat="44.16112" lon="4.67782">
        <ele>137.13</ele>
        <time>2016-11-19T08:11:00Z</time>
      </trkpt>
      <trkpt lat="44.16112" lon="4.67785">
        <ele>137.13</ele>
        <time>2016-11-19T08:11:01Z</time>
      </trkpt>
      <trkpt lat="44.16114" lon="4.6779">
        <ele>138.09</ele>
        <time>2016-11-19T08:11:04Z</time>
      </trkpt>
      <trkpt lat="44.16115" lon="4.67792">
        <ele>138.09</ele>
        <time>2016-11-19T08:11:05Z</time>
      </trkpt>
      <trkpt lat="44.16128" lon="4.67814">
        <ele>140.97</ele>
        <time>2016-11-19T08:11:14Z</time>
      </trkpt>
      <trkpt lat="44.1614" lon="4.67833">
        <ele>143.37</ele>
        <time>2016-11-19T08:11:22Z</time>
      </trkpt>
      <trkpt lat="44.16141" lon="4.67847">
        <ele>144.34</ele>
        <time>2016-11-19T08:11:27Z</time>
      </trkpt>
      <trkpt lat="44.1614" lon="4.67859">
        <ele>144.82</ele>
        <time>2016-11-19T08:11:32Z</time>
      </trkpt>
      <trkpt lat="44.16142" lon="4.67878">
        <ele>144.82</ele>
        <time>2016-11-19T08:11:39Z</time>
      </trkpt>
      <trkpt lat="44.16141" lon="4.67882">
        <ele>144.82</ele>
        <time>2016-11-19T08:11:40Z</time>
      </trkpt>
      <trkpt lat="44.16141" lon="4.67886">
        <ele>145.3</ele>
        <time>2016-11-19T08:11:41Z</time>
      </trkpt>
      <trkpt lat="44.1614" lon="4.67889">
        <ele>145.3</ele>
        <time>2016-11-19T08:11:42Z</time>
      </trkpt>
      <trkpt lat="44.16141" lon="4.67894">
        <ele>145.3</ele>
        <time>2016-11-19T08:11:43Z</time>
      </trkpt>
      <trkpt lat="44.16143" lon="4.67897">
        <ele>145.3</ele>
        <time>2016-11-19T08:11:44Z</time>
      </trkpt>
      <trkpt lat="44.16144" lon="4.67899">
        <ele>145.3</ele>
        <time>2016-11-19T08:11:45Z</time>
      </trkpt>
      <trkpt lat="44.16157" lon="4.67912">
        <ele>147.7</ele>
        <time>2016-11-19T08:11:54Z</time>
      </trkpt>
      <trkpt lat="44.16158" lon="4.67913">
        <ele>148.18</ele>
        <time>2016-11-19T08:11:55Z</time>
      </trkpt>
      <trkpt lat="44.16159" lon="4.67915">
        <ele>148.18</ele>
        <time>2016-11-19T08:11:56Z</time>
      </trkpt>
      <trkpt lat="44.16159" lon="4.67917">
        <ele>149.14</ele>
        <time>2016-11-19T08:11:57Z</time>
      </trkpt>
      <trkpt lat="44.16159" lon="4.67918">
        <ele>149.14</ele>
        <time>2016-11-19T08:11:58Z</time>
      </trkpt>
      <trkpt lat="44.1616" lon="4.6792">
        <ele>149.62</ele>
        <time>2016-11-19T08:11:59Z</time>
      </trkpt>
      <trkpt lat="44.1616" lon="4.67922">
        <ele>149.62</ele>
        <time>2016-11-19T08:12:00Z</time>
      </trkpt>
      <trkpt lat="44.1616" lon="4.67924">
        <ele>150.1</ele>
        <time>2016-11-19T08:12:01Z</time>
      </trkpt>
      <trkpt lat="44.16161" lon="4.67926">
        <ele>151.06</ele>
        <time>2016-11-19T08:12:02Z</time>
      </trkpt>
      <trkpt lat="44.16162" lon="4.67929">
        <ele>151.06</ele>
        <time>2016-11-19T08:12:03Z</time>
      </trkpt>
      <trkpt lat="44.16163" lon="4.67931">
        <ele>152.03</ele>
        <time>2016-11-19T08:12:04Z</time>
      </trkpt>
      <trkpt lat="44.16163" lon="4.67933">
        <ele>152.03</ele>
        <time>2016-11-19T08:12:05Z</time>
      </trkpt>
      <trkpt lat="44.16164" lon="4.67953">
        <ele>152.51</ele>
        <time>2016-11-19T08:12:14Z</time>
      </trkpt>
      <trkpt lat="44.16167" lon="4.67958">
        <ele>152.51</ele>
        <time>2016-11-19T08:12:15Z</time>
      </trkpt>
      <trkpt lat="44.1617" lon="4.67961">
        <ele>152.51</ele>
        <time>2016-11-19T08:12:16Z</time>
      </trkpt>
      <trkpt lat="44.16172" lon="4.67964">
        <ele>152.99</ele>
        <time>2016-11-19T08:12:17Z</time>
      </trkpt>
      <trkpt lat="44.16175" lon="4.67966">
        <ele>152.99</ele>
        <time>2016-11-19T08:12:18Z</time>
      </trkpt>
      <trkpt lat="44.1619" lon="4.67979">
        <ele>155.87</ele>
        <time>2016-11-19T08:12:29Z</time>
      </trkpt>
      <trkpt lat="44.16198" lon="4.67983">
        <ele>157.31</ele>
        <time>2016-11-19T08:12:37Z</time>
      </trkpt>
      <trkpt lat="44.16202" lon="4.6798">
        <ele>158.75</ele>
        <time>2016-11-19T08:12:40Z</time>
      </trkpt>
      <trkpt lat="44.16203" lon="4.67977">
        <ele>159.24</ele>
        <time>2016-11-19T08:12:42Z</time>
      </trkpt>
      <trkpt lat="44.16211" lon="4.67942">
        <ele>161.16</ele>
        <time>2016-11-19T08:12:56Z</time>
      </trkpt>
      <trkpt lat="44.16211" lon="4.6794">
        <ele>162.12</ele>
        <time>2016-11-19T08:12:58Z</time>
      </trkpt>
      <trkpt lat="44.16211" lon="4.67902">
        <ele>162.12</ele>
        <time>2016-11-19T08:13:09Z</time>
      </trkpt>
      <trkpt lat="44.16215" lon="4.67867">
        <ele>163.56</ele>
        <time>2016-11-19T08:13:20Z</time>
      </trkpt>
      <trkpt lat="44.16215" lon="4.67831">
        <ele>163.56</ele>
        <time>2016-11-19T08:13:29Z</time>
      </trkpt>
      <trkpt lat="44.16224" lon="4.67788">
        <ele>165</ele>
        <time>2016-11-19T08:13:42Z</time>
      </trkpt>
      <trkpt lat="44.16234" lon="4.67766">
        <ele>164.04</ele>
        <time>2016-11-19T08:13:48Z</time>
      </trkpt>
      <trkpt lat="44.16241" lon="4.67758">
        <ele>163.08</ele>
        <time>2016-11-19T08:13:50Z</time>
      </trkpt>
      <trkpt lat="44.16253" lon="4.67745">
        <ele>161.64</ele>
        <time>2016-11-19T08:13:55Z</time>
      </trkpt>
      <trkpt lat="44.16254" lon="4.67742">
        <ele>161.64</ele>
        <time>2016-11-19T08:13:56Z</time>
      </trkpt>
      <trkpt lat="44.16255" lon="4.67738">
        <ele>160.68</ele>
        <time>2016-11-19T08:13:57Z</time>
      </trkpt>
      <trkpt lat="44.16255" lon="4.67734">
        <ele>159.72</ele>
        <time>2016-11-19T08:13:58Z</time>
      </trkpt>
      <trkpt lat="44.16255" lon="4.6773">
        <ele>159.24</ele>
        <time>2016-11-19T08:13:59Z</time>
      </trkpt>
      <trkpt lat="44.16256" lon="4.67726">
        <ele>159.24</ele>
        <time>2016-11-19T08:14:00Z</time>
      </trkpt>
      <trkpt lat="44.16257" lon="4.67723">
        <ele>158.75</ele>
        <time>2016-11-19T08:14:01Z</time>
      </trkpt>
      <trkpt lat="44.16259" lon="4.6772">
        <ele>158.27</ele>
        <time>2016-11-19T08:14:02Z</time>
      </trkpt>
      <trkpt lat="44.16262" lon="4.67718">
        <ele>157.31</ele>
        <time>2016-11-19T08:14:03Z</time>
      </trkpt>
      <trkpt lat="44.16269" lon="4.67712">
        <ele>156.83</ele>
        <time>2016-11-19T08:14:05Z</time>
      </trkpt>
      <trkpt lat="44.16272" lon="4.67709">
        <ele>156.35</ele>
        <time>2016-11-19T08:14:06Z</time>
      </trkpt>
      <trkpt lat="44.1628" lon="4.67703">
        <ele>154.91</ele>
        <time>2016-11-19T08:14:08Z</time>
      </trkpt>
      <trkpt lat="44.16284" lon="4.67702">
        <ele>154.91</ele>
        <time>2016-11-19T08:14:09Z</time>
      </trkpt>
      <trkpt lat="44.16287" lon="4.67701">
        <ele>154.91</ele>
        <time>2016-11-19T08:14:10Z</time>
      </trkpt>
      <trkpt lat="44.16289" lon="4.67698">
        <ele>154.43</ele>
        <time>2016-11-19T08:14:11Z</time>
      </trkpt>
      <trkpt lat="44.16291" lon="4.67694">
        <ele>153.95</ele>
        <time>2016-11-19T08:14:12Z</time>
      </trkpt>
      <trkpt lat="44.16293" lon="4.67688">
        <ele>152.51</ele>
        <time>2016-11-19T08:14:13Z</time>
      </trkpt>
      <trkpt lat="44.16296" lon="4.67682">
        <ele>151.54</ele>
        <time>2016-11-19T08:14:14Z</time>
      </trkpt>
      <trkpt lat="44.16299" lon="4.67677">
        <ele>151.06</ele>
        <time>2016-11-19T08:14:15Z</time>
      </trkpt>
      <trkpt lat="44.16303" lon="4.67673">
        <ele>150.58</ele>
        <time>2016-11-19T08:14:16Z</time>
      </trkpt>
      <trkpt lat="44.16306" lon="4.67668">
        <ele>150.1</ele>
        <time>2016-11-19T08:14:17Z</time>
      </trkpt>
      <trkpt lat="44.16309" lon="4.67662">
        <ele>149.14</ele>
        <time>2016-11-19T08:14:18Z</time>
      </trkpt>
      <trkpt lat="44.16312" lon="4.67655">
        <ele>149.14</ele>
        <time>2016-11-19T08:14:19Z</time>
      </trkpt>
      <trkpt lat="44.16315" lon="4.67649">
        <ele>148.66</ele>
        <time>2016-11-19T08:14:20Z</time>
      </trkpt>
      <trkpt lat="44.16319" lon="4.67644">
        <ele>148.18</ele>
        <time>2016-11-19T08:14:21Z</time>
      </trkpt>
      <trkpt lat="44.16322" lon="4.67639">
        <ele>148.18</ele>
        <time>2016-11-19T08:14:22Z</time>
      </trkpt>
      <trkpt lat="44.16328" lon="4.6763">
        <ele>146.74</ele>
        <time>2016-11-19T08:14:24Z</time>
      </trkpt>
      <trkpt lat="44.16337" lon="4.67607">
        <ele>143.85</ele>
        <time>2016-11-19T08:14:29Z</time>
      </trkpt>
      <trkpt lat="44.1634" lon="4.67595">
        <ele>142.89</ele>
        <time>2016-11-19T08:14:31Z</time>
      </trkpt>
      <trkpt lat="44.1634" lon="4.67589">
        <ele>141.45</ele>
        <time>2016-11-19T08:14:32Z</time>
      </trkpt>
      <trkpt lat="44.16338" lon="4.67584">
        <ele>140.97</ele>
        <time>2016-11-19T08:14:33Z</time>
      </trkpt>
      <trkpt lat="44.16337" lon="4.67579">
        <ele>140.01</ele>
        <time>2016-11-19T08:14:34Z</time>
      </trkpt>
      <trkpt lat="44.16338" lon="4.67574">
        <ele>140.01</ele>
        <time>2016-11-19T08:14:35Z</time>
      </trkpt>
      <trkpt lat="44.16339" lon="4.67571">
        <ele>140.01</ele>
        <time>2016-11-19T08:14:36Z</time>
      </trkpt>
      <trkpt lat="44.16341" lon="4.67568">
        <ele>140.01</ele>
        <time>2016-11-19T08:14:37Z</time>
      </trkpt>
      <trkpt lat="44.16341" lon="4.67564">
        <ele>140.01</ele>
        <time>2016-11-19T08:14:38Z</time>
      </trkpt>
      <trkpt lat="44.1634" lon="4.6756">
        <ele>140.01</ele>
        <time>2016-11-19T08:14:39Z</time>
      </trkpt>
      <trkpt lat="44.1634" lon="4.67555">
        <ele>140.01</ele>
        <time>2016-11-19T08:14:40Z</time>
      </trkpt>
      <trkpt lat="44.1634" lon="4.67549">
        <ele>140.01</ele>
        <time>2016-11-19T08:14:41Z</time>
      </trkpt>
      <trkpt lat="44.16339" lon="4.67536">
        <ele>140.01</ele>
        <time>2016-11-19T08:14:45Z</time>
      </trkpt>
      <trkpt lat="44.16333" lon="4.67526">
        <ele>135.68</ele>
        <time>2016-11-19T08:14:49Z</time>
      </trkpt>
      <trkpt lat="44.1633" lon="4.67515">
        <ele>133.76</ele>
        <time>2016-11-19T08:14:51Z</time>
      </trkpt>
      <trkpt lat="44.16325" lon="4.67487">
        <ele>129.92</ele>
        <time>2016-11-19T08:14:57Z</time>
      </trkpt>
      <trkpt lat="44.16324" lon="4.67481">
        <ele>129.92</ele>
        <time>2016-11-19T08:14:58Z</time>
      </trkpt>
      <trkpt lat="44.16326" lon="4.67466">
        <ele>129.43</ele>
        <time>2016-11-19T08:15:03Z</time>
      </trkpt>
      <trkpt lat="44.16317" lon="4.67457">
        <ele>127.99</ele>
        <time>2016-11-19T08:15:07Z</time>
      </trkpt>
      <trkpt lat="44.16304" lon="4.6745">
        <ele>126.07</ele>
        <time>2016-11-19T08:15:11Z</time>
      </trkpt>
      <trkpt lat="44.16295" lon="4.67421">
        <ele>124.63</ele>
        <time>2016-11-19T08:15:17Z</time>
      </trkpt>
      <trkpt lat="44.16296" lon="4.67419">
        <ele>124.63</ele>
        <time>2016-11-19T08:15:18Z</time>
      </trkpt>
      <trkpt lat="44.163" lon="4.67379">
        <ele>123.67</ele>
        <time>2016-11-19T08:15:28Z</time>
      </trkpt>
      <trkpt lat="44.16305" lon="4.6736">
        <ele>123.67</ele>
        <time>2016-11-19T08:15:34Z</time>
      </trkpt>
      <trkpt lat="44.16307" lon="4.67357">
        <ele>125.11</ele>
        <time>2016-11-19T08:15:36Z</time>
      </trkpt>
      <trkpt lat="44.16315" lon="4.67354">
        <ele>126.55</ele>
        <time>2016-11-19T08:15:48Z</time>
      </trkpt>
      <trkpt lat="44.16317" lon="4.6735">
        <ele>127.03</ele>
        <time>2016-11-19T08:15:54Z</time>
      </trkpt>
      <trkpt lat="44.16317" lon="4.67347">
        <ele>127.51</ele>
        <time>2016-11-19T08:15:57Z</time>
      </trkpt>
      <trkpt lat="44.16319" lon="4.67335">
        <ele>127.99</ele>
        <time>2016-11-19T08:16:01Z</time>
      </trkpt>
      <trkpt lat="44.16333" lon="4.67316">
        <ele>123.19</ele>
        <time>2016-11-19T08:16:07Z</time>
      </trkpt>
      <trkpt lat="44.16337" lon="4.67311">
        <ele>121.74</ele>
        <time>2016-11-19T08:16:09Z</time>
      </trkpt>
      <trkpt lat="44.16342" lon="4.67308">
        <ele>120.3</ele>
        <time>2016-11-19T08:16:11Z</time>
      </trkpt>
      <trkpt lat="44.16345" lon="4.67308">
        <ele>119.82</ele>
        <time>2016-11-19T08:16:12Z</time>
      </trkpt>
      <trkpt lat="44.16347" lon="4.67309">
        <ele>119.82</ele>
        <time>2016-11-19T08:16:13Z</time>
      </trkpt>
      <trkpt lat="44.1635" lon="4.67309">
        <ele>118.86</ele>
        <time>2016-11-19T08:16:14Z</time>
      </trkpt>
      <trkpt lat="44.16353" lon="4.67307">
        <ele>117.9</ele>
        <time>2016-11-19T08:16:15Z</time>
      </trkpt>
      <trkpt lat="44.16354" lon="4.67305">
        <ele>117.42</ele>
        <time>2016-11-19T08:16:16Z</time>
      </trkpt>
      <trkpt lat="44.16356" lon="4.67304">
        <ele>116.94</ele>
        <time>2016-11-19T08:16:17Z</time>
      </trkpt>
      <trkpt lat="44.1636" lon="4.67305">
        <ele>116.46</ele>
        <time>2016-11-19T08:16:18Z</time>
      </trkpt>
      <trkpt lat="44.16362" lon="4.67307">
        <ele>116.46</ele>
        <time>2016-11-19T08:16:19Z</time>
      </trkpt>
      <trkpt lat="44.16364" lon="4.6731">
        <ele>116.46</ele>
        <time>2016-11-19T08:16:20Z</time>
      </trkpt>
      <trkpt lat="44.16366" lon="4.67311">
        <ele>116.46</ele>
        <time>2016-11-19T08:16:21Z</time>
      </trkpt>
      <trkpt lat="44.16368" lon="4.67312">
        <ele>116.46</ele>
        <time>2016-11-19T08:16:22Z</time>
      </trkpt>
      <trkpt lat="44.16371" lon="4.67313">
        <ele>116.46</ele>
        <time>2016-11-19T08:16:23Z</time>
      </trkpt>
      <trkpt lat="44.16405" lon="4.67322">
        <ele>115.98</ele>
        <time>2016-11-19T08:16:34Z</time>
      </trkpt>
      <trkpt lat="44.16447" lon="4.6733">
        <ele>115.98</ele>
        <time>2016-11-19T08:16:46Z</time>
      </trkpt>
      <trkpt lat="44.16501" lon="4.67365">
        <ele>115.01</ele>
        <time>2016-11-19T08:16:59Z</time>
      </trkpt>
      <trkpt lat="44.16507" lon="4.6737">
        <ele>116.46</ele>
        <time>2016-11-19T08:17:01Z</time>
      </trkpt>
      <trkpt lat="44.16533" lon="4.6738">
        <ele>116.46</ele>
        <time>2016-11-19T08:17:07Z</time>
      </trkpt>
      <trkpt lat="44.16542" lon="4.67385">
        <ele>115.01</ele>
        <time>2016-11-19T08:17:09Z</time>
      </trkpt>
      <trkpt lat="44.16545" lon="4.67388">
        <ele>115.01</ele>
        <time>2016-11-19T08:17:10Z</time>
      </trkpt>
      <trkpt lat="44.16565" lon="4.67404">
        <ele>115.01</ele>
        <time>2016-11-19T08:17:16Z</time>
      </trkpt>
      <trkpt lat="44.16569" lon="4.67404">
        <ele>115.01</ele>
        <time>2016-11-19T08:17:17Z</time>
      </trkpt>
      <trkpt lat="44.16572" lon="4.67405">
        <ele>115.01</ele>
        <time>2016-11-19T08:17:18Z</time>
      </trkpt>
      <trkpt lat="44.16575" lon="4.67406">
        <ele>115.01</ele>
        <time>2016-11-19T08:17:19Z</time>
      </trkpt>
      <trkpt lat="44.16578" lon="4.67408">
        <ele>115.01</ele>
        <time>2016-11-19T08:17:20Z</time>
      </trkpt>
      <trkpt lat="44.16581" lon="4.67411">
        <ele>115.01</ele>
        <time>2016-11-19T08:17:21Z</time>
      </trkpt>
      <trkpt lat="44.16584" lon="4.67414">
        <ele>115.01</ele>
        <time>2016-11-19T08:17:22Z</time>
      </trkpt>
      <trkpt lat="44.16587" lon="4.67418">
        <ele>115.01</ele>
        <time>2016-11-19T08:17:23Z</time>
      </trkpt>
      <trkpt lat="44.16606" lon="4.6744">
        <ele>115.98</ele>
        <time>2016-11-19T08:17:30Z</time>
      </trkpt>
      <trkpt lat="44.16647" lon="4.67462">
        <ele>117.9</ele>
        <time>2016-11-19T08:17:43Z</time>
      </trkpt>
      <trkpt lat="44.1668" lon="4.67458">
        <ele>120.78</ele>
        <time>2016-11-19T08:17:54Z</time>
      </trkpt>
      <trkpt lat="44.16717" lon="4.67442">
        <ele>123.19</ele>
        <time>2016-11-19T08:18:08Z</time>
      </trkpt>
      <trkpt lat="44.16747" lon="4.67426">
        <ele>126.07</ele>
        <time>2016-11-19T08:18:22Z</time>
      </trkpt>
      <trkpt lat="44.16762" lon="4.67421">
        <ele>127.03</ele>
        <time>2016-11-19T08:18:30Z</time>
      </trkpt>
      <trkpt lat="44.16763" lon="4.67421">
        <ele>127.51</ele>
        <time>2016-11-19T08:18:31Z</time>
      </trkpt>
      <trkpt lat="44.16765" lon="4.67421">
        <ele>127.03</ele>
        <time>2016-11-19T08:18:32Z</time>
      </trkpt>
      <trkpt lat="44.16776" lon="4.67419">
        <ele>127.99</ele>
        <time>2016-11-19T08:18:42Z</time>
      </trkpt>
      <trkpt lat="44.1678" lon="4.67418">
        <ele>128.95</ele>
        <time>2016-11-19T08:18:46Z</time>
      </trkpt>
      <trkpt lat="44.16782" lon="4.67418">
        <ele>128.95</ele>
        <time>2016-11-19T08:18:47Z</time>
      </trkpt>
      <trkpt lat="44.16783" lon="4.67418">
        <ele>128.95</ele>
        <time>2016-11-19T08:18:48Z</time>
      </trkpt>
      <trkpt lat="44.16785" lon="4.67418">
        <ele>128.95</ele>
        <time>2016-11-19T08:18:49Z</time>
      </trkpt>
      <trkpt lat="44.16787" lon="4.67417">
        <ele>128.95</ele>
        <time>2016-11-19T08:18:50Z</time>
      </trkpt>
      <trkpt lat="44.16823" lon="4.67405">
        <ele>131.84</ele>
        <time>2016-11-19T08:19:04Z</time>
      </trkpt>
      <trkpt lat="44.16837" lon="4.67375">
        <ele>134.72</ele>
        <time>2016-11-19T08:19:15Z</time>
      </trkpt>
      <trkpt lat="44.16837" lon="4.67337">
        <ele>138.57</ele>
        <time>2016-11-19T08:19:27Z</time>
      </trkpt>
      <trkpt lat="44.16831" lon="4.67306">
        <ele>141.93</ele>
        <time>2016-11-19T08:19:38Z</time>
      </trkpt>
      <trkpt lat="44.16824" lon="4.67264">
        <ele>143.85</ele>
        <time>2016-11-19T08:19:53Z</time>
      </trkpt>
      <trkpt lat="44.16824" lon="4.67261">
        <ele>143.85</ele>
        <time>2016-11-19T08:19:54Z</time>
      </trkpt>
      <trkpt lat="44.16825" lon="4.67258">
        <ele>144.82</ele>
        <time>2016-11-19T08:19:55Z</time>
      </trkpt>
      <trkpt lat="44.16825" lon="4.67255">
        <ele>145.3</ele>
        <time>2016-11-19T08:19:56Z</time>
      </trkpt>
      <trkpt lat="44.16825" lon="4.67253">
        <ele>145.3</ele>
        <time>2016-11-19T08:19:57Z</time>
      </trkpt>
      <trkpt lat="44.16825" lon="4.6725">
        <ele>145.3</ele>
        <time>2016-11-19T08:19:58Z</time>
      </trkpt>
      <trkpt lat="44.16825" lon="4.67248">
        <ele>145.3</ele>
        <time>2016-11-19T08:19:59Z</time>
      </trkpt>
      <trkpt lat="44.16825" lon="4.67245">
        <ele>145.3</ele>
        <time>2016-11-19T08:20:00Z</time>
      </trkpt>
      <trkpt lat="44.16825" lon="4.67242">
        <ele>145.3</ele>
        <time>2016-11-19T08:20:01Z</time>
      </trkpt>
      <trkpt lat="44.16826" lon="4.6724">
        <ele>145.78</ele>
        <time>2016-11-19T08:20:02Z</time>
      </trkpt>
      <trkpt lat="44.16824" lon="4.67203">
        <ele>149.14</ele>
        <time>2016-11-19T08:20:18Z</time>
      </trkpt>
      <trkpt lat="44.16818" lon="4.67166">
        <ele>152.51</ele>
        <time>2016-11-19T08:20:34Z</time>
      </trkpt>
      <trkpt lat="44.16816" lon="4.67136">
        <ele>154.43</ele>
        <time>2016-11-19T08:20:48Z</time>
      </trkpt>
      <trkpt lat="44.16816" lon="4.67134">
        <ele>154.91</ele>
        <time>2016-11-19T08:20:49Z</time>
      </trkpt>
      <trkpt lat="44.16817" lon="4.67132">
        <ele>154.91</ele>
        <time>2016-11-19T08:20:50Z</time>
      </trkpt>
      <trkpt lat="44.16817" lon="4.67131">
        <ele>154.91</ele>
        <time>2016-11-19T08:20:51Z</time>
      </trkpt>
      <trkpt lat="44.16817" lon="4.67128">
        <ele>154.91</ele>
        <time>2016-11-19T08:20:52Z</time>
      </trkpt>
      <trkpt lat="44.16817" lon="4.67126">
        <ele>155.39</ele>
        <time>2016-11-19T08:20:53Z</time>
      </trkpt>
      <trkpt lat="44.16817" lon="4.67123">
        <ele>155.39</ele>
        <time>2016-11-19T08:20:54Z</time>
      </trkpt>
      <trkpt lat="44.16817" lon="4.67121">
        <ele>155.87</ele>
        <time>2016-11-19T08:20:55Z</time>
      </trkpt>
      <trkpt lat="44.16813" lon="4.67087">
        <ele>158.75</ele>
        <time>2016-11-19T08:21:09Z</time>
      </trkpt>
      <trkpt lat="44.1682" lon="4.67029">
        <ele>157.79</ele>
        <time>2016-11-19T08:21:23Z</time>
      </trkpt>
      <trkpt lat="44.16825" lon="4.67014">
        <ele>156.35</ele>
        <time>2016-11-19T08:21:25Z</time>
      </trkpt>
      <trkpt lat="44.16826" lon="4.67006">
        <ele>155.39</ele>
        <time>2016-11-19T08:21:26Z</time>
      </trkpt>
      <trkpt lat="44.16827" lon="4.66999">
        <ele>155.39</ele>
        <time>2016-11-19T08:21:27Z</time>
      </trkpt>
      <trkpt lat="44.16829" lon="4.66981">
        <ele>153.95</ele>
        <time>2016-11-19T08:21:35Z</time>
      </trkpt>
      <trkpt lat="44.16827" lon="4.66985">
        <ele>153.95</ele>
        <time>2016-11-19T08:22:19Z</time>
      </trkpt>
      <trkpt lat="44.16827" lon="4.66982">
        <ele>153.95</ele>
        <time>2016-11-19T08:22:55Z</time>
      </trkpt>
      <trkpt lat="44.16828" lon="4.6698">
        <ele>153.95</ele>
        <time>2016-11-19T08:23:18Z</time>
      </trkpt>
      <trkpt lat="44.16828" lon="4.6698">
        <ele>153.95</ele>
        <time>2016-11-19T08:23:45Z</time>
      </trkpt>
      <trkpt lat="44.16828" lon="4.6698">
        <ele>153.47</ele>
        <time>2016-11-19T08:24:18Z</time>
      </trkpt>
      <trkpt lat="44.16833" lon="4.6696">
        <ele>152.03</ele>
        <time>2016-11-19T08:24:43Z</time>
      </trkpt>
      <trkpt lat="44.16834" lon="4.66953">
        <ele>151.54</ele>
        <time>2016-11-19T08:24:44Z</time>
      </trkpt>
      <trkpt lat="44.16836" lon="4.66936">
        <ele>149.14</ele>
        <time>2016-11-19T08:24:46Z</time>
      </trkpt>
      <trkpt lat="44.16837" lon="4.66927">
        <ele>148.66</ele>
        <time>2016-11-19T08:24:47Z</time>
      </trkpt>
      <trkpt lat="44.16838" lon="4.66916">
        <ele>147.7</ele>
        <time>2016-11-19T08:24:48Z</time>
      </trkpt>
      <trkpt lat="44.16842" lon="4.66895">
        <ele>145.78</ele>
        <time>2016-11-19T08:24:50Z</time>
      </trkpt>
      <trkpt lat="44.16846" lon="4.66886">
        <ele>144.82</ele>
        <time>2016-11-19T08:24:51Z</time>
      </trkpt>
      <trkpt lat="44.16851" lon="4.66878">
        <ele>143.85</ele>
        <time>2016-11-19T08:24:52Z</time>
      </trkpt>
      <trkpt lat="44.16856" lon="4.66869">
        <ele>143.37</ele>
        <time>2016-11-19T08:24:53Z</time>
      </trkpt>
      <trkpt lat="44.1686" lon="4.66861">
        <ele>143.37</ele>
        <time>2016-11-19T08:24:54Z</time>
      </trkpt>
      <trkpt lat="44.16863" lon="4.66854">
        <ele>142.89</ele>
        <time>2016-11-19T08:24:55Z</time>
      </trkpt>
      <trkpt lat="44.16866" lon="4.66848">
        <ele>142.41</ele>
        <time>2016-11-19T08:24:56Z</time>
      </trkpt>
      <trkpt lat="44.16869" lon="4.66844">
        <ele>141.93</ele>
        <time>2016-11-19T08:24:57Z</time>
      </trkpt>
      <trkpt lat="44.16872" lon="4.66841">
        <ele>141.93</ele>
        <time>2016-11-19T08:24:58Z</time>
      </trkpt>
      <trkpt lat="44.16876" lon="4.6684">
        <ele>141.45</ele>
        <time>2016-11-19T08:24:59Z</time>
      </trkpt>
      <trkpt lat="44.1688" lon="4.66841">
        <ele>140.49</ele>
        <time>2016-11-19T08:25:00Z</time>
      </trkpt>
      <trkpt lat="44.16884" lon="4.66844">
        <ele>140.49</ele>
        <time>2016-11-19T08:25:01Z</time>
      </trkpt>
      <trkpt lat="44.16888" lon="4.66849">
        <ele>139.05</ele>
        <time>2016-11-19T08:25:02Z</time>
      </trkpt>
      <trkpt lat="44.16892" lon="4.66855">
        <ele>138.57</ele>
        <time>2016-11-19T08:25:03Z</time>
      </trkpt>
      <trkpt lat="44.16896" lon="4.6686">
        <ele>138.57</ele>
        <time>2016-11-19T08:25:04Z</time>
      </trkpt>
      <trkpt lat="44.16902" lon="4.66864">
        <ele>137.61</ele>
        <time>2016-11-19T08:25:05Z</time>
      </trkpt>
      <trkpt lat="44.16908" lon="4.66864">
        <ele>136.64</ele>
        <time>2016-11-19T08:25:06Z</time>
      </trkpt>
      <trkpt lat="44.16914" lon="4.66861">
        <ele>136.64</ele>
        <time>2016-11-19T08:25:07Z</time>
      </trkpt>
      <trkpt lat="44.1692" lon="4.66857">
        <ele>136.64</ele>
        <time>2016-11-19T08:25:08Z</time>
      </trkpt>
      <trkpt lat="44.16924" lon="4.66851">
        <ele>136.16</ele>
        <time>2016-11-19T08:25:09Z</time>
      </trkpt>
      <trkpt lat="44.16928" lon="4.66845">
        <ele>136.64</ele>
        <time>2016-11-19T08:25:10Z</time>
      </trkpt>
      <trkpt lat="44.16931" lon="4.66838">
        <ele>136.64</ele>
        <time>2016-11-19T08:25:11Z</time>
      </trkpt>
      <trkpt lat="44.16933" lon="4.66831">
        <ele>136.64</ele>
        <time>2016-11-19T08:25:12Z</time>
      </trkpt>
      <trkpt lat="44.16935" lon="4.66823">
        <ele>136.64</ele>
        <time>2016-11-19T08:25:13Z</time>
      </trkpt>
      <trkpt lat="44.1694" lon="4.66809">
        <ele>136.16</ele>
        <time>2016-11-19T08:25:15Z</time>
      </trkpt>
      <trkpt lat="44.16943" lon="4.66802">
        <ele>136.16</ele>
        <time>2016-11-19T08:25:16Z</time>
      </trkpt>
      <trkpt lat="44.16948" lon="4.66797">
        <ele>135.68</ele>
        <time>2016-11-19T08:25:17Z</time>
      </trkpt>
      <trkpt lat="44.16953" lon="4.66792">
        <ele>135.68</ele>
        <time>2016-11-19T08:25:18Z</time>
      </trkpt>
      <trkpt lat="44.16959" lon="4.66789">
        <ele>135.68</ele>
        <time>2016-11-19T08:25:19Z</time>
      </trkpt>
      <trkpt lat="44.16965" lon="4.66785">
        <ele>135.68</ele>
        <time>2016-11-19T08:25:20Z</time>
      </trkpt>
      <trkpt lat="44.1697" lon="4.66783">
        <ele>135.68</ele>
        <time>2016-11-19T08:25:21Z</time>
      </trkpt>
      <trkpt lat="44.16975" lon="4.66779">
        <ele>137.13</ele>
        <time>2016-11-19T08:25:22Z</time>
      </trkpt>
      <trkpt lat="44.16978" lon="4.66774">
        <ele>137.13</ele>
        <time>2016-11-19T08:25:23Z</time>
      </trkpt>
      <trkpt lat="44.1698" lon="4.66768">
        <ele>138.09</ele>
        <time>2016-11-19T08:25:24Z</time>
      </trkpt>
      <trkpt lat="44.16981" lon="4.66762">
        <ele>138.09</ele>
        <time>2016-11-19T08:25:25Z</time>
      </trkpt>
      <trkpt lat="44.16981" lon="4.66755">
        <ele>138.09</ele>
        <time>2016-11-19T08:25:26Z</time>
      </trkpt>
      <trkpt lat="44.16981" lon="4.66748">
        <ele>138.09</ele>
        <time>2016-11-19T08:25:27Z</time>
      </trkpt>
      <trkpt lat="44.16979" lon="4.66741">
        <ele>138.09</ele>
        <time>2016-11-19T08:25:28Z</time>
      </trkpt>
      <trkpt lat="44.16976" lon="4.66735">
        <ele>138.09</ele>
        <time>2016-11-19T08:25:29Z</time>
      </trkpt>
      <trkpt lat="44.16973" lon="4.66731">
        <ele>138.09</ele>
        <time>2016-11-19T08:25:30Z</time>
      </trkpt>
      <trkpt lat="44.16968" lon="4.66728">
        <ele>138.09</ele>
        <time>2016-11-19T08:25:31Z</time>
      </trkpt>
      <trkpt lat="44.16964" lon="4.66726">
        <ele>138.09</ele>
        <time>2016-11-19T08:25:32Z</time>
      </trkpt>
      <trkpt lat="44.16951" lon="4.66718">
        <ele>138.09</ele>
        <time>2016-11-19T08:25:35Z</time>
      </trkpt>
      <trkpt lat="44.16941" lon="4.66708">
        <ele>138.09</ele>
        <time>2016-11-19T08:25:38Z</time>
      </trkpt>
      <trkpt lat="44.16937" lon="4.66705">
        <ele>138.09</ele>
        <time>2016-11-19T08:25:39Z</time>
      </trkpt>
      <trkpt lat="44.16935" lon="4.667">
        <ele>138.09</ele>
        <time>2016-11-19T08:25:40Z</time>
      </trkpt>
      <trkpt lat="44.16933" lon="4.66695">
        <ele>138.09</ele>
        <time>2016-11-19T08:25:41Z</time>
      </trkpt>
      <trkpt lat="44.16931" lon="4.6669">
        <ele>138.09</ele>
        <time>2016-11-19T08:25:42Z</time>
      </trkpt>
      <trkpt lat="44.16931" lon="4.66685">
        <ele>138.09</ele>
        <time>2016-11-19T08:25:43Z</time>
      </trkpt>
      <trkpt lat="44.1693" lon="4.6668">
        <ele>138.09</ele>
        <time>2016-11-19T08:25:44Z</time>
      </trkpt>
      <trkpt lat="44.16922" lon="4.66617">
        <ele>140.49</ele>
        <time>2016-11-19T08:25:57Z</time>
      </trkpt>
      <trkpt lat="44.16918" lon="4.66565">
        <ele>143.37</ele>
        <time>2016-11-19T08:26:10Z</time>
      </trkpt>
      <trkpt lat="44.16931" lon="4.66503">
        <ele>143.85</ele>
        <time>2016-11-19T08:26:26Z</time>
      </trkpt>
      <trkpt lat="44.16934" lon="4.66492">
        <ele>142.41</ele>
        <time>2016-11-19T08:26:28Z</time>
      </trkpt>
      <trkpt lat="44.16953" lon="4.66439">
        <ele>141.45</ele>
        <time>2016-11-19T08:26:40Z</time>
      </trkpt>
      <trkpt lat="44.16952" lon="4.66437">
        <ele>140.49</ele>
        <time>2016-11-19T08:26:44Z</time>
      </trkpt>
      <trkpt lat="44.16938" lon="4.66424">
        <ele>139.53</ele>
        <time>2016-11-19T08:26:50Z</time>
      </trkpt>
      <trkpt lat="44.16924" lon="4.66417">
        <ele>138.57</ele>
        <time>2016-11-19T08:26:55Z</time>
      </trkpt>
      <trkpt lat="44.16902" lon="4.66414">
        <ele>136.64</ele>
        <time>2016-11-19T08:27:03Z</time>
      </trkpt>
      <trkpt lat="44.16887" lon="4.66409">
        <ele>135.68</ele>
        <time>2016-11-19T08:27:09Z</time>
      </trkpt>
      <trkpt lat="44.16878" lon="4.66407">
        <ele>135.68</ele>
        <time>2016-11-19T08:27:12Z</time>
      </trkpt>
      <trkpt lat="44.16876" lon="4.66404">
        <ele>135.68</ele>
        <time>2016-11-19T08:27:14Z</time>
      </trkpt>
      <trkpt lat="44.16865" lon="4.66387">
        <ele>132.32</ele>
        <time>2016-11-19T08:27:21Z</time>
      </trkpt>
      <trkpt lat="44.16859" lon="4.66377">
        <ele>130.4</ele>
        <time>2016-11-19T08:27:26Z</time>
      </trkpt>
      <trkpt lat="44.16848" lon="4.66368">
        <ele>129.43</ele>
        <time>2016-11-19T08:27:32Z</time>
      </trkpt>
      <trkpt lat="44.16843" lon="4.66362">
        <ele>128.95</ele>
        <time>2016-11-19T08:27:34Z</time>
      </trkpt>
      <trkpt lat="44.16828" lon="4.66351">
        <ele>127.99</ele>
        <time>2016-11-19T08:27:39Z</time>
      </trkpt>
      <trkpt lat="44.1682" lon="4.66332">
        <ele>124.63</ele>
        <time>2016-11-19T08:27:46Z</time>
      </trkpt>
      <trkpt lat="44.16815" lon="4.66326">
        <ele>124.63</ele>
        <time>2016-11-19T08:27:48Z</time>
      </trkpt>
      <trkpt lat="44.16807" lon="4.66307">
        <ele>122.71</ele>
        <time>2016-11-19T08:27:52Z</time>
      </trkpt>
      <trkpt lat="44.16804" lon="4.66303">
        <ele>122.22</ele>
        <time>2016-11-19T08:27:53Z</time>
      </trkpt>
      <trkpt lat="44.16786" lon="4.66281">
        <ele>120.3</ele>
        <time>2016-11-19T08:28:03Z</time>
      </trkpt>
      <trkpt lat="44.16765" lon="4.66279">
        <ele>117.9</ele>
        <time>2016-11-19T08:28:10Z</time>
      </trkpt>
      <trkpt lat="44.16756" lon="4.66282">
        <ele>115.5</ele>
        <time>2016-11-19T08:28:13Z</time>
      </trkpt>
      <trkpt lat="44.16745" lon="4.66278">
        <ele>115.01</ele>
        <time>2016-11-19T08:28:16Z</time>
      </trkpt>
      <trkpt lat="44.16734" lon="4.66246">
        <ele>117.9</ele>
        <time>2016-11-19T08:28:26Z</time>
      </trkpt>
      <trkpt lat="44.16731" lon="4.66235">
        <ele>118.86</ele>
        <time>2016-11-19T08:28:29Z</time>
      </trkpt>
      <trkpt lat="44.16731" lon="4.66206">
        <ele>121.26</ele>
        <time>2016-11-19T08:28:38Z</time>
      </trkpt>
      <trkpt lat="44.16729" lon="4.66189">
        <ele>122.22</ele>
        <time>2016-11-19T08:28:49Z</time>
      </trkpt>
      <trkpt lat="44.16729" lon="4.66185">
        <ele>122.22</ele>
        <time>2016-11-19T08:28:51Z</time>
      </trkpt>
      <trkpt lat="44.1673" lon="4.66155">
        <ele>123.67</ele>
        <time>2016-11-19T08:29:02Z</time>
      </trkpt>
      <trkpt lat="44.16728" lon="4.66142">
        <ele>125.11</ele>
        <time>2016-11-19T08:29:07Z</time>
      </trkpt>
      <trkpt lat="44.16724" lon="4.66119">
        <ele>125.59</ele>
        <time>2016-11-19T08:29:16Z</time>
      </trkpt>
      <trkpt lat="44.1672" lon="4.66112">
        <ele>125.59</ele>
        <time>2016-11-19T08:29:19Z</time>
      </trkpt>
      <trkpt lat="44.16721" lon="4.66092">
        <ele>128.47</ele>
        <time>2016-11-19T08:29:30Z</time>
      </trkpt>
      <trkpt lat="44.16721" lon="4.66092">
        <ele>128.47</ele>
        <time>2016-11-19T08:29:40Z</time>
      </trkpt>
      <trkpt lat="44.16725" lon="4.6608">
        <ele>130.4</ele>
        <time>2016-11-19T08:29:48Z</time>
      </trkpt>
      <trkpt lat="44.16728" lon="4.66064">
        <ele>131.84</ele>
        <time>2016-11-19T08:29:54Z</time>
      </trkpt>
      <trkpt lat="44.16731" lon="4.66052">
        <ele>132.32</ele>
        <time>2016-11-19T08:29:59Z</time>
      </trkpt>
      <trkpt lat="44.16732" lon="4.66045">
        <ele>132.32</ele>
        <time>2016-11-19T08:30:03Z</time>
      </trkpt>
      <trkpt lat="44.16732" lon="4.66038">
        <ele>132.32</ele>
        <time>2016-11-19T08:30:08Z</time>
      </trkpt>
      <trkpt lat="44.16734" lon="4.66031">
        <ele>130.88</ele>
        <time>2016-11-19T08:30:10Z</time>
      </trkpt>
      <trkpt lat="44.16737" lon="4.66028">
        <ele>130.4</ele>
        <time>2016-11-19T08:30:11Z</time>
      </trkpt>
      <trkpt lat="44.1674" lon="4.66028">
        <ele>130.4</ele>
        <time>2016-11-19T08:30:12Z</time>
      </trkpt>
      <trkpt lat="44.16743" lon="4.66029">
        <ele>130.4</ele>
        <time>2016-11-19T08:30:13Z</time>
      </trkpt>
      <trkpt lat="44.16747" lon="4.6603">
        <ele>130.4</ele>
        <time>2016-11-19T08:30:14Z</time>
      </trkpt>
      <trkpt lat="44.16778" lon="4.66046">
        <ele>131.36</ele>
        <time>2016-11-19T08:30:23Z</time>
      </trkpt>
      <trkpt lat="44.16782" lon="4.66048">
        <ele>131.36</ele>
        <time>2016-11-19T08:30:24Z</time>
      </trkpt>
      <trkpt lat="44.16828" lon="4.66076">
        <ele>134.72</ele>
        <time>2016-11-19T08:30:37Z</time>
      </trkpt>
      <trkpt lat="44.16851" lon="4.66088">
        <ele>138.09</ele>
        <time>2016-11-19T08:30:45Z</time>
      </trkpt>
      <trkpt lat="44.16878" lon="4.66106">
        <ele>138.57</ele>
        <time>2016-11-19T08:30:56Z</time>
      </trkpt>
      <trkpt lat="44.16901" lon="4.66121">
        <ele>138.57</ele>
        <time>2016-11-19T08:31:03Z</time>
      </trkpt>
      <trkpt lat="44.16906" lon="4.66121">
        <ele>138.57</ele>
        <time>2016-11-19T08:31:04Z</time>
      </trkpt>
      <trkpt lat="44.1691" lon="4.66122">
        <ele>137.13</ele>
        <time>2016-11-19T08:31:05Z</time>
      </trkpt>
      <trkpt lat="44.16914" lon="4.66121">
        <ele>136.64</ele>
        <time>2016-11-19T08:31:06Z</time>
      </trkpt>
      <trkpt lat="44.16918" lon="4.6612">
        <ele>135.2</ele>
        <time>2016-11-19T08:31:07Z</time>
      </trkpt>
      <trkpt lat="44.16922" lon="4.66118">
        <ele>134.24</ele>
        <time>2016-11-19T08:31:08Z</time>
      </trkpt>
      <trkpt lat="44.16926" lon="4.66115">
        <ele>132.8</ele>
        <time>2016-11-19T08:31:09Z</time>
      </trkpt>
      <trkpt lat="44.16931" lon="4.66111">
        <ele>131.36</ele>
        <time>2016-11-19T08:31:10Z</time>
      </trkpt>
      <trkpt lat="44.16936" lon="4.66108">
        <ele>131.36</ele>
        <time>2016-11-19T08:31:11Z</time>
      </trkpt>
      <trkpt lat="44.16945" lon="4.66098">
        <ele>133.28</ele>
        <time>2016-11-19T08:31:14Z</time>
      </trkpt>
      <trkpt lat="44.16948" lon="4.66093">
        <ele>133.28</ele>
        <time>2016-11-19T08:31:15Z</time>
      </trkpt>
      <trkpt lat="44.16951" lon="4.6609">
        <ele>133.28</ele>
        <time>2016-11-19T08:31:16Z</time>
      </trkpt>
      <trkpt lat="44.16954" lon="4.66088">
        <ele>133.28</ele>
        <time>2016-11-19T08:31:17Z</time>
      </trkpt>
      <trkpt lat="44.16974" lon="4.66046">
        <ele>133.28</ele>
        <time>2016-11-19T08:31:27Z</time>
      </trkpt>
      <trkpt lat="44.16976" lon="4.66041">
        <ele>131.84</ele>
        <time>2016-11-19T08:31:28Z</time>
      </trkpt>
      <trkpt lat="44.16978" lon="4.66035">
        <ele>131.84</ele>
        <time>2016-11-19T08:31:29Z</time>
      </trkpt>
      <trkpt lat="44.1698" lon="4.66029">
        <ele>131.36</ele>
        <time>2016-11-19T08:31:30Z</time>
      </trkpt>
      <trkpt lat="44.16983" lon="4.66024">
        <ele>130.88</ele>
        <time>2016-11-19T08:31:31Z</time>
      </trkpt>
      <trkpt lat="44.16986" lon="4.66018">
        <ele>130.88</ele>
        <time>2016-11-19T08:31:32Z</time>
      </trkpt>
      <trkpt lat="44.1699" lon="4.66013">
        <ele>130.88</ele>
        <time>2016-11-19T08:31:33Z</time>
      </trkpt>
      <trkpt lat="44.16994" lon="4.66009">
        <ele>130.88</ele>
        <time>2016-11-19T08:31:34Z</time>
      </trkpt>
      <trkpt lat="44.16998" lon="4.66006">
        <ele>130.88</ele>
        <time>2016-11-19T08:31:35Z</time>
      </trkpt>
      <trkpt lat="44.17001" lon="4.66003">
        <ele>130.88</ele>
        <time>2016-11-19T08:31:36Z</time>
      </trkpt>
      <trkpt lat="44.17005" lon="4.66001">
        <ele>130.88</ele>
        <time>2016-11-19T08:31:37Z</time>
      </trkpt>
      <trkpt lat="44.17023" lon="4.65982">
        <ele>133.76</ele>
        <time>2016-11-19T08:31:44Z</time>
      </trkpt>
      <trkpt lat="44.17035" lon="4.65971">
        <ele>137.13</ele>
        <time>2016-11-19T08:31:50Z</time>
      </trkpt>
      <trkpt lat="44.17053" lon="4.65944">
        <ele>139.53</ele>
        <time>2016-11-19T08:32:01Z</time>
      </trkpt>
      <trkpt lat="44.17059" lon="4.65933">
        <ele>138.09</ele>
        <time>2016-11-19T08:32:03Z</time>
      </trkpt>
      <trkpt lat="44.17065" lon="4.65919">
        <ele>136.64</ele>
        <time>2016-11-19T08:32:05Z</time>
      </trkpt>
      <trkpt lat="44.17073" lon="4.65905">
        <ele>134.72</ele>
        <time>2016-11-19T08:32:07Z</time>
      </trkpt>
      <trkpt lat="44.17077" lon="4.65896">
        <ele>133.76</ele>
        <time>2016-11-19T08:32:08Z</time>
      </trkpt>
      <trkpt lat="44.1709" lon="4.65867">
        <ele>130.4</ele>
        <time>2016-11-19T08:32:11Z</time>
      </trkpt>
      <trkpt lat="44.17099" lon="4.65847">
        <ele>129.92</ele>
        <time>2016-11-19T08:32:13Z</time>
      </trkpt>
      <trkpt lat="44.17103" lon="4.65838">
        <ele>129.43</ele>
        <time>2016-11-19T08:32:14Z</time>
      </trkpt>
      <trkpt lat="44.17107" lon="4.6583">
        <ele>129.43</ele>
        <time>2016-11-19T08:32:15Z</time>
      </trkpt>
      <trkpt lat="44.17109" lon="4.65825">
        <ele>130.88</ele>
        <time>2016-11-19T08:32:16Z</time>
      </trkpt>
      <trkpt lat="44.17112" lon="4.65821">
        <ele>131.84</ele>
        <time>2016-11-19T08:32:17Z</time>
      </trkpt>
      <trkpt lat="44.17119" lon="4.65809">
        <ele>135.2</ele>
        <time>2016-11-19T08:32:21Z</time>
      </trkpt>
      <trkpt lat="44.1712" lon="4.65806">
        <ele>135.2</ele>
        <time>2016-11-19T08:32:22Z</time>
      </trkpt>
      <trkpt lat="44.17135" lon="4.65773">
        <ele>138.57</ele>
        <time>2016-11-19T08:32:31Z</time>
      </trkpt>
      <trkpt lat="44.17156" lon="4.65732">
        <ele>139.05</ele>
        <time>2016-11-19T08:32:44Z</time>
      </trkpt>
      <trkpt lat="44.17166" lon="4.65707">
        <ele>140.01</ele>
        <time>2016-11-19T08:32:57Z</time>
      </trkpt>
      <trkpt lat="44.17165" lon="4.65706">
        <ele>140.01</ele>
        <time>2016-11-19T08:32:58Z</time>
      </trkpt>
      <trkpt lat="44.17165" lon="4.65705">
        <ele>140.01</ele>
        <time>2016-11-19T08:32:59Z</time>
      </trkpt>
      <trkpt lat="44.17163" lon="4.65705">
        <ele>140.01</ele>
        <time>2016-11-19T08:33:00Z</time>
      </trkpt>
      <trkpt lat="44.17162" lon="4.65704">
        <ele>140.01</ele>
        <time>2016-11-19T08:33:01Z</time>
      </trkpt>
      <trkpt lat="44.17161" lon="4.65704">
        <ele>140.01</ele>
        <time>2016-11-19T08:33:02Z</time>
      </trkpt>
      <trkpt lat="44.17155" lon="4.65698">
        <ele>140.01</ele>
        <time>2016-11-19T08:33:07Z</time>
      </trkpt>
      <trkpt lat="44.17133" lon="4.65705">
        <ele>138.09</ele>
        <time>2016-11-19T08:33:17Z</time>
      </trkpt>
      <trkpt lat="44.17121" lon="4.65696">
        <ele>135.2</ele>
        <time>2016-11-19T08:33:23Z</time>
      </trkpt>
      <trkpt lat="44.1712" lon="4.65684">
        <ele>133.76</ele>
        <time>2016-11-19T08:33:28Z</time>
      </trkpt>
      <trkpt lat="44.17129" lon="4.65661">
        <ele>133.28</ele>
        <time>2016-11-19T08:33:40Z</time>
      </trkpt>
      <trkpt lat="44.17138" lon="4.65648">
        <ele>130.4</ele>
        <time>2016-11-19T08:33:44Z</time>
      </trkpt>
      <trkpt lat="44.17145" lon="4.6564">
        <ele>128.95</ele>
        <time>2016-11-19T08:33:46Z</time>
      </trkpt>
      <trkpt lat="44.17159" lon="4.65612">
        <ele>126.55</ele>
        <time>2016-11-19T08:33:54Z</time>
      </trkpt>
      <trkpt lat="44.17159" lon="4.65607">
        <ele>126.07</ele>
        <time>2016-11-19T08:33:58Z</time>
      </trkpt>
      <trkpt lat="44.1716" lon="4.65595">
        <ele>123.67</ele>
        <time>2016-11-19T08:34:02Z</time>
      </trkpt>
      <trkpt lat="44.17159" lon="4.65584">
        <ele>120.78</ele>
        <time>2016-11-19T08:34:05Z</time>
      </trkpt>
      <trkpt lat="44.17159" lon="4.65573">
        <ele>118.38</ele>
        <time>2016-11-19T08:34:08Z</time>
      </trkpt>
      <trkpt lat="44.17157" lon="4.65559">
        <ele>116.46</ele>
        <time>2016-11-19T08:34:10Z</time>
      </trkpt>
      <trkpt lat="44.17154" lon="4.65549">
        <ele>116.46</ele>
        <time>2016-11-19T08:34:11Z</time>
      </trkpt>
      <trkpt lat="44.17153" lon="4.65542">
        <ele>115.5</ele>
        <time>2016-11-19T08:34:12Z</time>
      </trkpt>
      <trkpt lat="44.17153" lon="4.65535">
        <ele>115.5</ele>
        <time>2016-11-19T08:34:13Z</time>
      </trkpt>
      <trkpt lat="44.17154" lon="4.65528">
        <ele>115.5</ele>
        <time>2016-11-19T08:34:14Z</time>
      </trkpt>
      <trkpt lat="44.17154" lon="4.65524">
        <ele>115.5</ele>
        <time>2016-11-19T08:34:15Z</time>
      </trkpt>
      <trkpt lat="44.17154" lon="4.65521">
        <ele>115.01</ele>
        <time>2016-11-19T08:34:16Z</time>
      </trkpt>
      <trkpt lat="44.17154" lon="4.65513">
        <ele>115.5</ele>
        <time>2016-11-19T08:34:21Z</time>
      </trkpt>
      <trkpt lat="44.17154" lon="4.65509">
        <ele>115.01</ele>
        <time>2016-11-19T08:34:22Z</time>
      </trkpt>
      <trkpt lat="44.17154" lon="4.65503">
        <ele>114.53</ele>
        <time>2016-11-19T08:34:23Z</time>
      </trkpt>
      <trkpt lat="44.17154" lon="4.65498">
        <ele>114.53</ele>
        <time>2016-11-19T08:34:24Z</time>
      </trkpt>
      <trkpt lat="44.17155" lon="4.65493">
        <ele>114.53</ele>
        <time>2016-11-19T08:34:25Z</time>
      </trkpt>
      <trkpt lat="44.17154" lon="4.65465">
        <ele>113.57</ele>
        <time>2016-11-19T08:34:32Z</time>
      </trkpt>
      <trkpt lat="44.17152" lon="4.65463">
        <ele>113.57</ele>
        <time>2016-11-19T08:34:33Z</time>
      </trkpt>
      <trkpt lat="44.17151" lon="4.6546">
        <ele>113.09</ele>
        <time>2016-11-19T08:34:34Z</time>
      </trkpt>
      <trkpt lat="44.1715" lon="4.65457">
        <ele>113.09</ele>
        <time>2016-11-19T08:34:35Z</time>
      </trkpt>
      <trkpt lat="44.1715" lon="4.65454">
        <ele>113.09</ele>
        <time>2016-11-19T08:34:36Z</time>
      </trkpt>
      <trkpt lat="44.1715" lon="4.65451">
        <ele>112.61</ele>
        <time>2016-11-19T08:34:37Z</time>
      </trkpt>
      <trkpt lat="44.17149" lon="4.65448">
        <ele>112.61</ele>
        <time>2016-11-19T08:34:38Z</time>
      </trkpt>
      <trkpt lat="44.17149" lon="4.65444">
        <ele>112.61</ele>
        <time>2016-11-19T08:34:39Z</time>
      </trkpt>
      <trkpt lat="44.17148" lon="4.65439">
        <ele>112.13</ele>
        <time>2016-11-19T08:34:40Z</time>
      </trkpt>
      <trkpt lat="44.17139" lon="4.65433">
        <ele>111.65</ele>
        <time>2016-11-19T08:34:43Z</time>
      </trkpt>
      <trkpt lat="44.17107" lon="4.65435">
        <ele>111.17</ele>
        <time>2016-11-19T08:34:52Z</time>
      </trkpt>
      <trkpt lat="44.17096" lon="4.6544">
        <ele>110.69</ele>
        <time>2016-11-19T08:35:00Z</time>
      </trkpt>
      <trkpt lat="44.17093" lon="4.6544">
        <ele>110.21</ele>
        <time>2016-11-19T08:35:15Z</time>
      </trkpt>
      <trkpt lat="44.17086" lon="4.65441">
        <ele>110.21</ele>
        <time>2016-11-19T08:35:25Z</time>
      </trkpt>
      <trkpt lat="44.17072" lon="4.65448">
        <ele>106.84</ele>
        <time>2016-11-19T08:35:32Z</time>
      </trkpt>
      <trkpt lat="44.17059" lon="4.65448">
        <ele>103.96</ele>
        <time>2016-11-19T08:35:37Z</time>
      </trkpt>
      <trkpt lat="44.1705" lon="4.65447">
        <ele>103.48</ele>
        <time>2016-11-19T08:35:39Z</time>
      </trkpt>
      <trkpt lat="44.17035" lon="4.65451">
        <ele>101.08</ele>
        <time>2016-11-19T08:35:44Z</time>
      </trkpt>
      <trkpt lat="44.17006" lon="4.65455">
        <ele>100.11</ele>
        <time>2016-11-19T08:35:53Z</time>
      </trkpt>
      <trkpt lat="44.16991" lon="4.65457">
        <ele>100.11</ele>
        <time>2016-11-19T08:35:58Z</time>
      </trkpt>
      <trkpt lat="44.16973" lon="4.65462">
        <ele>100.11</ele>
        <time>2016-11-19T08:36:04Z</time>
      </trkpt>
      <trkpt lat="44.16949" lon="4.65468">
        <ele>102.04</ele>
        <time>2016-11-19T08:36:11Z</time>
      </trkpt>
      <trkpt lat="44.16926" lon="4.65469">
        <ele>102.04</ele>
        <time>2016-11-19T08:36:17Z</time>
      </trkpt>
      <trkpt lat="44.16901" lon="4.6548">
        <ele>103.48</ele>
        <time>2016-11-19T08:36:26Z</time>
      </trkpt>
      <trkpt lat="44.16895" lon="4.65478">
        <ele>103.96</ele>
        <time>2016-11-19T08:36:29Z</time>
      </trkpt>
      <trkpt lat="44.16885" lon="4.65478">
        <ele>104.44</ele>
        <time>2016-11-19T08:36:32Z</time>
      </trkpt>
      <trkpt lat="44.16874" lon="4.65478">
        <ele>104.44</ele>
        <time>2016-11-19T08:36:36Z</time>
      </trkpt>
      <trkpt lat="44.16865" lon="4.65488">
        <ele>105.4</ele>
        <time>2016-11-19T08:36:42Z</time>
      </trkpt>
      <trkpt lat="44.16857" lon="4.65499">
        <ele>107.32</ele>
        <time>2016-11-19T08:36:48Z</time>
      </trkpt>
      <trkpt lat="44.16856" lon="4.65514">
        <ele>107.32</ele>
        <time>2016-11-19T08:36:53Z</time>
      </trkpt>
      <trkpt lat="44.1685" lon="4.65524">
        <ele>108.29</ele>
        <time>2016-11-19T08:36:58Z</time>
      </trkpt>
      <trkpt lat="44.16846" lon="4.65528">
        <ele>108.77</ele>
        <time>2016-11-19T08:37:00Z</time>
      </trkpt>
      <trkpt lat="44.16838" lon="4.65555">
        <ele>110.21</ele>
        <time>2016-11-19T08:37:09Z</time>
      </trkpt>
      <trkpt lat="44.16838" lon="4.65565">
        <ele>111.17</ele>
        <time>2016-11-19T08:37:13Z</time>
      </trkpt>
      <trkpt lat="44.16838" lon="4.65578">
        <ele>112.13</ele>
        <time>2016-11-19T08:37:17Z</time>
      </trkpt>
      <trkpt lat="44.1683" lon="4.65592">
        <ele>112.13</ele>
        <time>2016-11-19T08:37:22Z</time>
      </trkpt>
      <trkpt lat="44.16816" lon="4.65614">
        <ele>113.57</ele>
        <time>2016-11-19T08:37:32Z</time>
      </trkpt>
      <trkpt lat="44.16815" lon="4.65622">
        <ele>113.57</ele>
        <time>2016-11-19T08:37:34Z</time>
      </trkpt>
      <trkpt lat="44.16813" lon="4.65627">
        <ele>114.05</ele>
        <time>2016-11-19T08:37:36Z</time>
      </trkpt>
      <trkpt lat="44.16812" lon="4.65636">
        <ele>114.53</ele>
        <time>2016-11-19T08:37:40Z</time>
      </trkpt>
      <trkpt lat="44.16807" lon="4.65664">
        <ele>114.05</ele>
        <time>2016-11-19T08:37:49Z</time>
      </trkpt>
      <trkpt lat="44.16815" lon="4.65673">
        <ele>112.13</ele>
        <time>2016-11-19T08:37:53Z</time>
      </trkpt>
      <trkpt lat="44.16819" lon="4.65684">
        <ele>110.69</ele>
        <time>2016-11-19T08:37:59Z</time>
      </trkpt>
      <trkpt lat="44.16821" lon="4.65692">
        <ele>108.29</ele>
        <time>2016-11-19T08:38:03Z</time>
      </trkpt>
      <trkpt lat="44.16824" lon="4.65695">
        <ele>107.81</ele>
        <time>2016-11-19T08:38:12Z</time>
      </trkpt>
      <trkpt lat="44.16831" lon="4.65702">
        <ele>106.36</ele>
        <time>2016-11-19T08:38:16Z</time>
      </trkpt>
      <trkpt lat="44.16833" lon="4.65707">
        <ele>104.44</ele>
        <time>2016-11-19T08:38:18Z</time>
      </trkpt>
      <trkpt lat="44.16835" lon="4.65712">
        <ele>102.52</ele>
        <time>2016-11-19T08:38:21Z</time>
      </trkpt>
      <trkpt lat="44.16835" lon="4.65713">
        <ele>102.52</ele>
        <time>2016-11-19T08:38:22Z</time>
      </trkpt>
      <trkpt lat="44.16809" lon="4.65708">
        <ele>102.52</ele>
        <time>2016-11-19T08:38:32Z</time>
      </trkpt>
      <trkpt lat="44.168" lon="4.65706">
        <ele>103.96</ele>
        <time>2016-11-19T08:38:35Z</time>
      </trkpt>
      <trkpt lat="44.16786" lon="4.65708">
        <ele>103.48</ele>
        <time>2016-11-19T08:38:40Z</time>
      </trkpt>
      <trkpt lat="44.16774" lon="4.65701">
        <ele>102.52</ele>
        <time>2016-11-19T08:38:43Z</time>
      </trkpt>
      <trkpt lat="44.16766" lon="4.65694">
        <ele>102.04</ele>
        <time>2016-11-19T08:38:45Z</time>
      </trkpt>
      <trkpt lat="44.1676" lon="4.65686">
        <ele>101.08</ele>
        <time>2016-11-19T08:38:47Z</time>
      </trkpt>
      <trkpt lat="44.1676" lon="4.65681">
        <ele>101.08</ele>
        <time>2016-11-19T08:38:48Z</time>
      </trkpt>
      <trkpt lat="44.1676" lon="4.65677">
        <ele>101.08</ele>
        <time>2016-11-19T08:38:49Z</time>
      </trkpt>
      <trkpt lat="44.16761" lon="4.65672">
        <ele>100.6</ele>
        <time>2016-11-19T08:38:50Z</time>
      </trkpt>
      <trkpt lat="44.16763" lon="4.65662">
        <ele>99.63</ele>
        <time>2016-11-19T08:38:52Z</time>
      </trkpt>
      <trkpt lat="44.16765" lon="4.65656">
        <ele>99.63</ele>
        <time>2016-11-19T08:38:53Z</time>
      </trkpt>
      <trkpt lat="44.16766" lon="4.65642">
        <ele>98.19</ele>
        <time>2016-11-19T08:38:55Z</time>
      </trkpt>
      <trkpt lat="44.16767" lon="4.65622">
        <ele>97.23</ele>
        <time>2016-11-19T08:38:58Z</time>
      </trkpt>
      <trkpt lat="44.16765" lon="4.65615">
        <ele>96.27</ele>
        <time>2016-11-19T08:38:59Z</time>
      </trkpt>
      <trkpt lat="44.16763" lon="4.65609">
        <ele>95.79</ele>
        <time>2016-11-19T08:39:00Z</time>
      </trkpt>
      <trkpt lat="44.16761" lon="4.65604">
        <ele>95.79</ele>
        <time>2016-11-19T08:39:01Z</time>
      </trkpt>
      <trkpt lat="44.1676" lon="4.65598">
        <ele>94.83</ele>
        <time>2016-11-19T08:39:02Z</time>
      </trkpt>
      <trkpt lat="44.16758" lon="4.65591">
        <ele>93.39</ele>
        <time>2016-11-19T08:39:03Z</time>
      </trkpt>
      <trkpt lat="44.16756" lon="4.65586">
        <ele>93.39</ele>
        <time>2016-11-19T08:39:04Z</time>
      </trkpt>
      <trkpt lat="44.16754" lon="4.65582">
        <ele>92.9</ele>
        <time>2016-11-19T08:39:05Z</time>
      </trkpt>
      <trkpt lat="44.16752" lon="4.65578">
        <ele>91.46</ele>
        <time>2016-11-19T08:39:06Z</time>
      </trkpt>
      <trkpt lat="44.16751" lon="4.65574">
        <ele>91.46</ele>
        <time>2016-11-19T08:39:07Z</time>
      </trkpt>
      <trkpt lat="44.16748" lon="4.6557">
        <ele>90.5</ele>
        <time>2016-11-19T08:39:08Z</time>
      </trkpt>
      <trkpt lat="44.16746" lon="4.65566">
        <ele>89.06</ele>
        <time>2016-11-19T08:39:09Z</time>
      </trkpt>
      <trkpt lat="44.16744" lon="4.65561">
        <ele>88.58</ele>
        <time>2016-11-19T08:39:10Z</time>
      </trkpt>
      <trkpt lat="44.16742" lon="4.65557">
        <ele>87.62</ele>
        <time>2016-11-19T08:39:11Z</time>
      </trkpt>
      <trkpt lat="44.16741" lon="4.65554">
        <ele>87.14</ele>
        <time>2016-11-19T08:39:12Z</time>
      </trkpt>
      <trkpt lat="44.16736" lon="4.65545">
        <ele>84.73</ele>
        <time>2016-11-19T08:39:14Z</time>
      </trkpt>
      <trkpt lat="44.16734" lon="4.65538">
        <ele>83.29</ele>
        <time>2016-11-19T08:39:15Z</time>
      </trkpt>
      <trkpt lat="44.16734" lon="4.65531">
        <ele>82.33</ele>
        <time>2016-11-19T08:39:16Z</time>
      </trkpt>
      <trkpt lat="44.16734" lon="4.65524">
        <ele>82.33</ele>
        <time>2016-11-19T08:39:17Z</time>
      </trkpt>
      <trkpt lat="44.16735" lon="4.65517">
        <ele>82.33</ele>
        <time>2016-11-19T08:39:18Z</time>
      </trkpt>
      <trkpt lat="44.16737" lon="4.6551">
        <ele>81.85</ele>
        <time>2016-11-19T08:39:19Z</time>
      </trkpt>
      <trkpt lat="44.16738" lon="4.65502">
        <ele>81.85</ele>
        <time>2016-11-19T08:39:20Z</time>
      </trkpt>
      <trkpt lat="44.16741" lon="4.65487">
        <ele>80.41</ele>
        <time>2016-11-19T08:39:22Z</time>
      </trkpt>
      <trkpt lat="44.16745" lon="4.65479">
        <ele>79.93</ele>
        <time>2016-11-19T08:39:23Z</time>
      </trkpt>
      <trkpt lat="44.16752" lon="4.65465">
        <ele>78.48</ele>
        <time>2016-11-19T08:39:25Z</time>
      </trkpt>
      <trkpt lat="44.16754" lon="4.65459">
        <ele>78</ele>
        <time>2016-11-19T08:39:26Z</time>
      </trkpt>
      <trkpt lat="44.16761" lon="4.65446">
        <ele>77.52</ele>
        <time>2016-11-19T08:39:28Z</time>
      </trkpt>
      <trkpt lat="44.16765" lon="4.6544">
        <ele>76.56</ele>
        <time>2016-11-19T08:39:29Z</time>
      </trkpt>
      <trkpt lat="44.16769" lon="4.65435">
        <ele>76.56</ele>
        <time>2016-11-19T08:39:30Z</time>
      </trkpt>
      <trkpt lat="44.16777" lon="4.65428">
        <ele>77.04</ele>
        <time>2016-11-19T08:39:32Z</time>
      </trkpt>
      <trkpt lat="44.16781" lon="4.65425">
        <ele>77.04</ele>
        <time>2016-11-19T08:39:33Z</time>
      </trkpt>
      <trkpt lat="44.16797" lon="4.65406">
        <ele>76.56</ele>
        <time>2016-11-19T08:39:38Z</time>
      </trkpt>
      <trkpt lat="44.168" lon="4.65402">
        <ele>76.56</ele>
        <time>2016-11-19T08:39:39Z</time>
      </trkpt>
      <trkpt lat="44.16805" lon="4.65398">
        <ele>76.08</ele>
        <time>2016-11-19T08:39:40Z</time>
      </trkpt>
      <trkpt lat="44.16809" lon="4.65396">
        <ele>76.08</ele>
        <time>2016-11-19T08:39:41Z</time>
      </trkpt>
      <trkpt lat="44.16813" lon="4.65395">
        <ele>76.08</ele>
        <time>2016-11-19T08:39:42Z</time>
      </trkpt>
      <trkpt lat="44.16817" lon="4.65393">
        <ele>76.08</ele>
        <time>2016-11-19T08:39:43Z</time>
      </trkpt>
      <trkpt lat="44.16821" lon="4.65392">
        <ele>76.08</ele>
        <time>2016-11-19T08:39:44Z</time>
      </trkpt>
      <trkpt lat="44.16832" lon="4.65385">
        <ele>76.08</ele>
        <time>2016-11-19T08:39:47Z</time>
      </trkpt>
      <trkpt lat="44.16842" lon="4.65371">
        <ele>77.52</ele>
        <time>2016-11-19T08:39:51Z</time>
      </trkpt>
      <trkpt lat="44.16854" lon="4.65362">
        <ele>78</ele>
        <time>2016-11-19T08:39:55Z</time>
      </trkpt>
      <trkpt lat="44.16858" lon="4.65361">
        <ele>78</ele>
        <time>2016-11-19T08:39:56Z</time>
      </trkpt>
      <trkpt lat="44.16862" lon="4.6536">
        <ele>78.48</ele>
        <time>2016-11-19T08:39:57Z</time>
      </trkpt>
      <trkpt lat="44.16865" lon="4.65358">
        <ele>78.48</ele>
        <time>2016-11-19T08:39:58Z</time>
      </trkpt>
      <trkpt lat="44.16868" lon="4.65355">
        <ele>78.48</ele>
        <time>2016-11-19T08:39:59Z</time>
      </trkpt>
      <trkpt lat="44.1687" lon="4.65351">
        <ele>78.48</ele>
        <time>2016-11-19T08:40:00Z</time>
      </trkpt>
      <trkpt lat="44.16872" lon="4.65347">
        <ele>78.48</ele>
        <time>2016-11-19T08:40:01Z</time>
      </trkpt>
      <trkpt lat="44.16874" lon="4.65342">
        <ele>78.48</ele>
        <time>2016-11-19T08:40:02Z</time>
      </trkpt>
      <trkpt lat="44.16878" lon="4.6533">
        <ele>78.48</ele>
        <time>2016-11-19T08:40:05Z</time>
      </trkpt>
      <trkpt lat="44.16877" lon="4.65326">
        <ele>78.48</ele>
        <time>2016-11-19T08:40:06Z</time>
      </trkpt>
      <trkpt lat="44.16876" lon="4.65323">
        <ele>78.48</ele>
        <time>2016-11-19T08:40:07Z</time>
      </trkpt>
      <trkpt lat="44.16873" lon="4.6532">
        <ele>78.48</ele>
        <time>2016-11-19T08:40:08Z</time>
      </trkpt>
      <trkpt lat="44.16871" lon="4.65317">
        <ele>78.48</ele>
        <time>2016-11-19T08:40:09Z</time>
      </trkpt>
      <trkpt lat="44.16866" lon="4.65313">
        <ele>77.04</ele>
        <time>2016-11-19T08:40:11Z</time>
      </trkpt>
      <trkpt lat="44.16828" lon="4.65283">
        <ele>76.08</ele>
        <time>2016-11-19T08:40:24Z</time>
      </trkpt>
      <trkpt lat="44.16799" lon="4.65251">
        <ele>76.08</ele>
        <time>2016-11-19T08:40:37Z</time>
      </trkpt>
      <trkpt lat="44.16796" lon="4.65247">
        <ele>76.08</ele>
        <time>2016-11-19T08:40:38Z</time>
      </trkpt>
      <trkpt lat="44.1679" lon="4.65236">
        <ele>76.08</ele>
        <time>2016-11-19T08:40:40Z</time>
      </trkpt>
      <trkpt lat="44.16789" lon="4.6523">
        <ele>75.6</ele>
        <time>2016-11-19T08:40:41Z</time>
      </trkpt>
      <trkpt lat="44.16793" lon="4.65221">
        <ele>75.6</ele>
        <time>2016-11-19T08:40:43Z</time>
      </trkpt>
      <trkpt lat="44.16796" lon="4.6522">
        <ele>75.6</ele>
        <time>2016-11-19T08:40:44Z</time>
      </trkpt>
      <trkpt lat="44.16799" lon="4.65219">
        <ele>75.6</ele>
        <time>2016-11-19T08:40:45Z</time>
      </trkpt>
      <trkpt lat="44.16802" lon="4.65218">
        <ele>75.6</ele>
        <time>2016-11-19T08:40:46Z</time>
      </trkpt>
      <trkpt lat="44.16805" lon="4.65216">
        <ele>77.52</ele>
        <time>2016-11-19T08:40:47Z</time>
      </trkpt>
      <trkpt lat="44.16808" lon="4.65214">
        <ele>77.52</ele>
        <time>2016-11-19T08:40:48Z</time>
      </trkpt>
      <trkpt lat="44.16811" lon="4.65212">
        <ele>77.52</ele>
        <time>2016-11-19T08:40:49Z</time>
      </trkpt>
      <trkpt lat="44.16834" lon="4.65194">
        <ele>78.97</ele>
        <time>2016-11-19T08:40:59Z</time>
      </trkpt>
      <trkpt lat="44.16836" lon="4.65195">
        <ele>79.45</ele>
        <time>2016-11-19T08:41:00Z</time>
      </trkpt>
      <trkpt lat="44.16837" lon="4.65197">
        <ele>79.45</ele>
        <time>2016-11-19T08:41:01Z</time>
      </trkpt>
      <trkpt lat="44.16839" lon="4.65199">
        <ele>79.93</ele>
        <time>2016-11-19T08:41:02Z</time>
      </trkpt>
      <trkpt lat="44.1684" lon="4.65202">
        <ele>79.93</ele>
        <time>2016-11-19T08:41:03Z</time>
      </trkpt>
      <trkpt lat="44.16842" lon="4.65204">
        <ele>80.41</ele>
        <time>2016-11-19T08:41:04Z</time>
      </trkpt>
      <trkpt lat="44.16859" lon="4.65224">
        <ele>81.85</ele>
        <time>2016-11-19T08:41:10Z</time>
      </trkpt>
      <trkpt lat="44.1686" lon="4.65228">
        <ele>82.33</ele>
        <time>2016-11-19T08:41:11Z</time>
      </trkpt>
      <trkpt lat="44.16871" lon="4.6526">
        <ele>83.29</ele>
        <time>2016-11-19T08:41:19Z</time>
      </trkpt>
      <trkpt lat="44.16873" lon="4.65263">
        <ele>83.29</ele>
        <time>2016-11-19T08:41:20Z</time>
      </trkpt>
      <trkpt lat="44.16876" lon="4.65266">
        <ele>83.29</ele>
        <time>2016-11-19T08:41:21Z</time>
      </trkpt>
      <trkpt lat="44.16879" lon="4.65268">
        <ele>83.29</ele>
        <time>2016-11-19T08:41:22Z</time>
      </trkpt>
      <trkpt lat="44.16883" lon="4.65269">
        <ele>83.29</ele>
        <time>2016-11-19T08:41:23Z</time>
      </trkpt>
      <trkpt lat="44.16906" lon="4.65278">
        <ele>84.25</ele>
        <time>2016-11-19T08:41:33Z</time>
      </trkpt>
      <trkpt lat="44.16909" lon="4.65283">
        <ele>86.66</ele>
        <time>2016-11-19T08:41:42Z</time>
      </trkpt>
      <trkpt lat="44.16917" lon="4.65288">
        <ele>88.1</ele>
        <time>2016-11-19T08:41:54Z</time>
      </trkpt>
      <trkpt lat="44.16927" lon="4.65288">
        <ele>90.5</ele>
        <time>2016-11-19T08:42:07Z</time>
      </trkpt>
      <trkpt lat="44.16941" lon="4.65289">
        <ele>91.46</ele>
        <time>2016-11-19T08:42:18Z</time>
      </trkpt>
      <trkpt lat="44.16944" lon="4.65292">
        <ele>91.94</ele>
        <time>2016-11-19T08:42:20Z</time>
      </trkpt>
      <trkpt lat="44.16945" lon="4.65294">
        <ele>92.42</ele>
        <time>2016-11-19T08:42:21Z</time>
      </trkpt>
      <trkpt lat="44.16947" lon="4.65296">
        <ele>92.42</ele>
        <time>2016-11-19T08:42:22Z</time>
      </trkpt>
      <trkpt lat="44.16948" lon="4.65297">
        <ele>92.42</ele>
        <time>2016-11-19T08:42:23Z</time>
      </trkpt>
      <trkpt lat="44.1695" lon="4.65298">
        <ele>92.42</ele>
        <time>2016-11-19T08:42:24Z</time>
      </trkpt>
      <trkpt lat="44.16953" lon="4.65299">
        <ele>92.9</ele>
        <time>2016-11-19T08:42:26Z</time>
      </trkpt>
      <trkpt lat="44.16965" lon="4.65306">
        <ele>94.35</ele>
        <time>2016-11-19T08:42:33Z</time>
      </trkpt>
      <trkpt lat="44.16983" lon="4.65303">
        <ele>95.31</ele>
        <time>2016-11-19T08:42:44Z</time>
      </trkpt>
      <trkpt lat="44.16998" lon="4.65296">
        <ele>96.27</ele>
        <time>2016-11-19T08:42:53Z</time>
      </trkpt>
      <trkpt lat="44.17" lon="4.65294">
        <ele>96.75</ele>
        <time>2016-11-19T08:42:54Z</time>
      </trkpt>
      <trkpt lat="44.17003" lon="4.65292">
        <ele>97.23</ele>
        <time>2016-11-19T08:42:56Z</time>
      </trkpt>
      <trkpt lat="44.17005" lon="4.65291">
        <ele>97.23</ele>
        <time>2016-11-19T08:42:57Z</time>
      </trkpt>
      <trkpt lat="44.17013" lon="4.6529">
        <ele>98.19</ele>
        <time>2016-11-19T08:43:01Z</time>
      </trkpt>
      <trkpt lat="44.17015" lon="4.65289">
        <ele>98.19</ele>
        <time>2016-11-19T08:43:02Z</time>
      </trkpt>
      <trkpt lat="44.17017" lon="4.65288">
        <ele>98.67</ele>
        <time>2016-11-19T08:43:03Z</time>
      </trkpt>
      <trkpt lat="44.17019" lon="4.65288">
        <ele>98.67</ele>
        <time>2016-11-19T08:43:04Z</time>
      </trkpt>
      <trkpt lat="44.17022" lon="4.65287">
        <ele>99.15</ele>
        <time>2016-11-19T08:43:05Z</time>
      </trkpt>
      <trkpt lat="44.17025" lon="4.65286">
        <ele>99.15</ele>
        <time>2016-11-19T08:43:06Z</time>
      </trkpt>
      <trkpt lat="44.17041" lon="4.65284">
        <ele>100.6</ele>
        <time>2016-11-19T08:43:14Z</time>
      </trkpt>
      <trkpt lat="44.17055" lon="4.65282">
        <ele>101.56</ele>
        <time>2016-11-19T08:43:21Z</time>
      </trkpt>
      <trkpt lat="44.17057" lon="4.65283">
        <ele>101.56</ele>
        <time>2016-11-19T08:43:22Z</time>
      </trkpt>
      <trkpt lat="44.1706" lon="4.65283">
        <ele>101.56</ele>
        <time>2016-11-19T08:43:23Z</time>
      </trkpt>
      <trkpt lat="44.17076" lon="4.65291">
        <ele>104.44</ele>
        <time>2016-11-19T08:43:34Z</time>
      </trkpt>
      <trkpt lat="44.17092" lon="4.65305">
        <ele>107.81</ele>
        <time>2016-11-19T08:43:45Z</time>
      </trkpt>
      <trkpt lat="44.17099" lon="4.65325">
        <ele>108.77</ele>
        <time>2016-11-19T08:43:56Z</time>
      </trkpt>
      <trkpt lat="44.1711" lon="4.65342">
        <ele>109.73</ele>
        <time>2016-11-19T08:44:06Z</time>
      </trkpt>
      <trkpt lat="44.17122" lon="4.65367">
        <ele>110.21</ele>
        <time>2016-11-19T08:44:16Z</time>
      </trkpt>
      <trkpt lat="44.17132" lon="4.65385">
        <ele>110.21</ele>
        <time>2016-11-19T08:44:21Z</time>
      </trkpt>
      <trkpt lat="44.17134" lon="4.65387">
        <ele>110.21</ele>
        <time>2016-11-19T08:44:22Z</time>
      </trkpt>
      <trkpt lat="44.17177" lon="4.65415">
        <ele>110.69</ele>
        <time>2016-11-19T08:44:33Z</time>
      </trkpt>
      <trkpt lat="44.1718" lon="4.65414">
        <ele>110.69</ele>
        <time>2016-11-19T08:44:34Z</time>
      </trkpt>
      <trkpt lat="44.17188" lon="4.65409">
        <ele>108.29</ele>
        <time>2016-11-19T08:44:36Z</time>
      </trkpt>
      <trkpt lat="44.17198" lon="4.65405">
        <ele>106.84</ele>
        <time>2016-11-19T08:44:38Z</time>
      </trkpt>
      <trkpt lat="44.17209" lon="4.65404">
        <ele>104.92</ele>
        <time>2016-11-19T08:44:40Z</time>
      </trkpt>
      <trkpt lat="44.17215" lon="4.65405">
        <ele>104.92</ele>
        <time>2016-11-19T08:44:41Z</time>
      </trkpt>
      <trkpt lat="44.17232" lon="4.65407">
        <ele>104.44</ele>
        <time>2016-11-19T08:44:44Z</time>
      </trkpt>
      <trkpt lat="44.17255" lon="4.65407">
        <ele>104.44</ele>
        <time>2016-11-19T08:44:52Z</time>
      </trkpt>
      <trkpt lat="44.17259" lon="4.65406">
        <ele>104.44</ele>
        <time>2016-11-19T08:44:57Z</time>
      </trkpt>
      <trkpt lat="44.17259" lon="4.65404">
        <ele>104.44</ele>
        <time>2016-11-19T08:44:58Z</time>
      </trkpt>
      <trkpt lat="44.17259" lon="4.65402">
        <ele>104.44</ele>
        <time>2016-11-19T08:44:59Z</time>
      </trkpt>
      <trkpt lat="44.1726" lon="4.65401">
        <ele>104.44</ele>
        <time>2016-11-19T08:45:00Z</time>
      </trkpt>
      <trkpt lat="44.17262" lon="4.65399">
        <ele>104.44</ele>
        <time>2016-11-19T08:45:01Z</time>
      </trkpt>
      <trkpt lat="44.17283" lon="4.65371">
        <ele>104.44</ele>
        <time>2016-11-19T08:45:14Z</time>
      </trkpt>
      <trkpt lat="44.17294" lon="4.65325">
        <ele>107.81</ele>
        <time>2016-11-19T08:45:28Z</time>
      </trkpt>
      <trkpt lat="44.17296" lon="4.6527">
        <ele>109.25</ele>
        <time>2016-11-19T08:45:43Z</time>
      </trkpt>
      <trkpt lat="44.17298" lon="4.65211">
        <ele>111.17</ele>
        <time>2016-11-19T08:45:57Z</time>
      </trkpt>
      <trkpt lat="44.17289" lon="4.65176">
        <ele>111.17</ele>
        <time>2016-11-19T08:46:06Z</time>
      </trkpt>
      <trkpt lat="44.17273" lon="4.65142">
        <ele>112.13</ele>
        <time>2016-11-19T08:46:15Z</time>
      </trkpt>
      <trkpt lat="44.17271" lon="4.65139">
        <ele>112.13</ele>
        <time>2016-11-19T08:46:16Z</time>
      </trkpt>
      <trkpt lat="44.17268" lon="4.65138">
        <ele>112.13</ele>
        <time>2016-11-19T08:46:17Z</time>
      </trkpt>
      <trkpt lat="44.17265" lon="4.65137">
        <ele>112.13</ele>
        <time>2016-11-19T08:46:18Z</time>
      </trkpt>
      <trkpt lat="44.17261" lon="4.65136">
        <ele>112.13</ele>
        <time>2016-11-19T08:46:19Z</time>
      </trkpt>
      <trkpt lat="44.17233" lon="4.65113">
        <ele>113.09</ele>
        <time>2016-11-19T08:46:28Z</time>
      </trkpt>
      <trkpt lat="44.17201" lon="4.6509">
        <ele>112.13</ele>
        <time>2016-11-19T08:46:36Z</time>
      </trkpt>
      <trkpt lat="44.17188" lon="4.65084">
        <ele>110.21</ele>
        <time>2016-11-19T08:46:38Z</time>
      </trkpt>
      <trkpt lat="44.1717" lon="4.65083">
        <ele>108.29</ele>
        <time>2016-11-19T08:46:41Z</time>
      </trkpt>
      <trkpt lat="44.17157" lon="4.65079">
        <ele>107.32</ele>
        <time>2016-11-19T08:46:43Z</time>
      </trkpt>
      <trkpt lat="44.17131" lon="4.65066">
        <ele>106.36</ele>
        <time>2016-11-19T08:46:47Z</time>
      </trkpt>
      <trkpt lat="44.17094" lon="4.65057">
        <ele>103.96</ele>
        <time>2016-11-19T08:46:54Z</time>
      </trkpt>
      <trkpt lat="44.17075" lon="4.65042">
        <ele>103</ele>
        <time>2016-11-19T08:46:58Z</time>
      </trkpt>
      <trkpt lat="44.17068" lon="4.65032">
        <ele>103</ele>
        <time>2016-11-19T08:47:00Z</time>
      </trkpt>
      <trkpt lat="44.17053" lon="4.64999">
        <ele>102.52</ele>
        <time>2016-11-19T08:47:06Z</time>
      </trkpt>
      <trkpt lat="44.1705" lon="4.64977">
        <ele>100.11</ele>
        <time>2016-11-19T08:47:09Z</time>
      </trkpt>
      <trkpt lat="44.17032" lon="4.64941">
        <ele>95.31</ele>
        <time>2016-11-19T08:47:15Z</time>
      </trkpt>
      <trkpt lat="44.17008" lon="4.64922">
        <ele>90.98</ele>
        <time>2016-11-19T08:47:20Z</time>
      </trkpt>
      <trkpt lat="44.17004" lon="4.64914">
        <ele>90.5</ele>
        <time>2016-11-19T08:47:22Z</time>
      </trkpt>
      <trkpt lat="44.17004" lon="4.64906">
        <ele>89.54</ele>
        <time>2016-11-19T08:47:24Z</time>
      </trkpt>
      <trkpt lat="44.1701" lon="4.64892">
        <ele>89.06</ele>
        <time>2016-11-19T08:47:27Z</time>
      </trkpt>
      <trkpt lat="44.17017" lon="4.64881">
        <ele>88.58</ele>
        <time>2016-11-19T08:47:29Z</time>
      </trkpt>
      <trkpt lat="44.17036" lon="4.64854">
        <ele>88.1</ele>
        <time>2016-11-19T08:47:34Z</time>
      </trkpt>
      <trkpt lat="44.17054" lon="4.64831">
        <ele>87.62</ele>
        <time>2016-11-19T08:47:39Z</time>
      </trkpt>
      <trkpt lat="44.17067" lon="4.64819">
        <ele>87.14</ele>
        <time>2016-11-19T08:47:42Z</time>
      </trkpt>
      <trkpt lat="44.17082" lon="4.64797">
        <ele>86.66</ele>
        <time>2016-11-19T08:47:48Z</time>
      </trkpt>
      <trkpt lat="44.17105" lon="4.64769">
        <ele>85.21</ele>
        <time>2016-11-19T08:47:54Z</time>
      </trkpt>
      <trkpt lat="44.17151" lon="4.64734">
        <ele>83.29</ele>
        <time>2016-11-19T08:48:06Z</time>
      </trkpt>
      <trkpt lat="44.17155" lon="4.64728">
        <ele>82.81</ele>
        <time>2016-11-19T08:48:07Z</time>
      </trkpt>
      <trkpt lat="44.17166" lon="4.64715">
        <ele>80.89</ele>
        <time>2016-11-19T08:48:10Z</time>
      </trkpt>
      <trkpt lat="44.17178" lon="4.64698">
        <ele>78.48</ele>
        <time>2016-11-19T08:48:13Z</time>
      </trkpt>
      <trkpt lat="44.17193" lon="4.64674">
        <ele>74.64</ele>
        <time>2016-11-19T08:48:16Z</time>
      </trkpt>
      <trkpt lat="44.17197" lon="4.6467">
        <ele>73.68</ele>
        <time>2016-11-19T08:48:17Z</time>
      </trkpt>
      <trkpt lat="44.17217" lon="4.64668">
        <ele>73.2</ele>
        <time>2016-11-19T08:48:22Z</time>
      </trkpt>
      <trkpt lat="44.17262" lon="4.64673">
        <ele>70.31</ele>
        <time>2016-11-19T08:48:28Z</time>
      </trkpt>
      <trkpt lat="44.1728" lon="4.6467">
        <ele>68.39</ele>
        <time>2016-11-19T08:48:31Z</time>
      </trkpt>
      <trkpt lat="44.17282" lon="4.64667">
        <ele>67.91</ele>
        <time>2016-11-19T08:48:32Z</time>
      </trkpt>
      <trkpt lat="44.17283" lon="4.64662">
        <ele>67.43</ele>
        <time>2016-11-19T08:48:33Z</time>
      </trkpt>
      <trkpt lat="44.17286" lon="4.64653">
        <ele>65.99</ele>
        <time>2016-11-19T08:48:35Z</time>
      </trkpt>
      <trkpt lat="44.17288" lon="4.64649">
        <ele>65.99</ele>
        <time>2016-11-19T08:48:36Z</time>
      </trkpt>
      <trkpt lat="44.17291" lon="4.64648">
        <ele>65.99</ele>
        <time>2016-11-19T08:48:37Z</time>
      </trkpt>
      <trkpt lat="44.17294" lon="4.64648">
        <ele>65.99</ele>
        <time>2016-11-19T08:48:38Z</time>
      </trkpt>
      <trkpt lat="44.17296" lon="4.6465">
        <ele>65.99</ele>
        <time>2016-11-19T08:48:39Z</time>
      </trkpt>
      <trkpt lat="44.17299" lon="4.64651">
        <ele>65.99</ele>
        <time>2016-11-19T08:48:40Z</time>
      </trkpt>
      <trkpt lat="44.17302" lon="4.64652">
        <ele>65.99</ele>
        <time>2016-11-19T08:48:41Z</time>
      </trkpt>
      <trkpt lat="44.17304" lon="4.64653">
        <ele>65.99</ele>
        <time>2016-11-19T08:48:42Z</time>
      </trkpt>
      <trkpt lat="44.17306" lon="4.64655">
        <ele>65.99</ele>
        <time>2016-11-19T08:48:43Z</time>
      </trkpt>
      <trkpt lat="44.17308" lon="4.64656">
        <ele>65.99</ele>
        <time>2016-11-19T08:48:44Z</time>
      </trkpt>
      <trkpt lat="44.17317" lon="4.64668">
        <ele>67.91</ele>
        <time>2016-11-19T08:48:53Z</time>
      </trkpt>
      <trkpt lat="44.17323" lon="4.64675">
        <ele>68.39</ele>
        <time>2016-11-19T08:48:58Z</time>
      </trkpt>
      <trkpt lat="44.17324" lon="4.64677">
        <ele>68.39</ele>
        <time>2016-11-19T08:48:59Z</time>
      </trkpt>
      <trkpt lat="44.17325" lon="4.64679">
        <ele>68.39</ele>
        <time>2016-11-19T08:49:00Z</time>
      </trkpt>
      <trkpt lat="44.17326" lon="4.6468">
        <ele>68.39</ele>
        <time>2016-11-19T08:49:01Z</time>
      </trkpt>
      <trkpt lat="44.17328" lon="4.64683">
        <ele>68.39</ele>
        <time>2016-11-19T08:49:02Z</time>
      </trkpt>
      <trkpt lat="44.17344" lon="4.64711">
        <ele>70.31</ele>
        <time>2016-11-19T08:49:15Z</time>
      </trkpt>
      <trkpt lat="44.17348" lon="4.64717">
        <ele>71.27</ele>
        <time>2016-11-19T08:49:19Z</time>
      </trkpt>
      <trkpt lat="44.17351" lon="4.64721">
        <ele>71.27</ele>
        <time>2016-11-19T08:49:22Z</time>
      </trkpt>
      <trkpt lat="44.17351" lon="4.64722">
        <ele>71.27</ele>
        <time>2016-11-19T08:49:23Z</time>
      </trkpt>
      <trkpt lat="44.17352" lon="4.64724">
        <ele>71.27</ele>
        <time>2016-11-19T08:49:24Z</time>
      </trkpt>
      <trkpt lat="44.17353" lon="4.64726">
        <ele>71.76</ele>
        <time>2016-11-19T08:49:25Z</time>
      </trkpt>
      <trkpt lat="44.17353" lon="4.64728">
        <ele>71.27</ele>
        <time>2016-11-19T08:49:26Z</time>
      </trkpt>
      <trkpt lat="44.17355" lon="4.64734">
        <ele>71.76</ele>
        <time>2016-11-19T08:49:41Z</time>
      </trkpt>
      <trkpt lat="44.17359" lon="4.64752">
        <ele>71.76</ele>
        <time>2016-11-19T08:50:04Z</time>
      </trkpt>
      <trkpt lat="44.17368" lon="4.64799">
        <ele>73.68</ele>
        <time>2016-11-19T08:50:18Z</time>
      </trkpt>
      <trkpt lat="44.17387" lon="4.64842">
        <ele>76.08</ele>
        <time>2016-11-19T08:50:33Z</time>
      </trkpt>
      <trkpt lat="44.17398" lon="4.6488">
        <ele>77.52</ele>
        <time>2016-11-19T08:50:43Z</time>
      </trkpt>
      <trkpt lat="44.17415" lon="4.64914">
        <ele>80.89</ele>
        <time>2016-11-19T08:50:55Z</time>
      </trkpt>
      <trkpt lat="44.17448" lon="4.64947">
        <ele>82.81</ele>
        <time>2016-11-19T08:51:12Z</time>
      </trkpt>
      <trkpt lat="44.17477" lon="4.64967">
        <ele>84.25</ele>
        <time>2016-11-19T08:51:26Z</time>
      </trkpt>
      <trkpt lat="44.17505" lon="4.64968">
        <ele>85.21</ele>
        <time>2016-11-19T08:51:40Z</time>
      </trkpt>
      <trkpt lat="44.17546" lon="4.64962">
        <ele>85.69</ele>
        <time>2016-11-19T08:51:58Z</time>
      </trkpt>
      <trkpt lat="44.17585" lon="4.64962">
        <ele>86.18</ele>
        <time>2016-11-19T08:52:11Z</time>
      </trkpt>
      <trkpt lat="44.17632" lon="4.64955">
        <ele>87.62</ele>
        <time>2016-11-19T08:52:27Z</time>
      </trkpt>
      <trkpt lat="44.17665" lon="4.64939">
        <ele>88.58</ele>
        <time>2016-11-19T08:52:39Z</time>
      </trkpt>
      <trkpt lat="44.17679" lon="4.649">
        <ele>86.66</ele>
        <time>2016-11-19T08:52:46Z</time>
      </trkpt>
      <trkpt lat="44.17681" lon="4.64893">
        <ele>86.18</ele>
        <time>2016-11-19T08:52:47Z</time>
      </trkpt>
      <trkpt lat="44.17683" lon="4.64885">
        <ele>85.69</ele>
        <time>2016-11-19T08:52:48Z</time>
      </trkpt>
      <trkpt lat="44.17684" lon="4.64877">
        <ele>85.21</ele>
        <time>2016-11-19T08:52:49Z</time>
      </trkpt>
      <trkpt lat="44.17686" lon="4.6487">
        <ele>85.21</ele>
        <time>2016-11-19T08:52:50Z</time>
      </trkpt>
      <trkpt lat="44.17688" lon="4.64864">
        <ele>84.25</ele>
        <time>2016-11-19T08:52:51Z</time>
      </trkpt>
      <trkpt lat="44.17692" lon="4.64861">
        <ele>83.77</ele>
        <time>2016-11-19T08:52:52Z</time>
      </trkpt>
      <trkpt lat="44.17695" lon="4.6486">
        <ele>83.77</ele>
        <time>2016-11-19T08:52:53Z</time>
      </trkpt>
      <trkpt lat="44.17699" lon="4.64859">
        <ele>83.77</ele>
        <time>2016-11-19T08:52:54Z</time>
      </trkpt>
      <trkpt lat="44.17703" lon="4.64858">
        <ele>83.77</ele>
        <time>2016-11-19T08:52:55Z</time>
      </trkpt>
      <trkpt lat="44.17706" lon="4.64857">
        <ele>83.77</ele>
        <time>2016-11-19T08:52:56Z</time>
      </trkpt>
      <trkpt lat="44.1771" lon="4.64855">
        <ele>83.77</ele>
        <time>2016-11-19T08:52:57Z</time>
      </trkpt>
      <trkpt lat="44.17712" lon="4.64853">
        <ele>83.29</ele>
        <time>2016-11-19T08:52:58Z</time>
      </trkpt>
      <trkpt lat="44.17729" lon="4.64836">
        <ele>84.73</ele>
        <time>2016-11-19T08:53:05Z</time>
      </trkpt>
      <trkpt lat="44.1774" lon="4.64828">
        <ele>86.18</ele>
        <time>2016-11-19T08:53:10Z</time>
      </trkpt>
      <trkpt lat="44.17742" lon="4.6483">
        <ele>86.66</ele>
        <time>2016-11-19T08:53:11Z</time>
      </trkpt>
      <trkpt lat="44.17743" lon="4.64833">
        <ele>86.66</ele>
        <time>2016-11-19T08:53:12Z</time>
      </trkpt>
      <trkpt lat="44.17744" lon="4.64836">
        <ele>86.66</ele>
        <time>2016-11-19T08:53:13Z</time>
      </trkpt>
      <trkpt lat="44.17744" lon="4.64838">
        <ele>87.62</ele>
        <time>2016-11-19T08:53:14Z</time>
      </trkpt>
      <trkpt lat="44.17744" lon="4.64841">
        <ele>87.62</ele>
        <time>2016-11-19T08:53:15Z</time>
      </trkpt>
      <trkpt lat="44.17744" lon="4.64843">
        <ele>87.62</ele>
        <time>2016-11-19T08:53:16Z</time>
      </trkpt>
      <trkpt lat="44.17742" lon="4.64856">
        <ele>89.54</ele>
        <time>2016-11-19T08:53:21Z</time>
      </trkpt>
      <trkpt lat="44.17742" lon="4.64873">
        <ele>91.94</ele>
        <time>2016-11-19T08:53:27Z</time>
      </trkpt>
      <trkpt lat="44.17741" lon="4.64876">
        <ele>91.94</ele>
        <time>2016-11-19T08:53:28Z</time>
      </trkpt>
      <trkpt lat="44.17741" lon="4.64877">
        <ele>91.94</ele>
        <time>2016-11-19T08:53:29Z</time>
      </trkpt>
      <trkpt lat="44.1774" lon="4.6488">
        <ele>92.9</ele>
        <time>2016-11-19T08:53:30Z</time>
      </trkpt>
      <trkpt lat="44.1774" lon="4.64883">
        <ele>92.9</ele>
        <time>2016-11-19T08:53:31Z</time>
      </trkpt>
      <trkpt lat="44.1774" lon="4.64886">
        <ele>93.39</ele>
        <time>2016-11-19T08:53:32Z</time>
      </trkpt>
      <trkpt lat="44.1774" lon="4.64888">
        <ele>93.39</ele>
        <time>2016-11-19T08:53:33Z</time>
      </trkpt>
      <trkpt lat="44.17739" lon="4.64896">
        <ele>94.83</ele>
        <time>2016-11-19T08:53:36Z</time>
      </trkpt>
      <trkpt lat="44.17744" lon="4.64914">
        <ele>97.71</ele>
        <time>2016-11-19T08:53:43Z</time>
      </trkpt>
      <trkpt lat="44.17749" lon="4.6492">
        <ele>98.67</ele>
        <time>2016-11-19T08:53:48Z</time>
      </trkpt>
      <trkpt lat="44.1775" lon="4.64921">
        <ele>99.15</ele>
        <time>2016-11-19T08:53:49Z</time>
      </trkpt>
      <trkpt lat="44.17764" lon="4.6494">
        <ele>102.04</ele>
        <time>2016-11-19T08:54:00Z</time>
      </trkpt>
      <trkpt lat="44.17774" lon="4.64957">
        <ele>104.44</ele>
        <time>2016-11-19T08:54:10Z</time>
      </trkpt>
      <trkpt lat="44.17775" lon="4.64958">
        <ele>104.44</ele>
        <time>2016-11-19T08:54:11Z</time>
      </trkpt>
      <trkpt lat="44.17777" lon="4.64961">
        <ele>104.44</ele>
        <time>2016-11-19T08:54:13Z</time>
      </trkpt>
      <trkpt lat="44.17778" lon="4.64963">
        <ele>104.92</ele>
        <time>2016-11-19T08:54:14Z</time>
      </trkpt>
      <trkpt lat="44.17789" lon="4.64989">
        <ele>108.77</ele>
        <time>2016-11-19T08:54:27Z</time>
      </trkpt>
      <trkpt lat="44.17794" lon="4.65001">
        <ele>109.73</ele>
        <time>2016-11-19T08:54:35Z</time>
      </trkpt>
      <trkpt lat="44.17794" lon="4.65003">
        <ele>109.73</ele>
        <time>2016-11-19T08:54:36Z</time>
      </trkpt>
      <trkpt lat="44.17795" lon="4.65004">
        <ele>109.73</ele>
        <time>2016-11-19T08:54:37Z</time>
      </trkpt>
      <trkpt lat="44.17801" lon="4.65023">
        <ele>110.69</ele>
        <time>2016-11-19T08:54:48Z</time>
      </trkpt>
      <trkpt lat="44.17802" lon="4.65025">
        <ele>111.17</ele>
        <time>2016-11-19T08:54:49Z</time>
      </trkpt>
      <trkpt lat="44.17808" lon="4.65051">
        <ele>112.61</ele>
        <time>2016-11-19T08:55:02Z</time>
      </trkpt>
      <trkpt lat="44.17813" lon="4.65076">
        <ele>115.01</ele>
        <time>2016-11-19T08:55:14Z</time>
      </trkpt>
      <trkpt lat="44.17825" lon="4.65104">
        <ele>117.42</ele>
        <time>2016-11-19T08:55:28Z</time>
      </trkpt>
      <trkpt lat="44.17833" lon="4.65115">
        <ele>117.42</ele>
        <time>2016-11-19T08:55:34Z</time>
      </trkpt>
      <trkpt lat="44.17847" lon="4.65146">
        <ele>119.82</ele>
        <time>2016-11-19T08:55:48Z</time>
      </trkpt>
      <trkpt lat="44.17853" lon="4.65162">
        <ele>120.3</ele>
        <time>2016-11-19T08:55:54Z</time>
      </trkpt>
      <trkpt lat="44.17854" lon="4.65165">
        <ele>120.78</ele>
        <time>2016-11-19T08:55:55Z</time>
      </trkpt>
      <trkpt lat="44.17855" lon="4.65167">
        <ele>120.78</ele>
        <time>2016-11-19T08:55:56Z</time>
      </trkpt>
      <trkpt lat="44.17857" lon="4.6517">
        <ele>121.26</ele>
        <time>2016-11-19T08:55:57Z</time>
      </trkpt>
      <trkpt lat="44.17858" lon="4.65171">
        <ele>121.26</ele>
        <time>2016-11-19T08:55:58Z</time>
      </trkpt>
      <trkpt lat="44.17862" lon="4.65173">
        <ele>122.71</ele>
        <time>2016-11-19T08:56:01Z</time>
      </trkpt>
      <trkpt lat="44.17855" lon="4.65156">
        <ele>122.71</ele>
        <time>2016-11-19T08:56:07Z</time>
      </trkpt>
      <trkpt lat="44.1785" lon="4.65147">
        <ele>121.74</ele>
        <time>2016-11-19T08:56:09Z</time>
      </trkpt>
      <trkpt lat="44.17824" lon="4.65092">
        <ele>119.34</ele>
        <time>2016-11-19T08:56:18Z</time>
      </trkpt>
      <trkpt lat="44.17822" lon="4.65084">
        <ele>118.38</ele>
        <time>2016-11-19T08:56:19Z</time>
      </trkpt>
      <trkpt lat="44.17822" lon="4.65075">
        <ele>117.9</ele>
        <time>2016-11-19T08:56:20Z</time>
      </trkpt>
      <trkpt lat="44.17823" lon="4.65066">
        <ele>117.9</ele>
        <time>2016-11-19T08:56:21Z</time>
      </trkpt>
      <trkpt lat="44.17825" lon="4.65058">
        <ele>117.42</ele>
        <time>2016-11-19T08:56:22Z</time>
      </trkpt>
      <trkpt lat="44.17829" lon="4.6505">
        <ele>116.94</ele>
        <time>2016-11-19T08:56:23Z</time>
      </trkpt>
      <trkpt lat="44.17832" lon="4.65042">
        <ele>116.46</ele>
        <time>2016-11-19T08:56:24Z</time>
      </trkpt>
      <trkpt lat="44.17835" lon="4.65033">
        <ele>115.98</ele>
        <time>2016-11-19T08:56:25Z</time>
      </trkpt>
      <trkpt lat="44.17834" lon="4.65024">
        <ele>115.98</ele>
        <time>2016-11-19T08:56:26Z</time>
      </trkpt>
      <trkpt lat="44.17832" lon="4.65016">
        <ele>115.5</ele>
        <time>2016-11-19T08:56:27Z</time>
      </trkpt>
      <trkpt lat="44.17828" lon="4.65009">
        <ele>115.01</ele>
        <time>2016-11-19T08:56:28Z</time>
      </trkpt>
      <trkpt lat="44.17824" lon="4.65002">
        <ele>115.01</ele>
        <time>2016-11-19T08:56:29Z</time>
      </trkpt>
      <trkpt lat="44.17816" lon="4.64986">
        <ele>114.05</ele>
        <time>2016-11-19T08:56:31Z</time>
      </trkpt>
      <trkpt lat="44.17802" lon="4.64955">
        <ele>112.61</ele>
        <time>2016-11-19T08:56:35Z</time>
      </trkpt>
      <trkpt lat="44.17798" lon="4.64947">
        <ele>112.61</ele>
        <time>2016-11-19T08:56:36Z</time>
      </trkpt>
      <trkpt lat="44.17797" lon="4.6494">
        <ele>112.61</ele>
        <time>2016-11-19T08:56:37Z</time>
      </trkpt>
      <trkpt lat="44.17799" lon="4.64935">
        <ele>112.61</ele>
        <time>2016-11-19T08:56:38Z</time>
      </trkpt>
      <trkpt lat="44.17801" lon="4.6493">
        <ele>112.61</ele>
        <time>2016-11-19T08:56:39Z</time>
      </trkpt>
      <trkpt lat="44.17804" lon="4.64925">
        <ele>112.13</ele>
        <time>2016-11-19T08:56:40Z</time>
      </trkpt>
      <trkpt lat="44.17808" lon="4.64921">
        <ele>112.13</ele>
        <time>2016-11-19T08:56:41Z</time>
      </trkpt>
      <trkpt lat="44.17838" lon="4.64868">
        <ele>112.61</ele>
        <time>2016-11-19T08:56:51Z</time>
      </trkpt>
      <trkpt lat="44.17841" lon="4.6486">
        <ele>112.13</ele>
        <time>2016-11-19T08:56:52Z</time>
      </trkpt>
      <trkpt lat="44.17843" lon="4.64852">
        <ele>112.13</ele>
        <time>2016-11-19T08:56:53Z</time>
      </trkpt>
      <trkpt lat="44.17853" lon="4.64797">
        <ele>113.57</ele>
        <time>2016-11-19T08:57:01Z</time>
      </trkpt>
      <trkpt lat="44.17877" lon="4.64717">
        <ele>113.57</ele>
        <time>2016-11-19T08:57:13Z</time>
      </trkpt>
      <trkpt lat="44.1788" lon="4.64702">
        <ele>113.57</ele>
        <time>2016-11-19T08:57:15Z</time>
      </trkpt>
      <trkpt lat="44.17881" lon="4.64694">
        <ele>113.57</ele>
        <time>2016-11-19T08:57:16Z</time>
      </trkpt>
      <trkpt lat="44.17884" lon="4.6465">
        <ele>112.13</ele>
        <time>2016-11-19T08:57:22Z</time>
      </trkpt>
      <trkpt lat="44.17886" lon="4.64624">
        <ele>113.09</ele>
        <time>2016-11-19T08:57:26Z</time>
      </trkpt>
      <trkpt lat="44.17887" lon="4.64611">
        <ele>113.09</ele>
        <time>2016-11-19T08:57:28Z</time>
      </trkpt>
      <trkpt lat="44.17894" lon="4.64516">
        <ele>113.57</ele>
        <time>2016-11-19T08:57:42Z</time>
      </trkpt>
      <trkpt lat="44.17895" lon="4.64485">
        <ele>114.53</ele>
        <time>2016-11-19T08:57:47Z</time>
      </trkpt>
      <trkpt lat="44.17896" lon="4.64478">
        <ele>114.53</ele>
        <time>2016-11-19T08:57:48Z</time>
      </trkpt>
      <trkpt lat="44.17897" lon="4.64472">
        <ele>114.53</ele>
        <time>2016-11-19T08:57:49Z</time>
      </trkpt>
      <trkpt lat="44.179" lon="4.6446">
        <ele>115.5</ele>
        <time>2016-11-19T08:57:51Z</time>
      </trkpt>
      <trkpt lat="44.17903" lon="4.64456">
        <ele>115.5</ele>
        <time>2016-11-19T08:57:52Z</time>
      </trkpt>
      <trkpt lat="44.17906" lon="4.64455">
        <ele>115.5</ele>
        <time>2016-11-19T08:57:53Z</time>
      </trkpt>
      <trkpt lat="44.17913" lon="4.64453">
        <ele>118.38</ele>
        <time>2016-11-19T08:57:57Z</time>
      </trkpt>
      <trkpt lat="44.17917" lon="4.64444">
        <ele>119.82</ele>
        <time>2016-11-19T08:58:02Z</time>
      </trkpt>
      <trkpt lat="44.17924" lon="4.6444">
        <ele>121.26</ele>
        <time>2016-11-19T08:58:08Z</time>
      </trkpt>
      <trkpt lat="44.1793" lon="4.64438">
        <ele>121.74</ele>
        <time>2016-11-19T08:58:12Z</time>
      </trkpt>
      <trkpt lat="44.17932" lon="4.64435">
        <ele>122.71</ele>
        <time>2016-11-19T08:58:14Z</time>
      </trkpt>
      <trkpt lat="44.17946" lon="4.64427">
        <ele>126.07</ele>
        <time>2016-11-19T08:58:26Z</time>
      </trkpt>
      <trkpt lat="44.17956" lon="4.64411">
        <ele>127.99</ele>
        <time>2016-11-19T08:58:41Z</time>
      </trkpt>
      <trkpt lat="44.17957" lon="4.64406">
        <ele>128.47</ele>
        <time>2016-11-19T08:58:44Z</time>
      </trkpt>
      <trkpt lat="44.17968" lon="4.64398">
        <ele>130.88</ele>
        <time>2016-11-19T08:58:53Z</time>
      </trkpt>
      <trkpt lat="44.17971" lon="4.64394">
        <ele>132.32</ele>
        <time>2016-11-19T08:58:57Z</time>
      </trkpt>
      <trkpt lat="44.17975" lon="4.64389">
        <ele>133.76</ele>
        <time>2016-11-19T08:59:03Z</time>
      </trkpt>
      <trkpt lat="44.17977" lon="4.64381">
        <ele>134.24</ele>
        <time>2016-11-19T08:59:08Z</time>
      </trkpt>
      <trkpt lat="44.17979" lon="4.64363">
        <ele>133.76</ele>
        <time>2016-11-19T08:59:17Z</time>
      </trkpt>
      <trkpt lat="44.1798" lon="4.64357">
        <ele>134.24</ele>
        <time>2016-11-19T08:59:20Z</time>
      </trkpt>
      <trkpt lat="44.17984" lon="4.6435">
        <ele>134.72</ele>
        <time>2016-11-19T08:59:25Z</time>
      </trkpt>
      <trkpt lat="44.17983" lon="4.64346">
        <ele>134.72</ele>
        <time>2016-11-19T08:59:28Z</time>
      </trkpt>
      <trkpt lat="44.18003" lon="4.64323">
        <ele>133.28</ele>
        <time>2016-11-19T08:59:36Z</time>
      </trkpt>
      <trkpt lat="44.18027" lon="4.64323">
        <ele>134.72</ele>
        <time>2016-11-19T08:59:47Z</time>
      </trkpt>
      <trkpt lat="44.18028" lon="4.64324">
        <ele>134.72</ele>
        <time>2016-11-19T08:59:48Z</time>
      </trkpt>
      <trkpt lat="44.18051" lon="4.64329">
        <ele>136.64</ele>
        <time>2016-11-19T09:00:01Z</time>
      </trkpt>
      <trkpt lat="44.18083" lon="4.64334">
        <ele>139.05</ele>
        <time>2016-11-19T09:00:16Z</time>
      </trkpt>
      <trkpt lat="44.18107" lon="4.6434">
        <ele>139.05</ele>
        <time>2016-11-19T09:00:27Z</time>
      </trkpt>
      <trkpt lat="44.1812" lon="4.64349">
        <ele>139.53</ele>
        <time>2016-11-19T09:00:34Z</time>
      </trkpt>
      <trkpt lat="44.18128" lon="4.6435">
        <ele>140.01</ele>
        <time>2016-11-19T09:00:38Z</time>
      </trkpt>
      <trkpt lat="44.18141" lon="4.64354">
        <ele>141.45</ele>
        <time>2016-11-19T09:00:45Z</time>
      </trkpt>
      <trkpt lat="44.18144" lon="4.64359">
        <ele>141.93</ele>
        <time>2016-11-19T09:00:48Z</time>
      </trkpt>
      <trkpt lat="44.18152" lon="4.64363">
        <ele>142.41</ele>
        <time>2016-11-19T09:00:53Z</time>
      </trkpt>
      <trkpt lat="44.1817" lon="4.64377">
        <ele>145.3</ele>
        <time>2016-11-19T09:01:06Z</time>
      </trkpt>
      <trkpt lat="44.18188" lon="4.64393">
        <ele>146.26</ele>
        <time>2016-11-19T09:01:17Z</time>
      </trkpt>
      <trkpt lat="44.18195" lon="4.64407">
        <ele>146.74</ele>
        <time>2016-11-19T09:01:23Z</time>
      </trkpt>
      <trkpt lat="44.18218" lon="4.64432">
        <ele>146.74</ele>
        <time>2016-11-19T09:01:36Z</time>
      </trkpt>
      <trkpt lat="44.18225" lon="4.6444">
        <ele>148.18</ele>
        <time>2016-11-19T09:01:42Z</time>
      </trkpt>
      <trkpt lat="44.18248" lon="4.64441">
        <ele>148.66</ele>
        <time>2016-11-19T09:01:52Z</time>
      </trkpt>
      <trkpt lat="44.18259" lon="4.64447">
        <ele>150.58</ele>
        <time>2016-11-19T09:01:59Z</time>
      </trkpt>
      <trkpt lat="44.18265" lon="4.6445">
        <ele>152.03</ele>
        <time>2016-11-19T09:02:05Z</time>
      </trkpt>
      <trkpt lat="44.18272" lon="4.64449">
        <ele>152.51</ele>
        <time>2016-11-19T09:02:09Z</time>
      </trkpt>
      <trkpt lat="44.18294" lon="4.64447">
        <ele>153.95</ele>
        <time>2016-11-19T09:02:20Z</time>
      </trkpt>
      <trkpt lat="44.18307" lon="4.64442">
        <ele>154.43</ele>
        <time>2016-11-19T09:02:27Z</time>
      </trkpt>
      <trkpt lat="44.18334" lon="4.64438">
        <ele>155.87</ele>
        <time>2016-11-19T09:02:41Z</time>
      </trkpt>
      <trkpt lat="44.18346" lon="4.64438">
        <ele>155.87</ele>
        <time>2016-11-19T09:02:45Z</time>
      </trkpt>
      <trkpt lat="44.18351" lon="4.64436">
        <ele>155.87</ele>
        <time>2016-11-19T09:02:47Z</time>
      </trkpt>
      <trkpt lat="44.18381" lon="4.64417">
        <ele>152.51</ele>
        <time>2016-11-19T09:02:55Z</time>
      </trkpt>
      <trkpt lat="44.18387" lon="4.64411">
        <ele>152.51</ele>
        <time>2016-11-19T09:02:58Z</time>
      </trkpt>
      <trkpt lat="44.1841" lon="4.6441">
        <ele>154.43</ele>
        <time>2016-11-19T09:03:08Z</time>
      </trkpt>
      <trkpt lat="44.18415" lon="4.6441">
        <ele>154.91</ele>
        <time>2016-11-19T09:03:10Z</time>
      </trkpt>
      <trkpt lat="44.18432" lon="4.64406">
        <ele>154.91</ele>
        <time>2016-11-19T09:03:17Z</time>
      </trkpt>
      <trkpt lat="44.18445" lon="4.64404">
        <ele>153.47</ele>
        <time>2016-11-19T09:03:20Z</time>
      </trkpt>
      <trkpt lat="44.18464" lon="4.64397">
        <ele>152.03</ele>
        <time>2016-11-19T09:03:25Z</time>
      </trkpt>
      <trkpt lat="44.18468" lon="4.64395">
        <ele>152.03</ele>
        <time>2016-11-19T09:03:29Z</time>
      </trkpt>
      <trkpt lat="44.18478" lon="4.64396">
        <ele>152.03</ele>
        <time>2016-11-19T09:03:33Z</time>
      </trkpt>
      <trkpt lat="44.18494" lon="4.64401">
        <ele>155.39</ele>
        <time>2016-11-19T09:03:39Z</time>
      </trkpt>
      <trkpt lat="44.18509" lon="4.64406">
        <ele>155.39</ele>
        <time>2016-11-19T09:03:46Z</time>
      </trkpt>
      <trkpt lat="44.18536" lon="4.6442">
        <ele>155.87</ele>
        <time>2016-11-19T09:03:56Z</time>
      </trkpt>
      <trkpt lat="44.18554" lon="4.64429">
        <ele>156.35</ele>
        <time>2016-11-19T09:04:05Z</time>
      </trkpt>
      <trkpt lat="44.18562" lon="4.64432">
        <ele>156.35</ele>
        <time>2016-11-19T09:04:08Z</time>
      </trkpt>
      <trkpt lat="44.18566" lon="4.64437">
        <ele>156.35</ele>
        <time>2016-11-19T09:04:10Z</time>
      </trkpt>
      <trkpt lat="44.1858" lon="4.64446">
        <ele>157.31</ele>
        <time>2016-11-19T09:04:16Z</time>
      </trkpt>
      <trkpt lat="44.18601" lon="4.64466">
        <ele>158.27</ele>
        <time>2016-11-19T09:04:26Z</time>
      </trkpt>
      <trkpt lat="44.18624" lon="4.64485">
        <ele>157.79</ele>
        <time>2016-11-19T09:04:36Z</time>
      </trkpt>
      <trkpt lat="44.18628" lon="4.64491">
        <ele>157.79</ele>
        <time>2016-11-19T09:04:38Z</time>
      </trkpt>
      <trkpt lat="44.18634" lon="4.64496">
        <ele>156.83</ele>
        <time>2016-11-19T09:04:40Z</time>
      </trkpt>
      <trkpt lat="44.18637" lon="4.64499">
        <ele>155.87</ele>
        <time>2016-11-19T09:04:41Z</time>
      </trkpt>
      <trkpt lat="44.18654" lon="4.64525">
        <ele>153.47</ele>
        <time>2016-11-19T09:04:49Z</time>
      </trkpt>
      <trkpt lat="44.18664" lon="4.64537">
        <ele>150.58</ele>
        <time>2016-11-19T09:04:53Z</time>
      </trkpt>
      <trkpt lat="44.18688" lon="4.64562">
        <ele>146.74</ele>
        <time>2016-11-19T09:05:00Z</time>
      </trkpt>
      <trkpt lat="44.18703" lon="4.64575">
        <ele>145.3</ele>
        <time>2016-11-19T09:05:04Z</time>
      </trkpt>
      <trkpt lat="44.18724" lon="4.646">
        <ele>142.89</ele>
        <time>2016-11-19T09:05:10Z</time>
      </trkpt>
      <trkpt lat="44.18759" lon="4.64636">
        <ele>139.05</ele>
        <time>2016-11-19T09:05:18Z</time>
      </trkpt>
      <trkpt lat="44.1877" lon="4.64643">
        <ele>137.61</ele>
        <time>2016-11-19T09:05:20Z</time>
      </trkpt>
      <trkpt lat="44.1878" lon="4.64651">
        <ele>137.61</ele>
        <time>2016-11-19T09:05:22Z</time>
      </trkpt>
      <trkpt lat="44.188" lon="4.64657">
        <ele>135.2</ele>
        <time>2016-11-19T09:05:26Z</time>
      </trkpt>
      <trkpt lat="44.18829" lon="4.64662">
        <ele>132.32</ele>
        <time>2016-11-19T09:05:31Z</time>
      </trkpt>
      <trkpt lat="44.18859" lon="4.64672">
        <ele>131.36</ele>
        <time>2016-11-19T09:05:37Z</time>
      </trkpt>
      <trkpt lat="44.18873" lon="4.64679">
        <ele>130.88</ele>
        <time>2016-11-19T09:05:40Z</time>
      </trkpt>
      <trkpt lat="44.1891" lon="4.64686">
        <ele>128.95</ele>
        <time>2016-11-19T09:05:48Z</time>
      </trkpt>
      <trkpt lat="44.18942" lon="4.64686">
        <ele>125.59</ele>
        <time>2016-11-19T09:05:53Z</time>
      </trkpt>
      <trkpt lat="44.18972" lon="4.64686">
        <ele>122.71</ele>
        <time>2016-11-19T09:05:57Z</time>
      </trkpt>
      <trkpt lat="44.18996" lon="4.64689">
        <ele>121.26</ele>
        <time>2016-11-19T09:06:00Z</time>
      </trkpt>
      <trkpt lat="44.19016" lon="4.64692">
        <ele>120.3</ele>
        <time>2016-11-19T09:06:03Z</time>
      </trkpt>
      <trkpt lat="44.19047" lon="4.64703">
        <ele>116.94</ele>
        <time>2016-11-19T09:06:08Z</time>
      </trkpt>
      <trkpt lat="44.19076" lon="4.64715">
        <ele>113.09</ele>
        <time>2016-11-19T09:06:15Z</time>
      </trkpt>
      <trkpt lat="44.19089" lon="4.6471">
        <ele>110.21</ele>
        <time>2016-11-19T09:06:18Z</time>
      </trkpt>
      <trkpt lat="44.19093" lon="4.64706">
        <ele>108.77</ele>
        <time>2016-11-19T09:06:19Z</time>
      </trkpt>
      <trkpt lat="44.19107" lon="4.64692">
        <ele>105.88</ele>
        <time>2016-11-19T09:06:22Z</time>
      </trkpt>
      <trkpt lat="44.19114" lon="4.64688">
        <ele>104.92</ele>
        <time>2016-11-19T09:06:24Z</time>
      </trkpt>
      <trkpt lat="44.19117" lon="4.6469">
        <ele>104.92</ele>
        <time>2016-11-19T09:06:25Z</time>
      </trkpt>
      <trkpt lat="44.19119" lon="4.64692">
        <ele>104.44</ele>
        <time>2016-11-19T09:06:26Z</time>
      </trkpt>
      <trkpt lat="44.19121" lon="4.64695">
        <ele>104.44</ele>
        <time>2016-11-19T09:06:27Z</time>
      </trkpt>
      <trkpt lat="44.19129" lon="4.64712">
        <ele>104.44</ele>
        <time>2016-11-19T09:06:31Z</time>
      </trkpt>
      <trkpt lat="44.19131" lon="4.64716">
        <ele>104.44</ele>
        <time>2016-11-19T09:06:32Z</time>
      </trkpt>
      <trkpt lat="44.19133" lon="4.64722">
        <ele>104.44</ele>
        <time>2016-11-19T09:06:33Z</time>
      </trkpt>
      <trkpt lat="44.19136" lon="4.64736">
        <ele>104.44</ele>
        <time>2016-11-19T09:06:35Z</time>
      </trkpt>
      <trkpt lat="44.19136" lon="4.64743">
        <ele>103.96</ele>
        <time>2016-11-19T09:06:36Z</time>
      </trkpt>
      <trkpt lat="44.19136" lon="4.64752">
        <ele>103.48</ele>
        <time>2016-11-19T09:06:37Z</time>
      </trkpt>
      <trkpt lat="44.19134" lon="4.6476">
        <ele>103.48</ele>
        <time>2016-11-19T09:06:38Z</time>
      </trkpt>
      <trkpt lat="44.19133" lon="4.64768">
        <ele>102.52</ele>
        <time>2016-11-19T09:06:39Z</time>
      </trkpt>
      <trkpt lat="44.19131" lon="4.64775">
        <ele>101.56</ele>
        <time>2016-11-19T09:06:40Z</time>
      </trkpt>
      <trkpt lat="44.19129" lon="4.64781">
        <ele>101.56</ele>
        <time>2016-11-19T09:06:41Z</time>
      </trkpt>
      <trkpt lat="44.19127" lon="4.64785">
        <ele>100.6</ele>
        <time>2016-11-19T09:06:42Z</time>
      </trkpt>
      <trkpt lat="44.19124" lon="4.64789">
        <ele>100.11</ele>
        <time>2016-11-19T09:06:43Z</time>
      </trkpt>
      <trkpt lat="44.19121" lon="4.64792">
        <ele>99.63</ele>
        <time>2016-11-19T09:06:44Z</time>
      </trkpt>
      <trkpt lat="44.19117" lon="4.64795">
        <ele>99.63</ele>
        <time>2016-11-19T09:06:45Z</time>
      </trkpt>
      <trkpt lat="44.19112" lon="4.64796">
        <ele>99.63</ele>
        <time>2016-11-19T09:06:46Z</time>
      </trkpt>
      <trkpt lat="44.19108" lon="4.64797">
        <ele>99.63</ele>
        <time>2016-11-19T09:06:47Z</time>
      </trkpt>
      <trkpt lat="44.19104" lon="4.64799">
        <ele>99.63</ele>
        <time>2016-11-19T09:06:48Z</time>
      </trkpt>
      <trkpt lat="44.19091" lon="4.64803">
        <ele>99.15</ele>
        <time>2016-11-19T09:06:51Z</time>
      </trkpt>
      <trkpt lat="44.19088" lon="4.64806">
        <ele>99.15</ele>
        <time>2016-11-19T09:06:52Z</time>
      </trkpt>
      <trkpt lat="44.19086" lon="4.64809">
        <ele>99.15</ele>
        <time>2016-11-19T09:06:53Z</time>
      </trkpt>
      <trkpt lat="44.19084" lon="4.64811">
        <ele>99.15</ele>
        <time>2016-11-19T09:06:54Z</time>
      </trkpt>
      <trkpt lat="44.19083" lon="4.64813">
        <ele>99.15</ele>
        <time>2016-11-19T09:06:55Z</time>
      </trkpt>
      <trkpt lat="44.19081" lon="4.64817">
        <ele>99.15</ele>
        <time>2016-11-19T09:06:56Z</time>
      </trkpt>
      <trkpt lat="44.19069" lon="4.64834">
        <ele>99.15</ele>
        <time>2016-11-19T09:07:04Z</time>
      </trkpt>
      <trkpt lat="44.19069" lon="4.64834">
        <ele>99.15</ele>
        <time>2016-11-19T09:07:20Z</time>
      </trkpt>
      <trkpt lat="44.1907" lon="4.64834">
        <ele>99.15</ele>
        <time>2016-11-19T09:07:39Z</time>
      </trkpt>
      <trkpt lat="44.1907" lon="4.64835">
        <ele>99.15</ele>
        <time>2016-11-19T09:08:09Z</time>
      </trkpt>
      <trkpt lat="44.19069" lon="4.64833">
        <ele>98.67</ele>
        <time>2016-11-19T09:08:33Z</time>
      </trkpt>
      <trkpt lat="44.19068" lon="4.64835">
        <ele>98.19</ele>
        <time>2016-11-19T09:09:00Z</time>
      </trkpt>
      <trkpt lat="44.19068" lon="4.64838">
        <ele>98.19</ele>
        <time>2016-11-19T09:09:01Z</time>
      </trkpt>
      <trkpt lat="44.19067" lon="4.6484">
        <ele>98.19</ele>
        <time>2016-11-19T09:09:02Z</time>
      </trkpt>
      <trkpt lat="44.19065" lon="4.64843">
        <ele>98.19</ele>
        <time>2016-11-19T09:09:03Z</time>
      </trkpt>
      <trkpt lat="44.19064" lon="4.64846">
        <ele>98.19</ele>
        <time>2016-11-19T09:09:04Z</time>
      </trkpt>
      <trkpt lat="44.1904" lon="4.64889">
        <ele>99.63</ele>
        <time>2016-11-19T09:09:15Z</time>
      </trkpt>
      <trkpt lat="44.19" lon="4.64955">
        <ele>101.08</ele>
        <time>2016-11-19T09:09:31Z</time>
      </trkpt>
      <trkpt lat="44.18989" lon="4.64973">
        <ele>101.56</ele>
        <time>2016-11-19T09:09:35Z</time>
      </trkpt>
      <trkpt lat="44.18963" lon="4.65008">
        <ele>100.6</ele>
        <time>2016-11-19T09:09:42Z</time>
      </trkpt>
      <trkpt lat="44.1896" lon="4.65013">
        <ele>100.6</ele>
        <time>2016-11-19T09:09:43Z</time>
      </trkpt>
      <trkpt lat="44.18942" lon="4.65056">
        <ele>101.56</ele>
        <time>2016-11-19T09:09:51Z</time>
      </trkpt>
      <trkpt lat="44.18936" lon="4.65069">
        <ele>102.52</ele>
        <time>2016-11-19T09:09:54Z</time>
      </trkpt>
      <trkpt lat="44.18933" lon="4.65074">
        <ele>103</ele>
        <time>2016-11-19T09:09:55Z</time>
      </trkpt>
      <trkpt lat="44.18928" lon="4.65082">
        <ele>103</ele>
        <time>2016-11-19T09:09:57Z</time>
      </trkpt>
      <trkpt lat="44.18924" lon="4.65085">
        <ele>103.48</ele>
        <time>2016-11-19T09:09:58Z</time>
      </trkpt>
      <trkpt lat="44.1892" lon="4.65088">
        <ele>103.48</ele>
        <time>2016-11-19T09:09:59Z</time>
      </trkpt>
      <trkpt lat="44.18916" lon="4.65091">
        <ele>103.48</ele>
        <time>2016-11-19T09:10:00Z</time>
      </trkpt>
      <trkpt lat="44.18912" lon="4.65093">
        <ele>103.48</ele>
        <time>2016-11-19T09:10:01Z</time>
      </trkpt>
      <trkpt lat="44.18881" lon="4.65123">
        <ele>102.52</ele>
        <time>2016-11-19T09:10:09Z</time>
      </trkpt>
      <trkpt lat="44.18877" lon="4.65129">
        <ele>102.52</ele>
        <time>2016-11-19T09:10:10Z</time>
      </trkpt>
      <trkpt lat="44.18873" lon="4.65135">
        <ele>102.04</ele>
        <time>2016-11-19T09:10:11Z</time>
      </trkpt>
      <trkpt lat="44.18871" lon="4.65141">
        <ele>102.04</ele>
        <time>2016-11-19T09:10:12Z</time>
      </trkpt>
      <trkpt lat="44.1887" lon="4.65149">
        <ele>102.04</ele>
        <time>2016-11-19T09:10:13Z</time>
      </trkpt>
      <trkpt lat="44.18869" lon="4.65156">
        <ele>102.04</ele>
        <time>2016-11-19T09:10:14Z</time>
      </trkpt>
      <trkpt lat="44.18869" lon="4.65164">
        <ele>102.04</ele>
        <time>2016-11-19T09:10:15Z</time>
      </trkpt>
      <trkpt lat="44.1887" lon="4.65245">
        <ele>102.04</ele>
        <time>2016-11-19T09:10:27Z</time>
      </trkpt>
      <trkpt lat="44.18869" lon="4.65251">
        <ele>102.04</ele>
        <time>2016-11-19T09:10:28Z</time>
      </trkpt>
      <trkpt lat="44.18863" lon="4.65287">
        <ele>104.44</ele>
        <time>2016-11-19T09:10:34Z</time>
      </trkpt>
      <trkpt lat="44.18853" lon="4.65334">
        <ele>105.4</ele>
        <time>2016-11-19T09:10:42Z</time>
      </trkpt>
      <trkpt lat="44.18851" lon="4.65377">
        <ele>105.88</ele>
        <time>2016-11-19T09:10:49Z</time>
      </trkpt>
      <trkpt lat="44.18849" lon="4.65383">
        <ele>105.88</ele>
        <time>2016-11-19T09:10:50Z</time>
      </trkpt>
      <trkpt lat="44.18847" lon="4.65388">
        <ele>106.36</ele>
        <time>2016-11-19T09:10:51Z</time>
      </trkpt>
      <trkpt lat="44.18845" lon="4.65393">
        <ele>106.36</ele>
        <time>2016-11-19T09:10:52Z</time>
      </trkpt>
      <trkpt lat="44.18842" lon="4.65397">
        <ele>106.84</ele>
        <time>2016-11-19T09:10:53Z</time>
      </trkpt>
      <trkpt lat="44.1884" lon="4.65401">
        <ele>106.84</ele>
        <time>2016-11-19T09:10:54Z</time>
      </trkpt>
      <trkpt lat="44.18837" lon="4.65405">
        <ele>106.84</ele>
        <time>2016-11-19T09:10:55Z</time>
      </trkpt>
      <trkpt lat="44.18822" lon="4.65453">
        <ele>109.73</ele>
        <time>2016-11-19T09:11:07Z</time>
      </trkpt>
      <trkpt lat="44.18813" lon="4.65516">
        <ele>113.09</ele>
        <time>2016-11-19T09:11:22Z</time>
      </trkpt>
      <trkpt lat="44.18807" lon="4.65574">
        <ele>115.5</ele>
        <time>2016-11-19T09:11:36Z</time>
      </trkpt>
      <trkpt lat="44.18818" lon="4.65615">
        <ele>118.38</ele>
        <time>2016-11-19T09:11:49Z</time>
      </trkpt>
      <trkpt lat="44.18839" lon="4.65605">
        <ele>116.94</ele>
        <time>2016-11-19T09:11:55Z</time>
      </trkpt>
      <trkpt lat="44.18875" lon="4.65584">
        <ele>115.98</ele>
        <time>2016-11-19T09:12:04Z</time>
      </trkpt>
      <trkpt lat="44.18895" lon="4.6558">
        <ele>115.5</ele>
        <time>2016-11-19T09:12:09Z</time>
      </trkpt>
      <trkpt lat="44.18904" lon="4.65582">
        <ele>115.01</ele>
        <time>2016-11-19T09:12:11Z</time>
      </trkpt>
      <trkpt lat="44.18907" lon="4.65585">
        <ele>115.01</ele>
        <time>2016-11-19T09:12:12Z</time>
      </trkpt>
      <trkpt lat="44.18908" lon="4.65589">
        <ele>115.01</ele>
        <time>2016-11-19T09:12:13Z</time>
      </trkpt>
      <trkpt lat="44.18908" lon="4.65592">
        <ele>115.01</ele>
        <time>2016-11-19T09:12:14Z</time>
      </trkpt>
      <trkpt lat="44.18908" lon="4.65594">
        <ele>115.01</ele>
        <time>2016-11-19T09:12:15Z</time>
      </trkpt>
      <trkpt lat="44.18907" lon="4.65596">
        <ele>115.01</ele>
        <time>2016-11-19T09:12:16Z</time>
      </trkpt>
      <trkpt lat="44.18906" lon="4.65597">
        <ele>116.94</ele>
        <time>2016-11-19T09:12:17Z</time>
      </trkpt>
      <trkpt lat="44.18905" lon="4.65599">
        <ele>116.94</ele>
        <time>2016-11-19T09:12:18Z</time>
      </trkpt>
      <trkpt lat="44.18893" lon="4.65608">
        <ele>119.82</ele>
        <time>2016-11-19T09:12:26Z</time>
      </trkpt>
      <trkpt lat="44.18873" lon="4.65632">
        <ele>123.19</ele>
        <time>2016-11-19T09:12:38Z</time>
      </trkpt>
      <trkpt lat="44.18858" lon="4.6566">
        <ele>126.55</ele>
        <time>2016-11-19T09:12:50Z</time>
      </trkpt>
      <trkpt lat="44.18851" lon="4.65692">
        <ele>129.43</ele>
        <time>2016-11-19T09:13:02Z</time>
      </trkpt>
      <trkpt lat="44.18849" lon="4.6574">
        <ele>132.8</ele>
        <time>2016-11-19T09:13:18Z</time>
      </trkpt>
      <trkpt lat="44.18845" lon="4.65786">
        <ele>136.16</ele>
        <time>2016-11-19T09:13:34Z</time>
      </trkpt>
      <trkpt lat="44.18846" lon="4.65817">
        <ele>139.53</ele>
        <time>2016-11-19T09:13:46Z</time>
      </trkpt>
      <trkpt lat="44.18848" lon="4.65849">
        <ele>141.93</ele>
        <time>2016-11-19T09:13:59Z</time>
      </trkpt>
      <trkpt lat="44.18842" lon="4.65889">
        <ele>144.82</ele>
        <time>2016-11-19T09:14:15Z</time>
      </trkpt>
      <trkpt lat="44.18818" lon="4.65898">
        <ele>145.3</ele>
        <time>2016-11-19T09:14:28Z</time>
      </trkpt>
      <trkpt lat="44.18781" lon="4.65888">
        <ele>145.3</ele>
        <time>2016-11-19T09:14:39Z</time>
      </trkpt>
      <trkpt lat="44.18758" lon="4.65875">
        <ele>143.85</ele>
        <time>2016-11-19T09:14:45Z</time>
      </trkpt>
      <trkpt lat="44.18754" lon="4.65872">
        <ele>142.89</ele>
        <time>2016-11-19T09:14:46Z</time>
      </trkpt>
      <trkpt lat="44.1875" lon="4.65868">
        <ele>142.89</ele>
        <time>2016-11-19T09:14:47Z</time>
      </trkpt>
      <trkpt lat="44.1874" lon="4.65861">
        <ele>142.41</ele>
        <time>2016-11-19T09:14:49Z</time>
      </trkpt>
      <trkpt lat="44.18735" lon="4.6586">
        <ele>141.93</ele>
        <time>2016-11-19T09:14:50Z</time>
      </trkpt>
      <trkpt lat="44.18729" lon="4.6586">
        <ele>141.45</ele>
        <time>2016-11-19T09:14:51Z</time>
      </trkpt>
      <trkpt lat="44.18724" lon="4.65862">
        <ele>141.45</ele>
        <time>2016-11-19T09:14:52Z</time>
      </trkpt>
      <trkpt lat="44.1872" lon="4.65865">
        <ele>140.01</ele>
        <time>2016-11-19T09:14:53Z</time>
      </trkpt>
      <trkpt lat="44.18715" lon="4.65868">
        <ele>140.01</ele>
        <time>2016-11-19T09:14:54Z</time>
      </trkpt>
      <trkpt lat="44.1871" lon="4.65869">
        <ele>139.53</ele>
        <time>2016-11-19T09:14:55Z</time>
      </trkpt>
      <trkpt lat="44.18706" lon="4.65871">
        <ele>139.53</ele>
        <time>2016-11-19T09:14:56Z</time>
      </trkpt>
      <trkpt lat="44.18702" lon="4.65873">
        <ele>139.53</ele>
        <time>2016-11-19T09:14:57Z</time>
      </trkpt>
      <trkpt lat="44.18698" lon="4.65875">
        <ele>139.53</ele>
        <time>2016-11-19T09:14:58Z</time>
      </trkpt>
      <trkpt lat="44.18675" lon="4.65877">
        <ele>140.97</ele>
        <time>2016-11-19T09:15:04Z</time>
      </trkpt>
      <trkpt lat="44.18654" lon="4.65869">
        <ele>144.34</ele>
        <time>2016-11-19T09:15:11Z</time>
      </trkpt>
      <trkpt lat="44.18632" lon="4.65865">
        <ele>147.22</ele>
        <time>2016-11-19T09:15:21Z</time>
      </trkpt>
      <trkpt lat="44.1862" lon="4.65857">
        <ele>149.62</ele>
        <time>2016-11-19T09:15:29Z</time>
      </trkpt>
      <trkpt lat="44.18618" lon="4.65857">
        <ele>150.58</ele>
        <time>2016-11-19T09:15:30Z</time>
      </trkpt>
      <trkpt lat="44.18615" lon="4.65857">
        <ele>150.58</ele>
        <time>2016-11-19T09:15:31Z</time>
      </trkpt>
      <trkpt lat="44.18613" lon="4.65857">
        <ele>151.06</ele>
        <time>2016-11-19T09:15:32Z</time>
      </trkpt>
      <trkpt lat="44.18611" lon="4.65857">
        <ele>151.06</ele>
        <time>2016-11-19T09:15:33Z</time>
      </trkpt>
      <trkpt lat="44.18609" lon="4.65858">
        <ele>152.03</ele>
        <time>2016-11-19T09:15:34Z</time>
      </trkpt>
      <trkpt lat="44.18603" lon="4.65858">
        <ele>152.99</ele>
        <time>2016-11-19T09:15:38Z</time>
      </trkpt>
      <trkpt lat="44.18601" lon="4.65859">
        <ele>152.99</ele>
        <time>2016-11-19T09:15:39Z</time>
      </trkpt>
      <trkpt lat="44.18599" lon="4.6586">
        <ele>153.47</ele>
        <time>2016-11-19T09:15:41Z</time>
      </trkpt>
      <trkpt lat="44.18578" lon="4.65874">
        <ele>156.83</ele>
        <time>2016-11-19T09:15:53Z</time>
      </trkpt>
      <trkpt lat="44.18566" lon="4.65885">
        <ele>159.24</ele>
        <time>2016-11-19T09:16:01Z</time>
      </trkpt>
      <trkpt lat="44.18559" lon="4.65892">
        <ele>160.68</ele>
        <time>2016-11-19T09:16:06Z</time>
      </trkpt>
      <trkpt lat="44.18558" lon="4.65896">
        <ele>161.64</ele>
        <time>2016-11-19T09:16:08Z</time>
      </trkpt>
      <trkpt lat="44.18557" lon="4.65903">
        <ele>162.6</ele>
        <time>2016-11-19T09:16:13Z</time>
      </trkpt>
      <trkpt lat="44.18554" lon="4.65909">
        <ele>164.52</ele>
        <time>2016-11-19T09:16:25Z</time>
      </trkpt>
      <trkpt lat="44.18556" lon="4.65905">
        <ele>163.56</ele>
        <time>2016-11-19T09:16:28Z</time>
      </trkpt>
      <trkpt lat="44.18557" lon="4.65897">
        <ele>162.12</ele>
        <time>2016-11-19T09:16:32Z</time>
      </trkpt>
      <trkpt lat="44.18555" lon="4.65895">
        <ele>160.68</ele>
        <time>2016-11-19T09:16:43Z</time>
      </trkpt>
      <trkpt lat="44.18557" lon="4.65902">
        <ele>161.64</ele>
        <time>2016-11-19T09:16:47Z</time>
      </trkpt>
      <trkpt lat="44.18556" lon="4.65905">
        <ele>162.6</ele>
        <time>2016-11-19T09:16:48Z</time>
      </trkpt>
      <trkpt lat="44.18554" lon="4.65908">
        <ele>163.08</ele>
        <time>2016-11-19T09:16:57Z</time>
      </trkpt>
      <trkpt lat="44.18551" lon="4.65917">
        <ele>166.45</ele>
        <time>2016-11-19T09:17:08Z</time>
      </trkpt>
      <trkpt lat="44.18547" lon="4.65921">
        <ele>167.41</ele>
        <time>2016-11-19T09:17:14Z</time>
      </trkpt>
      <trkpt lat="44.18539" lon="4.65929">
        <ele>169.81</ele>
        <time>2016-11-19T09:17:29Z</time>
      </trkpt>
      <trkpt lat="44.18537" lon="4.65929">
        <ele>169.81</ele>
        <time>2016-11-19T09:17:51Z</time>
      </trkpt>
      <trkpt lat="44.18535" lon="4.6593">
        <ele>169.81</ele>
        <time>2016-11-19T09:18:04Z</time>
      </trkpt>
      <trkpt lat="44.1853" lon="4.65928">
        <ele>169.81</ele>
        <time>2016-11-19T09:18:08Z</time>
      </trkpt>
      <trkpt lat="44.18508" lon="4.65931">
        <ele>171.25</ele>
        <time>2016-11-19T09:18:22Z</time>
      </trkpt>
      <trkpt lat="44.18496" lon="4.6594">
        <ele>173.66</ele>
        <time>2016-11-19T09:18:37Z</time>
      </trkpt>
      <trkpt lat="44.18491" lon="4.65946">
        <ele>174.62</ele>
        <time>2016-11-19T09:18:43Z</time>
      </trkpt>
      <trkpt lat="44.18489" lon="4.65977">
        <ele>177.98</ele>
        <time>2016-11-19T09:18:58Z</time>
      </trkpt>
      <trkpt lat="44.18489" lon="4.65979">
        <ele>177.98</ele>
        <time>2016-11-19T09:18:59Z</time>
      </trkpt>
      <trkpt lat="44.1849" lon="4.65995">
        <ele>179.9</ele>
        <time>2016-11-19T09:19:05Z</time>
      </trkpt>
      <trkpt lat="44.18491" lon="4.65998">
        <ele>180.38</ele>
        <time>2016-11-19T09:19:07Z</time>
      </trkpt>
      <trkpt lat="44.18493" lon="4.66">
        <ele>180.38</ele>
        <time>2016-11-19T09:19:22Z</time>
      </trkpt>
      <trkpt lat="44.18491" lon="4.66001">
        <ele>180.38</ele>
        <time>2016-11-19T09:19:49Z</time>
      </trkpt>
      <trkpt lat="44.18494" lon="4.66016">
        <ele>181.35</ele>
        <time>2016-11-19T09:19:57Z</time>
      </trkpt>
      <trkpt lat="44.18496" lon="4.66024">
        <ele>182.31</ele>
        <time>2016-11-19T09:20:01Z</time>
      </trkpt>
      <trkpt lat="44.18494" lon="4.66028">
        <ele>181.83</ele>
        <time>2016-11-19T09:20:03Z</time>
      </trkpt>
      <trkpt lat="44.18492" lon="4.66031">
        <ele>181.83</ele>
        <time>2016-11-19T09:20:04Z</time>
      </trkpt>
      <trkpt lat="44.18491" lon="4.66035">
        <ele>181.83</ele>
        <time>2016-11-19T09:20:05Z</time>
      </trkpt>
      <trkpt lat="44.1849" lon="4.6604">
        <ele>181.83</ele>
        <time>2016-11-19T09:20:06Z</time>
      </trkpt>
      <trkpt lat="44.1849" lon="4.66044">
        <ele>181.83</ele>
        <time>2016-11-19T09:20:07Z</time>
      </trkpt>
      <trkpt lat="44.18491" lon="4.66048">
        <ele>181.83</ele>
        <time>2016-11-19T09:20:08Z</time>
      </trkpt>
      <trkpt lat="44.18491" lon="4.66052">
        <ele>181.83</ele>
        <time>2016-11-19T09:20:09Z</time>
      </trkpt>
      <trkpt lat="44.18492" lon="4.66056">
        <ele>181.83</ele>
        <time>2016-11-19T09:20:10Z</time>
      </trkpt>
      <trkpt lat="44.18492" lon="4.6606">
        <ele>181.83</ele>
        <time>2016-11-19T09:20:11Z</time>
      </trkpt>
      <trkpt lat="44.18492" lon="4.66064">
        <ele>181.83</ele>
        <time>2016-11-19T09:20:12Z</time>
      </trkpt>
      <trkpt lat="44.18493" lon="4.66069">
        <ele>182.31</ele>
        <time>2016-11-19T09:20:13Z</time>
      </trkpt>
      <trkpt lat="44.18492" lon="4.66073">
        <ele>182.31</ele>
        <time>2016-11-19T09:20:14Z</time>
      </trkpt>
      <trkpt lat="44.18491" lon="4.66078">
        <ele>182.31</ele>
        <time>2016-11-19T09:20:15Z</time>
      </trkpt>
      <trkpt lat="44.1849" lon="4.66083">
        <ele>182.31</ele>
        <time>2016-11-19T09:20:16Z</time>
      </trkpt>
      <trkpt lat="44.18467" lon="4.66138">
        <ele>185.67</ele>
        <time>2016-11-19T09:20:29Z</time>
      </trkpt>
      <trkpt lat="44.18438" lon="4.66167">
        <ele>188.08</ele>
        <time>2016-11-19T09:20:42Z</time>
      </trkpt>
      <trkpt lat="44.18411" lon="4.66183">
        <ele>190</ele>
        <time>2016-11-19T09:20:54Z</time>
      </trkpt>
      <trkpt lat="44.18411" lon="4.66186">
        <ele>190.96</ele>
        <time>2016-11-19T09:20:55Z</time>
      </trkpt>
      <trkpt lat="44.18411" lon="4.66189">
        <ele>190.96</ele>
        <time>2016-11-19T09:20:56Z</time>
      </trkpt>
      <trkpt lat="44.18411" lon="4.66192">
        <ele>191.44</ele>
        <time>2016-11-19T09:20:57Z</time>
      </trkpt>
      <trkpt lat="44.18411" lon="4.66194">
        <ele>191.92</ele>
        <time>2016-11-19T09:20:58Z</time>
      </trkpt>
      <trkpt lat="44.18411" lon="4.66197">
        <ele>192.88</ele>
        <time>2016-11-19T09:20:59Z</time>
      </trkpt>
      <trkpt lat="44.18411" lon="4.66199">
        <ele>192.88</ele>
        <time>2016-11-19T09:21:00Z</time>
      </trkpt>
      <trkpt lat="44.18412" lon="4.66205">
        <ele>193.36</ele>
        <time>2016-11-19T09:21:02Z</time>
      </trkpt>
      <trkpt lat="44.18412" lon="4.66208">
        <ele>193.84</ele>
        <time>2016-11-19T09:21:03Z</time>
      </trkpt>
      <trkpt lat="44.1841" lon="4.6622">
        <ele>195.28</ele>
        <time>2016-11-19T09:21:07Z</time>
      </trkpt>
      <trkpt lat="44.18394" lon="4.66245">
        <ele>196.73</ele>
        <time>2016-11-19T09:21:17Z</time>
      </trkpt>
      <trkpt lat="44.18381" lon="4.66243">
        <ele>194.8</ele>
        <time>2016-11-19T09:21:22Z</time>
      </trkpt>
      <trkpt lat="44.18381" lon="4.66218">
        <ele>192.4</ele>
        <time>2016-11-19T09:21:31Z</time>
      </trkpt>
      <trkpt lat="44.18379" lon="4.66213">
        <ele>191.92</ele>
        <time>2016-11-19T09:21:32Z</time>
      </trkpt>
      <trkpt lat="44.18378" lon="4.66208">
        <ele>191.44</ele>
        <time>2016-11-19T09:21:33Z</time>
      </trkpt>
      <trkpt lat="44.18375" lon="4.66189">
        <ele>188.08</ele>
        <time>2016-11-19T09:21:36Z</time>
      </trkpt>
      <trkpt lat="44.18368" lon="4.66162">
        <ele>183.75</ele>
        <time>2016-11-19T09:21:39Z</time>
      </trkpt>
      <trkpt lat="44.18366" lon="4.66152">
        <ele>182.31</ele>
        <time>2016-11-19T09:21:40Z</time>
      </trkpt>
      <trkpt lat="44.18362" lon="4.66122">
        <ele>178.94</ele>
        <time>2016-11-19T09:21:43Z</time>
      </trkpt>
      <trkpt lat="44.18363" lon="4.66113">
        <ele>177.98</ele>
        <time>2016-11-19T09:21:44Z</time>
      </trkpt>
      <trkpt lat="44.18371" lon="4.66082">
        <ele>173.66</ele>
        <time>2016-11-19T09:21:47Z</time>
      </trkpt>
      <trkpt lat="44.18377" lon="4.66062">
        <ele>170.29</ele>
        <time>2016-11-19T09:21:49Z</time>
      </trkpt>
      <trkpt lat="44.18381" lon="4.66047">
        <ele>169.33</ele>
        <time>2016-11-19T09:21:51Z</time>
      </trkpt>
      <trkpt lat="44.18383" lon="4.6604">
        <ele>167.89</ele>
        <time>2016-11-19T09:21:52Z</time>
      </trkpt>
      <trkpt lat="44.18385" lon="4.66032">
        <ele>166.93</ele>
        <time>2016-11-19T09:21:53Z</time>
      </trkpt>
      <trkpt lat="44.18388" lon="4.66023">
        <ele>166.45</ele>
        <time>2016-11-19T09:21:54Z</time>
      </trkpt>
      <trkpt lat="44.18391" lon="4.66015">
        <ele>165.48</ele>
        <time>2016-11-19T09:21:55Z</time>
      </trkpt>
      <trkpt lat="44.18394" lon="4.66011">
        <ele>164.52</ele>
        <time>2016-11-19T09:21:56Z</time>
      </trkpt>
      <trkpt lat="44.18395" lon="4.66009">
        <ele>163.56</ele>
        <time>2016-11-19T09:21:57Z</time>
      </trkpt>
      <trkpt lat="44.18395" lon="4.66008">
        <ele>163.56</ele>
        <time>2016-11-19T09:21:58Z</time>
      </trkpt>
      <trkpt lat="44.18395" lon="4.66009">
        <ele>163.56</ele>
        <time>2016-11-19T09:21:59Z</time>
      </trkpt>
      <trkpt lat="44.18391" lon="4.66036">
        <ele>164.04</ele>
        <time>2016-11-19T09:22:10Z</time>
      </trkpt>
      <trkpt lat="44.18392" lon="4.66038">
        <ele>164.04</ele>
        <time>2016-11-19T09:22:11Z</time>
      </trkpt>
      <trkpt lat="44.18394" lon="4.66039">
        <ele>165.48</ele>
        <time>2016-11-19T09:22:12Z</time>
      </trkpt>
      <trkpt lat="44.18396" lon="4.66039">
        <ele>165.96</ele>
        <time>2016-11-19T09:22:13Z</time>
      </trkpt>
      <trkpt lat="44.18397" lon="4.66039">
        <ele>165.96</ele>
        <time>2016-11-19T09:22:14Z</time>
      </trkpt>
      <trkpt lat="44.18398" lon="4.66038">
        <ele>165.96</ele>
        <time>2016-11-19T09:22:15Z</time>
      </trkpt>
      <trkpt lat="44.18398" lon="4.66038">
        <ele>166.93</ele>
        <time>2016-11-19T09:22:25Z</time>
      </trkpt>
      <trkpt lat="44.18397" lon="4.66037">
        <ele>166.93</ele>
        <time>2016-11-19T09:22:50Z</time>
      </trkpt>
      <trkpt lat="44.18398" lon="4.66035">
        <ele>166.93</ele>
        <time>2016-11-19T09:22:58Z</time>
      </trkpt>
      <trkpt lat="44.184" lon="4.66035">
        <ele>166.93</ele>
        <time>2016-11-19T09:22:59Z</time>
      </trkpt>
      <trkpt lat="44.18402" lon="4.66034">
        <ele>166.93</ele>
        <time>2016-11-19T09:23:00Z</time>
      </trkpt>
      <trkpt lat="44.18405" lon="4.66033">
        <ele>166.93</ele>
        <time>2016-11-19T09:23:01Z</time>
      </trkpt>
      <trkpt lat="44.1841" lon="4.66032">
        <ele>166.93</ele>
        <time>2016-11-19T09:23:02Z</time>
      </trkpt>
      <trkpt lat="44.18413" lon="4.66031">
        <ele>167.41</ele>
        <time>2016-11-19T09:23:03Z</time>
      </trkpt>
      <trkpt lat="44.18416" lon="4.66027">
        <ele>167.41</ele>
        <time>2016-11-19T09:23:04Z</time>
      </trkpt>
      <trkpt lat="44.18419" lon="4.66022">
        <ele>165.96</ele>
        <time>2016-11-19T09:23:05Z</time>
      </trkpt>
      <trkpt lat="44.18422" lon="4.66017">
        <ele>165</ele>
        <time>2016-11-19T09:23:06Z</time>
      </trkpt>
      <trkpt lat="44.18423" lon="4.66013">
        <ele>164.04</ele>
        <time>2016-11-19T09:23:07Z</time>
      </trkpt>
      <trkpt lat="44.18422" lon="4.66008">
        <ele>163.56</ele>
        <time>2016-11-19T09:23:08Z</time>
      </trkpt>
      <trkpt lat="44.18421" lon="4.66001">
        <ele>162.12</ele>
        <time>2016-11-19T09:23:09Z</time>
      </trkpt>
      <trkpt lat="44.18421" lon="4.65996">
        <ele>161.16</ele>
        <time>2016-11-19T09:23:10Z</time>
      </trkpt>
      <trkpt lat="44.18421" lon="4.65989">
        <ele>160.2</ele>
        <time>2016-11-19T09:23:11Z</time>
      </trkpt>
      <trkpt lat="44.18423" lon="4.65981">
        <ele>158.27</ele>
        <time>2016-11-19T09:23:12Z</time>
      </trkpt>
      <trkpt lat="44.18427" lon="4.65961">
        <ele>155.39</ele>
        <time>2016-11-19T09:23:15Z</time>
      </trkpt>
      <trkpt lat="44.18435" lon="4.65941">
        <ele>152.99</ele>
        <time>2016-11-19T09:23:19Z</time>
      </trkpt>
      <trkpt lat="44.18437" lon="4.65935">
        <ele>152.03</ele>
        <time>2016-11-19T09:23:20Z</time>
      </trkpt>
      <trkpt lat="44.18433" lon="4.65913">
        <ele>154.91</ele>
        <time>2016-11-19T09:23:27Z</time>
      </trkpt>
      <trkpt lat="44.1843" lon="4.65905">
        <ele>155.39</ele>
        <time>2016-11-19T09:23:36Z</time>
      </trkpt>
      <trkpt lat="44.1843" lon="4.65899">
        <ele>155.39</ele>
        <time>2016-11-19T09:23:38Z</time>
      </trkpt>
      <trkpt lat="44.1843" lon="4.65895">
        <ele>155.39</ele>
        <time>2016-11-19T09:23:39Z</time>
      </trkpt>
      <trkpt lat="44.1843" lon="4.65891">
        <ele>153.95</ele>
        <time>2016-11-19T09:23:40Z</time>
      </trkpt>
      <trkpt lat="44.18429" lon="4.65885">
        <ele>153.47</ele>
        <time>2016-11-19T09:23:41Z</time>
      </trkpt>
      <trkpt lat="44.18428" lon="4.6588">
        <ele>152.51</ele>
        <time>2016-11-19T09:23:42Z</time>
      </trkpt>
      <trkpt lat="44.18427" lon="4.65876">
        <ele>152.03</ele>
        <time>2016-11-19T09:23:43Z</time>
      </trkpt>
      <trkpt lat="44.18426" lon="4.65871">
        <ele>151.54</ele>
        <time>2016-11-19T09:23:44Z</time>
      </trkpt>
      <trkpt lat="44.18423" lon="4.65865">
        <ele>151.06</ele>
        <time>2016-11-19T09:23:45Z</time>
      </trkpt>
      <trkpt lat="44.18422" lon="4.6586">
        <ele>151.06</ele>
        <time>2016-11-19T09:23:46Z</time>
      </trkpt>
      <trkpt lat="44.18421" lon="4.65854">
        <ele>149.62</ele>
        <time>2016-11-19T09:23:47Z</time>
      </trkpt>
      <trkpt lat="44.18419" lon="4.65848">
        <ele>149.14</ele>
        <time>2016-11-19T09:23:48Z</time>
      </trkpt>
      <trkpt lat="44.18416" lon="4.65841">
        <ele>148.66</ele>
        <time>2016-11-19T09:23:49Z</time>
      </trkpt>
      <trkpt lat="44.18412" lon="4.65835">
        <ele>147.7</ele>
        <time>2016-11-19T09:23:50Z</time>
      </trkpt>
      <trkpt lat="44.1841" lon="4.65829">
        <ele>147.7</ele>
        <time>2016-11-19T09:23:51Z</time>
      </trkpt>
      <trkpt lat="44.18408" lon="4.65823">
        <ele>146.74</ele>
        <time>2016-11-19T09:23:52Z</time>
      </trkpt>
      <trkpt lat="44.18397" lon="4.65795">
        <ele>145.78</ele>
        <time>2016-11-19T09:23:57Z</time>
      </trkpt>
      <trkpt lat="44.18392" lon="4.65783">
        <ele>145.3</ele>
        <time>2016-11-19T09:23:59Z</time>
      </trkpt>
      <trkpt lat="44.18392" lon="4.65751">
        <ele>142.41</ele>
        <time>2016-11-19T09:24:05Z</time>
      </trkpt>
      <trkpt lat="44.18397" lon="4.65746">
        <ele>141.45</ele>
        <time>2016-11-19T09:24:06Z</time>
      </trkpt>
      <trkpt lat="44.18415" lon="4.65721">
        <ele>137.61</ele>
        <time>2016-11-19T09:24:10Z</time>
      </trkpt>
      <trkpt lat="44.18435" lon="4.65683">
        <ele>134.72</ele>
        <time>2016-11-19T09:24:18Z</time>
      </trkpt>
      <trkpt lat="44.18436" lon="4.65683">
        <ele>134.72</ele>
        <time>2016-11-19T09:24:19Z</time>
      </trkpt>
      <trkpt lat="44.18438" lon="4.65682">
        <ele>134.72</ele>
        <time>2016-11-19T09:24:20Z</time>
      </trkpt>
      <trkpt lat="44.18447" lon="4.65675">
        <ele>132.8</ele>
        <time>2016-11-19T09:24:30Z</time>
      </trkpt>
      <trkpt lat="44.18447" lon="4.65673">
        <ele>132.8</ele>
        <time>2016-11-19T09:24:31Z</time>
      </trkpt>
      <trkpt lat="44.18447" lon="4.65671">
        <ele>132.8</ele>
        <time>2016-11-19T09:24:32Z</time>
      </trkpt>
      <trkpt lat="44.18447" lon="4.65669">
        <ele>132.8</ele>
        <time>2016-11-19T09:24:33Z</time>
      </trkpt>
      <trkpt lat="44.18448" lon="4.65666">
        <ele>132.8</ele>
        <time>2016-11-19T09:24:34Z</time>
      </trkpt>
      <trkpt lat="44.18449" lon="4.65662">
        <ele>132.32</ele>
        <time>2016-11-19T09:24:35Z</time>
      </trkpt>
      <trkpt lat="44.18451" lon="4.65657">
        <ele>132.32</ele>
        <time>2016-11-19T09:24:36Z</time>
      </trkpt>
      <trkpt lat="44.18454" lon="4.65651">
        <ele>131.84</ele>
        <time>2016-11-19T09:24:37Z</time>
      </trkpt>
      <trkpt lat="44.18456" lon="4.65644">
        <ele>131.84</ele>
        <time>2016-11-19T09:24:38Z</time>
      </trkpt>
      <trkpt lat="44.1846" lon="4.65638">
        <ele>131.36</ele>
        <time>2016-11-19T09:24:39Z</time>
      </trkpt>
      <trkpt lat="44.18464" lon="4.65631">
        <ele>130.88</ele>
        <time>2016-11-19T09:24:40Z</time>
      </trkpt>
      <trkpt lat="44.18468" lon="4.65625">
        <ele>130.88</ele>
        <time>2016-11-19T09:24:41Z</time>
      </trkpt>
      <trkpt lat="44.18476" lon="4.6561">
        <ele>129.92</ele>
        <time>2016-11-19T09:24:43Z</time>
      </trkpt>
      <trkpt lat="44.18479" lon="4.65602">
        <ele>129.43</ele>
        <time>2016-11-19T09:24:44Z</time>
      </trkpt>
      <trkpt lat="44.18487" lon="4.65579">
        <ele>129.43</ele>
        <time>2016-11-19T09:24:47Z</time>
      </trkpt>
      <trkpt lat="44.1849" lon="4.65571">
        <ele>129.43</ele>
        <time>2016-11-19T09:24:48Z</time>
      </trkpt>
      <trkpt lat="44.18494" lon="4.65565">
        <ele>128.95</ele>
        <time>2016-11-19T09:24:49Z</time>
      </trkpt>
      <trkpt lat="44.18499" lon="4.6556">
        <ele>128.95</ele>
        <time>2016-11-19T09:24:50Z</time>
      </trkpt>
      <trkpt lat="44.18503" lon="4.65555">
        <ele>127.99</ele>
        <time>2016-11-19T09:24:51Z</time>
      </trkpt>
      <trkpt lat="44.18516" lon="4.65539">
        <ele>127.03</ele>
        <time>2016-11-19T09:24:54Z</time>
      </trkpt>
      <trkpt lat="44.18521" lon="4.65533">
        <ele>127.03</ele>
        <time>2016-11-19T09:24:55Z</time>
      </trkpt>
      <trkpt lat="44.18524" lon="4.65525">
        <ele>126.07</ele>
        <time>2016-11-19T09:24:56Z</time>
      </trkpt>
      <trkpt lat="44.1853" lon="4.65509">
        <ele>125.11</ele>
        <time>2016-11-19T09:24:58Z</time>
      </trkpt>
      <trkpt lat="44.18552" lon="4.6543">
        <ele>122.71</ele>
        <time>2016-11-19T09:25:07Z</time>
      </trkpt>
      <trkpt lat="44.18554" lon="4.65422">
        <ele>122.22</ele>
        <time>2016-11-19T09:25:08Z</time>
      </trkpt>
      <trkpt lat="44.18555" lon="4.65414">
        <ele>122.22</ele>
        <time>2016-11-19T09:25:09Z</time>
      </trkpt>
      <trkpt lat="44.18556" lon="4.65406">
        <ele>122.22</ele>
        <time>2016-11-19T09:25:10Z</time>
      </trkpt>
      <trkpt lat="44.18556" lon="4.65399">
        <ele>122.22</ele>
        <time>2016-11-19T09:25:11Z</time>
      </trkpt>
      <trkpt lat="44.18555" lon="4.65392">
        <ele>121.74</ele>
        <time>2016-11-19T09:25:12Z</time>
      </trkpt>
      <trkpt lat="44.18553" lon="4.65384">
        <ele>121.74</ele>
        <time>2016-11-19T09:25:13Z</time>
      </trkpt>
      <trkpt lat="44.1855" lon="4.65378">
        <ele>121.26</ele>
        <time>2016-11-19T09:25:14Z</time>
      </trkpt>
      <trkpt lat="44.18547" lon="4.65373">
        <ele>121.26</ele>
        <time>2016-11-19T09:25:15Z</time>
      </trkpt>
      <trkpt lat="44.18544" lon="4.65369">
        <ele>121.26</ele>
        <time>2016-11-19T09:25:16Z</time>
      </trkpt>
      <trkpt lat="44.18541" lon="4.65366">
        <ele>121.26</ele>
        <time>2016-11-19T09:25:17Z</time>
      </trkpt>
      <trkpt lat="44.18539" lon="4.65363">
        <ele>121.26</ele>
        <time>2016-11-19T09:25:18Z</time>
      </trkpt>
      <trkpt lat="44.18535" lon="4.65358">
        <ele>122.22</ele>
        <time>2016-11-19T09:25:20Z</time>
      </trkpt>
      <trkpt lat="44.18504" lon="4.65336">
        <ele>125.59</ele>
        <time>2016-11-19T09:25:31Z</time>
      </trkpt>
      <trkpt lat="44.1847" lon="4.65315">
        <ele>128.95</ele>
        <time>2016-11-19T09:25:44Z</time>
      </trkpt>
      <trkpt lat="44.18444" lon="4.65288">
        <ele>130.88</ele>
        <time>2016-11-19T09:25:57Z</time>
      </trkpt>
      <trkpt lat="44.18415" lon="4.65257">
        <ele>132.32</ele>
        <time>2016-11-19T09:26:11Z</time>
      </trkpt>
      <trkpt lat="44.18396" lon="4.65224">
        <ele>134.24</ele>
        <time>2016-11-19T09:26:23Z</time>
      </trkpt>
      <trkpt lat="44.18368" lon="4.65189">
        <ele>136.16</ele>
        <time>2016-11-19T09:26:38Z</time>
      </trkpt>
      <trkpt lat="44.18337" lon="4.65157">
        <ele>139.05</ele>
        <time>2016-11-19T09:26:58Z</time>
      </trkpt>
      <trkpt lat="44.18308" lon="4.65127">
        <ele>141.45</ele>
        <time>2016-11-19T09:27:15Z</time>
      </trkpt>
      <trkpt lat="44.18273" lon="4.65115">
        <ele>143.85</ele>
        <time>2016-11-19T09:27:31Z</time>
      </trkpt>
      <trkpt lat="44.18235" lon="4.65114">
        <ele>145.3</ele>
        <time>2016-11-19T09:27:48Z</time>
      </trkpt>
      <trkpt lat="44.18211" lon="4.65115">
        <ele>149.14</ele>
        <time>2016-11-19T09:27:59Z</time>
      </trkpt>
      <trkpt lat="44.18191" lon="4.65111">
        <ele>150.58</ele>
        <time>2016-11-19T09:28:08Z</time>
      </trkpt>
      <trkpt lat="44.18189" lon="4.65113">
        <ele>150.58</ele>
        <time>2016-11-19T09:28:09Z</time>
      </trkpt>
      <trkpt lat="44.18188" lon="4.65115">
        <ele>151.06</ele>
        <time>2016-11-19T09:28:10Z</time>
      </trkpt>
      <trkpt lat="44.18188" lon="4.65118">
        <ele>151.06</ele>
        <time>2016-11-19T09:28:11Z</time>
      </trkpt>
      <trkpt lat="44.18187" lon="4.6512">
        <ele>152.03</ele>
        <time>2016-11-19T09:28:12Z</time>
      </trkpt>
      <trkpt lat="44.18188" lon="4.65123">
        <ele>152.03</ele>
        <time>2016-11-19T09:28:13Z</time>
      </trkpt>
      <trkpt lat="44.18188" lon="4.65126">
        <ele>152.03</ele>
        <time>2016-11-19T09:28:14Z</time>
      </trkpt>
      <trkpt lat="44.18196" lon="4.65173">
        <ele>154.91</ele>
        <time>2016-11-19T09:28:31Z</time>
      </trkpt>
      <trkpt lat="44.18199" lon="4.65229">
        <ele>157.79</ele>
        <time>2016-11-19T09:28:51Z</time>
      </trkpt>
      <trkpt lat="44.18212" lon="4.65273">
        <ele>160.2</ele>
        <time>2016-11-19T09:29:07Z</time>
      </trkpt>
      <trkpt lat="44.18232" lon="4.6531">
        <ele>161.64</ele>
        <time>2016-11-19T09:29:22Z</time>
      </trkpt>
      <trkpt lat="44.18247" lon="4.65339">
        <ele>164.52</ele>
        <time>2016-11-19T09:29:35Z</time>
      </trkpt>
      <trkpt lat="44.1825" lon="4.65349">
        <ele>165</ele>
        <time>2016-11-19T09:29:39Z</time>
      </trkpt>
      <trkpt lat="44.18249" lon="4.65352">
        <ele>165.48</ele>
        <time>2016-11-19T09:29:40Z</time>
      </trkpt>
      <trkpt lat="44.18248" lon="4.65355">
        <ele>165.48</ele>
        <time>2016-11-19T09:29:41Z</time>
      </trkpt>
      <trkpt lat="44.18246" lon="4.65357">
        <ele>165.48</ele>
        <time>2016-11-19T09:29:42Z</time>
      </trkpt>
      <trkpt lat="44.18244" lon="4.65358">
        <ele>165.96</ele>
        <time>2016-11-19T09:29:43Z</time>
      </trkpt>
      <trkpt lat="44.18242" lon="4.65358">
        <ele>166.45</ele>
        <time>2016-11-19T09:29:44Z</time>
      </trkpt>
      <trkpt lat="44.18241" lon="4.65358">
        <ele>166.45</ele>
        <time>2016-11-19T09:29:45Z</time>
      </trkpt>
      <trkpt lat="44.18239" lon="4.65358">
        <ele>166.93</ele>
        <time>2016-11-19T09:29:46Z</time>
      </trkpt>
      <trkpt lat="44.18237" lon="4.65356">
        <ele>166.93</ele>
        <time>2016-11-19T09:29:47Z</time>
      </trkpt>
      <trkpt lat="44.18235" lon="4.65355">
        <ele>167.41</ele>
        <time>2016-11-19T09:29:48Z</time>
      </trkpt>
      <trkpt lat="44.1821" lon="4.65326">
        <ele>169.81</ele>
        <time>2016-11-19T09:30:04Z</time>
      </trkpt>
      <trkpt lat="44.18176" lon="4.65294">
        <ele>170.29</ele>
        <time>2016-11-19T09:30:21Z</time>
      </trkpt>
      <trkpt lat="44.1815" lon="4.65265">
        <ele>173.66</ele>
        <time>2016-11-19T09:30:35Z</time>
      </trkpt>
      <trkpt lat="44.18119" lon="4.65232">
        <ele>176.54</ele>
        <time>2016-11-19T09:30:51Z</time>
      </trkpt>
      <trkpt lat="44.18085" lon="4.65211">
        <ele>179.9</ele>
        <time>2016-11-19T09:31:07Z</time>
      </trkpt>
      <trkpt lat="44.18051" lon="4.65202">
        <ele>182.79</ele>
        <time>2016-11-19T09:31:23Z</time>
      </trkpt>
      <trkpt lat="44.18049" lon="4.65199">
        <ele>182.79</ele>
        <time>2016-11-19T09:31:24Z</time>
      </trkpt>
      <trkpt lat="44.18049" lon="4.65195">
        <ele>182.79</ele>
        <time>2016-11-19T09:31:25Z</time>
      </trkpt>
      <trkpt lat="44.18049" lon="4.65191">
        <ele>182.79</ele>
        <time>2016-11-19T09:31:26Z</time>
      </trkpt>
      <trkpt lat="44.1805" lon="4.65186">
        <ele>181.35</ele>
        <time>2016-11-19T09:31:27Z</time>
      </trkpt>
      <trkpt lat="44.18062" lon="4.65164">
        <ele>178.46</ele>
        <time>2016-11-19T09:31:33Z</time>
      </trkpt>
      <trkpt lat="44.18071" lon="4.65141">
        <ele>174.62</ele>
        <time>2016-11-19T09:31:37Z</time>
      </trkpt>
      <trkpt lat="44.18073" lon="4.6513">
        <ele>172.69</ele>
        <time>2016-11-19T09:31:40Z</time>
      </trkpt>
      <trkpt lat="44.18074" lon="4.65123">
        <ele>170.77</ele>
        <time>2016-11-19T09:31:43Z</time>
      </trkpt>
      <trkpt lat="44.18076" lon="4.65115">
        <ele>168.37</ele>
        <time>2016-11-19T09:31:47Z</time>
      </trkpt>
      <trkpt lat="44.1807" lon="4.65104">
        <ele>165.48</ele>
        <time>2016-11-19T09:31:52Z</time>
      </trkpt>
      <trkpt lat="44.18068" lon="4.65091">
        <ele>162.6</ele>
        <time>2016-11-19T09:31:55Z</time>
      </trkpt>
      <trkpt lat="44.18065" lon="4.65088">
        <ele>162.12</ele>
        <time>2016-11-19T09:31:57Z</time>
      </trkpt>
      <trkpt lat="44.1805" lon="4.65088">
        <ele>162.12</ele>
        <time>2016-11-19T09:32:07Z</time>
      </trkpt>
      <trkpt lat="44.1805" lon="4.65086">
        <ele>162.12</ele>
        <time>2016-11-19T09:32:09Z</time>
      </trkpt>
      <trkpt lat="44.18048" lon="4.65086">
        <ele>162.12</ele>
        <time>2016-11-19T09:32:10Z</time>
      </trkpt>
      <trkpt lat="44.18046" lon="4.65086">
        <ele>162.12</ele>
        <time>2016-11-19T09:32:11Z</time>
      </trkpt>
      <trkpt lat="44.18044" lon="4.65086">
        <ele>162.12</ele>
        <time>2016-11-19T09:32:12Z</time>
      </trkpt>
      <trkpt lat="44.1804" lon="4.65084">
        <ele>162.12</ele>
        <time>2016-11-19T09:32:13Z</time>
      </trkpt>
      <trkpt lat="44.18036" lon="4.65082">
        <ele>162.12</ele>
        <time>2016-11-19T09:32:14Z</time>
      </trkpt>
      <trkpt lat="44.18031" lon="4.65081">
        <ele>161.16</ele>
        <time>2016-11-19T09:32:15Z</time>
      </trkpt>
      <trkpt lat="44.18026" lon="4.65081">
        <ele>160.2</ele>
        <time>2016-11-19T09:32:16Z</time>
      </trkpt>
      <trkpt lat="44.18021" lon="4.65081">
        <ele>159.72</ele>
        <time>2016-11-19T09:32:17Z</time>
      </trkpt>
      <trkpt lat="44.18016" lon="4.6508">
        <ele>159.24</ele>
        <time>2016-11-19T09:32:18Z</time>
      </trkpt>
      <trkpt lat="44.18012" lon="4.65081">
        <ele>159.24</ele>
        <time>2016-11-19T09:32:19Z</time>
      </trkpt>
      <trkpt lat="44.18008" lon="4.65083">
        <ele>158.27</ele>
        <time>2016-11-19T09:32:20Z</time>
      </trkpt>
      <trkpt lat="44.18003" lon="4.65084">
        <ele>157.79</ele>
        <time>2016-11-19T09:32:21Z</time>
      </trkpt>
      <trkpt lat="44.17994" lon="4.65087">
        <ele>156.35</ele>
        <time>2016-11-19T09:32:23Z</time>
      </trkpt>
      <trkpt lat="44.17988" lon="4.6509">
        <ele>155.39</ele>
        <time>2016-11-19T09:32:24Z</time>
      </trkpt>
      <trkpt lat="44.17978" lon="4.65097">
        <ele>153.47</ele>
        <time>2016-11-19T09:32:26Z</time>
      </trkpt>
      <trkpt lat="44.17972" lon="4.65103">
        <ele>152.03</ele>
        <time>2016-11-19T09:32:27Z</time>
      </trkpt>
      <trkpt lat="44.17957" lon="4.65117">
        <ele>150.1</ele>
        <time>2016-11-19T09:32:30Z</time>
      </trkpt>
      <trkpt lat="44.17952" lon="4.65119">
        <ele>149.62</ele>
        <time>2016-11-19T09:32:31Z</time>
      </trkpt>
      <trkpt lat="44.17946" lon="4.65121">
        <ele>148.18</ele>
        <time>2016-11-19T09:32:32Z</time>
      </trkpt>
      <trkpt lat="44.17941" lon="4.65123">
        <ele>146.74</ele>
        <time>2016-11-19T09:32:33Z</time>
      </trkpt>
      <trkpt lat="44.17937" lon="4.65124">
        <ele>146.26</ele>
        <time>2016-11-19T09:32:34Z</time>
      </trkpt>
      <trkpt lat="44.17932" lon="4.65127">
        <ele>145.78</ele>
        <time>2016-11-19T09:32:35Z</time>
      </trkpt>
      <trkpt lat="44.17929" lon="4.6513">
        <ele>145.3</ele>
        <time>2016-11-19T09:32:36Z</time>
      </trkpt>
      <trkpt lat="44.17927" lon="4.65134">
        <ele>144.82</ele>
        <time>2016-11-19T09:32:37Z</time>
      </trkpt>
      <trkpt lat="44.17925" lon="4.65139">
        <ele>143.37</ele>
        <time>2016-11-19T09:32:38Z</time>
      </trkpt>
      <trkpt lat="44.17925" lon="4.65144">
        <ele>142.89</ele>
        <time>2016-11-19T09:32:39Z</time>
      </trkpt>
      <trkpt lat="44.17925" lon="4.65151">
        <ele>141.93</ele>
        <time>2016-11-19T09:32:40Z</time>
      </trkpt>
      <trkpt lat="44.17925" lon="4.65159">
        <ele>140.97</ele>
        <time>2016-11-19T09:32:41Z</time>
      </trkpt>
      <trkpt lat="44.17925" lon="4.65167">
        <ele>140.01</ele>
        <time>2016-11-19T09:32:42Z</time>
      </trkpt>
      <trkpt lat="44.17927" lon="4.65175">
        <ele>139.05</ele>
        <time>2016-11-19T09:32:43Z</time>
      </trkpt>
      <trkpt lat="44.17928" lon="4.65183">
        <ele>138.09</ele>
        <time>2016-11-19T09:32:44Z</time>
      </trkpt>
      <trkpt lat="44.17931" lon="4.65217">
        <ele>134.72</ele>
        <time>2016-11-19T09:32:48Z</time>
      </trkpt>
      <trkpt lat="44.17931" lon="4.65233">
        <ele>132.8</ele>
        <time>2016-11-19T09:32:50Z</time>
      </trkpt>
      <trkpt lat="44.17931" lon="4.6524">
        <ele>131.84</ele>
        <time>2016-11-19T09:32:51Z</time>
      </trkpt>
      <trkpt lat="44.17931" lon="4.65245">
        <ele>130.88</ele>
        <time>2016-11-19T09:32:52Z</time>
      </trkpt>
      <trkpt lat="44.1793" lon="4.65249">
        <ele>131.36</ele>
        <time>2016-11-19T09:32:53Z</time>
      </trkpt>
      <trkpt lat="44.17927" lon="4.65253">
        <ele>129.92</ele>
        <time>2016-11-19T09:32:54Z</time>
      </trkpt>
      <trkpt lat="44.17924" lon="4.65256">
        <ele>128.95</ele>
        <time>2016-11-19T09:32:55Z</time>
      </trkpt>
      <trkpt lat="44.1792" lon="4.65258">
        <ele>128.47</ele>
        <time>2016-11-19T09:32:56Z</time>
      </trkpt>
      <trkpt lat="44.17917" lon="4.65259">
        <ele>127.51</ele>
        <time>2016-11-19T09:32:57Z</time>
      </trkpt>
      <trkpt lat="44.17902" lon="4.65262">
        <ele>124.15</ele>
        <time>2016-11-19T09:33:01Z</time>
      </trkpt>
      <trkpt lat="44.17884" lon="4.6526">
        <ele>122.22</ele>
        <time>2016-11-19T09:33:06Z</time>
      </trkpt>
      <trkpt lat="44.17882" lon="4.65262">
        <ele>122.22</ele>
        <time>2016-11-19T09:33:07Z</time>
      </trkpt>
      <trkpt lat="44.17871" lon="4.65275">
        <ele>122.22</ele>
        <time>2016-11-19T09:33:13Z</time>
      </trkpt>
      <trkpt lat="44.17869" lon="4.65274">
        <ele>122.22</ele>
        <time>2016-11-19T09:33:14Z</time>
      </trkpt>
      <trkpt lat="44.17866" lon="4.65274">
        <ele>123.19</ele>
        <time>2016-11-19T09:33:15Z</time>
      </trkpt>
      <trkpt lat="44.17832" lon="4.6528">
        <ele>124.63</ele>
        <time>2016-11-19T09:33:28Z</time>
      </trkpt>
      <trkpt lat="44.17805" lon="4.65287">
        <ele>127.99</ele>
        <time>2016-11-19T09:33:41Z</time>
      </trkpt>
      <trkpt lat="44.1778" lon="4.65287">
        <ele>128.95</ele>
        <time>2016-11-19T09:33:54Z</time>
      </trkpt>
      <trkpt lat="44.17748" lon="4.65294">
        <ele>130.88</ele>
        <time>2016-11-19T09:34:06Z</time>
      </trkpt>
      <trkpt lat="44.17726" lon="4.65302">
        <ele>133.76</ele>
        <time>2016-11-19T09:34:18Z</time>
      </trkpt>
      <trkpt lat="44.17721" lon="4.65305">
        <ele>133.28</ele>
        <time>2016-11-19T09:34:20Z</time>
      </trkpt>
      <trkpt lat="44.17714" lon="4.65308">
        <ele>133.28</ele>
        <time>2016-11-19T09:34:24Z</time>
      </trkpt>
      <trkpt lat="44.17698" lon="4.65309">
        <ele>132.32</ele>
        <time>2016-11-19T09:34:29Z</time>
      </trkpt>
      <trkpt lat="44.17691" lon="4.65313">
        <ele>131.84</ele>
        <time>2016-11-19T09:34:32Z</time>
      </trkpt>
      <trkpt lat="44.17688" lon="4.65312">
        <ele>131.84</ele>
        <time>2016-11-19T09:34:33Z</time>
      </trkpt>
      <trkpt lat="44.17686" lon="4.65312">
        <ele>131.84</ele>
        <time>2016-11-19T09:34:34Z</time>
      </trkpt>
      <trkpt lat="44.17684" lon="4.65311">
        <ele>131.84</ele>
        <time>2016-11-19T09:34:35Z</time>
      </trkpt>
      <trkpt lat="44.17681" lon="4.65311">
        <ele>131.84</ele>
        <time>2016-11-19T09:34:36Z</time>
      </trkpt>
      <trkpt lat="44.17679" lon="4.65312">
        <ele>131.36</ele>
        <time>2016-11-19T09:34:37Z</time>
      </trkpt>
      <trkpt lat="44.17677" lon="4.65312">
        <ele>131.36</ele>
        <time>2016-11-19T09:34:38Z</time>
      </trkpt>
      <trkpt lat="44.17648" lon="4.65315">
        <ele>130.4</ele>
        <time>2016-11-19T09:34:49Z</time>
      </trkpt>
      <trkpt lat="44.17624" lon="4.65292">
        <ele>130.4</ele>
        <time>2016-11-19T09:34:56Z</time>
      </trkpt>
      <trkpt lat="44.1762" lon="4.65289">
        <ele>129.92</ele>
        <time>2016-11-19T09:34:57Z</time>
      </trkpt>
      <trkpt lat="44.17616" lon="4.65287">
        <ele>129.92</ele>
        <time>2016-11-19T09:34:58Z</time>
      </trkpt>
      <trkpt lat="44.17601" lon="4.65275">
        <ele>129.92</ele>
        <time>2016-11-19T09:35:02Z</time>
      </trkpt>
      <trkpt lat="44.17593" lon="4.65271">
        <ele>129.92</ele>
        <time>2016-11-19T09:35:04Z</time>
      </trkpt>
      <trkpt lat="44.17589" lon="4.65269">
        <ele>129.92</ele>
        <time>2016-11-19T09:35:05Z</time>
      </trkpt>
      <trkpt lat="44.17576" lon="4.65263">
        <ele>129.92</ele>
        <time>2016-11-19T09:35:08Z</time>
      </trkpt>
      <trkpt lat="44.17572" lon="4.65259">
        <ele>129.92</ele>
        <time>2016-11-19T09:35:09Z</time>
      </trkpt>
      <trkpt lat="44.1756" lon="4.65248">
        <ele>129.92</ele>
        <time>2016-11-19T09:35:12Z</time>
      </trkpt>
      <trkpt lat="44.17556" lon="4.65244">
        <ele>129.92</ele>
        <time>2016-11-19T09:35:13Z</time>
      </trkpt>
      <trkpt lat="44.17553" lon="4.65239">
        <ele>129.92</ele>
        <time>2016-11-19T09:35:14Z</time>
      </trkpt>
      <trkpt lat="44.17541" lon="4.65222">
        <ele>129.43</ele>
        <time>2016-11-19T09:35:18Z</time>
      </trkpt>
      <trkpt lat="44.17538" lon="4.65217">
        <ele>129.43</ele>
        <time>2016-11-19T09:35:19Z</time>
      </trkpt>
      <trkpt lat="44.17531" lon="4.65208">
        <ele>129.43</ele>
        <time>2016-11-19T09:35:21Z</time>
      </trkpt>
      <trkpt lat="44.17528" lon="4.65203">
        <ele>129.43</ele>
        <time>2016-11-19T09:35:22Z</time>
      </trkpt>
      <trkpt lat="44.17524" lon="4.65196">
        <ele>129.43</ele>
        <time>2016-11-19T09:35:24Z</time>
      </trkpt>
      <trkpt lat="44.17521" lon="4.65195">
        <ele>129.43</ele>
        <time>2016-11-19T09:35:25Z</time>
      </trkpt>
      <trkpt lat="44.17514" lon="4.6519">
        <ele>128.47</ele>
        <time>2016-11-19T09:35:27Z</time>
      </trkpt>
      <trkpt lat="44.17512" lon="4.65186">
        <ele>127.51</ele>
        <time>2016-11-19T09:35:28Z</time>
      </trkpt>
      <trkpt lat="44.17495" lon="4.65179">
        <ele>122.71</ele>
        <time>2016-11-19T09:35:32Z</time>
      </trkpt>
      <trkpt lat="44.1748" lon="4.6518">
        <ele>118.38</ele>
        <time>2016-11-19T09:35:36Z</time>
      </trkpt>
      <trkpt lat="44.17476" lon="4.65183">
        <ele>118.38</ele>
        <time>2016-11-19T09:35:37Z</time>
      </trkpt>
      <trkpt lat="44.17462" lon="4.65206">
        <ele>114.05</ele>
        <time>2016-11-19T09:35:42Z</time>
      </trkpt>
      <trkpt lat="44.17462" lon="4.65211">
        <ele>113.57</ele>
        <time>2016-11-19T09:35:43Z</time>
      </trkpt>
      <trkpt lat="44.17461" lon="4.65228">
        <ele>113.09</ele>
        <time>2016-11-19T09:35:46Z</time>
      </trkpt>
      <trkpt lat="44.17462" lon="4.65234">
        <ele>112.61</ele>
        <time>2016-11-19T09:35:48Z</time>
      </trkpt>
      <trkpt lat="44.17448" lon="4.65254">
        <ele>112.13</ele>
        <time>2016-11-19T09:35:55Z</time>
      </trkpt>
      <trkpt lat="44.17445" lon="4.65258">
        <ele>114.05</ele>
        <time>2016-11-19T09:35:57Z</time>
      </trkpt>
      <trkpt lat="44.17437" lon="4.65259">
        <ele>115.98</ele>
        <time>2016-11-19T09:36:01Z</time>
      </trkpt>
      <trkpt lat="44.17432" lon="4.65257">
        <ele>115.98</ele>
        <time>2016-11-19T09:36:03Z</time>
      </trkpt>
      <trkpt lat="44.17424" lon="4.65259">
        <ele>114.53</ele>
        <time>2016-11-19T09:36:05Z</time>
      </trkpt>
      <trkpt lat="44.17415" lon="4.65273">
        <ele>114.53</ele>
        <time>2016-11-19T09:36:10Z</time>
      </trkpt>
      <trkpt lat="44.17408" lon="4.65293">
        <ele>114.53</ele>
        <time>2016-11-19T09:36:16Z</time>
      </trkpt>
      <trkpt lat="44.17411" lon="4.65303">
        <ele>115.5</ele>
        <time>2016-11-19T09:36:20Z</time>
      </trkpt>
      <trkpt lat="44.17416" lon="4.65319">
        <ele>117.9</ele>
        <time>2016-11-19T09:36:28Z</time>
      </trkpt>
      <trkpt lat="44.17418" lon="4.65336">
        <ele>118.38</ele>
        <time>2016-11-19T09:36:35Z</time>
      </trkpt>
      <trkpt lat="44.17419" lon="4.6534">
        <ele>118.38</ele>
        <time>2016-11-19T09:36:36Z</time>
      </trkpt>
      <trkpt lat="44.17421" lon="4.65343">
        <ele>118.38</ele>
        <time>2016-11-19T09:36:37Z</time>
      </trkpt>
      <trkpt lat="44.17422" lon="4.65346">
        <ele>118.38</ele>
        <time>2016-11-19T09:36:38Z</time>
      </trkpt>
      <trkpt lat="44.17429" lon="4.65363">
        <ele>118.38</ele>
        <time>2016-11-19T09:36:51Z</time>
      </trkpt>
      <trkpt lat="44.17429" lon="4.65364">
        <ele>118.38</ele>
        <time>2016-11-19T09:37:00Z</time>
      </trkpt>
      <trkpt lat="44.17427" lon="4.65366">
        <ele>118.38</ele>
        <time>2016-11-19T09:37:02Z</time>
      </trkpt>
      <trkpt lat="44.17425" lon="4.65367">
        <ele>118.38</ele>
        <time>2016-11-19T09:37:03Z</time>
      </trkpt>
      <trkpt lat="44.17422" lon="4.65368">
        <ele>118.38</ele>
        <time>2016-11-19T09:37:04Z</time>
      </trkpt>
      <trkpt lat="44.17395" lon="4.65374">
        <ele>115.01</ele>
        <time>2016-11-19T09:37:10Z</time>
      </trkpt>
      <trkpt lat="44.17368" lon="4.65375">
        <ele>110.69</ele>
        <time>2016-11-19T09:37:16Z</time>
      </trkpt>
      <trkpt lat="44.17346" lon="4.65379">
        <ele>108.29</ele>
        <time>2016-11-19T09:37:22Z</time>
      </trkpt>
      <trkpt lat="44.17342" lon="4.65379">
        <ele>107.81</ele>
        <time>2016-11-19T09:37:23Z</time>
      </trkpt>
      <trkpt lat="44.17334" lon="4.65383">
        <ele>107.32</ele>
        <time>2016-11-19T09:37:25Z</time>
      </trkpt>
      <trkpt lat="44.17328" lon="4.65389">
        <ele>105.88</ele>
        <time>2016-11-19T09:37:27Z</time>
      </trkpt>
      <trkpt lat="44.17318" lon="4.65386">
        <ele>104.44</ele>
        <time>2016-11-19T09:37:31Z</time>
      </trkpt>
      <trkpt lat="44.17304" lon="4.65398">
        <ele>102.04</ele>
        <time>2016-11-19T09:37:37Z</time>
      </trkpt>
      <trkpt lat="44.17302" lon="4.6541">
        <ele>102.52</ele>
        <time>2016-11-19T09:37:40Z</time>
      </trkpt>
      <trkpt lat="44.17302" lon="4.65422">
        <ele>102.04</ele>
        <time>2016-11-19T09:37:43Z</time>
      </trkpt>
      <trkpt lat="44.17298" lon="4.65445">
        <ele>99.63</ele>
        <time>2016-11-19T09:37:48Z</time>
      </trkpt>
      <trkpt lat="44.17299" lon="4.65458">
        <ele>101.08</ele>
        <time>2016-11-19T09:37:52Z</time>
      </trkpt>
      <trkpt lat="44.17305" lon="4.65481">
        <ele>101.56</ele>
        <time>2016-11-19T09:38:05Z</time>
      </trkpt>
      <trkpt lat="44.17304" lon="4.65486">
        <ele>102.04</ele>
        <time>2016-11-19T09:38:29Z</time>
      </trkpt>
      <trkpt lat="44.17305" lon="4.65489">
        <ele>102.04</ele>
        <time>2016-11-19T09:38:31Z</time>
      </trkpt>
      <trkpt lat="44.1731" lon="4.655">
        <ele>103</ele>
        <time>2016-11-19T09:38:37Z</time>
      </trkpt>
      <trkpt lat="44.17312" lon="4.65501">
        <ele>103.48</ele>
        <time>2016-11-19T09:38:38Z</time>
      </trkpt>
      <trkpt lat="44.17314" lon="4.655">
        <ele>103.96</ele>
        <time>2016-11-19T09:38:39Z</time>
      </trkpt>
      <trkpt lat="44.17316" lon="4.65499">
        <ele>104.44</ele>
        <time>2016-11-19T09:38:40Z</time>
      </trkpt>
      <trkpt lat="44.17334" lon="4.65484">
        <ele>108.29</ele>
        <time>2016-11-19T09:38:51Z</time>
      </trkpt>
      <trkpt lat="44.17336" lon="4.6548">
        <ele>108.77</ele>
        <time>2016-11-19T09:38:53Z</time>
      </trkpt>
      <trkpt lat="44.17338" lon="4.65479">
        <ele>108.77</ele>
        <time>2016-11-19T09:38:54Z</time>
      </trkpt>
      <trkpt lat="44.17339" lon="4.65478">
        <ele>109.73</ele>
        <time>2016-11-19T09:38:55Z</time>
      </trkpt>
      <trkpt lat="44.17359" lon="4.65453">
        <ele>112.13</ele>
        <time>2016-11-19T09:39:08Z</time>
      </trkpt>
      <trkpt lat="44.17386" lon="4.65423">
        <ele>113.09</ele>
        <time>2016-11-19T09:39:21Z</time>
      </trkpt>
      <trkpt lat="44.17407" lon="4.65417">
        <ele>116.46</ele>
        <time>2016-11-19T09:39:32Z</time>
      </trkpt>
      <trkpt lat="44.1743" lon="4.65412">
        <ele>119.34</ele>
        <time>2016-11-19T09:39:43Z</time>
      </trkpt>
      <trkpt lat="44.17466" lon="4.654">
        <ele>119.82</ele>
        <time>2016-11-19T09:39:57Z</time>
      </trkpt>
      <trkpt lat="44.17509" lon="4.65387">
        <ele>120.3</ele>
        <time>2016-11-19T09:40:13Z</time>
      </trkpt>
      <trkpt lat="44.1755" lon="4.65379">
        <ele>121.26</ele>
        <time>2016-11-19T09:40:28Z</time>
      </trkpt>
      <trkpt lat="44.17583" lon="4.65372">
        <ele>123.19</ele>
        <time>2016-11-19T09:40:40Z</time>
      </trkpt>
      <trkpt lat="44.17624" lon="4.65365">
        <ele>125.59</ele>
        <time>2016-11-19T09:40:55Z</time>
      </trkpt>
      <trkpt lat="44.1765" lon="4.6536">
        <ele>128.95</ele>
        <time>2016-11-19T09:41:05Z</time>
      </trkpt>
      <trkpt lat="44.17684" lon="4.65355">
        <ele>132.32</ele>
        <time>2016-11-19T09:41:19Z</time>
      </trkpt>
      <trkpt lat="44.17711" lon="4.65356">
        <ele>133.28</ele>
        <time>2016-11-19T09:41:30Z</time>
      </trkpt>
      <trkpt lat="44.17711" lon="4.65358">
        <ele>133.76</ele>
        <time>2016-11-19T09:41:31Z</time>
      </trkpt>
      <trkpt lat="44.17711" lon="4.65361">
        <ele>133.76</ele>
        <time>2016-11-19T09:41:32Z</time>
      </trkpt>
      <trkpt lat="44.17709" lon="4.65363">
        <ele>133.76</ele>
        <time>2016-11-19T09:41:33Z</time>
      </trkpt>
      <trkpt lat="44.17707" lon="4.65366">
        <ele>133.76</ele>
        <time>2016-11-19T09:41:34Z</time>
      </trkpt>
      <trkpt lat="44.17705" lon="4.65369">
        <ele>134.24</ele>
        <time>2016-11-19T09:41:35Z</time>
      </trkpt>
      <trkpt lat="44.17704" lon="4.65373">
        <ele>134.24</ele>
        <time>2016-11-19T09:41:36Z</time>
      </trkpt>
      <trkpt lat="44.17685" lon="4.65411">
        <ele>135.2</ele>
        <time>2016-11-19T09:41:50Z</time>
      </trkpt>
      <trkpt lat="44.17663" lon="4.65456">
        <ele>136.64</ele>
        <time>2016-11-19T09:42:06Z</time>
      </trkpt>
      <trkpt lat="44.17635" lon="4.65501">
        <ele>139.53</ele>
        <time>2016-11-19T09:42:22Z</time>
      </trkpt>
      <trkpt lat="44.17621" lon="4.65538">
        <ele>140.97</ele>
        <time>2016-11-19T09:42:34Z</time>
      </trkpt>
      <trkpt lat="44.17611" lon="4.65585">
        <ele>143.85</ele>
        <time>2016-11-19T09:42:48Z</time>
      </trkpt>
      <trkpt lat="44.17598" lon="4.65638">
        <ele>145.78</ele>
        <time>2016-11-19T09:43:03Z</time>
      </trkpt>
      <trkpt lat="44.17585" lon="4.65698">
        <ele>146.26</ele>
        <time>2016-11-19T09:43:17Z</time>
      </trkpt>
      <trkpt lat="44.17582" lon="4.6572">
        <ele>144.82</ele>
        <time>2016-11-19T09:43:21Z</time>
      </trkpt>
      <trkpt lat="44.17579" lon="4.6579">
        <ele>144.34</ele>
        <time>2016-11-19T09:43:34Z</time>
      </trkpt>
      <trkpt lat="44.1758" lon="4.65799">
        <ele>145.3</ele>
        <time>2016-11-19T09:43:36Z</time>
      </trkpt>
      <trkpt lat="44.17597" lon="4.65852">
        <ele>146.26</ele>
        <time>2016-11-19T09:43:46Z</time>
      </trkpt>
      <trkpt lat="44.176" lon="4.65857">
        <ele>146.26</ele>
        <time>2016-11-19T09:43:47Z</time>
      </trkpt>
      <trkpt lat="44.17636" lon="4.65945">
        <ele>144.34</ele>
        <time>2016-11-19T09:44:03Z</time>
      </trkpt>
      <trkpt lat="44.17667" lon="4.66006">
        <ele>147.22</ele>
        <time>2016-11-19T09:44:17Z</time>
      </trkpt>
      <trkpt lat="44.17655" lon="4.6605">
        <ele>148.66</ele>
        <time>2016-11-19T09:44:27Z</time>
      </trkpt>
      <trkpt lat="44.1763" lon="4.66065">
        <ele>149.62</ele>
        <time>2016-11-19T09:44:36Z</time>
      </trkpt>
      <trkpt lat="44.17588" lon="4.66039">
        <ele>149.62</ele>
        <time>2016-11-19T09:44:46Z</time>
      </trkpt>
      <trkpt lat="44.17523" lon="4.66011">
        <ele>152.51</ele>
        <time>2016-11-19T09:45:03Z</time>
      </trkpt>
      <trkpt lat="44.17469" lon="4.65996">
        <ele>152.99</ele>
        <time>2016-11-19T09:45:16Z</time>
      </trkpt>
      <trkpt lat="44.17465" lon="4.65996">
        <ele>152.99</ele>
        <time>2016-11-19T09:45:17Z</time>
      </trkpt>
      <trkpt lat="44.17407" lon="4.65986">
        <ele>155.39</ele>
        <time>2016-11-19T09:45:32Z</time>
      </trkpt>
      <trkpt lat="44.17364" lon="4.65986">
        <ele>157.79</ele>
        <time>2016-11-19T09:45:45Z</time>
      </trkpt>
      <trkpt lat="44.17338" lon="4.6601">
        <ele>158.75</ele>
        <time>2016-11-19T09:45:55Z</time>
      </trkpt>
      <trkpt lat="44.17306" lon="4.66035">
        <ele>159.72</ele>
        <time>2016-11-19T09:46:06Z</time>
      </trkpt>
      <trkpt lat="44.17251" lon="4.66066">
        <ele>161.16</ele>
        <time>2016-11-19T09:46:23Z</time>
      </trkpt>
      <trkpt lat="44.17213" lon="4.66072">
        <ele>162.12</ele>
        <time>2016-11-19T09:46:34Z</time>
      </trkpt>
      <trkpt lat="44.1718" lon="4.6611">
        <ele>160.68</ele>
        <time>2016-11-19T09:46:46Z</time>
      </trkpt>
      <trkpt lat="44.1717" lon="4.66129">
        <ele>160.2</ele>
        <time>2016-11-19T09:46:51Z</time>
      </trkpt>
      <trkpt lat="44.17164" lon="4.66139">
        <ele>159.72</ele>
        <time>2016-11-19T09:46:53Z</time>
      </trkpt>
      <trkpt lat="44.17154" lon="4.66167">
        <ele>156.35</ele>
        <time>2016-11-19T09:46:57Z</time>
      </trkpt>
      <trkpt lat="44.17126" lon="4.66245">
        <ele>154.43</ele>
        <time>2016-11-19T09:47:07Z</time>
      </trkpt>
      <trkpt lat="44.17122" lon="4.66257">
        <ele>154.91</ele>
        <time>2016-11-19T09:47:09Z</time>
      </trkpt>
      <trkpt lat="44.17112" lon="4.66299">
        <ele>154.91</ele>
        <time>2016-11-19T09:47:17Z</time>
      </trkpt>
      <trkpt lat="44.1711" lon="4.66318">
        <ele>154.91</ele>
        <time>2016-11-19T09:47:20Z</time>
      </trkpt>
      <trkpt lat="44.17111" lon="4.66324">
        <ele>154.91</ele>
        <time>2016-11-19T09:47:21Z</time>
      </trkpt>
      <trkpt lat="44.17112" lon="4.6633">
        <ele>154.91</ele>
        <time>2016-11-19T09:47:22Z</time>
      </trkpt>
      <trkpt lat="44.17113" lon="4.66336">
        <ele>154.91</ele>
        <time>2016-11-19T09:47:23Z</time>
      </trkpt>
      <trkpt lat="44.17115" lon="4.66341">
        <ele>154.91</ele>
        <time>2016-11-19T09:47:24Z</time>
      </trkpt>
      <trkpt lat="44.17117" lon="4.66347">
        <ele>154.91</ele>
        <time>2016-11-19T09:47:25Z</time>
      </trkpt>
      <trkpt lat="44.1712" lon="4.66353">
        <ele>154.91</ele>
        <time>2016-11-19T09:47:26Z</time>
      </trkpt>
      <trkpt lat="44.17122" lon="4.66358">
        <ele>154.91</ele>
        <time>2016-11-19T09:47:27Z</time>
      </trkpt>
      <trkpt lat="44.17125" lon="4.66363">
        <ele>154.91</ele>
        <time>2016-11-19T09:47:28Z</time>
      </trkpt>
      <trkpt lat="44.17142" lon="4.66407">
        <ele>156.35</ele>
        <time>2016-11-19T09:47:39Z</time>
      </trkpt>
      <trkpt lat="44.17139" lon="4.66462">
        <ele>157.31</ele>
        <time>2016-11-19T09:47:51Z</time>
      </trkpt>
      <trkpt lat="44.17128" lon="4.66513">
        <ele>161.16</ele>
        <time>2016-11-19T09:48:03Z</time>
      </trkpt>
      <trkpt lat="44.17118" lon="4.66551">
        <ele>163.56</ele>
        <time>2016-11-19T09:48:14Z</time>
      </trkpt>
      <trkpt lat="44.17136" lon="4.66574">
        <ele>164.04</ele>
        <time>2016-11-19T09:48:24Z</time>
      </trkpt>
      <trkpt lat="44.17173" lon="4.66596">
        <ele>165</ele>
        <time>2016-11-19T09:48:37Z</time>
      </trkpt>
      <trkpt lat="44.1721" lon="4.6663">
        <ele>166.45</ele>
        <time>2016-11-19T09:48:50Z</time>
      </trkpt>
      <trkpt lat="44.17256" lon="4.66662">
        <ele>166.45</ele>
        <time>2016-11-19T09:49:05Z</time>
      </trkpt>
      <trkpt lat="44.17295" lon="4.66693">
        <ele>167.89</ele>
        <time>2016-11-19T09:49:19Z</time>
      </trkpt>
      <trkpt lat="44.17308" lon="4.66735">
        <ele>167.89</ele>
        <time>2016-11-19T09:49:29Z</time>
      </trkpt>
      <trkpt lat="44.17329" lon="4.66777">
        <ele>168.37</ele>
        <time>2016-11-19T09:49:40Z</time>
      </trkpt>
      <trkpt lat="44.17334" lon="4.66798">
        <ele>168.37</ele>
        <time>2016-11-19T09:49:44Z</time>
      </trkpt>
      <trkpt lat="44.17335" lon="4.66803">
        <ele>168.85</ele>
        <time>2016-11-19T09:49:45Z</time>
      </trkpt>
      <trkpt lat="44.17335" lon="4.66809">
        <ele>168.85</ele>
        <time>2016-11-19T09:49:46Z</time>
      </trkpt>
      <trkpt lat="44.17334" lon="4.66815">
        <ele>168.85</ele>
        <time>2016-11-19T09:49:47Z</time>
      </trkpt>
      <trkpt lat="44.17333" lon="4.66821">
        <ele>168.85</ele>
        <time>2016-11-19T09:49:48Z</time>
      </trkpt>
      <trkpt lat="44.17332" lon="4.66827">
        <ele>168.85</ele>
        <time>2016-11-19T09:49:49Z</time>
      </trkpt>
      <trkpt lat="44.17331" lon="4.66832">
        <ele>168.85</ele>
        <time>2016-11-19T09:49:50Z</time>
      </trkpt>
      <trkpt lat="44.17328" lon="4.66837">
        <ele>168.85</ele>
        <time>2016-11-19T09:49:51Z</time>
      </trkpt>
      <trkpt lat="44.17326" lon="4.66842">
        <ele>168.85</ele>
        <time>2016-11-19T09:49:52Z</time>
      </trkpt>
      <trkpt lat="44.17323" lon="4.66847">
        <ele>168.85</ele>
        <time>2016-11-19T09:49:53Z</time>
      </trkpt>
      <trkpt lat="44.1732" lon="4.66851">
        <ele>168.85</ele>
        <time>2016-11-19T09:49:54Z</time>
      </trkpt>
      <trkpt lat="44.17317" lon="4.66854">
        <ele>168.85</ele>
        <time>2016-11-19T09:49:55Z</time>
      </trkpt>
      <trkpt lat="44.17313" lon="4.66857">
        <ele>168.85</ele>
        <time>2016-11-19T09:49:56Z</time>
      </trkpt>
      <trkpt lat="44.17309" lon="4.66859">
        <ele>168.85</ele>
        <time>2016-11-19T09:49:57Z</time>
      </trkpt>
      <trkpt lat="44.17305" lon="4.6686">
        <ele>168.85</ele>
        <time>2016-11-19T09:49:58Z</time>
      </trkpt>
      <trkpt lat="44.17255" lon="4.66883">
        <ele>169.33</ele>
        <time>2016-11-19T09:50:12Z</time>
      </trkpt>
      <trkpt lat="44.17201" lon="4.66907">
        <ele>169.81</ele>
        <time>2016-11-19T09:50:28Z</time>
      </trkpt>
      <trkpt lat="44.1719" lon="4.66912">
        <ele>169.81</ele>
        <time>2016-11-19T09:50:31Z</time>
      </trkpt>
      <trkpt lat="44.17186" lon="4.66914">
        <ele>169.81</ele>
        <time>2016-11-19T09:50:32Z</time>
      </trkpt>
      <trkpt lat="44.17181" lon="4.66914">
        <ele>169.81</ele>
        <time>2016-11-19T09:50:33Z</time>
      </trkpt>
      <trkpt lat="44.17177" lon="4.66915">
        <ele>169.81</ele>
        <time>2016-11-19T09:50:34Z</time>
      </trkpt>
      <trkpt lat="44.17172" lon="4.66917">
        <ele>169.81</ele>
        <time>2016-11-19T09:50:35Z</time>
      </trkpt>
      <trkpt lat="44.17168" lon="4.66919">
        <ele>169.81</ele>
        <time>2016-11-19T09:50:36Z</time>
      </trkpt>
      <trkpt lat="44.1716" lon="4.66925">
        <ele>169.81</ele>
        <time>2016-11-19T09:50:38Z</time>
      </trkpt>
      <trkpt lat="44.17156" lon="4.66929">
        <ele>169.81</ele>
        <time>2016-11-19T09:50:39Z</time>
      </trkpt>
      <trkpt lat="44.17153" lon="4.66934">
        <ele>169.81</ele>
        <time>2016-11-19T09:50:40Z</time>
      </trkpt>
      <trkpt lat="44.1715" lon="4.66939">
        <ele>169.81</ele>
        <time>2016-11-19T09:50:41Z</time>
      </trkpt>
      <trkpt lat="44.17148" lon="4.66945">
        <ele>169.81</ele>
        <time>2016-11-19T09:50:42Z</time>
      </trkpt>
      <trkpt lat="44.17146" lon="4.66951">
        <ele>169.81</ele>
        <time>2016-11-19T09:50:43Z</time>
      </trkpt>
      <trkpt lat="44.17124" lon="4.67004">
        <ele>168.37</ele>
        <time>2016-11-19T09:50:51Z</time>
      </trkpt>
      <trkpt lat="44.17109" lon="4.67042">
        <ele>168.37</ele>
        <time>2016-11-19T09:50:57Z</time>
      </trkpt>
      <trkpt lat="44.17105" lon="4.67047">
        <ele>168.37</ele>
        <time>2016-11-19T09:50:58Z</time>
      </trkpt>
      <trkpt lat="44.171" lon="4.67052">
        <ele>168.37</ele>
        <time>2016-11-19T09:50:59Z</time>
      </trkpt>
      <trkpt lat="44.17096" lon="4.67056">
        <ele>168.37</ele>
        <time>2016-11-19T09:51:00Z</time>
      </trkpt>
      <trkpt lat="44.17091" lon="4.6706">
        <ele>168.37</ele>
        <time>2016-11-19T09:51:01Z</time>
      </trkpt>
      <trkpt lat="44.17078" lon="4.67069">
        <ele>167.89</ele>
        <time>2016-11-19T09:51:04Z</time>
      </trkpt>
      <trkpt lat="44.17074" lon="4.67073">
        <ele>167.89</ele>
        <time>2016-11-19T09:51:05Z</time>
      </trkpt>
      <trkpt lat="44.1707" lon="4.67078">
        <ele>167.89</ele>
        <time>2016-11-19T09:51:06Z</time>
      </trkpt>
      <trkpt lat="44.17066" lon="4.67082">
        <ele>167.89</ele>
        <time>2016-11-19T09:51:07Z</time>
      </trkpt>
      <trkpt lat="44.17062" lon="4.67086">
        <ele>167.89</ele>
        <time>2016-11-19T09:51:08Z</time>
      </trkpt>
      <trkpt lat="44.1706" lon="4.6709">
        <ele>167.89</ele>
        <time>2016-11-19T09:51:09Z</time>
      </trkpt>
      <trkpt lat="44.17058" lon="4.67095">
        <ele>169.33</ele>
        <time>2016-11-19T09:51:10Z</time>
      </trkpt>
      <trkpt lat="44.17057" lon="4.67099">
        <ele>169.33</ele>
        <time>2016-11-19T09:51:11Z</time>
      </trkpt>
      <trkpt lat="44.17049" lon="4.67126">
        <ele>169.81</ele>
        <time>2016-11-19T09:51:17Z</time>
      </trkpt>
      <trkpt lat="44.17048" lon="4.67133">
        <ele>169.81</ele>
        <time>2016-11-19T09:51:18Z</time>
      </trkpt>
      <trkpt lat="44.17049" lon="4.6714">
        <ele>168.37</ele>
        <time>2016-11-19T09:51:19Z</time>
      </trkpt>
      <trkpt lat="44.17051" lon="4.67148">
        <ele>167.41</ele>
        <time>2016-11-19T09:51:20Z</time>
      </trkpt>
      <trkpt lat="44.17054" lon="4.67158">
        <ele>165.96</ele>
        <time>2016-11-19T09:51:21Z</time>
      </trkpt>
      <trkpt lat="44.17057" lon="4.67169">
        <ele>165</ele>
        <time>2016-11-19T09:51:22Z</time>
      </trkpt>
      <trkpt lat="44.17068" lon="4.67192">
        <ele>161.64</ele>
        <time>2016-11-19T09:51:24Z</time>
      </trkpt>
      <trkpt lat="44.17082" lon="4.67215">
        <ele>159.24</ele>
        <time>2016-11-19T09:51:26Z</time>
      </trkpt>
      <trkpt lat="44.17096" lon="4.67236">
        <ele>157.31</ele>
        <time>2016-11-19T09:51:28Z</time>
      </trkpt>
      <trkpt lat="44.17102" lon="4.67247">
        <ele>156.83</ele>
        <time>2016-11-19T09:51:29Z</time>
      </trkpt>
      <trkpt lat="44.17106" lon="4.67258">
        <ele>156.83</ele>
        <time>2016-11-19T09:51:30Z</time>
      </trkpt>
      <trkpt lat="44.17111" lon="4.67266">
        <ele>156.83</ele>
        <time>2016-11-19T09:51:31Z</time>
      </trkpt>
      <trkpt lat="44.17116" lon="4.67272">
        <ele>156.83</ele>
        <time>2016-11-19T09:51:32Z</time>
      </trkpt>
      <trkpt lat="44.17123" lon="4.67276">
        <ele>156.83</ele>
        <time>2016-11-19T09:51:33Z</time>
      </trkpt>
      <trkpt lat="44.17129" lon="4.6728">
        <ele>156.83</ele>
        <time>2016-11-19T09:51:34Z</time>
      </trkpt>
      <trkpt lat="44.17156" lon="4.67305">
        <ele>152.99</ele>
        <time>2016-11-19T09:51:38Z</time>
      </trkpt>
      <trkpt lat="44.17175" lon="4.67333">
        <ele>150.1</ele>
        <time>2016-11-19T09:51:41Z</time>
      </trkpt>
      <trkpt lat="44.17182" lon="4.6734">
        <ele>150.1</ele>
        <time>2016-11-19T09:51:42Z</time>
      </trkpt>
      <trkpt lat="44.1719" lon="4.67345">
        <ele>149.14</ele>
        <time>2016-11-19T09:51:43Z</time>
      </trkpt>
      <trkpt lat="44.17198" lon="4.67348">
        <ele>149.14</ele>
        <time>2016-11-19T09:51:44Z</time>
      </trkpt>
      <trkpt lat="44.17206" lon="4.67349">
        <ele>149.14</ele>
        <time>2016-11-19T09:51:45Z</time>
      </trkpt>
      <trkpt lat="44.17215" lon="4.67348">
        <ele>149.14</ele>
        <time>2016-11-19T09:51:46Z</time>
      </trkpt>
      <trkpt lat="44.17223" lon="4.67347">
        <ele>148.18</ele>
        <time>2016-11-19T09:51:47Z</time>
      </trkpt>
      <trkpt lat="44.1723" lon="4.67348">
        <ele>148.18</ele>
        <time>2016-11-19T09:51:48Z</time>
      </trkpt>
      <trkpt lat="44.17237" lon="4.6735">
        <ele>148.18</ele>
        <time>2016-11-19T09:51:49Z</time>
      </trkpt>
      <trkpt lat="44.1725" lon="4.67352">
        <ele>148.18</ele>
        <time>2016-11-19T09:51:51Z</time>
      </trkpt>
      <trkpt lat="44.17269" lon="4.67352">
        <ele>150.1</ele>
        <time>2016-11-19T09:51:55Z</time>
      </trkpt>
      <trkpt lat="44.17282" lon="4.67352">
        <ele>153.47</ele>
        <time>2016-11-19T09:51:59Z</time>
      </trkpt>
      <trkpt lat="44.17322" lon="4.67333">
        <ele>156.83</ele>
        <time>2016-11-19T09:52:10Z</time>
      </trkpt>
      <trkpt lat="44.17337" lon="4.67323">
        <ele>158.75</ele>
        <time>2016-11-19T09:52:15Z</time>
      </trkpt>
      <trkpt lat="44.17354" lon="4.67313">
        <ele>159.72</ele>
        <time>2016-11-19T09:52:26Z</time>
      </trkpt>
      <trkpt lat="44.17371" lon="4.67319">
        <ele>160.2</ele>
        <time>2016-11-19T09:52:39Z</time>
      </trkpt>
      <trkpt lat="44.17372" lon="4.6732">
        <ele>160.2</ele>
        <time>2016-11-19T09:52:41Z</time>
      </trkpt>
      <trkpt lat="44.17374" lon="4.67321">
        <ele>160.2</ele>
        <time>2016-11-19T09:52:53Z</time>
      </trkpt>
      <trkpt lat="44.17374" lon="4.67324">
        <ele>160.68</ele>
        <time>2016-11-19T09:53:31Z</time>
      </trkpt>
      <trkpt lat="44.17377" lon="4.67325">
        <ele>160.68</ele>
        <time>2016-11-19T09:54:16Z</time>
      </trkpt>
      <trkpt lat="44.17376" lon="4.67323">
        <ele>160.68</ele>
        <time>2016-11-19T09:55:01Z</time>
      </trkpt>
      <trkpt lat="44.17376" lon="4.67321">
        <ele>160.68</ele>
        <time>2016-11-19T09:55:41Z</time>
      </trkpt>
      <trkpt lat="44.17376" lon="4.6732">
        <ele>160.2</ele>
        <time>2016-11-19T09:56:17Z</time>
      </trkpt>
      <trkpt lat="44.17378" lon="4.67321">
        <ele>160.2</ele>
        <time>2016-11-19T09:56:59Z</time>
      </trkpt>
      <trkpt lat="44.17376" lon="4.67324">
        <ele>160.2</ele>
        <time>2016-11-19T09:57:40Z</time>
      </trkpt>
      <trkpt lat="44.17376" lon="4.67324">
        <ele>160.2</ele>
        <time>2016-11-19T09:58:13Z</time>
      </trkpt>
      <trkpt lat="44.17377" lon="4.67319">
        <ele>160.2</ele>
        <time>2016-11-19T09:58:50Z</time>
      </trkpt>
      <trkpt lat="44.17377" lon="4.6732">
        <ele>160.2</ele>
        <time>2016-11-19T09:59:31Z</time>
      </trkpt>
      <trkpt lat="44.17377" lon="4.67323">
        <ele>160.2</ele>
        <time>2016-11-19T10:00:05Z</time>
      </trkpt>
      <trkpt lat="44.17373" lon="4.67321">
        <ele>160.2</ele>
        <time>2016-11-19T10:00:46Z</time>
      </trkpt>
      <trkpt lat="44.17375" lon="4.67318">
        <ele>160.2</ele>
        <time>2016-11-19T10:01:23Z</time>
      </trkpt>
      <trkpt lat="44.17374" lon="4.6732">
        <ele>160.2</ele>
        <time>2016-11-19T10:02:04Z</time>
      </trkpt>
      <trkpt lat="44.17374" lon="4.67321">
        <ele>160.2</ele>
        <time>2016-11-19T10:02:35Z</time>
      </trkpt>
      <trkpt lat="44.17373" lon="4.67321">
        <ele>160.2</ele>
        <time>2016-11-19T10:03:16Z</time>
      </trkpt>
      <trkpt lat="44.17372" lon="4.67322">
        <ele>160.68</ele>
        <time>2016-11-19T10:03:56Z</time>
      </trkpt>
      <trkpt lat="44.17372" lon="4.67323">
        <ele>161.16</ele>
        <time>2016-11-19T10:04:33Z</time>
      </trkpt>
      <trkpt lat="44.17376" lon="4.67326">
        <ele>161.64</ele>
        <time>2016-11-19T10:05:19Z</time>
      </trkpt>
      <trkpt lat="44.17372" lon="4.67325">
        <ele>161.64</ele>
        <time>2016-11-19T10:05:59Z</time>
      </trkpt>
      <trkpt lat="44.17371" lon="4.67323">
        <ele>161.64</ele>
        <time>2016-11-19T10:06:22Z</time>
      </trkpt>
      <trkpt lat="44.17372" lon="4.67322">
        <ele>161.64</ele>
        <time>2016-11-19T10:06:40Z</time>
      </trkpt>
      <trkpt lat="44.17372" lon="4.6732">
        <ele>161.64</ele>
        <time>2016-11-19T10:07:05Z</time>
      </trkpt>
      <trkpt lat="44.17372" lon="4.67322">
        <ele>161.64</ele>
        <time>2016-11-19T10:07:29Z</time>
      </trkpt>
      <trkpt lat="44.17372" lon="4.67322">
        <ele>161.64</ele>
        <time>2016-11-19T10:07:38Z</time>
      </trkpt>
      <trkpt lat="44.1737" lon="4.67322">
        <ele>161.64</ele>
        <time>2016-11-19T10:07:39Z</time>
      </trkpt>
      <trkpt lat="44.17369" lon="4.67326">
        <ele>161.64</ele>
        <time>2016-11-19T10:07:41Z</time>
      </trkpt>
      <trkpt lat="44.17369" lon="4.67329">
        <ele>161.64</ele>
        <time>2016-11-19T10:07:42Z</time>
      </trkpt>
      <trkpt lat="44.1737" lon="4.67332">
        <ele>161.64</ele>
        <time>2016-11-19T10:07:43Z</time>
      </trkpt>
      <trkpt lat="44.17371" lon="4.67334">
        <ele>161.64</ele>
        <time>2016-11-19T10:07:44Z</time>
      </trkpt>
      <trkpt lat="44.17373" lon="4.67336">
        <ele>161.64</ele>
        <time>2016-11-19T10:07:46Z</time>
      </trkpt>
      <trkpt lat="44.17373" lon="4.67339">
        <ele>161.64</ele>
        <time>2016-11-19T10:07:47Z</time>
      </trkpt>
      <trkpt lat="44.17373" lon="4.67341">
        <ele>161.64</ele>
        <time>2016-11-19T10:07:48Z</time>
      </trkpt>
      <trkpt lat="44.17373" lon="4.67345">
        <ele>161.64</ele>
        <time>2016-11-19T10:07:49Z</time>
      </trkpt>
      <trkpt lat="44.17373" lon="4.67348">
        <ele>161.64</ele>
        <time>2016-11-19T10:07:50Z</time>
      </trkpt>
      <trkpt lat="44.17373" lon="4.67352">
        <ele>161.64</ele>
        <time>2016-11-19T10:07:51Z</time>
      </trkpt>
      <trkpt lat="44.17373" lon="4.67356">
        <ele>161.64</ele>
        <time>2016-11-19T10:07:52Z</time>
      </trkpt>
      <trkpt lat="44.17368" lon="4.6741">
        <ele>161.64</ele>
        <time>2016-11-19T10:08:06Z</time>
      </trkpt>
      <trkpt lat="44.17365" lon="4.67467">
        <ele>163.08</ele>
        <time>2016-11-19T10:08:20Z</time>
      </trkpt>
      <trkpt lat="44.1735" lon="4.675">
        <ele>164.04</ele>
        <time>2016-11-19T10:08:30Z</time>
      </trkpt>
      <trkpt lat="44.17341" lon="4.6754">
        <ele>167.41</ele>
        <time>2016-11-19T10:08:42Z</time>
      </trkpt>
      <trkpt lat="44.17342" lon="4.67601">
        <ele>166.45</ele>
        <time>2016-11-19T10:08:56Z</time>
      </trkpt>
      <trkpt lat="44.17342" lon="4.67607">
        <ele>166.45</ele>
        <time>2016-11-19T10:08:57Z</time>
      </trkpt>
      <trkpt lat="44.17337" lon="4.67644">
        <ele>164.52</ele>
        <time>2016-11-19T10:09:03Z</time>
      </trkpt>
      <trkpt lat="44.17336" lon="4.6765">
        <ele>164.52</ele>
        <time>2016-11-19T10:09:04Z</time>
      </trkpt>
      <trkpt lat="44.17333" lon="4.67656">
        <ele>164.52</ele>
        <time>2016-11-19T10:09:05Z</time>
      </trkpt>
      <trkpt lat="44.17323" lon="4.67677">
        <ele>166.45</ele>
        <time>2016-11-19T10:09:11Z</time>
      </trkpt>
      <trkpt lat="44.17316" lon="4.67677">
        <ele>166.45</ele>
        <time>2016-11-19T10:09:13Z</time>
      </trkpt>
      <trkpt lat="44.17302" lon="4.67675">
        <ele>165</ele>
        <time>2016-11-19T10:09:16Z</time>
      </trkpt>
      <trkpt lat="44.1728" lon="4.67684">
        <ele>164.52</ele>
        <time>2016-11-19T10:09:21Z</time>
      </trkpt>
      <trkpt lat="44.17272" lon="4.67694">
        <ele>166.45</ele>
        <time>2016-11-19T10:09:24Z</time>
      </trkpt>
      <trkpt lat="44.17263" lon="4.67696">
        <ele>166.45</ele>
        <time>2016-11-19T10:09:27Z</time>
      </trkpt>
      <trkpt lat="44.17251" lon="4.67699">
        <ele>166.45</ele>
        <time>2016-11-19T10:09:30Z</time>
      </trkpt>
      <trkpt lat="44.17241" lon="4.67698">
        <ele>165</ele>
        <time>2016-11-19T10:09:32Z</time>
      </trkpt>
      <trkpt lat="44.17232" lon="4.67698">
        <ele>164.52</ele>
        <time>2016-11-19T10:09:34Z</time>
      </trkpt>
      <trkpt lat="44.17218" lon="4.67698">
        <ele>163.08</ele>
        <time>2016-11-19T10:09:37Z</time>
      </trkpt>
      <trkpt lat="44.17186" lon="4.67696">
        <ele>159.24</ele>
        <time>2016-11-19T10:09:43Z</time>
      </trkpt>
      <trkpt lat="44.17156" lon="4.67695">
        <ele>156.83</ele>
        <time>2016-11-19T10:09:48Z</time>
      </trkpt>
      <trkpt lat="44.17142" lon="4.67716">
        <ele>156.35</ele>
        <time>2016-11-19T10:09:55Z</time>
      </trkpt>
      <trkpt lat="44.17141" lon="4.67719">
        <ele>156.83</ele>
        <time>2016-11-19T10:09:56Z</time>
      </trkpt>
      <trkpt lat="44.1714" lon="4.67725">
        <ele>156.83</ele>
        <time>2016-11-19T10:09:58Z</time>
      </trkpt>
      <trkpt lat="44.17112" lon="4.67741">
        <ele>154.91</ele>
        <time>2016-11-19T10:10:07Z</time>
      </trkpt>
      <trkpt lat="44.17099" lon="4.67741">
        <ele>154.43</ele>
        <time>2016-11-19T10:10:10Z</time>
      </trkpt>
      <trkpt lat="44.17089" lon="4.67759">
        <ele>151.54</ele>
        <time>2016-11-19T10:10:18Z</time>
      </trkpt>
      <trkpt lat="44.17086" lon="4.67769">
        <ele>150.1</ele>
        <time>2016-11-19T10:10:23Z</time>
      </trkpt>
      <trkpt lat="44.17082" lon="4.6778">
        <ele>149.14</ele>
        <time>2016-11-19T10:10:26Z</time>
      </trkpt>
      <trkpt lat="44.17076" lon="4.67791">
        <ele>147.22</ele>
        <time>2016-11-19T10:10:29Z</time>
      </trkpt>
      <trkpt lat="44.17073" lon="4.67805">
        <ele>146.74</ele>
        <time>2016-11-19T10:10:34Z</time>
      </trkpt>
      <trkpt lat="44.17069" lon="4.67828">
        <ele>145.3</ele>
        <time>2016-11-19T10:10:41Z</time>
      </trkpt>
      <trkpt lat="44.17064" lon="4.6785">
        <ele>143.85</ele>
        <time>2016-11-19T10:10:45Z</time>
      </trkpt>
      <trkpt lat="44.17052" lon="4.67882">
        <ele>142.89</ele>
        <time>2016-11-19T10:10:53Z</time>
      </trkpt>
      <trkpt lat="44.17043" lon="4.67892">
        <ele>141.93</ele>
        <time>2016-11-19T10:10:57Z</time>
      </trkpt>
      <trkpt lat="44.17011" lon="4.67927">
        <ele>139.53</ele>
        <time>2016-11-19T10:11:08Z</time>
      </trkpt>
      <trkpt lat="44.16998" lon="4.67939">
        <ele>139.05</ele>
        <time>2016-11-19T10:11:15Z</time>
      </trkpt>
      <trkpt lat="44.16984" lon="4.67955">
        <ele>138.09</ele>
        <time>2016-11-19T10:11:23Z</time>
      </trkpt>
      <trkpt lat="44.16977" lon="4.67965">
        <ele>137.61</ele>
        <time>2016-11-19T10:11:26Z</time>
      </trkpt>
      <trkpt lat="44.16963" lon="4.67973">
        <ele>135.2</ele>
        <time>2016-11-19T10:11:31Z</time>
      </trkpt>
      <trkpt lat="44.16946" lon="4.67978">
        <ele>133.28</ele>
        <time>2016-11-19T10:11:36Z</time>
      </trkpt>
      <trkpt lat="44.16936" lon="4.67988">
        <ele>130.4</ele>
        <time>2016-11-19T10:11:40Z</time>
      </trkpt>
      <trkpt lat="44.16934" lon="4.68005">
        <ele>129.92</ele>
        <time>2016-11-19T10:11:44Z</time>
      </trkpt>
      <trkpt lat="44.16933" lon="4.68017">
        <ele>128.47</ele>
        <time>2016-11-19T10:11:46Z</time>
      </trkpt>
      <trkpt lat="44.16932" lon="4.68032">
        <ele>127.03</ele>
        <time>2016-11-19T10:11:48Z</time>
      </trkpt>
      <trkpt lat="44.16931" lon="4.68085">
        <ele>123.67</ele>
        <time>2016-11-19T10:11:56Z</time>
      </trkpt>
      <trkpt lat="44.16939" lon="4.68118">
        <ele>121.74</ele>
        <time>2016-11-19T10:12:03Z</time>
      </trkpt>
      <trkpt lat="44.16939" lon="4.68131">
        <ele>120.78</ele>
        <time>2016-11-19T10:12:05Z</time>
      </trkpt>
      <trkpt lat="44.16932" lon="4.68142">
        <ele>119.34</ele>
        <time>2016-11-19T10:12:10Z</time>
      </trkpt>
      <trkpt lat="44.1693" lon="4.6814">
        <ele>119.34</ele>
        <time>2016-11-19T10:12:11Z</time>
      </trkpt>
      <trkpt lat="44.16929" lon="4.68138">
        <ele>119.34</ele>
        <time>2016-11-19T10:12:12Z</time>
      </trkpt>
      <trkpt lat="44.16924" lon="4.68135">
        <ele>119.34</ele>
        <time>2016-11-19T10:12:14Z</time>
      </trkpt>
      <trkpt lat="44.1692" lon="4.68134">
        <ele>119.34</ele>
        <time>2016-11-19T10:12:15Z</time>
      </trkpt>
      <trkpt lat="44.16915" lon="4.68133">
        <ele>119.34</ele>
        <time>2016-11-19T10:12:16Z</time>
      </trkpt>
      <trkpt lat="44.16906" lon="4.68128">
        <ele>118.86</ele>
        <time>2016-11-19T10:12:18Z</time>
      </trkpt>
      <trkpt lat="44.16884" lon="4.68111">
        <ele>115.98</ele>
        <time>2016-11-19T10:12:22Z</time>
      </trkpt>
      <trkpt lat="44.16879" lon="4.68106">
        <ele>115.5</ele>
        <time>2016-11-19T10:12:23Z</time>
      </trkpt>
      <trkpt lat="44.16865" lon="4.68088">
        <ele>115.01</ele>
        <time>2016-11-19T10:12:26Z</time>
      </trkpt>
      <trkpt lat="44.16862" lon="4.68081">
        <ele>115.01</ele>
        <time>2016-11-19T10:12:27Z</time>
      </trkpt>
      <trkpt lat="44.16841" lon="4.68017">
        <ele>116.46</ele>
        <time>2016-11-19T10:12:38Z</time>
      </trkpt>
      <trkpt lat="44.16825" lon="4.67953">
        <ele>118.86</ele>
        <time>2016-11-19T10:12:53Z</time>
      </trkpt>
      <trkpt lat="44.16824" lon="4.67888">
        <ele>122.22</ele>
        <time>2016-11-19T10:13:08Z</time>
      </trkpt>
      <trkpt lat="44.16823" lon="4.67878">
        <ele>122.22</ele>
        <time>2016-11-19T10:13:11Z</time>
      </trkpt>
      <trkpt lat="44.16821" lon="4.67877">
        <ele>122.22</ele>
        <time>2016-11-19T10:13:12Z</time>
      </trkpt>
      <trkpt lat="44.1682" lon="4.67878">
        <ele>122.71</ele>
        <time>2016-11-19T10:13:13Z</time>
      </trkpt>
      <trkpt lat="44.16819" lon="4.6788">
        <ele>122.71</ele>
        <time>2016-11-19T10:13:14Z</time>
      </trkpt>
      <trkpt lat="44.16817" lon="4.67882">
        <ele>122.71</ele>
        <time>2016-11-19T10:13:15Z</time>
      </trkpt>
      <trkpt lat="44.16815" lon="4.67885">
        <ele>122.71</ele>
        <time>2016-11-19T10:13:16Z</time>
      </trkpt>
      <trkpt lat="44.16791" lon="4.67909">
        <ele>122.71</ele>
        <time>2016-11-19T10:13:26Z</time>
      </trkpt>
      <trkpt lat="44.16754" lon="4.67906">
        <ele>123.19</ele>
        <time>2016-11-19T10:13:37Z</time>
      </trkpt>
      <trkpt lat="44.16706" lon="4.67893">
        <ele>123.67</ele>
        <time>2016-11-19T10:13:51Z</time>
      </trkpt>
      <trkpt lat="44.16664" lon="4.67924">
        <ele>123.67</ele>
        <time>2016-11-19T10:14:04Z</time>
      </trkpt>
      <trkpt lat="44.16634" lon="4.67956">
        <ele>123.67</ele>
        <time>2016-11-19T10:14:15Z</time>
      </trkpt>
      <trkpt lat="44.1663" lon="4.67962">
        <ele>124.15</ele>
        <time>2016-11-19T10:14:19Z</time>
      </trkpt>
      <trkpt lat="44.1663" lon="4.67965">
        <ele>124.15</ele>
        <time>2016-11-19T10:14:20Z</time>
      </trkpt>
      <trkpt lat="44.16619" lon="4.68007">
        <ele>122.71</ele>
        <time>2016-11-19T10:14:30Z</time>
      </trkpt>
      <trkpt lat="44.16616" lon="4.68008">
        <ele>122.71</ele>
        <time>2016-11-19T10:14:31Z</time>
      </trkpt>
      <trkpt lat="44.16613" lon="4.68008">
        <ele>122.71</ele>
        <time>2016-11-19T10:14:32Z</time>
      </trkpt>
      <trkpt lat="44.16611" lon="4.68008">
        <ele>124.15</ele>
        <time>2016-11-19T10:14:33Z</time>
      </trkpt>
      <trkpt lat="44.1661" lon="4.68009">
        <ele>124.15</ele>
        <time>2016-11-19T10:14:34Z</time>
      </trkpt>
      <trkpt lat="44.16608" lon="4.68009">
        <ele>124.63</ele>
        <time>2016-11-19T10:14:35Z</time>
      </trkpt>
      <trkpt lat="44.16602" lon="4.68012">
        <ele>124.63</ele>
        <time>2016-11-19T10:14:38Z</time>
      </trkpt>
      <trkpt lat="44.16606" lon="4.68028">
        <ele>124.63</ele>
        <time>2016-11-19T10:14:45Z</time>
      </trkpt>
      <trkpt lat="44.16608" lon="4.6803">
        <ele>124.63</ele>
        <time>2016-11-19T10:14:46Z</time>
      </trkpt>
      <trkpt lat="44.1661" lon="4.68033">
        <ele>124.63</ele>
        <time>2016-11-19T10:14:47Z</time>
      </trkpt>
      <trkpt lat="44.16612" lon="4.68035">
        <ele>124.63</ele>
        <time>2016-11-19T10:14:48Z</time>
      </trkpt>
      <trkpt lat="44.16613" lon="4.68039">
        <ele>124.63</ele>
        <time>2016-11-19T10:14:49Z</time>
      </trkpt>
      <trkpt lat="44.16613" lon="4.68043">
        <ele>124.63</ele>
        <time>2016-11-19T10:14:50Z</time>
      </trkpt>
      <trkpt lat="44.16613" lon="4.68047">
        <ele>124.63</ele>
        <time>2016-11-19T10:14:51Z</time>
      </trkpt>
      <trkpt lat="44.16613" lon="4.6805">
        <ele>125.11</ele>
        <time>2016-11-19T10:14:52Z</time>
      </trkpt>
      <trkpt lat="44.16614" lon="4.68054">
        <ele>125.11</ele>
        <time>2016-11-19T10:14:53Z</time>
      </trkpt>
      <trkpt lat="44.16616" lon="4.68059">
        <ele>125.11</ele>
        <time>2016-11-19T10:14:54Z</time>
      </trkpt>
      <trkpt lat="44.16619" lon="4.68064">
        <ele>124.15</ele>
        <time>2016-11-19T10:14:55Z</time>
      </trkpt>
      <trkpt lat="44.1662" lon="4.68069">
        <ele>123.19</ele>
        <time>2016-11-19T10:14:56Z</time>
      </trkpt>
      <trkpt lat="44.16619" lon="4.68073">
        <ele>123.19</ele>
        <time>2016-11-19T10:14:57Z</time>
      </trkpt>
      <trkpt lat="44.16619" lon="4.68076">
        <ele>123.19</ele>
        <time>2016-11-19T10:14:58Z</time>
      </trkpt>
      <trkpt lat="44.16619" lon="4.68079">
        <ele>123.19</ele>
        <time>2016-11-19T10:14:59Z</time>
      </trkpt>
      <trkpt lat="44.1662" lon="4.68083">
        <ele>122.71</ele>
        <time>2016-11-19T10:15:00Z</time>
      </trkpt>
      <trkpt lat="44.16621" lon="4.68089">
        <ele>122.22</ele>
        <time>2016-11-19T10:15:01Z</time>
      </trkpt>
      <trkpt lat="44.16623" lon="4.68094">
        <ele>122.22</ele>
        <time>2016-11-19T10:15:02Z</time>
      </trkpt>
      <trkpt lat="44.16624" lon="4.68099">
        <ele>120.78</ele>
        <time>2016-11-19T10:15:03Z</time>
      </trkpt>
      <trkpt lat="44.16624" lon="4.68104">
        <ele>119.82</ele>
        <time>2016-11-19T10:15:04Z</time>
      </trkpt>
      <trkpt lat="44.16623" lon="4.68108">
        <ele>119.82</ele>
        <time>2016-11-19T10:15:05Z</time>
      </trkpt>
      <trkpt lat="44.16622" lon="4.68118">
        <ele>119.82</ele>
        <time>2016-11-19T10:15:08Z</time>
      </trkpt>
      <trkpt lat="44.16622" lon="4.68121">
        <ele>119.82</ele>
        <time>2016-11-19T10:15:09Z</time>
      </trkpt>
      <trkpt lat="44.16622" lon="4.68125">
        <ele>119.82</ele>
        <time>2016-11-19T10:15:10Z</time>
      </trkpt>
      <trkpt lat="44.16621" lon="4.68129">
        <ele>119.82</ele>
        <time>2016-11-19T10:15:11Z</time>
      </trkpt>
      <trkpt lat="44.1662" lon="4.68133">
        <ele>119.82</ele>
        <time>2016-11-19T10:15:12Z</time>
      </trkpt>
      <trkpt lat="44.16619" lon="4.68137">
        <ele>119.82</ele>
        <time>2016-11-19T10:15:13Z</time>
      </trkpt>
      <trkpt lat="44.16618" lon="4.68139">
        <ele>119.82</ele>
        <time>2016-11-19T10:15:14Z</time>
      </trkpt>
      <trkpt lat="44.16606" lon="4.68159">
        <ele>121.74</ele>
        <time>2016-11-19T10:15:22Z</time>
      </trkpt>
      <trkpt lat="44.166" lon="4.68176">
        <ele>120.78</ele>
        <time>2016-11-19T10:15:25Z</time>
      </trkpt>
      <trkpt lat="44.16588" lon="4.68206">
        <ele>122.71</ele>
        <time>2016-11-19T10:15:34Z</time>
      </trkpt>
      <trkpt lat="44.16572" lon="4.68251">
        <ele>123.19</ele>
        <time>2016-11-19T10:15:46Z</time>
      </trkpt>
      <trkpt lat="44.16559" lon="4.68299">
        <ele>124.15</ele>
        <time>2016-11-19T10:15:58Z</time>
      </trkpt>
      <trkpt lat="44.16551" lon="4.6834">
        <ele>124.15</ele>
        <time>2016-11-19T10:16:07Z</time>
      </trkpt>
      <trkpt lat="44.16545" lon="4.6836">
        <ele>122.71</ele>
        <time>2016-11-19T10:16:11Z</time>
      </trkpt>
      <trkpt lat="44.16539" lon="4.68379">
        <ele>120.3</ele>
        <time>2016-11-19T10:16:14Z</time>
      </trkpt>
      <trkpt lat="44.16533" lon="4.684">
        <ele>118.38</ele>
        <time>2016-11-19T10:16:17Z</time>
      </trkpt>
      <trkpt lat="44.1653" lon="4.68406">
        <ele>117.42</ele>
        <time>2016-11-19T10:16:18Z</time>
      </trkpt>
      <trkpt lat="44.16528" lon="4.68411">
        <ele>115.5</ele>
        <time>2016-11-19T10:16:19Z</time>
      </trkpt>
      <trkpt lat="44.16526" lon="4.68417">
        <ele>114.05</ele>
        <time>2016-11-19T10:16:20Z</time>
      </trkpt>
      <trkpt lat="44.16523" lon="4.68422">
        <ele>112.61</ele>
        <time>2016-11-19T10:16:21Z</time>
      </trkpt>
      <trkpt lat="44.1652" lon="4.68427">
        <ele>111.65</ele>
        <time>2016-11-19T10:16:22Z</time>
      </trkpt>
      <trkpt lat="44.16518" lon="4.6843">
        <ele>109.73</ele>
        <time>2016-11-19T10:16:23Z</time>
      </trkpt>
      <trkpt lat="44.16516" lon="4.68431">
        <ele>109.25</ele>
        <time>2016-11-19T10:16:24Z</time>
      </trkpt>
      <trkpt lat="44.16515" lon="4.6843">
        <ele>109.25</ele>
        <time>2016-11-19T10:16:25Z</time>
      </trkpt>
      <trkpt lat="44.16515" lon="4.68429">
        <ele>109.25</ele>
        <time>2016-11-19T10:16:26Z</time>
      </trkpt>
      <trkpt lat="44.16515" lon="4.68428">
        <ele>109.25</ele>
        <time>2016-11-19T10:16:27Z</time>
      </trkpt>
      <trkpt lat="44.16516" lon="4.68425">
        <ele>109.25</ele>
        <time>2016-11-19T10:16:28Z</time>
      </trkpt>
      <trkpt lat="44.16516" lon="4.68423">
        <ele>109.25</ele>
        <time>2016-11-19T10:16:29Z</time>
      </trkpt>
      <trkpt lat="44.16516" lon="4.68416">
        <ele>109.73</ele>
        <time>2016-11-19T10:16:42Z</time>
      </trkpt>
      <trkpt lat="44.16516" lon="4.68414">
        <ele>109.73</ele>
        <time>2016-11-19T10:16:59Z</time>
      </trkpt>
      <trkpt lat="44.16515" lon="4.68411">
        <ele>109.73</ele>
        <time>2016-11-19T10:17:00Z</time>
      </trkpt>
      <trkpt lat="44.16515" lon="4.68406">
        <ele>109.25</ele>
        <time>2016-11-19T10:17:02Z</time>
      </trkpt>
      <trkpt lat="44.16515" lon="4.68403">
        <ele>109.25</ele>
        <time>2016-11-19T10:17:03Z</time>
      </trkpt>
      <trkpt lat="44.16512" lon="4.68379">
        <ele>112.61</ele>
        <time>2016-11-19T10:17:14Z</time>
      </trkpt>
      <trkpt lat="44.16498" lon="4.68358">
        <ele>115.5</ele>
        <time>2016-11-19T10:17:25Z</time>
      </trkpt>
      <trkpt lat="44.16482" lon="4.68342">
        <ele>116.46</ele>
        <time>2016-11-19T10:17:36Z</time>
      </trkpt>
      <trkpt lat="44.16463" lon="4.68337">
        <ele>118.38</ele>
        <time>2016-11-19T10:17:45Z</time>
      </trkpt>
      <trkpt lat="44.16462" lon="4.68336">
        <ele>118.38</ele>
        <time>2016-11-19T10:17:46Z</time>
      </trkpt>
      <trkpt lat="44.16461" lon="4.68334">
        <ele>118.38</ele>
        <time>2016-11-19T10:17:47Z</time>
      </trkpt>
      <trkpt lat="44.1646" lon="4.68332">
        <ele>118.38</ele>
        <time>2016-11-19T10:17:48Z</time>
      </trkpt>
      <trkpt lat="44.16459" lon="4.68331">
        <ele>118.38</ele>
        <time>2016-11-19T10:17:49Z</time>
      </trkpt>
      <trkpt lat="44.16457" lon="4.68329">
        <ele>118.38</ele>
        <time>2016-11-19T10:17:50Z</time>
      </trkpt>
      <trkpt lat="44.16456" lon="4.68327">
        <ele>118.86</ele>
        <time>2016-11-19T10:17:51Z</time>
      </trkpt>
      <trkpt lat="44.16455" lon="4.68325">
        <ele>118.86</ele>
        <time>2016-11-19T10:17:52Z</time>
      </trkpt>
      <trkpt lat="44.16454" lon="4.68323">
        <ele>118.86</ele>
        <time>2016-11-19T10:17:53Z</time>
      </trkpt>
      <trkpt lat="44.16451" lon="4.68312">
        <ele>119.82</ele>
        <time>2016-11-19T10:17:59Z</time>
      </trkpt>
      <trkpt lat="44.16451" lon="4.6831">
        <ele>119.82</ele>
        <time>2016-11-19T10:18:00Z</time>
      </trkpt>
      <trkpt lat="44.1645" lon="4.68305">
        <ele>120.78</ele>
        <time>2016-11-19T10:18:02Z</time>
      </trkpt>
      <trkpt lat="44.16449" lon="4.68303">
        <ele>120.78</ele>
        <time>2016-11-19T10:18:03Z</time>
      </trkpt>
      <trkpt lat="44.16448" lon="4.68301">
        <ele>120.78</ele>
        <time>2016-11-19T10:18:04Z</time>
      </trkpt>
      <trkpt lat="44.16446" lon="4.68299">
        <ele>120.78</ele>
        <time>2016-11-19T10:18:05Z</time>
      </trkpt>
      <trkpt lat="44.16445" lon="4.68296">
        <ele>120.78</ele>
        <time>2016-11-19T10:18:06Z</time>
      </trkpt>
      <trkpt lat="44.16443" lon="4.68294">
        <ele>120.78</ele>
        <time>2016-11-19T10:18:07Z</time>
      </trkpt>
      <trkpt lat="44.1644" lon="4.68289">
        <ele>121.26</ele>
        <time>2016-11-19T10:18:10Z</time>
      </trkpt>
      <trkpt lat="44.16439" lon="4.68288">
        <ele>121.26</ele>
        <time>2016-11-19T10:18:11Z</time>
      </trkpt>
      <trkpt lat="44.1642" lon="4.68283">
        <ele>122.71</ele>
        <time>2016-11-19T10:18:21Z</time>
      </trkpt>
      <trkpt lat="44.16418" lon="4.68282">
        <ele>122.71</ele>
        <time>2016-11-19T10:18:22Z</time>
      </trkpt>
      <trkpt lat="44.16397" lon="4.68275">
        <ele>125.11</ele>
        <time>2016-11-19T10:18:33Z</time>
      </trkpt>
      <trkpt lat="44.16378" lon="4.68265">
        <ele>127.03</ele>
        <time>2016-11-19T10:18:46Z</time>
      </trkpt>
      <trkpt lat="44.1637" lon="4.68262">
        <ele>127.99</ele>
        <time>2016-11-19T10:18:51Z</time>
      </trkpt>
      <trkpt lat="44.16367" lon="4.68262">
        <ele>127.99</ele>
        <time>2016-11-19T10:18:52Z</time>
      </trkpt>
      <trkpt lat="44.16365" lon="4.68262">
        <ele>127.99</ele>
        <time>2016-11-19T10:18:53Z</time>
      </trkpt>
      <trkpt lat="44.16363" lon="4.68262">
        <ele>128.47</ele>
        <time>2016-11-19T10:18:54Z</time>
      </trkpt>
      <trkpt lat="44.16361" lon="4.68263">
        <ele>128.47</ele>
        <time>2016-11-19T10:18:55Z</time>
      </trkpt>
      <trkpt lat="44.1636" lon="4.68263">
        <ele>128.47</ele>
        <time>2016-11-19T10:18:56Z</time>
      </trkpt>
      <trkpt lat="44.16358" lon="4.68263">
        <ele>129.43</ele>
        <time>2016-11-19T10:18:57Z</time>
      </trkpt>
      <trkpt lat="44.16356" lon="4.68263">
        <ele>129.43</ele>
        <time>2016-11-19T10:18:58Z</time>
      </trkpt>
      <trkpt lat="44.16354" lon="4.68263">
        <ele>129.43</ele>
        <time>2016-11-19T10:18:59Z</time>
      </trkpt>
      <trkpt lat="44.16353" lon="4.68263">
        <ele>129.92</ele>
        <time>2016-11-19T10:19:00Z</time>
      </trkpt>
      <trkpt lat="44.16326" lon="4.68265">
        <ele>131.84</ele>
        <time>2016-11-19T10:19:16Z</time>
      </trkpt>
      <trkpt lat="44.16321" lon="4.68263">
        <ele>132.32</ele>
        <time>2016-11-19T10:19:19Z</time>
      </trkpt>
      <trkpt lat="44.1632" lon="4.68262">
        <ele>132.32</ele>
        <time>2016-11-19T10:19:20Z</time>
      </trkpt>
      <trkpt lat="44.16319" lon="4.68261">
        <ele>132.8</ele>
        <time>2016-11-19T10:19:21Z</time>
      </trkpt>
      <trkpt lat="44.16317" lon="4.68261">
        <ele>132.8</ele>
        <time>2016-11-19T10:19:22Z</time>
      </trkpt>
      <trkpt lat="44.16315" lon="4.6826">
        <ele>133.28</ele>
        <time>2016-11-19T10:19:23Z</time>
      </trkpt>
      <trkpt lat="44.16314" lon="4.6826">
        <ele>133.28</ele>
        <time>2016-11-19T10:19:24Z</time>
      </trkpt>
      <trkpt lat="44.16313" lon="4.6826">
        <ele>133.28</ele>
        <time>2016-11-19T10:19:25Z</time>
      </trkpt>
      <trkpt lat="44.16311" lon="4.6826">
        <ele>133.28</ele>
        <time>2016-11-19T10:19:26Z</time>
      </trkpt>
      <trkpt lat="44.1631" lon="4.6826">
        <ele>133.28</ele>
        <time>2016-11-19T10:19:27Z</time>
      </trkpt>
      <trkpt lat="44.16308" lon="4.6826">
        <ele>133.28</ele>
        <time>2016-11-19T10:19:28Z</time>
      </trkpt>
      <trkpt lat="44.16307" lon="4.6826">
        <ele>133.28</ele>
        <time>2016-11-19T10:19:29Z</time>
      </trkpt>
      <trkpt lat="44.16305" lon="4.68261">
        <ele>133.28</ele>
        <time>2016-11-19T10:19:30Z</time>
      </trkpt>
      <trkpt lat="44.16303" lon="4.68261">
        <ele>133.28</ele>
        <time>2016-11-19T10:19:31Z</time>
      </trkpt>
      <trkpt lat="44.16271" lon="4.6827">
        <ele>133.28</ele>
        <time>2016-11-19T10:19:45Z</time>
      </trkpt>
      <trkpt lat="44.16251" lon="4.6827">
        <ele>130.88</ele>
        <time>2016-11-19T10:19:51Z</time>
      </trkpt>
      <trkpt lat="44.16247" lon="4.68269">
        <ele>130.4</ele>
        <time>2016-11-19T10:19:52Z</time>
      </trkpt>
      <trkpt lat="44.16243" lon="4.68268">
        <ele>130.4</ele>
        <time>2016-11-19T10:19:53Z</time>
      </trkpt>
      <trkpt lat="44.1624" lon="4.68267">
        <ele>130.4</ele>
        <time>2016-11-19T10:19:54Z</time>
      </trkpt>
      <trkpt lat="44.16238" lon="4.68266">
        <ele>130.4</ele>
        <time>2016-11-19T10:19:55Z</time>
      </trkpt>
      <trkpt lat="44.16236" lon="4.68266">
        <ele>130.4</ele>
        <time>2016-11-19T10:19:56Z</time>
      </trkpt>
      <trkpt lat="44.16234" lon="4.68265">
        <ele>130.88</ele>
        <time>2016-11-19T10:19:57Z</time>
      </trkpt>
      <trkpt lat="44.16233" lon="4.68263">
        <ele>130.88</ele>
        <time>2016-11-19T10:19:58Z</time>
      </trkpt>
      <trkpt lat="44.16232" lon="4.68261">
        <ele>130.88</ele>
        <time>2016-11-19T10:19:59Z</time>
      </trkpt>
      <trkpt lat="44.16231" lon="4.68258">
        <ele>130.88</ele>
        <time>2016-11-19T10:20:00Z</time>
      </trkpt>
      <trkpt lat="44.16229" lon="4.68254">
        <ele>131.84</ele>
        <time>2016-11-19T10:20:01Z</time>
      </trkpt>
      <trkpt lat="44.16227" lon="4.68251">
        <ele>131.84</ele>
        <time>2016-11-19T10:20:02Z</time>
      </trkpt>
      <trkpt lat="44.16225" lon="4.68247">
        <ele>132.8</ele>
        <time>2016-11-19T10:20:03Z</time>
      </trkpt>
      <trkpt lat="44.16225" lon="4.68243">
        <ele>132.8</ele>
        <time>2016-11-19T10:20:04Z</time>
      </trkpt>
      <trkpt lat="44.16225" lon="4.6824">
        <ele>133.28</ele>
        <time>2016-11-19T10:20:05Z</time>
      </trkpt>
      <trkpt lat="44.16225" lon="4.68237">
        <ele>133.76</ele>
        <time>2016-11-19T10:20:06Z</time>
      </trkpt>
      <trkpt lat="44.16224" lon="4.68234">
        <ele>134.24</ele>
        <time>2016-11-19T10:20:07Z</time>
      </trkpt>
      <trkpt lat="44.16222" lon="4.68232">
        <ele>134.24</ele>
        <time>2016-11-19T10:20:08Z</time>
      </trkpt>
      <trkpt lat="44.1622" lon="4.68231">
        <ele>134.72</ele>
        <time>2016-11-19T10:20:09Z</time>
      </trkpt>
      <trkpt lat="44.16217" lon="4.6823">
        <ele>134.72</ele>
        <time>2016-11-19T10:20:10Z</time>
      </trkpt>
      <trkpt lat="44.16215" lon="4.68229">
        <ele>135.2</ele>
        <time>2016-11-19T10:20:11Z</time>
      </trkpt>
      <trkpt lat="44.16214" lon="4.68228">
        <ele>135.2</ele>
        <time>2016-11-19T10:20:12Z</time>
      </trkpt>
      <trkpt lat="44.16209" lon="4.68221">
        <ele>136.16</ele>
        <time>2016-11-19T10:20:16Z</time>
      </trkpt>
      <trkpt lat="44.16208" lon="4.68218">
        <ele>136.16</ele>
        <time>2016-11-19T10:20:17Z</time>
      </trkpt>
      <trkpt lat="44.16207" lon="4.68216">
        <ele>136.64</ele>
        <time>2016-11-19T10:20:18Z</time>
      </trkpt>
      <trkpt lat="44.16199" lon="4.68214">
        <ele>137.13</ele>
        <time>2016-11-19T10:20:23Z</time>
      </trkpt>
      <trkpt lat="44.16195" lon="4.68212">
        <ele>137.61</ele>
        <time>2016-11-19T10:20:25Z</time>
      </trkpt>
      <trkpt lat="44.16193" lon="4.68212">
        <ele>138.09</ele>
        <time>2016-11-19T10:20:26Z</time>
      </trkpt>
      <trkpt lat="44.16191" lon="4.68211">
        <ele>138.09</ele>
        <time>2016-11-19T10:20:27Z</time>
      </trkpt>
      <trkpt lat="44.16189" lon="4.68209">
        <ele>138.57</ele>
        <time>2016-11-19T10:20:28Z</time>
      </trkpt>
      <trkpt lat="44.16188" lon="4.68206">
        <ele>138.57</ele>
        <time>2016-11-19T10:20:29Z</time>
      </trkpt>
      <trkpt lat="44.16187" lon="4.68204">
        <ele>139.53</ele>
        <time>2016-11-19T10:20:30Z</time>
      </trkpt>
      <trkpt lat="44.16179" lon="4.68184">
        <ele>141.45</ele>
        <time>2016-11-19T10:20:38Z</time>
      </trkpt>
      <trkpt lat="44.16177" lon="4.68182">
        <ele>141.45</ele>
        <time>2016-11-19T10:20:39Z</time>
      </trkpt>
      <trkpt lat="44.16176" lon="4.68181">
        <ele>141.93</ele>
        <time>2016-11-19T10:20:40Z</time>
      </trkpt>
      <trkpt lat="44.16174" lon="4.68179">
        <ele>142.41</ele>
        <time>2016-11-19T10:20:41Z</time>
      </trkpt>
      <trkpt lat="44.16173" lon="4.68177">
        <ele>142.89</ele>
        <time>2016-11-19T10:20:42Z</time>
      </trkpt>
      <trkpt lat="44.16171" lon="4.68176">
        <ele>142.89</ele>
        <time>2016-11-19T10:20:43Z</time>
      </trkpt>
      <trkpt lat="44.16169" lon="4.68174">
        <ele>142.89</ele>
        <time>2016-11-19T10:20:44Z</time>
      </trkpt>
      <trkpt lat="44.16168" lon="4.68172">
        <ele>143.37</ele>
        <time>2016-11-19T10:20:45Z</time>
      </trkpt>
      <trkpt lat="44.16167" lon="4.6817">
        <ele>143.37</ele>
        <time>2016-11-19T10:20:46Z</time>
      </trkpt>
      <trkpt lat="44.16166" lon="4.68167">
        <ele>143.85</ele>
        <time>2016-11-19T10:20:47Z</time>
      </trkpt>
      <trkpt lat="44.16164" lon="4.68165">
        <ele>143.85</ele>
        <time>2016-11-19T10:20:48Z</time>
      </trkpt>
      <trkpt lat="44.16163" lon="4.68162">
        <ele>144.34</ele>
        <time>2016-11-19T10:20:49Z</time>
      </trkpt>
      <trkpt lat="44.16163" lon="4.6816">
        <ele>144.34</ele>
        <time>2016-11-19T10:20:50Z</time>
      </trkpt>
      <trkpt lat="44.16162" lon="4.68157">
        <ele>144.34</ele>
        <time>2016-11-19T10:20:51Z</time>
      </trkpt>
      <trkpt lat="44.16161" lon="4.68154">
        <ele>144.82</ele>
        <time>2016-11-19T10:20:52Z</time>
      </trkpt>
      <trkpt lat="44.16159" lon="4.68153">
        <ele>145.3</ele>
        <time>2016-11-19T10:20:53Z</time>
      </trkpt>
      <trkpt lat="44.16157" lon="4.68152">
        <ele>145.3</ele>
        <time>2016-11-19T10:20:54Z</time>
      </trkpt>
      <trkpt lat="44.16155" lon="4.68152">
        <ele>145.3</ele>
        <time>2016-11-19T10:20:55Z</time>
      </trkpt>
      <trkpt lat="44.16153" lon="4.68152">
        <ele>145.78</ele>
        <time>2016-11-19T10:20:56Z</time>
      </trkpt>
      <trkpt lat="44.16151" lon="4.68152">
        <ele>145.78</ele>
        <time>2016-11-19T10:20:57Z</time>
      </trkpt>
      <trkpt lat="44.16149" lon="4.68153">
        <ele>145.78</ele>
        <time>2016-11-19T10:20:58Z</time>
      </trkpt>
      <trkpt lat="44.16148" lon="4.68154">
        <ele>146.26</ele>
        <time>2016-11-19T10:20:59Z</time>
      </trkpt>
      <trkpt lat="44.16146" lon="4.68156">
        <ele>146.26</ele>
        <time>2016-11-19T10:21:00Z</time>
      </trkpt>
      <trkpt lat="44.1613" lon="4.68165">
        <ele>145.3</ele>
        <time>2016-11-19T10:21:07Z</time>
      </trkpt>
      <trkpt lat="44.16128" lon="4.68163">
        <ele>145.3</ele>
        <time>2016-11-19T10:21:08Z</time>
      </trkpt>
      <trkpt lat="44.16126" lon="4.6816">
        <ele>144.82</ele>
        <time>2016-11-19T10:21:09Z</time>
      </trkpt>
      <trkpt lat="44.16125" lon="4.68157">
        <ele>144.82</ele>
        <time>2016-11-19T10:21:10Z</time>
      </trkpt>
      <trkpt lat="44.16123" lon="4.68154">
        <ele>144.82</ele>
        <time>2016-11-19T10:21:11Z</time>
      </trkpt>
      <trkpt lat="44.16121" lon="4.6815">
        <ele>144.34</ele>
        <time>2016-11-19T10:21:12Z</time>
      </trkpt>
      <trkpt lat="44.16122" lon="4.68146">
        <ele>143.85</ele>
        <time>2016-11-19T10:21:13Z</time>
      </trkpt>
      <trkpt lat="44.16123" lon="4.6814">
        <ele>143.85</ele>
        <time>2016-11-19T10:21:14Z</time>
      </trkpt>
      <trkpt lat="44.16123" lon="4.68135">
        <ele>143.37</ele>
        <time>2016-11-19T10:21:15Z</time>
      </trkpt>
      <trkpt lat="44.16122" lon="4.6813">
        <ele>142.89</ele>
        <time>2016-11-19T10:21:16Z</time>
      </trkpt>
      <trkpt lat="44.16122" lon="4.68115">
        <ele>141.93</ele>
        <time>2016-11-19T10:21:19Z</time>
      </trkpt>
      <trkpt lat="44.1612" lon="4.68109">
        <ele>140.97</ele>
        <time>2016-11-19T10:21:20Z</time>
      </trkpt>
      <trkpt lat="44.16119" lon="4.68104">
        <ele>140.01</ele>
        <time>2016-11-19T10:21:21Z</time>
      </trkpt>
      <trkpt lat="44.16118" lon="4.68099">
        <ele>139.05</ele>
        <time>2016-11-19T10:21:22Z</time>
      </trkpt>
      <trkpt lat="44.16118" lon="4.68093">
        <ele>138.57</ele>
        <time>2016-11-19T10:21:23Z</time>
      </trkpt>
      <trkpt lat="44.1612" lon="4.68087">
        <ele>138.09</ele>
        <time>2016-11-19T10:21:24Z</time>
      </trkpt>
      <trkpt lat="44.16122" lon="4.68082">
        <ele>138.09</ele>
        <time>2016-11-19T10:21:25Z</time>
      </trkpt>
      <trkpt lat="44.16123" lon="4.68078">
        <ele>138.09</ele>
        <time>2016-11-19T10:21:26Z</time>
      </trkpt>
      <trkpt lat="44.16124" lon="4.68072">
        <ele>137.13</ele>
        <time>2016-11-19T10:21:27Z</time>
      </trkpt>
      <trkpt lat="44.16127" lon="4.68041">
        <ele>133.28</ele>
        <time>2016-11-19T10:21:32Z</time>
      </trkpt>
      <trkpt lat="44.16127" lon="4.68034">
        <ele>132.8</ele>
        <time>2016-11-19T10:21:33Z</time>
      </trkpt>
      <trkpt lat="44.16126" lon="4.68027">
        <ele>131.84</ele>
        <time>2016-11-19T10:21:34Z</time>
      </trkpt>
      <trkpt lat="44.16126" lon="4.68022">
        <ele>131.84</ele>
        <time>2016-11-19T10:21:35Z</time>
      </trkpt>
      <trkpt lat="44.16127" lon="4.68018">
        <ele>131.36</ele>
        <time>2016-11-19T10:21:36Z</time>
      </trkpt>
      <trkpt lat="44.16129" lon="4.68014">
        <ele>131.36</ele>
        <time>2016-11-19T10:21:37Z</time>
      </trkpt>
      <trkpt lat="44.16129" lon="4.68009">
        <ele>131.36</ele>
        <time>2016-11-19T10:21:38Z</time>
      </trkpt>
      <trkpt lat="44.16129" lon="4.68005">
        <ele>131.36</ele>
        <time>2016-11-19T10:21:39Z</time>
      </trkpt>
      <trkpt lat="44.16128" lon="4.68">
        <ele>130.88</ele>
        <time>2016-11-19T10:21:40Z</time>
      </trkpt>
      <trkpt lat="44.16126" lon="4.67995">
        <ele>130.4</ele>
        <time>2016-11-19T10:21:41Z</time>
      </trkpt>
      <trkpt lat="44.16124" lon="4.6799">
        <ele>130.4</ele>
        <time>2016-11-19T10:21:42Z</time>
      </trkpt>
      <trkpt lat="44.16121" lon="4.67985">
        <ele>130.4</ele>
        <time>2016-11-19T10:21:43Z</time>
      </trkpt>
      <trkpt lat="44.16118" lon="4.67981">
        <ele>129.92</ele>
        <time>2016-11-19T10:21:44Z</time>
      </trkpt>
      <trkpt lat="44.16101" lon="4.67938">
        <ele>128.47</ele>
        <time>2016-11-19T10:21:54Z</time>
      </trkpt>
      <trkpt lat="44.16085" lon="4.67903">
        <ele>127.03</ele>
        <time>2016-11-19T10:22:03Z</time>
      </trkpt>
      <trkpt lat="44.16082" lon="4.679">
        <ele>126.55</ele>
        <time>2016-11-19T10:22:05Z</time>
      </trkpt>
      <trkpt lat="44.1608" lon="4.67898">
        <ele>126.55</ele>
        <time>2016-11-19T10:22:06Z</time>
      </trkpt>
      <trkpt lat="44.16078" lon="4.67898">
        <ele>126.55</ele>
        <time>2016-11-19T10:22:07Z</time>
      </trkpt>
      <trkpt lat="44.16077" lon="4.67897">
        <ele>126.07</ele>
        <time>2016-11-19T10:22:08Z</time>
      </trkpt>
      <trkpt lat="44.16075" lon="4.67897">
        <ele>126.07</ele>
        <time>2016-11-19T10:22:09Z</time>
      </trkpt>
      <trkpt lat="44.16074" lon="4.67898">
        <ele>125.59</ele>
        <time>2016-11-19T10:22:10Z</time>
      </trkpt>
      <trkpt lat="44.1607" lon="4.67903">
        <ele>125.59</ele>
        <time>2016-11-19T10:22:14Z</time>
      </trkpt>
      <trkpt lat="44.16068" lon="4.67904">
        <ele>125.59</ele>
        <time>2016-11-19T10:22:15Z</time>
      </trkpt>
      <trkpt lat="44.16066" lon="4.67905">
        <ele>125.11</ele>
        <time>2016-11-19T10:22:16Z</time>
      </trkpt>
      <trkpt lat="44.16065" lon="4.67911">
        <ele>125.59</ele>
        <time>2016-11-19T10:22:26Z</time>
      </trkpt>
      <trkpt lat="44.16063" lon="4.67909">
        <ele>125.59</ele>
        <time>2016-11-19T10:22:58Z</time>
      </trkpt>
      <trkpt lat="44.16061" lon="4.67914">
        <ele>125.59</ele>
        <time>2016-11-19T10:23:04Z</time>
      </trkpt>
      <trkpt lat="44.16061" lon="4.67916">
        <ele>125.59</ele>
        <time>2016-11-19T10:23:05Z</time>
      </trkpt>
      <trkpt lat="44.16059" lon="4.6792">
        <ele>127.03</ele>
        <time>2016-11-19T10:23:08Z</time>
      </trkpt>
      <trkpt lat="44.16059" lon="4.67924">
        <ele>127.03</ele>
        <time>2016-11-19T10:23:12Z</time>
      </trkpt>
      <trkpt lat="44.16059" lon="4.67925">
        <ele>127.03</ele>
        <time>2016-11-19T10:23:13Z</time>
      </trkpt>
      <trkpt lat="44.16069" lon="4.67949">
        <ele>127.03</ele>
        <time>2016-11-19T10:23:25Z</time>
      </trkpt>
      <trkpt lat="44.16074" lon="4.67963">
        <ele>127.51</ele>
        <time>2016-11-19T10:23:32Z</time>
      </trkpt>
      <trkpt lat="44.16073" lon="4.67965">
        <ele>127.51</ele>
        <time>2016-11-19T10:23:33Z</time>
      </trkpt>
      <trkpt lat="44.16074" lon="4.67969">
        <ele>127.51</ele>
        <time>2016-11-19T10:23:37Z</time>
      </trkpt>
      <trkpt lat="44.16073" lon="4.67971">
        <ele>127.51</ele>
        <time>2016-11-19T10:23:38Z</time>
      </trkpt>
      <trkpt lat="44.16072" lon="4.67973">
        <ele>127.51</ele>
        <time>2016-11-19T10:23:39Z</time>
      </trkpt>
      <trkpt lat="44.16071" lon="4.67976">
        <ele>127.99</ele>
        <time>2016-11-19T10:23:40Z</time>
      </trkpt>
      <trkpt lat="44.1607" lon="4.67977">
        <ele>127.99</ele>
        <time>2016-11-19T10:23:41Z</time>
      </trkpt>
      <trkpt lat="44.16069" lon="4.67979">
        <ele>127.99</ele>
        <time>2016-11-19T10:23:42Z</time>
      </trkpt>
      <trkpt lat="44.16068" lon="4.67981">
        <ele>128.47</ele>
        <time>2016-11-19T10:23:43Z</time>
      </trkpt>
      <trkpt lat="44.16066" lon="4.67983">
        <ele>128.47</ele>
        <time>2016-11-19T10:23:44Z</time>
      </trkpt>
      <trkpt lat="44.16042" lon="4.67993">
        <ele>130.4</ele>
        <time>2016-11-19T10:23:55Z</time>
      </trkpt>
      <trkpt lat="44.16008" lon="4.68006">
        <ele>131.84</ele>
        <time>2016-11-19T10:24:08Z</time>
      </trkpt>
      <trkpt lat="44.15986" lon="4.68012">
        <ele>135.2</ele>
        <time>2016-11-19T10:24:18Z</time>
      </trkpt>
      <trkpt lat="44.15953" lon="4.68006">
        <ele>137.13</ele>
        <time>2016-11-19T10:24:33Z</time>
      </trkpt>
      <trkpt lat="44.15922" lon="4.67998">
        <ele>139.53</ele>
        <time>2016-11-19T10:24:46Z</time>
      </trkpt>
      <trkpt lat="44.15883" lon="4.67996">
        <ele>141.93</ele>
        <time>2016-11-19T10:25:02Z</time>
      </trkpt>
      <trkpt lat="44.15847" lon="4.68012">
        <ele>143.85</ele>
        <time>2016-11-19T10:25:17Z</time>
      </trkpt>
      <trkpt lat="44.15823" lon="4.6803">
        <ele>143.37</ele>
        <time>2016-11-19T10:25:28Z</time>
      </trkpt>
      <trkpt lat="44.15833" lon="4.68068">
        <ele>143.37</ele>
        <time>2016-11-19T10:25:38Z</time>
      </trkpt>
      <trkpt lat="44.1586" lon="4.68091">
        <ele>142.41</ele>
        <time>2016-11-19T10:25:47Z</time>
      </trkpt>
      <trkpt lat="44.15898" lon="4.68133">
        <ele>141.45</ele>
        <time>2016-11-19T10:26:01Z</time>
      </trkpt>
      <trkpt lat="44.15897" lon="4.68176">
        <ele>141.45</ele>
        <time>2016-11-19T10:26:10Z</time>
      </trkpt>
      <trkpt lat="44.15886" lon="4.68224">
        <ele>142.41</ele>
        <time>2016-11-19T10:26:21Z</time>
      </trkpt>
      <trkpt lat="44.15874" lon="4.68259">
        <ele>142.89</ele>
        <time>2016-11-19T10:26:31Z</time>
      </trkpt>
      <trkpt lat="44.15873" lon="4.68263">
        <ele>142.89</ele>
        <time>2016-11-19T10:26:32Z</time>
      </trkpt>
      <trkpt lat="44.15872" lon="4.68268">
        <ele>142.89</ele>
        <time>2016-11-19T10:26:33Z</time>
      </trkpt>
      <trkpt lat="44.15871" lon="4.68273">
        <ele>142.89</ele>
        <time>2016-11-19T10:26:34Z</time>
      </trkpt>
      <trkpt lat="44.1587" lon="4.68278">
        <ele>142.89</ele>
        <time>2016-11-19T10:26:35Z</time>
      </trkpt>
      <trkpt lat="44.15862" lon="4.68336">
        <ele>144.34</ele>
        <time>2016-11-19T10:26:48Z</time>
      </trkpt>
      <trkpt lat="44.1587" lon="4.68397">
        <ele>144.82</ele>
        <time>2016-11-19T10:27:00Z</time>
      </trkpt>
      <trkpt lat="44.15876" lon="4.68476">
        <ele>144.82</ele>
        <time>2016-11-19T10:27:16Z</time>
      </trkpt>
      <trkpt lat="44.15861" lon="4.68528">
        <ele>147.7</ele>
        <time>2016-11-19T10:27:30Z</time>
      </trkpt>
      <trkpt lat="44.15847" lon="4.68581">
        <ele>150.1</ele>
        <time>2016-11-19T10:27:44Z</time>
      </trkpt>
      <trkpt lat="44.1585" lon="4.68639">
        <ele>152.03</ele>
        <time>2016-11-19T10:27:59Z</time>
      </trkpt>
      <trkpt lat="44.15856" lon="4.68691">
        <ele>152.99</ele>
        <time>2016-11-19T10:28:11Z</time>
      </trkpt>
      <trkpt lat="44.15858" lon="4.68702">
        <ele>151.54</ele>
        <time>2016-11-19T10:28:13Z</time>
      </trkpt>
      <trkpt lat="44.15878" lon="4.68756">
        <ele>151.54</ele>
        <time>2016-11-19T10:28:26Z</time>
      </trkpt>
      <trkpt lat="44.15895" lon="4.68786">
        <ele>151.54</ele>
        <time>2016-11-19T10:28:35Z</time>
      </trkpt>
      <trkpt lat="44.15896" lon="4.68789">
        <ele>151.54</ele>
        <time>2016-11-19T10:28:36Z</time>
      </trkpt>
      <trkpt lat="44.15896" lon="4.68792">
        <ele>151.54</ele>
        <time>2016-11-19T10:28:37Z</time>
      </trkpt>
      <trkpt lat="44.15897" lon="4.68795">
        <ele>151.54</ele>
        <time>2016-11-19T10:28:38Z</time>
      </trkpt>
      <trkpt lat="44.15897" lon="4.68799">
        <ele>151.54</ele>
        <time>2016-11-19T10:28:39Z</time>
      </trkpt>
      <trkpt lat="44.15897" lon="4.68802">
        <ele>151.54</ele>
        <time>2016-11-19T10:28:40Z</time>
      </trkpt>
      <trkpt lat="44.15898" lon="4.68806">
        <ele>151.54</ele>
        <time>2016-11-19T10:28:41Z</time>
      </trkpt>
      <trkpt lat="44.1589" lon="4.68851">
        <ele>153.47</ele>
        <time>2016-11-19T10:28:53Z</time>
      </trkpt>
      <trkpt lat="44.15894" lon="4.68904">
        <ele>156.83</ele>
        <time>2016-11-19T10:29:07Z</time>
      </trkpt>
      <trkpt lat="44.15904" lon="4.68938">
        <ele>159.72</ele>
        <time>2016-11-19T10:29:18Z</time>
      </trkpt>
      <trkpt lat="44.15895" lon="4.68971">
        <ele>161.64</ele>
        <time>2016-11-19T10:29:29Z</time>
      </trkpt>
      <trkpt lat="44.1589" lon="4.69017">
        <ele>162.12</ele>
        <time>2016-11-19T10:29:43Z</time>
      </trkpt>
      <trkpt lat="44.15889" lon="4.69024">
        <ele>162.12</ele>
        <time>2016-11-19T10:29:46Z</time>
      </trkpt>
      <trkpt lat="44.15888" lon="4.69025">
        <ele>162.12</ele>
        <time>2016-11-19T10:29:47Z</time>
      </trkpt>
      <trkpt lat="44.15886" lon="4.69025">
        <ele>162.6</ele>
        <time>2016-11-19T10:29:48Z</time>
      </trkpt>
      <trkpt lat="44.15859" lon="4.69012">
        <ele>164.04</ele>
        <time>2016-11-19T10:30:02Z</time>
      </trkpt>
      <trkpt lat="44.15829" lon="4.69005">
        <ele>165</ele>
        <time>2016-11-19T10:30:14Z</time>
      </trkpt>
      <trkpt lat="44.15793" lon="4.68991">
        <ele>165.48</ele>
        <time>2016-11-19T10:30:27Z</time>
      </trkpt>
      <trkpt lat="44.15758" lon="4.68982">
        <ele>164.52</ele>
        <time>2016-11-19T10:30:38Z</time>
      </trkpt>
      <trkpt lat="44.15718" lon="4.68968">
        <ele>164.04</ele>
        <time>2016-11-19T10:30:50Z</time>
      </trkpt>
      <trkpt lat="44.15687" lon="4.6896">
        <ele>166.93</ele>
        <time>2016-11-19T10:31:03Z</time>
      </trkpt>
      <trkpt lat="44.15686" lon="4.6896">
        <ele>166.93</ele>
        <time>2016-11-19T10:31:04Z</time>
      </trkpt>
      <trkpt lat="44.15684" lon="4.68959">
        <ele>166.93</ele>
        <time>2016-11-19T10:31:05Z</time>
      </trkpt>
      <trkpt lat="44.15663" lon="4.6895">
        <ele>167.89</ele>
        <time>2016-11-19T10:31:16Z</time>
      </trkpt>
      <trkpt lat="44.15661" lon="4.68952">
        <ele>168.37</ele>
        <time>2016-11-19T10:31:17Z</time>
      </trkpt>
      <trkpt lat="44.15664" lon="4.68961">
        <ele>168.37</ele>
        <time>2016-11-19T10:31:22Z</time>
      </trkpt>
      <trkpt lat="44.15666" lon="4.68963">
        <ele>168.37</ele>
        <time>2016-11-19T10:31:23Z</time>
      </trkpt>
      <trkpt lat="44.15668" lon="4.68964">
        <ele>168.37</ele>
        <time>2016-11-19T10:31:24Z</time>
      </trkpt>
      <trkpt lat="44.15669" lon="4.68966">
        <ele>168.37</ele>
        <time>2016-11-19T10:31:25Z</time>
      </trkpt>
      <trkpt lat="44.15664" lon="4.68981">
        <ele>168.37</ele>
        <time>2016-11-19T10:31:33Z</time>
      </trkpt>
      <trkpt lat="44.15664" lon="4.68991">
        <ele>168.85</ele>
        <time>2016-11-19T10:31:38Z</time>
      </trkpt>
      <trkpt lat="44.15665" lon="4.69011">
        <ele>168.85</ele>
        <time>2016-11-19T10:31:49Z</time>
      </trkpt>
      <trkpt lat="44.1567" lon="4.69025">
        <ele>168.85</ele>
        <time>2016-11-19T10:31:58Z</time>
      </trkpt>
      <trkpt lat="44.15667" lon="4.69053">
        <ele>168.85</ele>
        <time>2016-11-19T10:32:12Z</time>
      </trkpt>
      <trkpt lat="44.15663" lon="4.69066">
        <ele>168.85</ele>
        <time>2016-11-19T10:32:24Z</time>
      </trkpt>
      <trkpt lat="44.15665" lon="4.69067">
        <ele>169.33</ele>
        <time>2016-11-19T10:32:48Z</time>
      </trkpt>
      <trkpt lat="44.15663" lon="4.69067">
        <ele>169.33</ele>
        <time>2016-11-19T10:33:15Z</time>
      </trkpt>
      <trkpt lat="44.15662" lon="4.69082">
        <ele>169.81</ele>
        <time>2016-11-19T10:33:24Z</time>
      </trkpt>
      <trkpt lat="44.15663" lon="4.69102">
        <ele>169.81</ele>
        <time>2016-11-19T10:33:34Z</time>
      </trkpt>
      <trkpt lat="44.15668" lon="4.69109">
        <ele>169.81</ele>
        <time>2016-11-19T10:33:47Z</time>
      </trkpt>
      <trkpt lat="44.15666" lon="4.6911">
        <ele>169.33</ele>
        <time>2016-11-19T10:34:12Z</time>
      </trkpt>
      <trkpt lat="44.15665" lon="4.69108">
        <ele>169.33</ele>
        <time>2016-11-19T10:34:37Z</time>
      </trkpt>
      <trkpt lat="44.15666" lon="4.69108">
        <ele>169.33</ele>
        <time>2016-11-19T10:35:05Z</time>
      </trkpt>
      <trkpt lat="44.15664" lon="4.69108">
        <ele>169.33</ele>
        <time>2016-11-19T10:35:30Z</time>
      </trkpt>
      <trkpt lat="44.15663" lon="4.69109">
        <ele>169.33</ele>
        <time>2016-11-19T10:35:49Z</time>
      </trkpt>
      <trkpt lat="44.15664" lon="4.69131">
        <ele>169.33</ele>
        <time>2016-11-19T10:35:57Z</time>
      </trkpt>
      <trkpt lat="44.15661" lon="4.69146">
        <ele>169.33</ele>
        <time>2016-11-19T10:36:02Z</time>
      </trkpt>
      <trkpt lat="44.15657" lon="4.6916">
        <ele>170.77</ele>
        <time>2016-11-19T10:36:07Z</time>
      </trkpt>
      <trkpt lat="44.15661" lon="4.69185">
        <ele>170.77</ele>
        <time>2016-11-19T10:36:18Z</time>
      </trkpt>
      <trkpt lat="44.15659" lon="4.69191">
        <ele>170.77</ele>
        <time>2016-11-19T10:36:21Z</time>
      </trkpt>
      <trkpt lat="44.15659" lon="4.69204">
        <ele>171.25</ele>
        <time>2016-11-19T10:36:26Z</time>
      </trkpt>
      <trkpt lat="44.15662" lon="4.69223">
        <ele>170.29</ele>
        <time>2016-11-19T10:36:31Z</time>
      </trkpt>
      <trkpt lat="44.15668" lon="4.6923">
        <ele>169.81</ele>
        <time>2016-11-19T10:36:40Z</time>
      </trkpt>
      <trkpt lat="44.15669" lon="4.6923">
        <ele>169.81</ele>
        <time>2016-11-19T10:36:42Z</time>
      </trkpt>
      <trkpt lat="44.1569" lon="4.69246">
        <ele>167.89</ele>
        <time>2016-11-19T10:36:52Z</time>
      </trkpt>
      <trkpt lat="44.15699" lon="4.69252">
        <ele>166.45</ele>
        <time>2016-11-19T10:36:56Z</time>
      </trkpt>
      <trkpt lat="44.15729" lon="4.69256">
        <ele>162.6</ele>
        <time>2016-11-19T10:37:06Z</time>
      </trkpt>
      <trkpt lat="44.15732" lon="4.69257">
        <ele>162.6</ele>
        <time>2016-11-19T10:37:07Z</time>
      </trkpt>
      <trkpt lat="44.1574" lon="4.69258">
        <ele>161.16</ele>
        <time>2016-11-19T10:37:09Z</time>
      </trkpt>
      <trkpt lat="44.15749" lon="4.69257">
        <ele>160.2</ele>
        <time>2016-11-19T10:37:11Z</time>
      </trkpt>
      <trkpt lat="44.15759" lon="4.69252">
        <ele>158.75</ele>
        <time>2016-11-19T10:37:14Z</time>
      </trkpt>
      <trkpt lat="44.15761" lon="4.6925">
        <ele>158.75</ele>
        <time>2016-11-19T10:37:15Z</time>
      </trkpt>
      <trkpt lat="44.15768" lon="4.69255">
        <ele>157.31</ele>
        <time>2016-11-19T10:37:19Z</time>
      </trkpt>
      <trkpt lat="44.15783" lon="4.69266">
        <ele>153.95</ele>
        <time>2016-11-19T10:37:24Z</time>
      </trkpt>
      <trkpt lat="44.158" lon="4.6926">
        <ele>152.99</ele>
        <time>2016-11-19T10:37:32Z</time>
      </trkpt>
      <trkpt lat="44.15805" lon="4.69266">
        <ele>151.06</ele>
        <time>2016-11-19T10:37:34Z</time>
      </trkpt>
      <trkpt lat="44.15811" lon="4.69275">
        <ele>149.62</ele>
        <time>2016-11-19T10:37:36Z</time>
      </trkpt>
      <trkpt lat="44.15814" lon="4.69278">
        <ele>149.62</ele>
        <time>2016-11-19T10:37:37Z</time>
      </trkpt>
      <trkpt lat="44.15817" lon="4.69279">
        <ele>149.62</ele>
        <time>2016-11-19T10:37:38Z</time>
      </trkpt>
      <trkpt lat="44.15819" lon="4.69279">
        <ele>149.62</ele>
        <time>2016-11-19T10:37:39Z</time>
      </trkpt>
      <trkpt lat="44.15821" lon="4.69278">
        <ele>149.62</ele>
        <time>2016-11-19T10:37:40Z</time>
      </trkpt>
      <trkpt lat="44.15823" lon="4.69278">
        <ele>149.62</ele>
        <time>2016-11-19T10:37:41Z</time>
      </trkpt>
      <trkpt lat="44.15832" lon="4.6927">
        <ele>151.54</ele>
        <time>2016-11-19T10:37:47Z</time>
      </trkpt>
      <trkpt lat="44.15837" lon="4.69266">
        <ele>152.51</ele>
        <time>2016-11-19T10:37:50Z</time>
      </trkpt>
      <trkpt lat="44.15854" lon="4.69245">
        <ele>155.39</ele>
        <time>2016-11-19T10:38:01Z</time>
      </trkpt>
      <trkpt lat="44.15857" lon="4.69242">
        <ele>155.39</ele>
        <time>2016-11-19T10:38:03Z</time>
      </trkpt>
      <trkpt lat="44.15858" lon="4.6924">
        <ele>155.39</ele>
        <time>2016-11-19T10:38:04Z</time>
      </trkpt>
      <trkpt lat="44.15883" lon="4.69226">
        <ele>158.27</ele>
        <time>2016-11-19T10:38:17Z</time>
      </trkpt>
      <trkpt lat="44.15904" lon="4.69218">
        <ele>160.2</ele>
        <time>2016-11-19T10:38:28Z</time>
      </trkpt>
      <trkpt lat="44.15905" lon="4.69219">
        <ele>160.2</ele>
        <time>2016-11-19T10:38:29Z</time>
      </trkpt>
      <trkpt lat="44.15908" lon="4.69222">
        <ele>160.2</ele>
        <time>2016-11-19T10:38:41Z</time>
      </trkpt>
      <trkpt lat="44.1591" lon="4.69229">
        <ele>160.2</ele>
        <time>2016-11-19T10:38:50Z</time>
      </trkpt>
      <trkpt lat="44.15911" lon="4.6923">
        <ele>160.68</ele>
        <time>2016-11-19T10:38:51Z</time>
      </trkpt>
      <trkpt lat="44.15913" lon="4.69231">
        <ele>160.68</ele>
        <time>2016-11-19T10:38:52Z</time>
      </trkpt>
      <trkpt lat="44.15915" lon="4.69231">
        <ele>160.68</ele>
        <time>2016-11-19T10:38:53Z</time>
      </trkpt>
      <trkpt lat="44.15916" lon="4.69232">
        <ele>161.16</ele>
        <time>2016-11-19T10:38:54Z</time>
      </trkpt>
      <trkpt lat="44.1593" lon="4.69242">
        <ele>163.08</ele>
        <time>2016-11-19T10:39:03Z</time>
      </trkpt>
      <trkpt lat="44.15954" lon="4.69252">
        <ele>163.56</ele>
        <time>2016-11-19T10:39:15Z</time>
      </trkpt>
      <trkpt lat="44.15964" lon="4.69254">
        <ele>162.12</ele>
        <time>2016-11-19T10:39:18Z</time>
      </trkpt>
      <trkpt lat="44.1598" lon="4.69264">
        <ele>159.24</ele>
        <time>2016-11-19T10:39:22Z</time>
      </trkpt>
      <trkpt lat="44.15995" lon="4.69272">
        <ele>156.83</ele>
        <time>2016-11-19T10:39:26Z</time>
      </trkpt>
      <trkpt lat="44.1601" lon="4.69276">
        <ele>153.47</ele>
        <time>2016-11-19T10:39:31Z</time>
      </trkpt>
      <trkpt lat="44.16013" lon="4.69277">
        <ele>152.51</ele>
        <time>2016-11-19T10:39:32Z</time>
      </trkpt>
      <trkpt lat="44.1604" lon="4.69283">
        <ele>150.1</ele>
        <time>2016-11-19T10:39:40Z</time>
      </trkpt>
      <trkpt lat="44.16061" lon="4.69295">
        <ele>149.62</ele>
        <time>2016-11-19T10:39:46Z</time>
      </trkpt>
      <trkpt lat="44.1608" lon="4.69303">
        <ele>145.3</ele>
        <time>2016-11-19T10:39:51Z</time>
      </trkpt>
      <trkpt lat="44.16083" lon="4.69304">
        <ele>144.82</ele>
        <time>2016-11-19T10:39:52Z</time>
      </trkpt>
      <trkpt lat="44.161" lon="4.69308">
        <ele>138.57</ele>
        <time>2016-11-19T10:39:57Z</time>
      </trkpt>
      <trkpt lat="44.16105" lon="4.69309">
        <ele>135.2</ele>
        <time>2016-11-19T10:40:01Z</time>
      </trkpt>
      <trkpt lat="44.16115" lon="4.69314">
        <ele>129.92</ele>
        <time>2016-11-19T10:40:05Z</time>
      </trkpt>
      <trkpt lat="44.16128" lon="4.69309">
        <ele>127.03</ele>
        <time>2016-11-19T10:40:12Z</time>
      </trkpt>
      <trkpt lat="44.16131" lon="4.69309">
        <ele>126.07</ele>
        <time>2016-11-19T10:40:13Z</time>
      </trkpt>
      <trkpt lat="44.16141" lon="4.69319">
        <ele>121.74</ele>
        <time>2016-11-19T10:40:18Z</time>
      </trkpt>
      <trkpt lat="44.1614" lon="4.69322">
        <ele>121.26</ele>
        <time>2016-11-19T10:40:20Z</time>
      </trkpt>
      <trkpt lat="44.16145" lon="4.69326">
        <ele>118.86</ele>
        <time>2016-11-19T10:40:23Z</time>
      </trkpt>
      <trkpt lat="44.16166" lon="4.69334">
        <ele>119.34</ele>
        <time>2016-11-19T10:40:31Z</time>
      </trkpt>
      <trkpt lat="44.1619" lon="4.69341">
        <ele>120.3</ele>
        <time>2016-11-19T10:40:38Z</time>
      </trkpt>
      <trkpt lat="44.162" lon="4.69343">
        <ele>124.15</ele>
        <time>2016-11-19T10:40:44Z</time>
      </trkpt>
      <trkpt lat="44.16202" lon="4.69344">
        <ele>124.63</ele>
        <time>2016-11-19T10:40:46Z</time>
      </trkpt>
      <trkpt lat="44.16212" lon="4.69354">
        <ele>126.07</ele>
        <time>2016-11-19T10:40:57Z</time>
      </trkpt>
      <trkpt lat="44.16215" lon="4.69353">
        <ele>126.07</ele>
        <time>2016-11-19T10:41:24Z</time>
      </trkpt>
      <trkpt lat="44.16214" lon="4.69353">
        <ele>126.07</ele>
        <time>2016-11-19T10:41:57Z</time>
      </trkpt>
      <trkpt lat="44.16213" lon="4.69354">
        <ele>126.07</ele>
        <time>2016-11-19T10:42:06Z</time>
      </trkpt>
      <trkpt lat="44.16219" lon="4.69354">
        <ele>124.63</ele>
        <time>2016-11-19T10:42:11Z</time>
      </trkpt>
      <trkpt lat="44.16221" lon="4.69356">
        <ele>123.67</ele>
        <time>2016-11-19T10:42:12Z</time>
      </trkpt>
      <trkpt lat="44.16236" lon="4.69364">
        <ele>119.82</ele>
        <time>2016-11-19T10:42:17Z</time>
      </trkpt>
      <trkpt lat="44.16248" lon="4.69368">
        <ele>116.46</ele>
        <time>2016-11-19T10:42:20Z</time>
      </trkpt>
      <trkpt lat="44.16253" lon="4.6937">
        <ele>115.5</ele>
        <time>2016-11-19T10:42:21Z</time>
      </trkpt>
      <trkpt lat="44.16273" lon="4.69374">
        <ele>110.69</ele>
        <time>2016-11-19T10:42:25Z</time>
      </trkpt>
      <trkpt lat="44.16288" lon="4.69378">
        <ele>107.32</ele>
        <time>2016-11-19T10:42:30Z</time>
      </trkpt>
      <trkpt lat="44.16298" lon="4.69381">
        <ele>103.96</ele>
        <time>2016-11-19T10:42:34Z</time>
      </trkpt>
      <trkpt lat="44.16306" lon="4.69382">
        <ele>102.04</ele>
        <time>2016-11-19T10:42:37Z</time>
      </trkpt>
      <trkpt lat="44.16329" lon="4.69389">
        <ele>96.27</ele>
        <time>2016-11-19T10:42:43Z</time>
      </trkpt>
      <trkpt lat="44.16331" lon="4.6939">
        <ele>96.27</ele>
        <time>2016-11-19T10:42:44Z</time>
      </trkpt>
      <trkpt lat="44.16337" lon="4.69394">
        <ele>94.35</ele>
        <time>2016-11-19T10:42:47Z</time>
      </trkpt>
      <trkpt lat="44.16348" lon="4.69396">
        <ele>92.42</ele>
        <time>2016-11-19T10:42:51Z</time>
      </trkpt>
      <trkpt lat="44.16362" lon="4.69397">
        <ele>90.98</ele>
        <time>2016-11-19T10:42:57Z</time>
      </trkpt>
      <trkpt lat="44.16377" lon="4.69409">
        <ele>89.06</ele>
        <time>2016-11-19T10:43:04Z</time>
      </trkpt>
      <trkpt lat="44.16397" lon="4.6941">
        <ele>86.66</ele>
        <time>2016-11-19T10:43:09Z</time>
      </trkpt>
      <trkpt lat="44.16402" lon="4.69408">
        <ele>86.18</ele>
        <time>2016-11-19T10:43:10Z</time>
      </trkpt>
      <trkpt lat="44.16406" lon="4.69405">
        <ele>86.18</ele>
        <time>2016-11-19T10:43:11Z</time>
      </trkpt>
      <trkpt lat="44.16436" lon="4.69394">
        <ele>84.25</ele>
        <time>2016-11-19T10:43:19Z</time>
      </trkpt>
      <trkpt lat="44.1648" lon="4.69386">
        <ele>81.85</ele>
        <time>2016-11-19T10:43:30Z</time>
      </trkpt>
      <trkpt lat="44.16514" lon="4.69382">
        <ele>79.45</ele>
        <time>2016-11-19T10:43:39Z</time>
      </trkpt>
      <trkpt lat="44.16531" lon="4.69397">
        <ele>78.48</ele>
        <time>2016-11-19T10:43:44Z</time>
      </trkpt>
      <trkpt lat="44.16543" lon="4.6941">
        <ele>77.52</ele>
        <time>2016-11-19T10:43:47Z</time>
      </trkpt>
      <trkpt lat="44.16556" lon="4.69431">
        <ele>76.56</ele>
        <time>2016-11-19T10:43:51Z</time>
      </trkpt>
      <trkpt lat="44.16588" lon="4.69452">
        <ele>74.16</ele>
        <time>2016-11-19T10:44:02Z</time>
      </trkpt>
      <trkpt lat="44.16596" lon="4.69449">
        <ele>73.68</ele>
        <time>2016-11-19T10:44:22Z</time>
      </trkpt>
      <trkpt lat="44.16628" lon="4.69455">
        <ele>71.76</ele>
        <time>2016-11-19T10:44:34Z</time>
      </trkpt>
      <trkpt lat="44.16634" lon="4.69455">
        <ele>70.79</ele>
        <time>2016-11-19T10:44:38Z</time>
      </trkpt>
      <trkpt lat="44.16641" lon="4.69447">
        <ele>72.72</ele>
        <time>2016-11-19T10:44:43Z</time>
      </trkpt>
      <trkpt lat="44.16641" lon="4.69444">
        <ele>74.16</ele>
        <time>2016-11-19T10:44:50Z</time>
      </trkpt>
      <trkpt lat="44.16634" lon="4.69453">
        <ele>71.27</ele>
        <time>2016-11-19T10:44:58Z</time>
      </trkpt>
      <trkpt lat="44.16634" lon="4.69455">
        <ele>71.27</ele>
        <time>2016-11-19T10:44:59Z</time>
      </trkpt>
      <trkpt lat="44.16633" lon="4.6946">
        <ele>71.27</ele>
        <time>2016-11-19T10:45:02Z</time>
      </trkpt>
      <trkpt lat="44.16633" lon="4.69463">
        <ele>70.79</ele>
        <time>2016-11-19T10:45:03Z</time>
      </trkpt>
      <trkpt lat="44.16633" lon="4.69465">
        <ele>70.79</ele>
        <time>2016-11-19T10:45:04Z</time>
      </trkpt>
      <trkpt lat="44.16633" lon="4.69467">
        <ele>70.79</ele>
        <time>2016-11-19T10:45:05Z</time>
      </trkpt>
      <trkpt lat="44.16633" lon="4.6947">
        <ele>70.79</ele>
        <time>2016-11-19T10:45:06Z</time>
      </trkpt>
      <trkpt lat="44.16633" lon="4.69472">
        <ele>70.79</ele>
        <time>2016-11-19T10:45:07Z</time>
      </trkpt>
      <trkpt lat="44.16632" lon="4.69475">
        <ele>70.31</ele>
        <time>2016-11-19T10:45:08Z</time>
      </trkpt>
      <trkpt lat="44.16631" lon="4.69477">
        <ele>70.79</ele>
        <time>2016-11-19T10:45:09Z</time>
      </trkpt>
      <trkpt lat="44.16629" lon="4.69486">
        <ele>70.31</ele>
        <time>2016-11-19T10:45:13Z</time>
      </trkpt>
      <trkpt lat="44.16629" lon="4.69488">
        <ele>70.31</ele>
        <time>2016-11-19T10:45:14Z</time>
      </trkpt>
      <trkpt lat="44.1663" lon="4.6949">
        <ele>70.31</ele>
        <time>2016-11-19T10:45:15Z</time>
      </trkpt>
      <trkpt lat="44.16631" lon="4.69492">
        <ele>70.31</ele>
        <time>2016-11-19T10:45:16Z</time>
      </trkpt>
      <trkpt lat="44.16632" lon="4.69494">
        <ele>70.31</ele>
        <time>2016-11-19T10:45:17Z</time>
      </trkpt>
      <trkpt lat="44.16632" lon="4.69496">
        <ele>70.31</ele>
        <time>2016-11-19T10:45:18Z</time>
      </trkpt>
      <trkpt lat="44.16632" lon="4.69498">
        <ele>70.31</ele>
        <time>2016-11-19T10:45:19Z</time>
      </trkpt>
      <trkpt lat="44.16631" lon="4.69501">
        <ele>69.83</ele>
        <time>2016-11-19T10:45:20Z</time>
      </trkpt>
      <trkpt lat="44.16631" lon="4.69503">
        <ele>69.83</ele>
        <time>2016-11-19T10:45:21Z</time>
      </trkpt>
      <trkpt lat="44.1663" lon="4.69505">
        <ele>69.83</ele>
        <time>2016-11-19T10:45:22Z</time>
      </trkpt>
      <trkpt lat="44.1663" lon="4.69507">
        <ele>69.83</ele>
        <time>2016-11-19T10:45:23Z</time>
      </trkpt>
      <trkpt lat="44.16623" lon="4.6955">
        <ele>69.83</ele>
        <time>2016-11-19T10:45:36Z</time>
      </trkpt>
      <trkpt lat="44.1662" lon="4.69559">
        <ele>69.35</ele>
        <time>2016-11-19T10:45:39Z</time>
      </trkpt>
      <trkpt lat="44.1662" lon="4.69561">
        <ele>69.35</ele>
        <time>2016-11-19T10:45:40Z</time>
      </trkpt>
      <trkpt lat="44.1662" lon="4.69564">
        <ele>69.35</ele>
        <time>2016-11-19T10:45:41Z</time>
      </trkpt>
      <trkpt lat="44.1662" lon="4.69566">
        <ele>69.35</ele>
        <time>2016-11-19T10:45:42Z</time>
      </trkpt>
      <trkpt lat="44.1662" lon="4.6957">
        <ele>69.35</ele>
        <time>2016-11-19T10:45:43Z</time>
      </trkpt>
      <trkpt lat="44.1662" lon="4.69574">
        <ele>69.35</ele>
        <time>2016-11-19T10:45:44Z</time>
      </trkpt>
      <trkpt lat="44.1662" lon="4.69578">
        <ele>68.87</ele>
        <time>2016-11-19T10:45:45Z</time>
      </trkpt>
      <trkpt lat="44.16621" lon="4.69582">
        <ele>68.87</ele>
        <time>2016-11-19T10:45:46Z</time>
      </trkpt>
      <trkpt lat="44.16621" lon="4.69586">
        <ele>68.87</ele>
        <time>2016-11-19T10:45:47Z</time>
      </trkpt>
      <trkpt lat="44.16621" lon="4.6959">
        <ele>68.87</ele>
        <time>2016-11-19T10:45:48Z</time>
      </trkpt>
      <trkpt lat="44.16621" lon="4.69593">
        <ele>68.87</ele>
        <time>2016-11-19T10:45:49Z</time>
      </trkpt>
      <trkpt lat="44.16622" lon="4.69597">
        <ele>68.87</ele>
        <time>2016-11-19T10:45:50Z</time>
      </trkpt>
      <trkpt lat="44.16623" lon="4.69602">
        <ele>68.87</ele>
        <time>2016-11-19T10:45:51Z</time>
      </trkpt>
      <trkpt lat="44.16624" lon="4.69606">
        <ele>68.87</ele>
        <time>2016-11-19T10:45:52Z</time>
      </trkpt>
      <trkpt lat="44.16635" lon="4.69635">
        <ele>67.91</ele>
        <time>2016-11-19T10:45:59Z</time>
      </trkpt>
      <trkpt lat="44.16646" lon="4.69645">
        <ele>67.91</ele>
        <time>2016-11-19T10:46:04Z</time>
      </trkpt>
      <trkpt lat="44.16648" lon="4.69646">
        <ele>67.91</ele>
        <time>2016-11-19T10:46:05Z</time>
      </trkpt>
      <trkpt lat="44.1665" lon="4.69646">
        <ele>67.91</ele>
        <time>2016-11-19T10:46:06Z</time>
      </trkpt>
      <trkpt lat="44.16652" lon="4.69647">
        <ele>67.91</ele>
        <time>2016-11-19T10:46:07Z</time>
      </trkpt>
      <trkpt lat="44.16654" lon="4.69648">
        <ele>67.91</ele>
        <time>2016-11-19T10:46:08Z</time>
      </trkpt>
      <trkpt lat="44.16654" lon="4.6965">
        <ele>67.91</ele>
        <time>2016-11-19T10:46:09Z</time>
      </trkpt>
      <trkpt lat="44.16654" lon="4.69653">
        <ele>67.91</ele>
        <time>2016-11-19T10:46:11Z</time>
      </trkpt>
      <trkpt lat="44.16653" lon="4.69653">
        <ele>67.91</ele>
        <time>2016-11-19T10:46:12Z</time>
      </trkpt>
      <trkpt lat="44.1665" lon="4.69655">
        <ele>69.35</ele>
        <time>2016-11-19T10:46:15Z</time>
      </trkpt>
      <trkpt lat="44.16627" lon="4.69669">
        <ele>71.27</ele>
        <time>2016-11-19T10:46:27Z</time>
      </trkpt>
      <trkpt lat="44.16624" lon="4.69674">
        <ele>71.76</ele>
        <time>2016-11-19T10:46:29Z</time>
      </trkpt>
      <trkpt lat="44.16624" lon="4.69677">
        <ele>71.76</ele>
        <time>2016-11-19T10:46:30Z</time>
      </trkpt>
      <trkpt lat="44.16623" lon="4.6968">
        <ele>71.76</ele>
        <time>2016-11-19T10:46:31Z</time>
      </trkpt>
      <trkpt lat="44.16622" lon="4.69682">
        <ele>72.24</ele>
        <time>2016-11-19T10:46:32Z</time>
      </trkpt>
      <trkpt lat="44.16621" lon="4.69684">
        <ele>72.24</ele>
        <time>2016-11-19T10:46:33Z</time>
      </trkpt>
      <trkpt lat="44.16611" lon="4.69723">
        <ele>75.6</ele>
        <time>2016-11-19T10:46:48Z</time>
      </trkpt>
      <trkpt lat="44.16609" lon="4.6973">
        <ele>75.6</ele>
        <time>2016-11-19T10:46:51Z</time>
      </trkpt>
      <trkpt lat="44.16608" lon="4.69733">
        <ele>75.6</ele>
        <time>2016-11-19T10:46:52Z</time>
      </trkpt>
      <trkpt lat="44.1661" lon="4.69756">
        <ele>78.97</ele>
        <time>2016-11-19T10:47:01Z</time>
      </trkpt>
      <trkpt lat="44.16614" lon="4.69773">
        <ele>79.45</ele>
        <time>2016-11-19T10:47:08Z</time>
      </trkpt>
      <trkpt lat="44.16631" lon="4.69786">
        <ele>78.97</ele>
        <time>2016-11-19T10:47:19Z</time>
      </trkpt>
      <trkpt lat="44.16645" lon="4.69802">
        <ele>79.93</ele>
        <time>2016-11-19T10:47:30Z</time>
      </trkpt>
      <trkpt lat="44.16645" lon="4.69804">
        <ele>79.93</ele>
        <time>2016-11-19T10:47:31Z</time>
      </trkpt>
      <trkpt lat="44.1664" lon="4.6983">
        <ele>78.97</ele>
        <time>2016-11-19T10:47:38Z</time>
      </trkpt>
      <trkpt lat="44.1664" lon="4.69838">
        <ele>78.48</ele>
        <time>2016-11-19T10:47:40Z</time>
      </trkpt>
      <trkpt lat="44.16631" lon="4.69861">
        <ele>76.56</ele>
        <time>2016-11-19T10:47:51Z</time>
      </trkpt>
      <trkpt lat="44.16629" lon="4.6986">
        <ele>76.56</ele>
        <time>2016-11-19T10:47:52Z</time>
      </trkpt>
      <trkpt lat="44.16627" lon="4.6986">
        <ele>76.56</ele>
        <time>2016-11-19T10:47:53Z</time>
      </trkpt>
      <trkpt lat="44.16625" lon="4.69859">
        <ele>76.56</ele>
        <time>2016-11-19T10:47:54Z</time>
      </trkpt>
      <trkpt lat="44.16624" lon="4.69858">
        <ele>76.56</ele>
        <time>2016-11-19T10:47:55Z</time>
      </trkpt>
      <trkpt lat="44.16602" lon="4.69854">
        <ele>76.56</ele>
        <time>2016-11-19T10:48:07Z</time>
      </trkpt>
      <trkpt lat="44.16598" lon="4.69853">
        <ele>78</ele>
        <time>2016-11-19T10:48:09Z</time>
      </trkpt>
      <trkpt lat="44.16591" lon="4.69857">
        <ele>78.97</ele>
        <time>2016-11-19T10:48:13Z</time>
      </trkpt>
      <trkpt lat="44.16568" lon="4.69866">
        <ele>78.97</ele>
        <time>2016-11-19T10:48:24Z</time>
      </trkpt>
      <trkpt lat="44.16539" lon="4.69864">
        <ele>79.93</ele>
        <time>2016-11-19T10:48:36Z</time>
      </trkpt>
      <trkpt lat="44.16519" lon="4.69868">
        <ele>80.89</ele>
        <time>2016-11-19T10:48:44Z</time>
      </trkpt>
      <trkpt lat="44.16492" lon="4.69863">
        <ele>81.85</ele>
        <time>2016-11-19T10:48:55Z</time>
      </trkpt>
      <trkpt lat="44.16462" lon="4.69859">
        <ele>84.73</ele>
        <time>2016-11-19T10:49:09Z</time>
      </trkpt>
      <trkpt lat="44.16449" lon="4.69855">
        <ele>85.69</ele>
        <time>2016-11-19T10:49:15Z</time>
      </trkpt>
      <trkpt lat="44.1644" lon="4.69849">
        <ele>86.18</ele>
        <time>2016-11-19T10:49:21Z</time>
      </trkpt>
      <trkpt lat="44.16433" lon="4.69843">
        <ele>87.14</ele>
        <time>2016-11-19T10:49:25Z</time>
      </trkpt>
      <trkpt lat="44.16424" lon="4.69837">
        <ele>88.58</ele>
        <time>2016-11-19T10:49:31Z</time>
      </trkpt>
      <trkpt lat="44.16409" lon="4.69833">
        <ele>90.02</ele>
        <time>2016-11-19T10:49:39Z</time>
      </trkpt>
      <trkpt lat="44.16402" lon="4.69831">
        <ele>90.02</ele>
        <time>2016-11-19T10:49:43Z</time>
      </trkpt>
      <trkpt lat="44.16393" lon="4.69829">
        <ele>90.98</ele>
        <time>2016-11-19T10:49:47Z</time>
      </trkpt>
      <trkpt lat="44.16378" lon="4.6982">
        <ele>91.94</ele>
        <time>2016-11-19T10:49:56Z</time>
      </trkpt>
      <trkpt lat="44.16373" lon="4.69814">
        <ele>92.9</ele>
        <time>2016-11-19T10:50:00Z</time>
      </trkpt>
      <trkpt lat="44.1635" lon="4.69801">
        <ele>96.27</ele>
        <time>2016-11-19T10:50:15Z</time>
      </trkpt>
      <trkpt lat="44.16344" lon="4.69799">
        <ele>97.71</ele>
        <time>2016-11-19T10:50:19Z</time>
      </trkpt>
      <trkpt lat="44.1634" lon="4.69802">
        <ele>98.19</ele>
        <time>2016-11-19T10:50:22Z</time>
      </trkpt>
      <trkpt lat="44.16337" lon="4.69819">
        <ele>100.11</ele>
        <time>2016-11-19T10:50:31Z</time>
      </trkpt>
      <trkpt lat="44.16331" lon="4.69842">
        <ele>102.52</ele>
        <time>2016-11-19T10:50:44Z</time>
      </trkpt>
      <trkpt lat="44.1633" lon="4.69847">
        <ele>103.48</ele>
        <time>2016-11-19T10:50:47Z</time>
      </trkpt>
      <trkpt lat="44.16329" lon="4.69855">
        <ele>105.4</ele>
        <time>2016-11-19T10:50:51Z</time>
      </trkpt>
      <trkpt lat="44.16324" lon="4.69875">
        <ele>108.77</ele>
        <time>2016-11-19T10:50:58Z</time>
      </trkpt>
      <trkpt lat="44.1632" lon="4.69892">
        <ele>111.65</ele>
        <time>2016-11-19T10:51:04Z</time>
      </trkpt>
      <trkpt lat="44.16317" lon="4.699">
        <ele>114.53</ele>
        <time>2016-11-19T10:51:16Z</time>
      </trkpt>
      <trkpt lat="44.16317" lon="4.69903">
        <ele>115.5</ele>
        <time>2016-11-19T10:51:29Z</time>
      </trkpt>
      <trkpt lat="44.16317" lon="4.69905">
        <ele>116.46</ele>
        <time>2016-11-19T10:51:42Z</time>
      </trkpt>
      <trkpt lat="44.16316" lon="4.69909">
        <ele>117.42</ele>
        <time>2016-11-19T10:51:57Z</time>
      </trkpt>
      <trkpt lat="44.16318" lon="4.69914">
        <ele>118.86</ele>
        <time>2016-11-19T10:52:09Z</time>
      </trkpt>
      <trkpt lat="44.16317" lon="4.69915">
        <ele>120.78</ele>
        <time>2016-11-19T10:52:24Z</time>
      </trkpt>
      <trkpt lat="44.16314" lon="4.69925">
        <ele>122.71</ele>
        <time>2016-11-19T10:52:42Z</time>
      </trkpt>
      <trkpt lat="44.16312" lon="4.69937">
        <ele>125.11</ele>
        <time>2016-11-19T10:53:01Z</time>
      </trkpt>
      <trkpt lat="44.16311" lon="4.69944">
        <ele>125.59</ele>
        <time>2016-11-19T10:53:22Z</time>
      </trkpt>
      <trkpt lat="44.1631" lon="4.69949">
        <ele>126.07</ele>
        <time>2016-11-19T10:53:36Z</time>
      </trkpt>
      <trkpt lat="44.1631" lon="4.69954">
        <ele>126.55</ele>
        <time>2016-11-19T10:53:49Z</time>
      </trkpt>
      <trkpt lat="44.16309" lon="4.69954">
        <ele>127.03</ele>
        <time>2016-11-19T10:54:10Z</time>
      </trkpt>
      <trkpt lat="44.16309" lon="4.69953">
        <ele>127.03</ele>
        <time>2016-11-19T10:54:37Z</time>
      </trkpt>
      <trkpt lat="44.1631" lon="4.69955">
        <ele>127.03</ele>
        <time>2016-11-19T10:55:00Z</time>
      </trkpt>
      <trkpt lat="44.1631" lon="4.69956">
        <ele>126.55</ele>
        <time>2016-11-19T10:55:23Z</time>
      </trkpt>
      <trkpt lat="44.16306" lon="4.69978">
        <ele>127.99</ele>
        <time>2016-11-19T10:55:33Z</time>
      </trkpt>
      <trkpt lat="44.16303" lon="4.70012">
        <ele>125.59</ele>
        <time>2016-11-19T10:55:43Z</time>
      </trkpt>
      <trkpt lat="44.163" lon="4.70025">
        <ele>122.71</ele>
        <time>2016-11-19T10:55:47Z</time>
      </trkpt>
      <trkpt lat="44.16296" lon="4.70062">
        <ele>122.22</ele>
        <time>2016-11-19T10:55:55Z</time>
      </trkpt>
      <trkpt lat="44.16293" lon="4.70078">
        <ele>125.59</ele>
        <time>2016-11-19T10:56:03Z</time>
      </trkpt>
      <trkpt lat="44.16292" lon="4.70103">
        <ele>128.95</ele>
        <time>2016-11-19T10:56:13Z</time>
      </trkpt>
      <trkpt lat="44.16292" lon="4.7013">
        <ele>127.51</ele>
        <time>2016-11-19T10:56:22Z</time>
      </trkpt>
      <trkpt lat="44.16291" lon="4.70135">
        <ele>126.55</ele>
        <time>2016-11-19T10:56:25Z</time>
      </trkpt>
      <trkpt lat="44.16291" lon="4.70139">
        <ele>125.59</ele>
        <time>2016-11-19T10:56:26Z</time>
      </trkpt>
      <trkpt lat="44.16291" lon="4.70142">
        <ele>124.15</ele>
        <time>2016-11-19T10:56:27Z</time>
      </trkpt>
      <trkpt lat="44.16291" lon="4.70146">
        <ele>123.19</ele>
        <time>2016-11-19T10:56:28Z</time>
      </trkpt>
      <trkpt lat="44.16292" lon="4.7015">
        <ele>123.19</ele>
        <time>2016-11-19T10:56:29Z</time>
      </trkpt>
      <trkpt lat="44.16293" lon="4.70154">
        <ele>122.22</ele>
        <time>2016-11-19T10:56:30Z</time>
      </trkpt>
      <trkpt lat="44.16293" lon="4.70158">
        <ele>121.74</ele>
        <time>2016-11-19T10:56:31Z</time>
      </trkpt>
      <trkpt lat="44.16294" lon="4.70163">
        <ele>121.26</ele>
        <time>2016-11-19T10:56:32Z</time>
      </trkpt>
      <trkpt lat="44.16296" lon="4.70188">
        <ele>117.9</ele>
        <time>2016-11-19T10:56:37Z</time>
      </trkpt>
      <trkpt lat="44.16296" lon="4.70194">
        <ele>117.42</ele>
        <time>2016-11-19T10:56:38Z</time>
      </trkpt>
      <trkpt lat="44.16297" lon="4.70199">
        <ele>116.94</ele>
        <time>2016-11-19T10:56:39Z</time>
      </trkpt>
      <trkpt lat="44.16297" lon="4.70203">
        <ele>116.94</ele>
        <time>2016-11-19T10:56:40Z</time>
      </trkpt>
      <trkpt lat="44.16297" lon="4.70207">
        <ele>116.46</ele>
        <time>2016-11-19T10:56:41Z</time>
      </trkpt>
      <trkpt lat="44.16295" lon="4.70212">
        <ele>115.98</ele>
        <time>2016-11-19T10:56:42Z</time>
      </trkpt>
      <trkpt lat="44.16295" lon="4.70218">
        <ele>115.01</ele>
        <time>2016-11-19T10:56:43Z</time>
      </trkpt>
      <trkpt lat="44.16295" lon="4.70226">
        <ele>114.53</ele>
        <time>2016-11-19T10:56:44Z</time>
      </trkpt>
      <trkpt lat="44.16297" lon="4.7024">
        <ele>113.57</ele>
        <time>2016-11-19T10:56:46Z</time>
      </trkpt>
      <trkpt lat="44.16298" lon="4.70246">
        <ele>113.57</ele>
        <time>2016-11-19T10:56:47Z</time>
      </trkpt>
      <trkpt lat="44.16298" lon="4.70253">
        <ele>113.57</ele>
        <time>2016-11-19T10:56:48Z</time>
      </trkpt>
      <trkpt lat="44.16298" lon="4.7026">
        <ele>113.57</ele>
        <time>2016-11-19T10:56:49Z</time>
      </trkpt>
      <trkpt lat="44.16298" lon="4.70266">
        <ele>113.09</ele>
        <time>2016-11-19T10:56:50Z</time>
      </trkpt>
      <trkpt lat="44.16298" lon="4.70272">
        <ele>113.09</ele>
        <time>2016-11-19T10:56:51Z</time>
      </trkpt>
      <trkpt lat="44.16298" lon="4.70285">
        <ele>112.61</ele>
        <time>2016-11-19T10:56:53Z</time>
      </trkpt>
      <trkpt lat="44.16297" lon="4.70292">
        <ele>112.13</ele>
        <time>2016-11-19T10:56:54Z</time>
      </trkpt>
      <trkpt lat="44.16297" lon="4.70299">
        <ele>112.13</ele>
        <time>2016-11-19T10:56:55Z</time>
      </trkpt>
      <trkpt lat="44.16298" lon="4.70314">
        <ele>112.13</ele>
        <time>2016-11-19T10:56:57Z</time>
      </trkpt>
      <trkpt lat="44.16297" lon="4.70322">
        <ele>111.17</ele>
        <time>2016-11-19T10:56:58Z</time>
      </trkpt>
      <trkpt lat="44.16296" lon="4.70338">
        <ele>111.17</ele>
        <time>2016-11-19T10:57:00Z</time>
      </trkpt>
      <trkpt lat="44.16297" lon="4.70346">
        <ele>110.69</ele>
        <time>2016-11-19T10:57:01Z</time>
      </trkpt>
      <trkpt lat="44.16297" lon="4.70353">
        <ele>110.69</ele>
        <time>2016-11-19T10:57:02Z</time>
      </trkpt>
      <trkpt lat="44.16297" lon="4.70359">
        <ele>109.73</ele>
        <time>2016-11-19T10:57:03Z</time>
      </trkpt>
      <trkpt lat="44.16298" lon="4.70365">
        <ele>109.25</ele>
        <time>2016-11-19T10:57:04Z</time>
      </trkpt>
      <trkpt lat="44.16299" lon="4.70371">
        <ele>108.77</ele>
        <time>2016-11-19T10:57:05Z</time>
      </trkpt>
      <trkpt lat="44.163" lon="4.70377">
        <ele>108.29</ele>
        <time>2016-11-19T10:57:06Z</time>
      </trkpt>
      <trkpt lat="44.16302" lon="4.70386">
        <ele>107.81</ele>
        <time>2016-11-19T10:57:08Z</time>
      </trkpt>
      <trkpt lat="44.16301" lon="4.70389">
        <ele>107.81</ele>
        <time>2016-11-19T10:57:09Z</time>
      </trkpt>
      <trkpt lat="44.163" lon="4.70392">
        <ele>106.84</ele>
        <time>2016-11-19T10:57:10Z</time>
      </trkpt>
      <trkpt lat="44.163" lon="4.70397">
        <ele>105.88</ele>
        <time>2016-11-19T10:57:11Z</time>
      </trkpt>
      <trkpt lat="44.163" lon="4.70401">
        <ele>105.88</ele>
        <time>2016-11-19T10:57:12Z</time>
      </trkpt>
      <trkpt lat="44.16302" lon="4.70404">
        <ele>104.92</ele>
        <time>2016-11-19T10:57:13Z</time>
      </trkpt>
      <trkpt lat="44.16304" lon="4.70406">
        <ele>104.92</ele>
        <time>2016-11-19T10:57:14Z</time>
      </trkpt>
      <trkpt lat="44.16307" lon="4.70408">
        <ele>103.96</ele>
        <time>2016-11-19T10:57:15Z</time>
      </trkpt>
      <trkpt lat="44.16308" lon="4.70412">
        <ele>103.48</ele>
        <time>2016-11-19T10:57:16Z</time>
      </trkpt>
      <trkpt lat="44.16308" lon="4.70417">
        <ele>102.52</ele>
        <time>2016-11-19T10:57:17Z</time>
      </trkpt>
      <trkpt lat="44.16308" lon="4.70421">
        <ele>101.56</ele>
        <time>2016-11-19T10:57:18Z</time>
      </trkpt>
      <trkpt lat="44.16309" lon="4.70423">
        <ele>101.56</ele>
        <time>2016-11-19T10:57:19Z</time>
      </trkpt>
      <trkpt lat="44.1631" lon="4.70426">
        <ele>100.6</ele>
        <time>2016-11-19T10:57:20Z</time>
      </trkpt>
      <trkpt lat="44.1631" lon="4.70428">
        <ele>100.11</ele>
        <time>2016-11-19T10:57:21Z</time>
      </trkpt>
      <trkpt lat="44.16311" lon="4.70431">
        <ele>99.15</ele>
        <time>2016-11-19T10:57:22Z</time>
      </trkpt>
      <trkpt lat="44.16312" lon="4.70435">
        <ele>98.67</ele>
        <time>2016-11-19T10:57:23Z</time>
      </trkpt>
      <trkpt lat="44.16313" lon="4.70438">
        <ele>98.67</ele>
        <time>2016-11-19T10:57:24Z</time>
      </trkpt>
      <trkpt lat="44.16314" lon="4.70441">
        <ele>97.71</ele>
        <time>2016-11-19T10:57:25Z</time>
      </trkpt>
      <trkpt lat="44.16315" lon="4.70444">
        <ele>97.23</ele>
        <time>2016-11-19T10:57:26Z</time>
      </trkpt>
      <trkpt lat="44.16317" lon="4.70447">
        <ele>96.75</ele>
        <time>2016-11-19T10:57:27Z</time>
      </trkpt>
      <trkpt lat="44.16319" lon="4.7045">
        <ele>95.79</ele>
        <time>2016-11-19T10:57:28Z</time>
      </trkpt>
      <trkpt lat="44.16321" lon="4.70459">
        <ele>93.87</ele>
        <time>2016-11-19T10:57:30Z</time>
      </trkpt>
      <trkpt lat="44.16323" lon="4.70463">
        <ele>93.39</ele>
        <time>2016-11-19T10:57:31Z</time>
      </trkpt>
      <trkpt lat="44.16325" lon="4.70473">
        <ele>91.94</ele>
        <time>2016-11-19T10:57:33Z</time>
      </trkpt>
      <trkpt lat="44.16335" lon="4.705">
        <ele>87.62</ele>
        <time>2016-11-19T10:57:39Z</time>
      </trkpt>
      <trkpt lat="44.16341" lon="4.70517">
        <ele>84.73</ele>
        <time>2016-11-19T10:57:43Z</time>
      </trkpt>
      <trkpt lat="44.1634" lon="4.70531">
        <ele>81.37</ele>
        <time>2016-11-19T10:57:47Z</time>
      </trkpt>
      <trkpt lat="44.16343" lon="4.70541">
        <ele>79.45</ele>
        <time>2016-11-19T10:57:49Z</time>
      </trkpt>
      <trkpt lat="44.16348" lon="4.70564">
        <ele>75.6</ele>
        <time>2016-11-19T10:57:55Z</time>
      </trkpt>
      <trkpt lat="44.16348" lon="4.7057">
        <ele>74.16</ele>
        <time>2016-11-19T10:57:57Z</time>
      </trkpt>
      <trkpt lat="44.16356" lon="4.70598">
        <ele>72.24</ele>
        <time>2016-11-19T10:58:03Z</time>
      </trkpt>
      <trkpt lat="44.16382" lon="4.70631">
        <ele>70.79</ele>
        <time>2016-11-19T10:58:12Z</time>
      </trkpt>
      <trkpt lat="44.16399" lon="4.70651">
        <ele>69.83</ele>
        <time>2016-11-19T10:58:17Z</time>
      </trkpt>
      <trkpt lat="44.16434" lon="4.70682">
        <ele>68.87</ele>
        <time>2016-11-19T10:58:28Z</time>
      </trkpt>
      <trkpt lat="44.1644" lon="4.70681">
        <ele>68.87</ele>
        <time>2016-11-19T10:58:32Z</time>
      </trkpt>
      <trkpt lat="44.1644" lon="4.70668">
        <ele>70.31</ele>
        <time>2016-11-19T10:58:41Z</time>
      </trkpt>
      <trkpt lat="44.16439" lon="4.70663">
        <ele>71.27</ele>
        <time>2016-11-19T10:58:44Z</time>
      </trkpt>
      <trkpt lat="44.16439" lon="4.70659">
        <ele>71.76</ele>
        <time>2016-11-19T10:58:46Z</time>
      </trkpt>
      <trkpt lat="44.16439" lon="4.70651">
        <ele>73.68</ele>
        <time>2016-11-19T10:58:51Z</time>
      </trkpt>
      <trkpt lat="44.16447" lon="4.70647">
        <ele>75.12</ele>
        <time>2016-11-19T10:58:58Z</time>
      </trkpt>
      <trkpt lat="44.16453" lon="4.70652">
        <ele>74.64</ele>
        <time>2016-11-19T10:59:03Z</time>
      </trkpt>
      <trkpt lat="44.16459" lon="4.70662">
        <ele>71.76</ele>
        <time>2016-11-19T10:59:08Z</time>
      </trkpt>
      <trkpt lat="44.1647" lon="4.70664">
        <ele>70.31</ele>
        <time>2016-11-19T10:59:12Z</time>
      </trkpt>
      <trkpt lat="44.16474" lon="4.70662">
        <ele>70.31</ele>
        <time>2016-11-19T10:59:14Z</time>
      </trkpt>
      <trkpt lat="44.1648" lon="4.70659">
        <ele>70.31</ele>
        <time>2016-11-19T10:59:18Z</time>
      </trkpt>
      <trkpt lat="44.16492" lon="4.70661">
        <ele>69.83</ele>
        <time>2016-11-19T10:59:28Z</time>
      </trkpt>
      <trkpt lat="44.16496" lon="4.70662">
        <ele>68.87</ele>
        <time>2016-11-19T10:59:32Z</time>
      </trkpt>
      <trkpt lat="44.16501" lon="4.70673">
        <ele>66.95</ele>
        <time>2016-11-19T10:59:36Z</time>
      </trkpt>
      <trkpt lat="44.16496" lon="4.7071">
        <ele>66.95</ele>
        <time>2016-11-19T10:59:47Z</time>
      </trkpt>
      <trkpt lat="44.16495" lon="4.70724">
        <ele>66.95</ele>
        <time>2016-11-19T10:59:51Z</time>
      </trkpt>
      <trkpt lat="44.16489" lon="4.70786">
        <ele>68.87</ele>
        <time>2016-11-19T11:00:06Z</time>
      </trkpt>
      <trkpt lat="44.16488" lon="4.70806">
        <ele>67.91</ele>
        <time>2016-11-19T11:00:09Z</time>
      </trkpt>
      <trkpt lat="44.16487" lon="4.70814">
        <ele>67.91</ele>
        <time>2016-11-19T11:00:10Z</time>
      </trkpt>
      <trkpt lat="44.16482" lon="4.70856">
        <ele>67.91</ele>
        <time>2016-11-19T11:00:17Z</time>
      </trkpt>
      <trkpt lat="44.16475" lon="4.70907">
        <ele>65.99</ele>
        <time>2016-11-19T11:00:25Z</time>
      </trkpt>
      <trkpt lat="44.16472" lon="4.7093">
        <ele>65.03</ele>
        <time>2016-11-19T11:00:28Z</time>
      </trkpt>
      <trkpt lat="44.1647" lon="4.70946">
        <ele>64.07</ele>
        <time>2016-11-19T11:00:30Z</time>
      </trkpt>
      <trkpt lat="44.16465" lon="4.70986">
        <ele>61.18</ele>
        <time>2016-11-19T11:00:36Z</time>
      </trkpt>
      <trkpt lat="44.1646" lon="4.71007">
        <ele>59.26</ele>
        <time>2016-11-19T11:00:40Z</time>
      </trkpt>
      <trkpt lat="44.16452" lon="4.71007">
        <ele>58.78</ele>
        <time>2016-11-19T11:00:44Z</time>
      </trkpt>
      <trkpt lat="44.16447" lon="4.71005">
        <ele>60.22</ele>
        <time>2016-11-19T11:00:47Z</time>
      </trkpt>
      <trkpt lat="44.16429" lon="4.71011">
        <ele>60.7</ele>
        <time>2016-11-19T11:00:56Z</time>
      </trkpt>
      <trkpt lat="44.16425" lon="4.71012">
        <ele>61.18</ele>
        <time>2016-11-19T11:00:58Z</time>
      </trkpt>
      <trkpt lat="44.16418" lon="4.71005">
        <ele>62.14</ele>
        <time>2016-11-19T11:01:02Z</time>
      </trkpt>
      <trkpt lat="44.16409" lon="4.70994">
        <ele>63.58</ele>
        <time>2016-11-19T11:01:08Z</time>
      </trkpt>
      <trkpt lat="44.16392" lon="4.70964">
        <ele>65.03</ele>
        <time>2016-11-19T11:01:20Z</time>
      </trkpt>
      <trkpt lat="44.1639" lon="4.70962">
        <ele>65.03</ele>
        <time>2016-11-19T11:01:21Z</time>
      </trkpt>
      <trkpt lat="44.16387" lon="4.70952">
        <ele>65.51</ele>
        <time>2016-11-19T11:01:25Z</time>
      </trkpt>
      <trkpt lat="44.16366" lon="4.70928">
        <ele>66.95</ele>
        <time>2016-11-19T11:01:37Z</time>
      </trkpt>
      <trkpt lat="44.16363" lon="4.70928">
        <ele>66.95</ele>
        <time>2016-11-19T11:01:38Z</time>
      </trkpt>
      <trkpt lat="44.16348" lon="4.7091">
        <ele>68.39</ele>
        <time>2016-11-19T11:01:48Z</time>
      </trkpt>
      <trkpt lat="44.16339" lon="4.70903">
        <ele>69.35</ele>
        <time>2016-11-19T11:01:55Z</time>
      </trkpt>
      <trkpt lat="44.16332" lon="4.70917">
        <ele>69.35</ele>
        <time>2016-11-19T11:02:00Z</time>
      </trkpt>
      <trkpt lat="44.16327" lon="4.70924">
        <ele>69.35</ele>
        <time>2016-11-19T11:02:03Z</time>
      </trkpt>
      <trkpt lat="44.16317" lon="4.70941">
        <ele>69.83</ele>
        <time>2016-11-19T11:02:10Z</time>
      </trkpt>
      <trkpt lat="44.16317" lon="4.70949">
        <ele>69.83</ele>
        <time>2016-11-19T11:02:13Z</time>
      </trkpt>
      <trkpt lat="44.16309" lon="4.70961">
        <ele>70.31</ele>
        <time>2016-11-19T11:02:17Z</time>
      </trkpt>
      <trkpt lat="44.16287" lon="4.70981">
        <ele>73.2</ele>
        <time>2016-11-19T11:02:30Z</time>
      </trkpt>
      <trkpt lat="44.16272" lon="4.71">
        <ele>75.6</ele>
        <time>2016-11-19T11:02:43Z</time>
      </trkpt>
      <trkpt lat="44.16266" lon="4.7101">
        <ele>76.08</ele>
        <time>2016-11-19T11:02:49Z</time>
      </trkpt>
      <trkpt lat="44.16255" lon="4.71008">
        <ele>77.04</ele>
        <time>2016-11-19T11:02:57Z</time>
      </trkpt>
      <trkpt lat="44.16244" lon="4.70966">
        <ele>78</ele>
        <time>2016-11-19T11:03:12Z</time>
      </trkpt>
      <trkpt lat="44.16239" lon="4.70907">
        <ele>78.48</ele>
        <time>2016-11-19T11:03:27Z</time>
      </trkpt>
      <trkpt lat="44.1623" lon="4.70852">
        <ele>79.45</ele>
        <time>2016-11-19T11:03:40Z</time>
      </trkpt>
      <trkpt lat="44.16231" lon="4.70818">
        <ele>81.37</ele>
        <time>2016-11-19T11:03:51Z</time>
      </trkpt>
      <trkpt lat="44.16229" lon="4.70796">
        <ele>84.73</ele>
        <time>2016-11-19T11:04:00Z</time>
      </trkpt>
      <trkpt lat="44.16226" lon="4.70771">
        <ele>88.1</ele>
        <time>2016-11-19T11:04:12Z</time>
      </trkpt>
      <trkpt lat="44.16225" lon="4.70745">
        <ele>91.46</ele>
        <time>2016-11-19T11:04:22Z</time>
      </trkpt>
      <trkpt lat="44.16225" lon="4.70713">
        <ele>94.83</ele>
        <time>2016-11-19T11:04:36Z</time>
      </trkpt>
      <trkpt lat="44.16225" lon="4.70711">
        <ele>95.31</ele>
        <time>2016-11-19T11:04:37Z</time>
      </trkpt>
      <trkpt lat="44.16225" lon="4.70709">
        <ele>95.31</ele>
        <time>2016-11-19T11:04:38Z</time>
      </trkpt>
      <trkpt lat="44.16224" lon="4.70706">
        <ele>95.79</ele>
        <time>2016-11-19T11:04:39Z</time>
      </trkpt>
      <trkpt lat="44.16217" lon="4.7068">
        <ele>99.15</ele>
        <time>2016-11-19T11:04:49Z</time>
      </trkpt>
      <trkpt lat="44.16215" lon="4.70671">
        <ele>99.15</ele>
        <time>2016-11-19T11:04:52Z</time>
      </trkpt>
      <trkpt lat="44.16213" lon="4.7067">
        <ele>99.63</ele>
        <time>2016-11-19T11:04:53Z</time>
      </trkpt>
      <trkpt lat="44.16212" lon="4.7067">
        <ele>99.63</ele>
        <time>2016-11-19T11:04:54Z</time>
      </trkpt>
      <trkpt lat="44.16211" lon="4.70671">
        <ele>99.63</ele>
        <time>2016-11-19T11:04:55Z</time>
      </trkpt>
      <trkpt lat="44.1621" lon="4.70671">
        <ele>99.63</ele>
        <time>2016-11-19T11:04:56Z</time>
      </trkpt>
      <trkpt lat="44.1621" lon="4.70668">
        <ele>99.63</ele>
        <time>2016-11-19T11:04:58Z</time>
      </trkpt>
      <trkpt lat="44.16211" lon="4.70667">
        <ele>99.63</ele>
        <time>2016-11-19T11:04:59Z</time>
      </trkpt>
      <trkpt lat="44.16212" lon="4.70666">
        <ele>99.63</ele>
        <time>2016-11-19T11:05:00Z</time>
      </trkpt>
      <trkpt lat="44.16213" lon="4.70663">
        <ele>99.63</ele>
        <time>2016-11-19T11:05:13Z</time>
      </trkpt>
      <trkpt lat="44.16212" lon="4.70662">
        <ele>99.63</ele>
        <time>2016-11-19T11:05:35Z</time>
      </trkpt>
      <trkpt lat="44.16213" lon="4.70664">
        <ele>99.63</ele>
        <time>2016-11-19T11:06:06Z</time>
      </trkpt>
      <trkpt lat="44.16213" lon="4.70663">
        <ele>99.63</ele>
        <time>2016-11-19T11:06:07Z</time>
      </trkpt>
      <trkpt lat="44.16218" lon="4.70643">
        <ele>98.67</ele>
        <time>2016-11-19T11:06:13Z</time>
      </trkpt>
      <trkpt lat="44.16212" lon="4.70623">
        <ele>96.75</ele>
        <time>2016-11-19T11:06:17Z</time>
      </trkpt>
      <trkpt lat="44.16209" lon="4.70618">
        <ele>96.27</ele>
        <time>2016-11-19T11:06:18Z</time>
      </trkpt>
      <trkpt lat="44.16202" lon="4.70603">
        <ele>94.35</ele>
        <time>2016-11-19T11:06:20Z</time>
      </trkpt>
      <trkpt lat="44.16199" lon="4.70594">
        <ele>94.35</ele>
        <time>2016-11-19T11:06:21Z</time>
      </trkpt>
      <trkpt lat="44.16197" lon="4.70583">
        <ele>93.39</ele>
        <time>2016-11-19T11:06:22Z</time>
      </trkpt>
      <trkpt lat="44.16198" lon="4.70572">
        <ele>93.39</ele>
        <time>2016-11-19T11:06:23Z</time>
      </trkpt>
      <trkpt lat="44.162" lon="4.70562">
        <ele>93.39</ele>
        <time>2016-11-19T11:06:24Z</time>
      </trkpt>
      <trkpt lat="44.16202" lon="4.70553">
        <ele>93.39</ele>
        <time>2016-11-19T11:06:25Z</time>
      </trkpt>
      <trkpt lat="44.16204" lon="4.70544">
        <ele>94.83</ele>
        <time>2016-11-19T11:06:26Z</time>
      </trkpt>
      <trkpt lat="44.16205" lon="4.70535">
        <ele>95.31</ele>
        <time>2016-11-19T11:06:27Z</time>
      </trkpt>
      <trkpt lat="44.16204" lon="4.70527">
        <ele>95.31</ele>
        <time>2016-11-19T11:06:28Z</time>
      </trkpt>
      <trkpt lat="44.16204" lon="4.70518">
        <ele>95.31</ele>
        <time>2016-11-19T11:06:29Z</time>
      </trkpt>
      <trkpt lat="44.16198" lon="4.70477">
        <ele>98.67</ele>
        <time>2016-11-19T11:06:34Z</time>
      </trkpt>
      <trkpt lat="44.16197" lon="4.70452">
        <ele>100.11</ele>
        <time>2016-11-19T11:06:37Z</time>
      </trkpt>
      <trkpt lat="44.16193" lon="4.7039">
        <ele>102.04</ele>
        <time>2016-11-19T11:06:45Z</time>
      </trkpt>
      <trkpt lat="44.16193" lon="4.70384">
        <ele>102.04</ele>
        <time>2016-11-19T11:06:46Z</time>
      </trkpt>
      <trkpt lat="44.16192" lon="4.70367">
        <ele>102.04</ele>
        <time>2016-11-19T11:06:49Z</time>
      </trkpt>
      <trkpt lat="44.16181" lon="4.70281">
        <ele>104.92</ele>
        <time>2016-11-19T11:07:02Z</time>
      </trkpt>
      <trkpt lat="44.16181" lon="4.70275">
        <ele>105.4</ele>
        <time>2016-11-19T11:07:03Z</time>
      </trkpt>
      <trkpt lat="44.16181" lon="4.70269">
        <ele>105.4</ele>
        <time>2016-11-19T11:07:04Z</time>
      </trkpt>
      <trkpt lat="44.16184" lon="4.70181">
        <ele>106.84</ele>
        <time>2016-11-19T11:07:16Z</time>
      </trkpt>
      <trkpt lat="44.16178" lon="4.70145">
        <ele>110.21</ele>
        <time>2016-11-19T11:07:22Z</time>
      </trkpt>
      <trkpt lat="44.16171" lon="4.7012">
        <ele>113.09</ele>
        <time>2016-11-19T11:07:27Z</time>
      </trkpt>
      <trkpt lat="44.16161" lon="4.70096">
        <ele>116.46</ele>
        <time>2016-11-19T11:07:33Z</time>
      </trkpt>
      <trkpt lat="44.16155" lon="4.70084">
        <ele>117.9</ele>
        <time>2016-11-19T11:07:36Z</time>
      </trkpt>
      <trkpt lat="44.16152" lon="4.7008">
        <ele>117.9</ele>
        <time>2016-11-19T11:07:37Z</time>
      </trkpt>
      <trkpt lat="44.16132" lon="4.70059">
        <ele>121.26</ele>
        <time>2016-11-19T11:07:43Z</time>
      </trkpt>
      <trkpt lat="44.16106" lon="4.70042">
        <ele>124.15</ele>
        <time>2016-11-19T11:07:50Z</time>
      </trkpt>
      <trkpt lat="44.16086" lon="4.70016">
        <ele>127.99</ele>
        <time>2016-11-19T11:07:58Z</time>
      </trkpt>
      <trkpt lat="44.16089" lon="4.69986">
        <ele>131.36</ele>
        <time>2016-11-19T11:08:05Z</time>
      </trkpt>
      <trkpt lat="44.16085" lon="4.69956">
        <ele>133.28</ele>
        <time>2016-11-19T11:08:11Z</time>
      </trkpt>
      <trkpt lat="44.16083" lon="4.69951">
        <ele>133.76</ele>
        <time>2016-11-19T11:08:12Z</time>
      </trkpt>
      <trkpt lat="44.16081" lon="4.69947">
        <ele>134.72</ele>
        <time>2016-11-19T11:08:13Z</time>
      </trkpt>
      <trkpt lat="44.1607" lon="4.69923">
        <ele>138.57</ele>
        <time>2016-11-19T11:08:19Z</time>
      </trkpt>
      <trkpt lat="44.16068" lon="4.69919">
        <ele>138.57</ele>
        <time>2016-11-19T11:08:20Z</time>
      </trkpt>
      <trkpt lat="44.16062" lon="4.69897">
        <ele>141.45</ele>
        <time>2016-11-19T11:08:25Z</time>
      </trkpt>
      <trkpt lat="44.1606" lon="4.69892">
        <ele>141.45</ele>
        <time>2016-11-19T11:08:26Z</time>
      </trkpt>
      <trkpt lat="44.16058" lon="4.69887">
        <ele>141.93</ele>
        <time>2016-11-19T11:08:27Z</time>
      </trkpt>
      <trkpt lat="44.16044" lon="4.69843">
        <ele>145.3</ele>
        <time>2016-11-19T11:08:36Z</time>
      </trkpt>
      <trkpt lat="44.16043" lon="4.69805">
        <ele>148.66</ele>
        <time>2016-11-19T11:08:44Z</time>
      </trkpt>
      <trkpt lat="44.16045" lon="4.69782">
        <ele>152.03</ele>
        <time>2016-11-19T11:08:51Z</time>
      </trkpt>
      <trkpt lat="44.16028" lon="4.69762">
        <ele>155.39</ele>
        <time>2016-11-19T11:09:00Z</time>
      </trkpt>
      <trkpt lat="44.16013" lon="4.69744">
        <ele>159.24</ele>
        <time>2016-11-19T11:09:09Z</time>
      </trkpt>
      <trkpt lat="44.16006" lon="4.69736">
        <ele>161.16</ele>
        <time>2016-11-19T11:09:13Z</time>
      </trkpt>
      <trkpt lat="44.15989" lon="4.6972">
        <ele>164.04</ele>
        <time>2016-11-19T11:09:21Z</time>
      </trkpt>
      <trkpt lat="44.15973" lon="4.69707">
        <ele>167.41</ele>
        <time>2016-11-19T11:09:28Z</time>
      </trkpt>
      <trkpt lat="44.15951" lon="4.69684">
        <ele>170.77</ele>
        <time>2016-11-19T11:09:37Z</time>
      </trkpt>
      <trkpt lat="44.15938" lon="4.6967">
        <ele>173.17</ele>
        <time>2016-11-19T11:09:43Z</time>
      </trkpt>
      <trkpt lat="44.15912" lon="4.6969">
        <ele>176.54</ele>
        <time>2016-11-19T11:09:53Z</time>
      </trkpt>
      <trkpt lat="44.15896" lon="4.69709">
        <ele>179.9</ele>
        <time>2016-11-19T11:10:00Z</time>
      </trkpt>
      <trkpt lat="44.15883" lon="4.69724">
        <ele>182.79</ele>
        <time>2016-11-19T11:10:06Z</time>
      </trkpt>
      <trkpt lat="44.15865" lon="4.69753">
        <ele>186.15</ele>
        <time>2016-11-19T11:10:15Z</time>
      </trkpt>
      <trkpt lat="44.1584" lon="4.69785">
        <ele>188.08</ele>
        <time>2016-11-19T11:10:26Z</time>
      </trkpt>
      <trkpt lat="44.15834" lon="4.69788">
        <ele>189.04</ele>
        <time>2016-11-19T11:10:32Z</time>
      </trkpt>
      <trkpt lat="44.15832" lon="4.69791">
        <ele>189.52</ele>
        <time>2016-11-19T11:10:34Z</time>
      </trkpt>
      <trkpt lat="44.15829" lon="4.6979">
        <ele>190</ele>
        <time>2016-11-19T11:10:38Z</time>
      </trkpt>
      <trkpt lat="44.1582" lon="4.69783">
        <ele>190</ele>
        <time>2016-11-19T11:10:43Z</time>
      </trkpt>
      <trkpt lat="44.15814" lon="4.69771">
        <ele>190</ele>
        <time>2016-11-19T11:10:48Z</time>
      </trkpt>
      <trkpt lat="44.15798" lon="4.69757">
        <ele>187.11</ele>
        <time>2016-11-19T11:10:56Z</time>
      </trkpt>
      <trkpt lat="44.15789" lon="4.69751">
        <ele>185.19</ele>
        <time>2016-11-19T11:11:00Z</time>
      </trkpt>
      <trkpt lat="44.15787" lon="4.69752">
        <ele>185.19</ele>
        <time>2016-11-19T11:11:01Z</time>
      </trkpt>
      <trkpt lat="44.15784" lon="4.69753">
        <ele>184.71</ele>
        <time>2016-11-19T11:11:02Z</time>
      </trkpt>
      <trkpt lat="44.15781" lon="4.69755">
        <ele>184.71</ele>
        <time>2016-11-19T11:11:03Z</time>
      </trkpt>
      <trkpt lat="44.15779" lon="4.69758">
        <ele>184.71</ele>
        <time>2016-11-19T11:11:04Z</time>
      </trkpt>
      <trkpt lat="44.15766" lon="4.69778">
        <ele>186.15</ele>
        <time>2016-11-19T11:11:10Z</time>
      </trkpt>
      <trkpt lat="44.1576" lon="4.69788">
        <ele>187.59</ele>
        <time>2016-11-19T11:11:13Z</time>
      </trkpt>
      <trkpt lat="44.15753" lon="4.69797">
        <ele>189.04</ele>
        <time>2016-11-19T11:11:16Z</time>
      </trkpt>
      <trkpt lat="44.1573" lon="4.69824">
        <ele>192.4</ele>
        <time>2016-11-19T11:11:24Z</time>
      </trkpt>
      <trkpt lat="44.15711" lon="4.69846">
        <ele>195.77</ele>
        <time>2016-11-19T11:11:31Z</time>
      </trkpt>
      <trkpt lat="44.15689" lon="4.69864">
        <ele>199.13</ele>
        <time>2016-11-19T11:11:38Z</time>
      </trkpt>
      <trkpt lat="44.1566" lon="4.69881">
        <ele>202.49</ele>
        <time>2016-11-19T11:11:46Z</time>
      </trkpt>
      <trkpt lat="44.15643" lon="4.69892">
        <ele>204.42</ele>
        <time>2016-11-19T11:11:51Z</time>
      </trkpt>
      <trkpt lat="44.15637" lon="4.69897">
        <ele>204.9</ele>
        <time>2016-11-19T11:11:53Z</time>
      </trkpt>
      <trkpt lat="44.15634" lon="4.69898">
        <ele>205.38</ele>
        <time>2016-11-19T11:11:55Z</time>
      </trkpt>
      <trkpt lat="44.15633" lon="4.69899">
        <ele>205.38</ele>
        <time>2016-11-19T11:11:56Z</time>
      </trkpt>
      <trkpt lat="44.15632" lon="4.699">
        <ele>205.38</ele>
        <time>2016-11-19T11:11:57Z</time>
      </trkpt>
      <trkpt lat="44.15631" lon="4.69901">
        <ele>205.38</ele>
        <time>2016-11-19T11:11:58Z</time>
      </trkpt>
      <trkpt lat="44.15629" lon="4.69898">
        <ele>205.38</ele>
        <time>2016-11-19T11:12:00Z</time>
      </trkpt>
      <trkpt lat="44.15627" lon="4.69895">
        <ele>205.38</ele>
        <time>2016-11-19T11:12:01Z</time>
      </trkpt>
      <trkpt lat="44.15619" lon="4.69888">
        <ele>204.42</ele>
        <time>2016-11-19T11:12:05Z</time>
      </trkpt>
      <trkpt lat="44.15612" lon="4.69867">
        <ele>201.53</ele>
        <time>2016-11-19T11:12:14Z</time>
      </trkpt>
      <trkpt lat="44.1561" lon="4.69864">
        <ele>201.05</ele>
        <time>2016-11-19T11:12:15Z</time>
      </trkpt>
      <trkpt lat="44.15609" lon="4.6985">
        <ele>199.61</ele>
        <time>2016-11-19T11:12:18Z</time>
      </trkpt>
      <trkpt lat="44.15616" lon="4.69834">
        <ele>195.77</ele>
        <time>2016-11-19T11:12:26Z</time>
      </trkpt>
      <trkpt lat="44.15619" lon="4.6983">
        <ele>194.8</ele>
        <time>2016-11-19T11:12:27Z</time>
      </trkpt>
      <trkpt lat="44.15621" lon="4.69823">
        <ele>193.84</ele>
        <time>2016-11-19T11:12:30Z</time>
      </trkpt>
      <trkpt lat="44.15618" lon="4.6981">
        <ele>191.92</ele>
        <time>2016-11-19T11:12:35Z</time>
      </trkpt>
      <trkpt lat="44.15618" lon="4.69803">
        <ele>190.96</ele>
        <time>2016-11-19T11:12:37Z</time>
      </trkpt>
      <trkpt lat="44.15618" lon="4.698">
        <ele>190</ele>
        <time>2016-11-19T11:12:38Z</time>
      </trkpt>
      <trkpt lat="44.15621" lon="4.69788">
        <ele>188.56</ele>
        <time>2016-11-19T11:12:42Z</time>
      </trkpt>
      <trkpt lat="44.15619" lon="4.69777">
        <ele>188.08</ele>
        <time>2016-11-19T11:12:46Z</time>
      </trkpt>
      <trkpt lat="44.15618" lon="4.6976">
        <ele>186.15</ele>
        <time>2016-11-19T11:12:49Z</time>
      </trkpt>
      <trkpt lat="44.15617" lon="4.69735">
        <ele>185.19</ele>
        <time>2016-11-19T11:12:54Z</time>
      </trkpt>
      <trkpt lat="44.15615" lon="4.69726">
        <ele>185.19</ele>
        <time>2016-11-19T11:12:58Z</time>
      </trkpt>
      <trkpt lat="44.15613" lon="4.69713">
        <ele>185.19</ele>
        <time>2016-11-19T11:13:01Z</time>
      </trkpt>
      <trkpt lat="44.1561" lon="4.69703">
        <ele>184.23</ele>
        <time>2016-11-19T11:13:03Z</time>
      </trkpt>
      <trkpt lat="44.15607" lon="4.697">
        <ele>184.23</ele>
        <time>2016-11-19T11:13:04Z</time>
      </trkpt>
      <trkpt lat="44.15604" lon="4.69697">
        <ele>184.23</ele>
        <time>2016-11-19T11:13:05Z</time>
      </trkpt>
      <trkpt lat="44.15601" lon="4.69694">
        <ele>184.23</ele>
        <time>2016-11-19T11:13:06Z</time>
      </trkpt>
      <trkpt lat="44.15598" lon="4.69693">
        <ele>185.67</ele>
        <time>2016-11-19T11:13:07Z</time>
      </trkpt>
      <trkpt lat="44.15595" lon="4.69692">
        <ele>186.15</ele>
        <time>2016-11-19T11:13:08Z</time>
      </trkpt>
      <trkpt lat="44.15593" lon="4.69691">
        <ele>186.15</ele>
        <time>2016-11-19T11:13:09Z</time>
      </trkpt>
      <trkpt lat="44.1559" lon="4.69692">
        <ele>186.63</ele>
        <time>2016-11-19T11:13:10Z</time>
      </trkpt>
      <trkpt lat="44.15587" lon="4.69692">
        <ele>186.63</ele>
        <time>2016-11-19T11:13:11Z</time>
      </trkpt>
      <trkpt lat="44.15584" lon="4.69691">
        <ele>187.59</ele>
        <time>2016-11-19T11:13:12Z</time>
      </trkpt>
      <trkpt lat="44.15573" lon="4.6967">
        <ele>188.08</ele>
        <time>2016-11-19T11:13:20Z</time>
      </trkpt>
      <trkpt lat="44.15549" lon="4.69652">
        <ele>189.04</ele>
        <time>2016-11-19T11:13:29Z</time>
      </trkpt>
      <trkpt lat="44.15541" lon="4.6964">
        <ele>189.04</ele>
        <time>2016-11-19T11:13:33Z</time>
      </trkpt>
      <trkpt lat="44.15535" lon="4.6964">
        <ele>190</ele>
        <time>2016-11-19T11:13:37Z</time>
      </trkpt>
      <trkpt lat="44.15532" lon="4.69644">
        <ele>190.96</ele>
        <time>2016-11-19T11:13:41Z</time>
      </trkpt>
      <trkpt lat="44.1553" lon="4.69649">
        <ele>191.44</ele>
        <time>2016-11-19T11:13:53Z</time>
      </trkpt>
      <trkpt lat="44.15529" lon="4.69651">
        <ele>191.44</ele>
        <time>2016-11-19T11:13:59Z</time>
      </trkpt>
      <trkpt lat="44.15527" lon="4.69661">
        <ele>192.4</ele>
        <time>2016-11-19T11:14:11Z</time>
      </trkpt>
      <trkpt lat="44.15528" lon="4.69664">
        <ele>192.4</ele>
        <time>2016-11-19T11:14:16Z</time>
      </trkpt>
      <trkpt lat="44.1553" lon="4.69666">
        <ele>192.4</ele>
        <time>2016-11-19T11:14:18Z</time>
      </trkpt>
      <trkpt lat="44.15529" lon="4.69679">
        <ele>192.88</ele>
        <time>2016-11-19T11:14:24Z</time>
      </trkpt>
      <trkpt lat="44.15529" lon="4.69684">
        <ele>193.36</ele>
        <time>2016-11-19T11:14:26Z</time>
      </trkpt>
      <trkpt lat="44.15524" lon="4.69701">
        <ele>194.32</ele>
        <time>2016-11-19T11:14:34Z</time>
      </trkpt>
      <trkpt lat="44.15522" lon="4.69708">
        <ele>194.8</ele>
        <time>2016-11-19T11:14:38Z</time>
      </trkpt>
      <trkpt lat="44.15515" lon="4.69735">
        <ele>196.25</ele>
        <time>2016-11-19T11:14:49Z</time>
      </trkpt>
      <trkpt lat="44.15512" lon="4.69745">
        <ele>196.73</ele>
        <time>2016-11-19T11:14:54Z</time>
      </trkpt>
      <trkpt lat="44.15511" lon="4.69769">
        <ele>197.21</ele>
        <time>2016-11-19T11:15:03Z</time>
      </trkpt>
      <trkpt lat="44.15503" lon="4.69791">
        <ele>198.17</ele>
        <time>2016-11-19T11:15:12Z</time>
      </trkpt>
      <trkpt lat="44.15498" lon="4.69812">
        <ele>198.17</ele>
        <time>2016-11-19T11:15:21Z</time>
      </trkpt>
      <trkpt lat="44.155" lon="4.69835">
        <ele>198.17</ele>
        <time>2016-11-19T11:15:28Z</time>
      </trkpt>
      <trkpt lat="44.15506" lon="4.69871">
        <ele>198.65</ele>
        <time>2016-11-19T11:15:38Z</time>
      </trkpt>
      <trkpt lat="44.15513" lon="4.69899">
        <ele>199.61</ele>
        <time>2016-11-19T11:15:45Z</time>
      </trkpt>
      <trkpt lat="44.15526" lon="4.6993">
        <ele>198.65</ele>
        <time>2016-11-19T11:15:55Z</time>
      </trkpt>
      <trkpt lat="44.15527" lon="4.6994">
        <ele>198.65</ele>
        <time>2016-11-19T11:15:58Z</time>
      </trkpt>
      <trkpt lat="44.15523" lon="4.69967">
        <ele>200.09</ele>
        <time>2016-11-19T11:16:06Z</time>
      </trkpt>
      <trkpt lat="44.15519" lon="4.70014">
        <ele>202.01</ele>
        <time>2016-11-19T11:16:20Z</time>
      </trkpt>
      <trkpt lat="44.15513" lon="4.70031">
        <ele>202.49</ele>
        <time>2016-11-19T11:16:30Z</time>
      </trkpt>
      <trkpt lat="44.15513" lon="4.70045">
        <ele>203.46</ele>
        <time>2016-11-19T11:16:37Z</time>
      </trkpt>
      <trkpt lat="44.1551" lon="4.70057">
        <ele>203.46</ele>
        <time>2016-11-19T11:16:41Z</time>
      </trkpt>
      <trkpt lat="44.15502" lon="4.70068">
        <ele>203.94</ele>
        <time>2016-11-19T11:16:48Z</time>
      </trkpt>
      <trkpt lat="44.15501" lon="4.70085">
        <ele>203.94</ele>
        <time>2016-11-19T11:16:56Z</time>
      </trkpt>
      <trkpt lat="44.15506" lon="4.70124">
        <ele>202.49</ele>
        <time>2016-11-19T11:17:05Z</time>
      </trkpt>
      <trkpt lat="44.15523" lon="4.70151">
        <ele>201.53</ele>
        <time>2016-11-19T11:17:14Z</time>
      </trkpt>
      <trkpt lat="44.15521" lon="4.70162">
        <ele>201.53</ele>
        <time>2016-11-19T11:17:25Z</time>
      </trkpt>
      <trkpt lat="44.15521" lon="4.70162">
        <ele>201.53</ele>
        <time>2016-11-19T11:17:38Z</time>
      </trkpt>
      <trkpt lat="44.15521" lon="4.70162">
        <ele>201.53</ele>
        <time>2016-11-19T11:17:44Z</time>
      </trkpt>
      <trkpt lat="44.15524" lon="4.70179">
        <ele>201.53</ele>
        <time>2016-11-19T11:17:50Z</time>
      </trkpt>
      <trkpt lat="44.15524" lon="4.70183">
        <ele>201.53</ele>
        <time>2016-11-19T11:17:51Z</time>
      </trkpt>
      <trkpt lat="44.15524" lon="4.70186">
        <ele>201.53</ele>
        <time>2016-11-19T11:17:52Z</time>
      </trkpt>
      <trkpt lat="44.15525" lon="4.70189">
        <ele>201.53</ele>
        <time>2016-11-19T11:17:53Z</time>
      </trkpt>
      <trkpt lat="44.15526" lon="4.70192">
        <ele>201.53</ele>
        <time>2016-11-19T11:17:54Z</time>
      </trkpt>
      <trkpt lat="44.15526" lon="4.70195">
        <ele>201.53</ele>
        <time>2016-11-19T11:17:55Z</time>
      </trkpt>
      <trkpt lat="44.15525" lon="4.70198">
        <ele>201.53</ele>
        <time>2016-11-19T11:17:56Z</time>
      </trkpt>
      <trkpt lat="44.15524" lon="4.702">
        <ele>201.53</ele>
        <time>2016-11-19T11:17:57Z</time>
      </trkpt>
      <trkpt lat="44.15523" lon="4.70203">
        <ele>201.53</ele>
        <time>2016-11-19T11:17:58Z</time>
      </trkpt>
      <trkpt lat="44.15523" lon="4.70206">
        <ele>201.53</ele>
        <time>2016-11-19T11:17:59Z</time>
      </trkpt>
      <trkpt lat="44.15523" lon="4.70209">
        <ele>201.53</ele>
        <time>2016-11-19T11:18:00Z</time>
      </trkpt>
      <trkpt lat="44.15524" lon="4.70213">
        <ele>201.53</ele>
        <time>2016-11-19T11:18:01Z</time>
      </trkpt>
      <trkpt lat="44.15529" lon="4.70232">
        <ele>201.53</ele>
        <time>2016-11-19T11:18:06Z</time>
      </trkpt>
      <trkpt lat="44.15529" lon="4.70234">
        <ele>200.57</ele>
        <time>2016-11-19T11:18:07Z</time>
      </trkpt>
      <trkpt lat="44.15529" lon="4.70236">
        <ele>200.57</ele>
        <time>2016-11-19T11:18:08Z</time>
      </trkpt>
      <trkpt lat="44.1553" lon="4.7024">
        <ele>200.57</ele>
        <time>2016-11-19T11:18:09Z</time>
      </trkpt>
      <trkpt lat="44.15531" lon="4.70243">
        <ele>200.09</ele>
        <time>2016-11-19T11:18:10Z</time>
      </trkpt>
      <trkpt lat="44.15532" lon="4.70245">
        <ele>200.09</ele>
        <time>2016-11-19T11:18:11Z</time>
      </trkpt>
      <trkpt lat="44.15534" lon="4.70246">
        <ele>200.09</ele>
        <time>2016-11-19T11:18:12Z</time>
      </trkpt>
      <trkpt lat="44.15536" lon="4.70248">
        <ele>200.09</ele>
        <time>2016-11-19T11:18:13Z</time>
      </trkpt>
      <trkpt lat="44.15538" lon="4.7025">
        <ele>200.09</ele>
        <time>2016-11-19T11:18:14Z</time>
      </trkpt>
      <trkpt lat="44.15539" lon="4.70254">
        <ele>199.61</ele>
        <time>2016-11-19T11:18:15Z</time>
      </trkpt>
      <trkpt lat="44.15541" lon="4.70257">
        <ele>199.61</ele>
        <time>2016-11-19T11:18:16Z</time>
      </trkpt>
      <trkpt lat="44.1554" lon="4.70259">
        <ele>199.61</ele>
        <time>2016-11-19T11:18:17Z</time>
      </trkpt>
      <trkpt lat="44.15538" lon="4.70266">
        <ele>198.65</ele>
        <time>2016-11-19T11:18:27Z</time>
      </trkpt>
      <trkpt lat="44.15538" lon="4.70267">
        <ele>198.65</ele>
        <time>2016-11-19T11:18:28Z</time>
      </trkpt>
      <trkpt lat="44.15539" lon="4.70269">
        <ele>198.65</ele>
        <time>2016-11-19T11:18:29Z</time>
      </trkpt>
      <trkpt lat="44.15539" lon="4.70272">
        <ele>198.17</ele>
        <time>2016-11-19T11:18:39Z</time>
      </trkpt>
      <trkpt lat="44.15538" lon="4.70277">
        <ele>195.28</ele>
        <time>2016-11-19T11:18:49Z</time>
      </trkpt>
      <trkpt lat="44.15537" lon="4.70278">
        <ele>195.28</ele>
        <time>2016-11-19T11:18:50Z</time>
      </trkpt>
      <trkpt lat="44.15536" lon="4.70281">
        <ele>194.32</ele>
        <time>2016-11-19T11:18:57Z</time>
      </trkpt>
      <trkpt lat="44.15534" lon="4.70283">
        <ele>193.84</ele>
        <time>2016-11-19T11:18:58Z</time>
      </trkpt>
      <trkpt lat="44.15534" lon="4.70285">
        <ele>193.36</ele>
        <time>2016-11-19T11:18:59Z</time>
      </trkpt>
      <trkpt lat="44.15533" lon="4.70289">
        <ele>192.88</ele>
        <time>2016-11-19T11:19:01Z</time>
      </trkpt>
      <trkpt lat="44.15534" lon="4.7029">
        <ele>192.4</ele>
        <time>2016-11-19T11:19:02Z</time>
      </trkpt>
      <trkpt lat="44.1554" lon="4.70293">
        <ele>193.84</ele>
        <time>2016-11-19T11:19:11Z</time>
      </trkpt>
      <trkpt lat="44.15541" lon="4.70293">
        <ele>193.84</ele>
        <time>2016-11-19T11:19:12Z</time>
      </trkpt>
      <trkpt lat="44.1556" lon="4.703">
        <ele>196.25</ele>
        <time>2016-11-19T11:19:23Z</time>
      </trkpt>
      <trkpt lat="44.15561" lon="4.70301">
        <ele>196.73</ele>
        <time>2016-11-19T11:19:24Z</time>
      </trkpt>
      <trkpt lat="44.15563" lon="4.70303">
        <ele>196.73</ele>
        <time>2016-11-19T11:19:25Z</time>
      </trkpt>
      <trkpt lat="44.15565" lon="4.70304">
        <ele>196.73</ele>
        <time>2016-11-19T11:19:26Z</time>
      </trkpt>
      <trkpt lat="44.15566" lon="4.70305">
        <ele>197.21</ele>
        <time>2016-11-19T11:19:27Z</time>
      </trkpt>
      <trkpt lat="44.15568" lon="4.70305">
        <ele>197.21</ele>
        <time>2016-11-19T11:19:28Z</time>
      </trkpt>
      <trkpt lat="44.15569" lon="4.70306">
        <ele>197.21</ele>
        <time>2016-11-19T11:19:29Z</time>
      </trkpt>
      <trkpt lat="44.15571" lon="4.70308">
        <ele>197.69</ele>
        <time>2016-11-19T11:19:30Z</time>
      </trkpt>
      <trkpt lat="44.15572" lon="4.70309">
        <ele>197.69</ele>
        <time>2016-11-19T11:19:31Z</time>
      </trkpt>
      <trkpt lat="44.15574" lon="4.70309">
        <ele>198.17</ele>
        <time>2016-11-19T11:19:32Z</time>
      </trkpt>
      <trkpt lat="44.15575" lon="4.70309">
        <ele>198.17</ele>
        <time>2016-11-19T11:19:33Z</time>
      </trkpt>
      <trkpt lat="44.15576" lon="4.7031">
        <ele>198.65</ele>
        <time>2016-11-19T11:19:34Z</time>
      </trkpt>
      <trkpt lat="44.15577" lon="4.70312">
        <ele>198.65</ele>
        <time>2016-11-19T11:19:35Z</time>
      </trkpt>
      <trkpt lat="44.15585" lon="4.70317">
        <ele>200.09</ele>
        <time>2016-11-19T11:19:41Z</time>
      </trkpt>
      <trkpt lat="44.15589" lon="4.70318">
        <ele>201.05</ele>
        <time>2016-11-19T11:19:44Z</time>
      </trkpt>
      <trkpt lat="44.15607" lon="4.7032">
        <ele>204.42</ele>
        <time>2016-11-19T11:19:54Z</time>
      </trkpt>
      <trkpt lat="44.15611" lon="4.7032">
        <ele>205.38</ele>
        <time>2016-11-19T11:19:56Z</time>
      </trkpt>
      <trkpt lat="44.1562" lon="4.70321">
        <ele>207.3</ele>
        <time>2016-11-19T11:20:01Z</time>
      </trkpt>
      <trkpt lat="44.15637" lon="4.70325">
        <ele>209.7</ele>
        <time>2016-11-19T11:20:09Z</time>
      </trkpt>
      <trkpt lat="44.15649" lon="4.70332">
        <ele>210.67</ele>
        <time>2016-11-19T11:20:14Z</time>
      </trkpt>
      <trkpt lat="44.1565" lon="4.70334">
        <ele>210.67</ele>
        <time>2016-11-19T11:20:15Z</time>
      </trkpt>
      <trkpt lat="44.1565" lon="4.70336">
        <ele>211.15</ele>
        <time>2016-11-19T11:20:16Z</time>
      </trkpt>
      <trkpt lat="44.1565" lon="4.70339">
        <ele>210.67</ele>
        <time>2016-11-19T11:20:17Z</time>
      </trkpt>
      <trkpt lat="44.15649" lon="4.70342">
        <ele>210.67</ele>
        <time>2016-11-19T11:20:18Z</time>
      </trkpt>
      <trkpt lat="44.15622" lon="4.70399">
        <ele>212.11</ele>
        <time>2016-11-19T11:20:31Z</time>
      </trkpt>
      <trkpt lat="44.15601" lon="4.70444">
        <ele>214.99</ele>
        <time>2016-11-19T11:20:41Z</time>
      </trkpt>
      <trkpt lat="44.15569" lon="4.70461">
        <ele>218.36</ele>
        <time>2016-11-19T11:20:51Z</time>
      </trkpt>
      <trkpt lat="44.15502" lon="4.70496">
        <ele>221.24</ele>
        <time>2016-11-19T11:21:10Z</time>
      </trkpt>
      <trkpt lat="44.15474" lon="4.7051">
        <ele>223.16</ele>
        <time>2016-11-19T11:21:18Z</time>
      </trkpt>
      <trkpt lat="44.15435" lon="4.70536">
        <ele>225.57</ele>
        <time>2016-11-19T11:21:30Z</time>
      </trkpt>
      <trkpt lat="44.15426" lon="4.70547">
        <ele>225.57</ele>
        <time>2016-11-19T11:21:33Z</time>
      </trkpt>
      <trkpt lat="44.15415" lon="4.70554">
        <ele>224.12</ele>
        <time>2016-11-19T11:21:36Z</time>
      </trkpt>
      <trkpt lat="44.1539" lon="4.70562">
        <ele>220.76</ele>
        <time>2016-11-19T11:21:41Z</time>
      </trkpt>
      <trkpt lat="44.15385" lon="4.70564">
        <ele>219.32</ele>
        <time>2016-11-19T11:21:42Z</time>
      </trkpt>
      <trkpt lat="44.15381" lon="4.70566">
        <ele>218.84</ele>
        <time>2016-11-19T11:21:43Z</time>
      </trkpt>
      <trkpt lat="44.15378" lon="4.70571">
        <ele>218.84</ele>
        <time>2016-11-19T11:21:44Z</time>
      </trkpt>
      <trkpt lat="44.15377" lon="4.70575">
        <ele>218.84</ele>
        <time>2016-11-19T11:21:45Z</time>
      </trkpt>
      <trkpt lat="44.15378" lon="4.7058">
        <ele>218.84</ele>
        <time>2016-11-19T11:21:46Z</time>
      </trkpt>
      <trkpt lat="44.1538" lon="4.70584">
        <ele>218.84</ele>
        <time>2016-11-19T11:21:47Z</time>
      </trkpt>
      <trkpt lat="44.15382" lon="4.70588">
        <ele>218.36</ele>
        <time>2016-11-19T11:21:48Z</time>
      </trkpt>
      <trkpt lat="44.15385" lon="4.70592">
        <ele>217.88</ele>
        <time>2016-11-19T11:21:49Z</time>
      </trkpt>
      <trkpt lat="44.15389" lon="4.70595">
        <ele>217.88</ele>
        <time>2016-11-19T11:21:50Z</time>
      </trkpt>
      <trkpt lat="44.15393" lon="4.70596">
        <ele>217.4</ele>
        <time>2016-11-19T11:21:51Z</time>
      </trkpt>
      <trkpt lat="44.15397" lon="4.70597">
        <ele>217.4</ele>
        <time>2016-11-19T11:21:52Z</time>
      </trkpt>
      <trkpt lat="44.15401" lon="4.70599">
        <ele>217.4</ele>
        <time>2016-11-19T11:21:53Z</time>
      </trkpt>
      <trkpt lat="44.1542" lon="4.70613">
        <ele>216.91</ele>
        <time>2016-11-19T11:22:02Z</time>
      </trkpt>
      <trkpt lat="44.15422" lon="4.70614">
        <ele>215.95</ele>
        <time>2016-11-19T11:22:03Z</time>
      </trkpt>
      <trkpt lat="44.15425" lon="4.70615">
        <ele>215.47</ele>
        <time>2016-11-19T11:22:04Z</time>
      </trkpt>
      <trkpt lat="44.1543" lon="4.70616">
        <ele>214.51</ele>
        <time>2016-11-19T11:22:07Z</time>
      </trkpt>
      <trkpt lat="44.15431" lon="4.70618">
        <ele>214.03</ele>
        <time>2016-11-19T11:22:08Z</time>
      </trkpt>
      <trkpt lat="44.15432" lon="4.70622">
        <ele>213.07</ele>
        <time>2016-11-19T11:22:10Z</time>
      </trkpt>
      <trkpt lat="44.15434" lon="4.70626">
        <ele>212.11</ele>
        <time>2016-11-19T11:22:12Z</time>
      </trkpt>
      <trkpt lat="44.15439" lon="4.70642">
        <ele>209.7</ele>
        <time>2016-11-19T11:22:18Z</time>
      </trkpt>
      <trkpt lat="44.15454" lon="4.70645">
        <ele>207.3</ele>
        <time>2016-11-19T11:22:25Z</time>
      </trkpt>
      <trkpt lat="44.15458" lon="4.70652">
        <ele>206.34</ele>
        <time>2016-11-19T11:22:27Z</time>
      </trkpt>
      <trkpt lat="44.15473" lon="4.70667">
        <ele>203.46</ele>
        <time>2016-11-19T11:22:33Z</time>
      </trkpt>
      <trkpt lat="44.15486" lon="4.70675">
        <ele>199.61</ele>
        <time>2016-11-19T11:22:40Z</time>
      </trkpt>
      <trkpt lat="44.15492" lon="4.70681">
        <ele>196.25</ele>
        <time>2016-11-19T11:22:44Z</time>
      </trkpt>
      <trkpt lat="44.15494" lon="4.70681">
        <ele>195.28</ele>
        <time>2016-11-19T11:22:45Z</time>
      </trkpt>
      <trkpt lat="44.15511" lon="4.70665">
        <ele>191.44</ele>
        <time>2016-11-19T11:22:53Z</time>
      </trkpt>
      <trkpt lat="44.15514" lon="4.70662">
        <ele>190.96</ele>
        <time>2016-11-19T11:22:54Z</time>
      </trkpt>
      <trkpt lat="44.15519" lon="4.7065">
        <ele>192.88</ele>
        <time>2016-11-19T11:23:05Z</time>
      </trkpt>
      <trkpt lat="44.15522" lon="4.70645">
        <ele>192.88</ele>
        <time>2016-11-19T11:23:09Z</time>
      </trkpt>
      <trkpt lat="44.15524" lon="4.7064">
        <ele>193.36</ele>
        <time>2016-11-19T11:23:12Z</time>
      </trkpt>
      <trkpt lat="44.15528" lon="4.70631">
        <ele>193.36</ele>
        <time>2016-11-19T11:23:16Z</time>
      </trkpt>
      <trkpt lat="44.1553" lon="4.70626">
        <ele>193.36</ele>
        <time>2016-11-19T11:23:18Z</time>
      </trkpt>
      <trkpt lat="44.15535" lon="4.70605">
        <ele>195.77</ele>
        <time>2016-11-19T11:23:27Z</time>
      </trkpt>
      <trkpt lat="44.15537" lon="4.70599">
        <ele>196.25</ele>
        <time>2016-11-19T11:23:31Z</time>
      </trkpt>
      <trkpt lat="44.15539" lon="4.70591">
        <ele>197.69</ele>
        <time>2016-11-19T11:23:35Z</time>
      </trkpt>
      <trkpt lat="44.15551" lon="4.70577">
        <ele>198.17</ele>
        <time>2016-11-19T11:23:44Z</time>
      </trkpt>
      <trkpt lat="44.15562" lon="4.70568">
        <ele>199.13</ele>
        <time>2016-11-19T11:23:52Z</time>
      </trkpt>
      <trkpt lat="44.15587" lon="4.70558">
        <ele>199.61</ele>
        <time>2016-11-19T11:24:04Z</time>
      </trkpt>
      <trkpt lat="44.15589" lon="4.70558">
        <ele>199.61</ele>
        <time>2016-11-19T11:24:05Z</time>
      </trkpt>
      <trkpt lat="44.15593" lon="4.70558">
        <ele>199.61</ele>
        <time>2016-11-19T11:24:07Z</time>
      </trkpt>
      <trkpt lat="44.15597" lon="4.70557">
        <ele>199.61</ele>
        <time>2016-11-19T11:24:09Z</time>
      </trkpt>
      <trkpt lat="44.15608" lon="4.70554">
        <ele>200.57</ele>
        <time>2016-11-19T11:24:18Z</time>
      </trkpt>
      <trkpt lat="44.15616" lon="4.70554">
        <ele>200.57</ele>
        <time>2016-11-19T11:24:24Z</time>
      </trkpt>
      <trkpt lat="44.15621" lon="4.70558">
        <ele>198.65</ele>
        <time>2016-11-19T11:24:27Z</time>
      </trkpt>
      <trkpt lat="44.15626" lon="4.70558">
        <ele>197.69</ele>
        <time>2016-11-19T11:24:31Z</time>
      </trkpt>
      <trkpt lat="44.15639" lon="4.70554">
        <ele>201.05</ele>
        <time>2016-11-19T11:24:39Z</time>
      </trkpt>
      <trkpt lat="44.15643" lon="4.70552">
        <ele>202.01</ele>
        <time>2016-11-19T11:24:42Z</time>
      </trkpt>
      <trkpt lat="44.15646" lon="4.70554">
        <ele>202.01</ele>
        <time>2016-11-19T11:24:45Z</time>
      </trkpt>
      <trkpt lat="44.15658" lon="4.70554">
        <ele>202.01</ele>
        <time>2016-11-19T11:24:54Z</time>
      </trkpt>
      <trkpt lat="44.15664" lon="4.70554">
        <ele>203.46</ele>
        <time>2016-11-19T11:25:07Z</time>
      </trkpt>
      <trkpt lat="44.15668" lon="4.70556">
        <ele>203.46</ele>
        <time>2016-11-19T11:25:13Z</time>
      </trkpt>
      <trkpt lat="44.15677" lon="4.70557">
        <ele>203.46</ele>
        <time>2016-11-19T11:25:20Z</time>
      </trkpt>
      <trkpt lat="44.1569" lon="4.70555">
        <ele>204.9</ele>
        <time>2016-11-19T11:25:31Z</time>
      </trkpt>
      <trkpt lat="44.15695" lon="4.70557">
        <ele>204.9</ele>
        <time>2016-11-19T11:25:34Z</time>
      </trkpt>
      <trkpt lat="44.15701" lon="4.70561">
        <ele>203.94</ele>
        <time>2016-11-19T11:25:37Z</time>
      </trkpt>
      <trkpt lat="44.15702" lon="4.70562">
        <ele>203.94</ele>
        <time>2016-11-19T11:25:38Z</time>
      </trkpt>
      <trkpt lat="44.15709" lon="4.70566">
        <ele>202.49</ele>
        <time>2016-11-19T11:25:48Z</time>
      </trkpt>
      <trkpt lat="44.15708" lon="4.70566">
        <ele>202.49</ele>
        <time>2016-11-19T11:26:19Z</time>
      </trkpt>
      <trkpt lat="44.15712" lon="4.70569">
        <ele>201.53</ele>
        <time>2016-11-19T11:26:29Z</time>
      </trkpt>
      <trkpt lat="44.15713" lon="4.70572">
        <ele>201.53</ele>
        <time>2016-11-19T11:26:30Z</time>
      </trkpt>
      <trkpt lat="44.15715" lon="4.70575">
        <ele>201.05</ele>
        <time>2016-11-19T11:26:31Z</time>
      </trkpt>
      <trkpt lat="44.15729" lon="4.70583">
        <ele>199.13</ele>
        <time>2016-11-19T11:26:36Z</time>
      </trkpt>
      <trkpt lat="44.15744" lon="4.7059">
        <ele>196.25</ele>
        <time>2016-11-19T11:26:41Z</time>
      </trkpt>
      <trkpt lat="44.1576" lon="4.70594">
        <ele>192.88</ele>
        <time>2016-11-19T11:26:46Z</time>
      </trkpt>
      <trkpt lat="44.15772" lon="4.70598">
        <ele>189.04</ele>
        <time>2016-11-19T11:26:50Z</time>
      </trkpt>
      <trkpt lat="44.1579" lon="4.70602">
        <ele>185.19</ele>
        <time>2016-11-19T11:26:55Z</time>
      </trkpt>
      <trkpt lat="44.15793" lon="4.70604">
        <ele>184.23</ele>
        <time>2016-11-19T11:26:56Z</time>
      </trkpt>
      <trkpt lat="44.1581" lon="4.70611">
        <ele>180.38</ele>
        <time>2016-11-19T11:27:00Z</time>
      </trkpt>
      <trkpt lat="44.15823" lon="4.70618">
        <ele>177.02</ele>
        <time>2016-11-19T11:27:04Z</time>
      </trkpt>
      <trkpt lat="44.1583" lon="4.70622">
        <ele>176.06</ele>
        <time>2016-11-19T11:27:06Z</time>
      </trkpt>
      <trkpt lat="44.15833" lon="4.70624">
        <ele>175.58</ele>
        <time>2016-11-19T11:27:07Z</time>
      </trkpt>
      <trkpt lat="44.15836" lon="4.70626">
        <ele>174.14</ele>
        <time>2016-11-19T11:27:08Z</time>
      </trkpt>
      <trkpt lat="44.15849" lon="4.70629">
        <ele>170.77</ele>
        <time>2016-11-19T11:27:12Z</time>
      </trkpt>
      <trkpt lat="44.1586" lon="4.70634">
        <ele>166.93</ele>
        <time>2016-11-19T11:27:15Z</time>
      </trkpt>
      <trkpt lat="44.15876" lon="4.70639">
        <ele>163.56</ele>
        <time>2016-11-19T11:27:18Z</time>
      </trkpt>
      <trkpt lat="44.15886" lon="4.70641">
        <ele>161.64</ele>
        <time>2016-11-19T11:27:20Z</time>
      </trkpt>
      <trkpt lat="44.15891" lon="4.70642">
        <ele>160.68</ele>
        <time>2016-11-19T11:27:21Z</time>
      </trkpt>
      <trkpt lat="44.1591" lon="4.70644">
        <ele>158.75</ele>
        <time>2016-11-19T11:27:25Z</time>
      </trkpt>
      <trkpt lat="44.15913" lon="4.70645">
        <ele>158.75</ele>
        <time>2016-11-19T11:27:26Z</time>
      </trkpt>
      <trkpt lat="44.15915" lon="4.70646">
        <ele>157.79</ele>
        <time>2016-11-19T11:27:27Z</time>
      </trkpt>
      <trkpt lat="44.15918" lon="4.70646">
        <ele>157.79</ele>
        <time>2016-11-19T11:27:28Z</time>
      </trkpt>
      <trkpt lat="44.15921" lon="4.70645">
        <ele>157.79</ele>
        <time>2016-11-19T11:27:29Z</time>
      </trkpt>
      <trkpt lat="44.15925" lon="4.70645">
        <ele>156.83</ele>
        <time>2016-11-19T11:27:30Z</time>
      </trkpt>
      <trkpt lat="44.15945" lon="4.70642">
        <ele>153.95</ele>
        <time>2016-11-19T11:27:37Z</time>
      </trkpt>
      <trkpt lat="44.15959" lon="4.7064">
        <ele>152.99</ele>
        <time>2016-11-19T11:27:41Z</time>
      </trkpt>
      <trkpt lat="44.15961" lon="4.70641">
        <ele>152.03</ele>
        <time>2016-11-19T11:27:42Z</time>
      </trkpt>
      <trkpt lat="44.15965" lon="4.7064">
        <ele>152.03</ele>
        <time>2016-11-19T11:27:43Z</time>
      </trkpt>
      <trkpt lat="44.15985" lon="4.7064">
        <ele>149.62</ele>
        <time>2016-11-19T11:27:49Z</time>
      </trkpt>
      <trkpt lat="44.16001" lon="4.70642">
        <ele>145.78</ele>
        <time>2016-11-19T11:27:54Z</time>
      </trkpt>
      <trkpt lat="44.16013" lon="4.70642">
        <ele>142.89</ele>
        <time>2016-11-19T11:27:57Z</time>
      </trkpt>
      <trkpt lat="44.16029" lon="4.70644">
        <ele>139.53</ele>
        <time>2016-11-19T11:28:01Z</time>
      </trkpt>
      <trkpt lat="44.16043" lon="4.70644">
        <ele>136.64</ele>
        <time>2016-11-19T11:28:05Z</time>
      </trkpt>
      <trkpt lat="44.16049" lon="4.70645">
        <ele>136.16</ele>
        <time>2016-11-19T11:28:06Z</time>
      </trkpt>
      <trkpt lat="44.16069" lon="4.70644">
        <ele>132.32</ele>
        <time>2016-11-19T11:28:10Z</time>
      </trkpt>
      <trkpt lat="44.16087" lon="4.70645">
        <ele>128.95</ele>
        <time>2016-11-19T11:28:14Z</time>
      </trkpt>
      <trkpt lat="44.16095" lon="4.70646">
        <ele>127.03</ele>
        <time>2016-11-19T11:28:16Z</time>
      </trkpt>
      <trkpt lat="44.161" lon="4.70647">
        <ele>126.07</ele>
        <time>2016-11-19T11:28:17Z</time>
      </trkpt>
      <trkpt lat="44.16105" lon="4.70647">
        <ele>125.11</ele>
        <time>2016-11-19T11:28:18Z</time>
      </trkpt>
      <trkpt lat="44.1611" lon="4.70647">
        <ele>124.15</ele>
        <time>2016-11-19T11:28:19Z</time>
      </trkpt>
      <trkpt lat="44.16114" lon="4.70648">
        <ele>122.71</ele>
        <time>2016-11-19T11:28:20Z</time>
      </trkpt>
      <trkpt lat="44.16127" lon="4.7065">
        <ele>119.34</ele>
        <time>2016-11-19T11:28:23Z</time>
      </trkpt>
      <trkpt lat="44.1614" lon="4.70652">
        <ele>115.5</ele>
        <time>2016-11-19T11:28:26Z</time>
      </trkpt>
      <trkpt lat="44.16155" lon="4.70652">
        <ele>111.65</ele>
        <time>2016-11-19T11:28:29Z</time>
      </trkpt>
      <trkpt lat="44.16168" lon="4.70652">
        <ele>107.81</ele>
        <time>2016-11-19T11:28:32Z</time>
      </trkpt>
      <trkpt lat="44.16172" lon="4.70652">
        <ele>106.84</ele>
        <time>2016-11-19T11:28:33Z</time>
      </trkpt>
      <trkpt lat="44.16177" lon="4.70653">
        <ele>105.4</ele>
        <time>2016-11-19T11:28:34Z</time>
      </trkpt>
      <trkpt lat="44.16197" lon="4.70655">
        <ele>101.56</ele>
        <time>2016-11-19T11:28:38Z</time>
      </trkpt>
      <trkpt lat="44.16201" lon="4.70655">
        <ele>101.56</ele>
        <time>2016-11-19T11:28:39Z</time>
      </trkpt>
      <trkpt lat="44.16213" lon="4.70657">
        <ele>98.67</ele>
        <time>2016-11-19T11:28:43Z</time>
      </trkpt>
      <trkpt lat="44.16212" lon="4.70667">
        <ele>99.63</ele>
        <time>2016-11-19T11:28:55Z</time>
      </trkpt>
      <trkpt lat="44.16213" lon="4.70668">
        <ele>99.63</ele>
        <time>2016-11-19T11:29:26Z</time>
      </trkpt>
      <trkpt lat="44.16212" lon="4.7067">
        <ele>99.63</ele>
        <time>2016-11-19T11:29:29Z</time>
      </trkpt>
      <trkpt lat="44.16211" lon="4.70672">
        <ele>99.63</ele>
        <time>2016-11-19T11:29:30Z</time>
      </trkpt>
      <trkpt lat="44.1621" lon="4.70675">
        <ele>99.63</ele>
        <time>2016-11-19T11:29:31Z</time>
      </trkpt>
      <trkpt lat="44.16209" lon="4.70677">
        <ele>99.63</ele>
        <time>2016-11-19T11:29:32Z</time>
      </trkpt>
      <trkpt lat="44.16207" lon="4.7068">
        <ele>99.63</ele>
        <time>2016-11-19T11:29:33Z</time>
      </trkpt>
      <trkpt lat="44.16205" lon="4.70685">
        <ele>99.63</ele>
        <time>2016-11-19T11:29:34Z</time>
      </trkpt>
      <trkpt lat="44.16175" lon="4.70725">
        <ele>99.63</ele>
        <time>2016-11-19T11:29:46Z</time>
      </trkpt>
      <trkpt lat="44.16137" lon="4.70761">
        <ele>99.63</ele>
        <time>2016-11-19T11:29:58Z</time>
      </trkpt>
      <trkpt lat="44.16103" lon="4.70775">
        <ele>100.6</ele>
        <time>2016-11-19T11:30:07Z</time>
      </trkpt>
      <trkpt lat="44.16061" lon="4.70831">
        <ele>100.6</ele>
        <time>2016-11-19T11:30:19Z</time>
      </trkpt>
      <trkpt lat="44.16057" lon="4.70835">
        <ele>100.6</ele>
        <time>2016-11-19T11:30:20Z</time>
      </trkpt>
      <trkpt lat="44.16025" lon="4.7084">
        <ele>103.48</ele>
        <time>2016-11-19T11:30:29Z</time>
      </trkpt>
      <trkpt lat="44.15971" lon="4.70848">
        <ele>103.96</ele>
        <time>2016-11-19T11:30:42Z</time>
      </trkpt>
      <trkpt lat="44.15962" lon="4.70852">
        <ele>103.96</ele>
        <time>2016-11-19T11:30:44Z</time>
      </trkpt>
      <trkpt lat="44.15957" lon="4.70855">
        <ele>103.96</ele>
        <time>2016-11-19T11:30:45Z</time>
      </trkpt>
      <trkpt lat="44.15946" lon="4.70863">
        <ele>103.96</ele>
        <time>2016-11-19T11:30:48Z</time>
      </trkpt>
      <trkpt lat="44.15943" lon="4.70866">
        <ele>103.96</ele>
        <time>2016-11-19T11:30:49Z</time>
      </trkpt>
      <trkpt lat="44.15939" lon="4.7087">
        <ele>103.96</ele>
        <time>2016-11-19T11:30:50Z</time>
      </trkpt>
      <trkpt lat="44.15936" lon="4.70873">
        <ele>104.44</ele>
        <time>2016-11-19T11:30:51Z</time>
      </trkpt>
      <trkpt lat="44.15931" lon="4.70876">
        <ele>104.44</ele>
        <time>2016-11-19T11:30:52Z</time>
      </trkpt>
      <trkpt lat="44.15927" lon="4.70879">
        <ele>104.44</ele>
        <time>2016-11-19T11:30:53Z</time>
      </trkpt>
      <trkpt lat="44.15922" lon="4.7088">
        <ele>104.44</ele>
        <time>2016-11-19T11:30:54Z</time>
      </trkpt>
      <trkpt lat="44.15917" lon="4.70879">
        <ele>104.44</ele>
        <time>2016-11-19T11:30:55Z</time>
      </trkpt>
      <trkpt lat="44.15911" lon="4.70877">
        <ele>103.48</ele>
        <time>2016-11-19T11:30:56Z</time>
      </trkpt>
      <trkpt lat="44.15906" lon="4.70874">
        <ele>103.48</ele>
        <time>2016-11-19T11:30:57Z</time>
      </trkpt>
      <trkpt lat="44.15902" lon="4.7087">
        <ele>103</ele>
        <time>2016-11-19T11:30:58Z</time>
      </trkpt>
      <trkpt lat="44.15897" lon="4.70866">
        <ele>103</ele>
        <time>2016-11-19T11:30:59Z</time>
      </trkpt>
      <trkpt lat="44.15891" lon="4.70863">
        <ele>102.04</ele>
        <time>2016-11-19T11:31:00Z</time>
      </trkpt>
      <trkpt lat="44.15885" lon="4.70863">
        <ele>102.04</ele>
        <time>2016-11-19T11:31:01Z</time>
      </trkpt>
      <trkpt lat="44.1588" lon="4.70866">
        <ele>101.08</ele>
        <time>2016-11-19T11:31:02Z</time>
      </trkpt>
      <trkpt lat="44.15875" lon="4.70872">
        <ele>101.08</ele>
        <time>2016-11-19T11:31:03Z</time>
      </trkpt>
      <trkpt lat="44.15871" lon="4.70878">
        <ele>101.08</ele>
        <time>2016-11-19T11:31:04Z</time>
      </trkpt>
      <trkpt lat="44.15842" lon="4.70922">
        <ele>100.6</ele>
        <time>2016-11-19T11:31:11Z</time>
      </trkpt>
      <trkpt lat="44.15838" lon="4.70927">
        <ele>100.6</ele>
        <time>2016-11-19T11:31:12Z</time>
      </trkpt>
      <trkpt lat="44.15833" lon="4.7093">
        <ele>100.6</ele>
        <time>2016-11-19T11:31:13Z</time>
      </trkpt>
      <trkpt lat="44.15827" lon="4.70932">
        <ele>100.6</ele>
        <time>2016-11-19T11:31:14Z</time>
      </trkpt>
      <trkpt lat="44.15822" lon="4.70932">
        <ele>100.6</ele>
        <time>2016-11-19T11:31:15Z</time>
      </trkpt>
      <trkpt lat="44.15816" lon="4.70931">
        <ele>100.11</ele>
        <time>2016-11-19T11:31:16Z</time>
      </trkpt>
      <trkpt lat="44.15811" lon="4.7093">
        <ele>100.11</ele>
        <time>2016-11-19T11:31:17Z</time>
      </trkpt>
      <trkpt lat="44.15729" lon="4.70884">
        <ele>99.63</ele>
        <time>2016-11-19T11:31:32Z</time>
      </trkpt>
      <trkpt lat="44.15653" lon="4.70832">
        <ele>99.63</ele>
        <time>2016-11-19T11:31:47Z</time>
      </trkpt>
      <trkpt lat="44.15648" lon="4.70828">
        <ele>99.63</ele>
        <time>2016-11-19T11:31:48Z</time>
      </trkpt>
      <trkpt lat="44.15645" lon="4.70823">
        <ele>101.08</ele>
        <time>2016-11-19T11:31:49Z</time>
      </trkpt>
      <trkpt lat="44.15641" lon="4.70817">
        <ele>101.08</ele>
        <time>2016-11-19T11:31:50Z</time>
      </trkpt>
      <trkpt lat="44.15634" lon="4.70806">
        <ele>101.08</ele>
        <time>2016-11-19T11:31:52Z</time>
      </trkpt>
      <trkpt lat="44.1563" lon="4.70804">
        <ele>101.08</ele>
        <time>2016-11-19T11:31:53Z</time>
      </trkpt>
      <trkpt lat="44.15624" lon="4.70804">
        <ele>101.08</ele>
        <time>2016-11-19T11:31:54Z</time>
      </trkpt>
      <trkpt lat="44.1562" lon="4.70808">
        <ele>101.08</ele>
        <time>2016-11-19T11:31:55Z</time>
      </trkpt>
      <trkpt lat="44.15615" lon="4.70812">
        <ele>101.08</ele>
        <time>2016-11-19T11:31:56Z</time>
      </trkpt>
      <trkpt lat="44.15535" lon="4.70874">
        <ele>99.63</ele>
        <time>2016-11-19T11:32:11Z</time>
      </trkpt>
      <trkpt lat="44.15479" lon="4.70892">
        <ele>99.63</ele>
        <time>2016-11-19T11:32:20Z</time>
      </trkpt>
      <trkpt lat="44.15383" lon="4.7089">
        <ele>98.19</ele>
        <time>2016-11-19T11:32:34Z</time>
      </trkpt>
      <trkpt lat="44.15355" lon="4.70885">
        <ele>97.71</ele>
        <time>2016-11-19T11:32:38Z</time>
      </trkpt>
      <trkpt lat="44.1534" lon="4.70883">
        <ele>99.63</ele>
        <time>2016-11-19T11:32:41Z</time>
      </trkpt>
      <trkpt lat="44.15324" lon="4.70878">
        <ele>100.6</ele>
        <time>2016-11-19T11:32:45Z</time>
      </trkpt>
      <trkpt lat="44.15312" lon="4.70871">
        <ele>101.56</ele>
        <time>2016-11-19T11:32:48Z</time>
      </trkpt>
      <trkpt lat="44.15269" lon="4.70857">
        <ele>103.48</ele>
        <time>2016-11-19T11:33:00Z</time>
      </trkpt>
      <trkpt lat="44.15231" lon="4.70835">
        <ele>105.4</ele>
        <time>2016-11-19T11:33:13Z</time>
      </trkpt>
      <trkpt lat="44.152" lon="4.70797">
        <ele>108.29</ele>
        <time>2016-11-19T11:33:29Z</time>
      </trkpt>
      <trkpt lat="44.15161" lon="4.70775">
        <ele>110.21</ele>
        <time>2016-11-19T11:33:45Z</time>
      </trkpt>
      <trkpt lat="44.15133" lon="4.70758">
        <ele>113.09</ele>
        <time>2016-11-19T11:33:58Z</time>
      </trkpt>
      <trkpt lat="44.1511" lon="4.70745">
        <ele>114.53</ele>
        <time>2016-11-19T11:34:08Z</time>
      </trkpt>
      <trkpt lat="44.15108" lon="4.70744">
        <ele>114.53</ele>
        <time>2016-11-19T11:34:09Z</time>
      </trkpt>
      <trkpt lat="44.15106" lon="4.70743">
        <ele>114.53</ele>
        <time>2016-11-19T11:34:10Z</time>
      </trkpt>
      <trkpt lat="44.15093" lon="4.70731">
        <ele>114.05</ele>
        <time>2016-11-19T11:34:17Z</time>
      </trkpt>
      <trkpt lat="44.15092" lon="4.70728">
        <ele>114.05</ele>
        <time>2016-11-19T11:34:29Z</time>
      </trkpt>
      <trkpt lat="44.15092" lon="4.70727">
        <ele>114.05</ele>
        <time>2016-11-19T11:34:30Z</time>
      </trkpt>
      <trkpt lat="44.15093" lon="4.70726">
        <ele>114.05</ele>
        <time>2016-11-19T11:34:31Z</time>
      </trkpt>
      <trkpt lat="44.15094" lon="4.70725">
        <ele>114.05</ele>
        <time>2016-11-19T11:34:32Z</time>
      </trkpt>
      <trkpt lat="44.151" lon="4.7072">
        <ele>114.53</ele>
        <time>2016-11-19T11:34:35Z</time>
      </trkpt>
      <trkpt lat="44.15102" lon="4.7072">
        <ele>115.5</ele>
        <time>2016-11-19T11:34:36Z</time>
      </trkpt>
      <trkpt lat="44.15104" lon="4.7072">
        <ele>115.5</ele>
        <time>2016-11-19T11:34:37Z</time>
      </trkpt>
      <trkpt lat="44.15107" lon="4.7072">
        <ele>115.5</ele>
        <time>2016-11-19T11:34:38Z</time>
      </trkpt>
      <trkpt lat="44.15109" lon="4.7072">
        <ele>115.98</ele>
        <time>2016-11-19T11:34:39Z</time>
      </trkpt>
      <trkpt lat="44.15111" lon="4.70721">
        <ele>115.98</ele>
        <time>2016-11-19T11:34:40Z</time>
      </trkpt>
      <trkpt lat="44.15114" lon="4.70723">
        <ele>115.98</ele>
        <time>2016-11-19T11:34:41Z</time>
      </trkpt>
      <trkpt lat="44.15117" lon="4.70724">
        <ele>115.98</ele>
        <time>2016-11-19T11:34:42Z</time>
      </trkpt>
      <trkpt lat="44.1512" lon="4.70725">
        <ele>115.98</ele>
        <time>2016-11-19T11:34:43Z</time>
      </trkpt>
      <trkpt lat="44.15122" lon="4.70724">
        <ele>116.46</ele>
        <time>2016-11-19T11:34:44Z</time>
      </trkpt>
      <trkpt lat="44.15124" lon="4.70722">
        <ele>116.46</ele>
        <time>2016-11-19T11:34:45Z</time>
      </trkpt>
      <trkpt lat="44.15127" lon="4.7072">
        <ele>116.46</ele>
        <time>2016-11-19T11:34:46Z</time>
      </trkpt>
      <trkpt lat="44.15141" lon="4.70698">
        <ele>119.82</ele>
        <time>2016-11-19T11:34:56Z</time>
      </trkpt>
      <trkpt lat="44.15165" lon="4.70658">
        <ele>122.71</ele>
        <time>2016-11-19T11:35:12Z</time>
      </trkpt>
      <trkpt lat="44.1517" lon="4.70656">
        <ele>123.19</ele>
        <time>2016-11-19T11:35:15Z</time>
      </trkpt>
      <trkpt lat="44.15172" lon="4.70656">
        <ele>123.19</ele>
        <time>2016-11-19T11:35:16Z</time>
      </trkpt>
      <trkpt lat="44.15174" lon="4.70656">
        <ele>124.15</ele>
        <time>2016-11-19T11:35:17Z</time>
      </trkpt>
      <trkpt lat="44.15193" lon="4.70664">
        <ele>127.03</ele>
        <time>2016-11-19T11:35:29Z</time>
      </trkpt>
      <trkpt lat="44.15207" lon="4.70653">
        <ele>130.4</ele>
        <time>2016-11-19T11:35:40Z</time>
      </trkpt>
      <trkpt lat="44.15214" lon="4.70628">
        <ele>130.88</ele>
        <time>2016-11-19T11:35:51Z</time>
      </trkpt>
      <trkpt lat="44.15213" lon="4.70622">
        <ele>130.88</ele>
        <time>2016-11-19T11:35:53Z</time>
      </trkpt>
      <trkpt lat="44.15225" lon="4.70602">
        <ele>133.28</ele>
        <time>2016-11-19T11:36:04Z</time>
      </trkpt>
      <trkpt lat="44.15226" lon="4.70597">
        <ele>133.28</ele>
        <time>2016-11-19T11:36:06Z</time>
      </trkpt>
      <trkpt lat="44.15225" lon="4.70583">
        <ele>133.28</ele>
        <time>2016-11-19T11:36:09Z</time>
      </trkpt>
      <trkpt lat="44.15227" lon="4.70577">
        <ele>131.84</ele>
        <time>2016-11-19T11:36:11Z</time>
      </trkpt>
      <trkpt lat="44.15228" lon="4.70576">
        <ele>131.84</ele>
        <time>2016-11-19T11:36:12Z</time>
      </trkpt>
      <trkpt lat="44.15232" lon="4.70569">
        <ele>132.8</ele>
        <time>2016-11-19T11:36:15Z</time>
      </trkpt>
      <trkpt lat="44.15233" lon="4.70567">
        <ele>132.8</ele>
        <time>2016-11-19T11:36:16Z</time>
      </trkpt>
      <trkpt lat="44.15235" lon="4.70563">
        <ele>133.76</ele>
        <time>2016-11-19T11:36:18Z</time>
      </trkpt>
      <trkpt lat="44.15239" lon="4.70537">
        <ele>133.76</ele>
        <time>2016-11-19T11:36:25Z</time>
      </trkpt>
      <trkpt lat="44.1524" lon="4.70532">
        <ele>133.76</ele>
        <time>2016-11-19T11:36:26Z</time>
      </trkpt>
      <trkpt lat="44.15246" lon="4.70498">
        <ele>132.32</ele>
        <time>2016-11-19T11:36:35Z</time>
      </trkpt>
      <trkpt lat="44.1525" lon="4.70482">
        <ele>131.36</ele>
        <time>2016-11-19T11:36:39Z</time>
      </trkpt>
      <trkpt lat="44.15256" lon="4.70468">
        <ele>131.84</ele>
        <time>2016-11-19T11:36:44Z</time>
      </trkpt>
      <trkpt lat="44.15258" lon="4.70462">
        <ele>131.84</ele>
        <time>2016-11-19T11:36:47Z</time>
      </trkpt>
      <trkpt lat="44.15262" lon="4.70436">
        <ele>129.43</ele>
        <time>2016-11-19T11:36:55Z</time>
      </trkpt>
      <trkpt lat="44.15275" lon="4.70423">
        <ele>130.88</ele>
        <time>2016-11-19T11:37:02Z</time>
      </trkpt>
      <trkpt lat="44.15289" lon="4.70408">
        <ele>134.72</ele>
        <time>2016-11-19T11:37:12Z</time>
      </trkpt>
      <trkpt lat="44.15296" lon="4.70394">
        <ele>136.16</ele>
        <time>2016-11-19T11:37:18Z</time>
      </trkpt>
      <trkpt lat="44.15311" lon="4.70368">
        <ele>137.61</ele>
        <time>2016-11-19T11:37:30Z</time>
      </trkpt>
      <trkpt lat="44.15316" lon="4.70358">
        <ele>137.61</ele>
        <time>2016-11-19T11:37:34Z</time>
      </trkpt>
      <trkpt lat="44.15318" lon="4.70356">
        <ele>137.61</ele>
        <time>2016-11-19T11:37:35Z</time>
      </trkpt>
      <trkpt lat="44.15319" lon="4.70354">
        <ele>138.09</ele>
        <time>2016-11-19T11:37:36Z</time>
      </trkpt>
      <trkpt lat="44.15337" lon="4.70338">
        <ele>140.49</ele>
        <time>2016-11-19T11:37:46Z</time>
      </trkpt>
      <trkpt lat="44.15351" lon="4.70333">
        <ele>143.85</ele>
        <time>2016-11-19T11:37:53Z</time>
      </trkpt>
      <trkpt lat="44.15367" lon="4.70324">
        <ele>146.74</ele>
        <time>2016-11-19T11:38:02Z</time>
      </trkpt>
      <trkpt lat="44.15379" lon="4.70319">
        <ele>148.18</ele>
        <time>2016-11-19T11:38:08Z</time>
      </trkpt>
      <trkpt lat="44.15381" lon="4.70318">
        <ele>148.18</ele>
        <time>2016-11-19T11:38:09Z</time>
      </trkpt>
      <trkpt lat="44.15383" lon="4.70316">
        <ele>148.18</ele>
        <time>2016-11-19T11:38:10Z</time>
      </trkpt>
      <trkpt lat="44.15394" lon="4.70308">
        <ele>149.14</ele>
        <time>2016-11-19T11:38:15Z</time>
      </trkpt>
      <trkpt lat="44.15401" lon="4.70304">
        <ele>149.14</ele>
        <time>2016-11-19T11:38:18Z</time>
      </trkpt>
      <trkpt lat="44.15403" lon="4.70303">
        <ele>150.1</ele>
        <time>2016-11-19T11:38:19Z</time>
      </trkpt>
      <trkpt lat="44.15405" lon="4.70302">
        <ele>150.1</ele>
        <time>2016-11-19T11:38:20Z</time>
      </trkpt>
      <trkpt lat="44.15408" lon="4.70301">
        <ele>150.1</ele>
        <time>2016-11-19T11:38:21Z</time>
      </trkpt>
      <trkpt lat="44.1541" lon="4.703">
        <ele>151.06</ele>
        <time>2016-11-19T11:38:22Z</time>
      </trkpt>
      <trkpt lat="44.15412" lon="4.70298">
        <ele>150.58</ele>
        <time>2016-11-19T11:38:23Z</time>
      </trkpt>
      <trkpt lat="44.15414" lon="4.70296">
        <ele>150.58</ele>
        <time>2016-11-19T11:38:24Z</time>
      </trkpt>
      <trkpt lat="44.15416" lon="4.70294">
        <ele>150.58</ele>
        <time>2016-11-19T11:38:25Z</time>
      </trkpt>
      <trkpt lat="44.15418" lon="4.70293">
        <ele>150.58</ele>
        <time>2016-11-19T11:38:26Z</time>
      </trkpt>
      <trkpt lat="44.15444" lon="4.70287">
        <ele>153.95</ele>
        <time>2016-11-19T11:38:38Z</time>
      </trkpt>
      <trkpt lat="44.1546" lon="4.70285">
        <ele>156.83</ele>
        <time>2016-11-19T11:38:46Z</time>
      </trkpt>
      <trkpt lat="44.15462" lon="4.70284">
        <ele>156.83</ele>
        <time>2016-11-19T11:38:47Z</time>
      </trkpt>
      <trkpt lat="44.15464" lon="4.70283">
        <ele>157.31</ele>
        <time>2016-11-19T11:38:48Z</time>
      </trkpt>
      <trkpt lat="44.15466" lon="4.70283">
        <ele>157.79</ele>
        <time>2016-11-19T11:38:49Z</time>
      </trkpt>
      <trkpt lat="44.15467" lon="4.70281">
        <ele>157.79</ele>
        <time>2016-11-19T11:38:50Z</time>
      </trkpt>
      <trkpt lat="44.15468" lon="4.70279">
        <ele>158.27</ele>
        <time>2016-11-19T11:38:51Z</time>
      </trkpt>
      <trkpt lat="44.15469" lon="4.70276">
        <ele>158.27</ele>
        <time>2016-11-19T11:38:52Z</time>
      </trkpt>
      <trkpt lat="44.15469" lon="4.70274">
        <ele>158.27</ele>
        <time>2016-11-19T11:38:53Z</time>
      </trkpt>
      <trkpt lat="44.15469" lon="4.70271">
        <ele>158.27</ele>
        <time>2016-11-19T11:38:54Z</time>
      </trkpt>
      <trkpt lat="44.15468" lon="4.70268">
        <ele>159.24</ele>
        <time>2016-11-19T11:38:55Z</time>
      </trkpt>
      <trkpt lat="44.15469" lon="4.70265">
        <ele>159.24</ele>
        <time>2016-11-19T11:38:56Z</time>
      </trkpt>
      <trkpt lat="44.15469" lon="4.70263">
        <ele>159.72</ele>
        <time>2016-11-19T11:38:57Z</time>
      </trkpt>
      <trkpt lat="44.1547" lon="4.70254">
        <ele>161.16</ele>
        <time>2016-11-19T11:39:00Z</time>
      </trkpt>
      <trkpt lat="44.1547" lon="4.70252">
        <ele>161.64</ele>
        <time>2016-11-19T11:39:01Z</time>
      </trkpt>
      <trkpt lat="44.15471" lon="4.70247">
        <ele>162.12</ele>
        <time>2016-11-19T11:39:09Z</time>
      </trkpt>
      <trkpt lat="44.1547" lon="4.70245">
        <ele>162.12</ele>
        <time>2016-11-19T11:39:10Z</time>
      </trkpt>
      <trkpt lat="44.15468" lon="4.70243">
        <ele>162.12</ele>
        <time>2016-11-19T11:39:11Z</time>
      </trkpt>
      <trkpt lat="44.15465" lon="4.70241">
        <ele>159.72</ele>
        <time>2016-11-19T11:39:12Z</time>
      </trkpt>
      <trkpt lat="44.15463" lon="4.70236">
        <ele>158.75</ele>
        <time>2016-11-19T11:39:13Z</time>
      </trkpt>
      <trkpt lat="44.15461" lon="4.70231">
        <ele>157.79</ele>
        <time>2016-11-19T11:39:14Z</time>
      </trkpt>
      <trkpt lat="44.15459" lon="4.70225">
        <ele>156.35</ele>
        <time>2016-11-19T11:39:15Z</time>
      </trkpt>
      <trkpt lat="44.15458" lon="4.70221">
        <ele>155.39</ele>
        <time>2016-11-19T11:39:16Z</time>
      </trkpt>
      <trkpt lat="44.15456" lon="4.70218">
        <ele>154.43</ele>
        <time>2016-11-19T11:39:17Z</time>
      </trkpt>
      <trkpt lat="44.15454" lon="4.70215">
        <ele>153.47</ele>
        <time>2016-11-19T11:39:18Z</time>
      </trkpt>
      <trkpt lat="44.15452" lon="4.70212">
        <ele>152.51</ele>
        <time>2016-11-19T11:39:19Z</time>
      </trkpt>
      <trkpt lat="44.15451" lon="4.70207">
        <ele>151.06</ele>
        <time>2016-11-19T11:39:20Z</time>
      </trkpt>
      <trkpt lat="44.15445" lon="4.70196">
        <ele>147.7</ele>
        <time>2016-11-19T11:39:23Z</time>
      </trkpt>
      <trkpt lat="44.15443" lon="4.70195">
        <ele>146.74</ele>
        <time>2016-11-19T11:39:24Z</time>
      </trkpt>
      <trkpt lat="44.1544" lon="4.70192">
        <ele>145.78</ele>
        <time>2016-11-19T11:39:25Z</time>
      </trkpt>
      <trkpt lat="44.15437" lon="4.70189">
        <ele>144.34</ele>
        <time>2016-11-19T11:39:26Z</time>
      </trkpt>
      <trkpt lat="44.15434" lon="4.70185">
        <ele>143.37</ele>
        <time>2016-11-19T11:39:27Z</time>
      </trkpt>
      <trkpt lat="44.15424" lon="4.70175">
        <ele>140.49</ele>
        <time>2016-11-19T11:39:30Z</time>
      </trkpt>
      <trkpt lat="44.15414" lon="4.70164">
        <ele>137.13</ele>
        <time>2016-11-19T11:39:33Z</time>
      </trkpt>
      <trkpt lat="44.15411" lon="4.70159">
        <ele>136.16</ele>
        <time>2016-11-19T11:39:34Z</time>
      </trkpt>
      <trkpt lat="44.15408" lon="4.70153">
        <ele>136.16</ele>
        <time>2016-11-19T11:39:35Z</time>
      </trkpt>
      <trkpt lat="44.15404" lon="4.70148">
        <ele>134.24</ele>
        <time>2016-11-19T11:39:36Z</time>
      </trkpt>
      <trkpt lat="44.15398" lon="4.70141">
        <ele>132.8</ele>
        <time>2016-11-19T11:39:38Z</time>
      </trkpt>
      <trkpt lat="44.15397" lon="4.70136">
        <ele>132.32</ele>
        <time>2016-11-19T11:39:39Z</time>
      </trkpt>
      <trkpt lat="44.15395" lon="4.70132">
        <ele>131.84</ele>
        <time>2016-11-19T11:39:40Z</time>
      </trkpt>
      <trkpt lat="44.15388" lon="4.70113">
        <ele>128.47</ele>
        <time>2016-11-19T11:39:43Z</time>
      </trkpt>
      <trkpt lat="44.15385" lon="4.70107">
        <ele>127.51</ele>
        <time>2016-11-19T11:39:44Z</time>
      </trkpt>
      <trkpt lat="44.15383" lon="4.701">
        <ele>127.03</ele>
        <time>2016-11-19T11:39:45Z</time>
      </trkpt>
      <trkpt lat="44.15382" lon="4.70092">
        <ele>126.07</ele>
        <time>2016-11-19T11:39:46Z</time>
      </trkpt>
      <trkpt lat="44.15381" lon="4.70083">
        <ele>125.59</ele>
        <time>2016-11-19T11:39:47Z</time>
      </trkpt>
      <trkpt lat="44.15377" lon="4.70056">
        <ele>123.19</ele>
        <time>2016-11-19T11:39:50Z</time>
      </trkpt>
      <trkpt lat="44.15376" lon="4.70047">
        <ele>122.22</ele>
        <time>2016-11-19T11:39:51Z</time>
      </trkpt>
      <trkpt lat="44.15375" lon="4.70037">
        <ele>121.26</ele>
        <time>2016-11-19T11:39:52Z</time>
      </trkpt>
      <trkpt lat="44.15375" lon="4.70027">
        <ele>120.78</ele>
        <time>2016-11-19T11:39:53Z</time>
      </trkpt>
      <trkpt lat="44.15374" lon="4.70018">
        <ele>119.82</ele>
        <time>2016-11-19T11:39:54Z</time>
      </trkpt>
      <trkpt lat="44.15374" lon="4.70009">
        <ele>118.86</ele>
        <time>2016-11-19T11:39:55Z</time>
      </trkpt>
      <trkpt lat="44.15373" lon="4.70001">
        <ele>117.9</ele>
        <time>2016-11-19T11:39:56Z</time>
      </trkpt>
      <trkpt lat="44.15371" lon="4.69994">
        <ele>117.42</ele>
        <time>2016-11-19T11:39:57Z</time>
      </trkpt>
      <trkpt lat="44.15369" lon="4.69986">
        <ele>116.46</ele>
        <time>2016-11-19T11:39:58Z</time>
      </trkpt>
      <trkpt lat="44.15368" lon="4.69979">
        <ele>115.5</ele>
        <time>2016-11-19T11:39:59Z</time>
      </trkpt>
      <trkpt lat="44.15367" lon="4.69972">
        <ele>115.5</ele>
        <time>2016-11-19T11:40:00Z</time>
      </trkpt>
      <trkpt lat="44.15366" lon="4.69966">
        <ele>114.53</ele>
        <time>2016-11-19T11:40:01Z</time>
      </trkpt>
      <trkpt lat="44.15364" lon="4.6996">
        <ele>114.53</ele>
        <time>2016-11-19T11:40:02Z</time>
      </trkpt>
      <trkpt lat="44.15363" lon="4.69954">
        <ele>113.57</ele>
        <time>2016-11-19T11:40:03Z</time>
      </trkpt>
      <trkpt lat="44.15361" lon="4.69947">
        <ele>112.61</ele>
        <time>2016-11-19T11:40:04Z</time>
      </trkpt>
      <trkpt lat="44.1536" lon="4.69939">
        <ele>111.65</ele>
        <time>2016-11-19T11:40:05Z</time>
      </trkpt>
      <trkpt lat="44.15358" lon="4.69931">
        <ele>111.65</ele>
        <time>2016-11-19T11:40:06Z</time>
      </trkpt>
      <trkpt lat="44.15356" lon="4.69924">
        <ele>111.17</ele>
        <time>2016-11-19T11:40:07Z</time>
      </trkpt>
      <trkpt lat="44.15348" lon="4.69909">
        <ele>109.73</ele>
        <time>2016-11-19T11:40:09Z</time>
      </trkpt>
      <trkpt lat="44.15344" lon="4.69902">
        <ele>108.77</ele>
        <time>2016-11-19T11:40:10Z</time>
      </trkpt>
      <trkpt lat="44.15335" lon="4.69875">
        <ele>106.36</ele>
        <time>2016-11-19T11:40:13Z</time>
      </trkpt>
      <trkpt lat="44.15334" lon="4.69865">
        <ele>106.36</ele>
        <time>2016-11-19T11:40:14Z</time>
      </trkpt>
      <trkpt lat="44.15334" lon="4.69855">
        <ele>106.36</ele>
        <time>2016-11-19T11:40:15Z</time>
      </trkpt>
      <trkpt lat="44.15334" lon="4.69814">
        <ele>103.96</ele>
        <time>2016-11-19T11:40:19Z</time>
      </trkpt>
      <trkpt lat="44.15336" lon="4.69804">
        <ele>103.48</ele>
        <time>2016-11-19T11:40:20Z</time>
      </trkpt>
      <trkpt lat="44.15337" lon="4.69794">
        <ele>103</ele>
        <time>2016-11-19T11:40:21Z</time>
      </trkpt>
      <trkpt lat="44.15337" lon="4.69784">
        <ele>103</ele>
        <time>2016-11-19T11:40:22Z</time>
      </trkpt>
      <trkpt lat="44.15337" lon="4.69775">
        <ele>103</ele>
        <time>2016-11-19T11:40:23Z</time>
      </trkpt>
      <trkpt lat="44.15338" lon="4.69767">
        <ele>103</ele>
        <time>2016-11-19T11:40:24Z</time>
      </trkpt>
      <trkpt lat="44.1534" lon="4.6975">
        <ele>102.52</ele>
        <time>2016-11-19T11:40:26Z</time>
      </trkpt>
      <trkpt lat="44.15341" lon="4.6974">
        <ele>102.52</ele>
        <time>2016-11-19T11:40:27Z</time>
      </trkpt>
      <trkpt lat="44.15341" lon="4.69731">
        <ele>101.56</ele>
        <time>2016-11-19T11:40:28Z</time>
      </trkpt>
      <trkpt lat="44.15339" lon="4.69722">
        <ele>101.08</ele>
        <time>2016-11-19T11:40:29Z</time>
      </trkpt>
      <trkpt lat="44.15337" lon="4.69713">
        <ele>100.11</ele>
        <time>2016-11-19T11:40:30Z</time>
      </trkpt>
      <trkpt lat="44.15334" lon="4.69704">
        <ele>98.67</ele>
        <time>2016-11-19T11:40:31Z</time>
      </trkpt>
      <trkpt lat="44.15331" lon="4.69696">
        <ele>98.19</ele>
        <time>2016-11-19T11:40:32Z</time>
      </trkpt>
      <trkpt lat="44.15331" lon="4.69689">
        <ele>97.71</ele>
        <time>2016-11-19T11:40:33Z</time>
      </trkpt>
      <trkpt lat="44.15331" lon="4.69681">
        <ele>97.23</ele>
        <time>2016-11-19T11:40:34Z</time>
      </trkpt>
      <trkpt lat="44.1533" lon="4.69673">
        <ele>96.27</ele>
        <time>2016-11-19T11:40:35Z</time>
      </trkpt>
      <trkpt lat="44.15328" lon="4.69667">
        <ele>94.83</ele>
        <time>2016-11-19T11:40:36Z</time>
      </trkpt>
      <trkpt lat="44.15324" lon="4.69661">
        <ele>93.87</ele>
        <time>2016-11-19T11:40:37Z</time>
      </trkpt>
      <trkpt lat="44.1532" lon="4.69655">
        <ele>92.42</ele>
        <time>2016-11-19T11:40:38Z</time>
      </trkpt>
      <trkpt lat="44.15317" lon="4.69647">
        <ele>91.94</ele>
        <time>2016-11-19T11:40:39Z</time>
      </trkpt>
      <trkpt lat="44.15313" lon="4.69632">
        <ele>90.5</ele>
        <time>2016-11-19T11:40:41Z</time>
      </trkpt>
      <trkpt lat="44.15311" lon="4.69625">
        <ele>89.54</ele>
        <time>2016-11-19T11:40:42Z</time>
      </trkpt>
      <trkpt lat="44.15305" lon="4.69605">
        <ele>86.18</ele>
        <time>2016-11-19T11:40:46Z</time>
      </trkpt>
      <trkpt lat="44.15304" lon="4.696">
        <ele>85.21</ele>
        <time>2016-11-19T11:40:48Z</time>
      </trkpt>
      <trkpt lat="44.15305" lon="4.69598">
        <ele>85.21</ele>
        <time>2016-11-19T11:41:04Z</time>
      </trkpt>
      <trkpt lat="44.15305" lon="4.69596">
        <ele>85.21</ele>
        <time>2016-11-19T11:41:05Z</time>
      </trkpt>
      <trkpt lat="44.15306" lon="4.69594">
        <ele>85.21</ele>
        <time>2016-11-19T11:41:06Z</time>
      </trkpt>
      <trkpt lat="44.15306" lon="4.69592">
        <ele>86.66</ele>
        <time>2016-11-19T11:41:07Z</time>
      </trkpt>
      <trkpt lat="44.15306" lon="4.6959">
        <ele>86.66</ele>
        <time>2016-11-19T11:41:08Z</time>
      </trkpt>
      <trkpt lat="44.15305" lon="4.69588">
        <ele>86.66</ele>
        <time>2016-11-19T11:41:09Z</time>
      </trkpt>
      <trkpt lat="44.15305" lon="4.69584">
        <ele>86.66</ele>
        <time>2016-11-19T11:41:10Z</time>
      </trkpt>
      <trkpt lat="44.15305" lon="4.69579">
        <ele>86.66</ele>
        <time>2016-11-19T11:41:11Z</time>
      </trkpt>
      <trkpt lat="44.15305" lon="4.69574">
        <ele>86.66</ele>
        <time>2016-11-19T11:41:12Z</time>
      </trkpt>
      <trkpt lat="44.15306" lon="4.6957">
        <ele>85.21</ele>
        <time>2016-11-19T11:41:13Z</time>
      </trkpt>
      <trkpt lat="44.15308" lon="4.69566">
        <ele>85.21</ele>
        <time>2016-11-19T11:41:14Z</time>
      </trkpt>
      <trkpt lat="44.15308" lon="4.69564">
        <ele>85.21</ele>
        <time>2016-11-19T11:41:15Z</time>
      </trkpt>
      <trkpt lat="44.15308" lon="4.69561">
        <ele>85.21</ele>
        <time>2016-11-19T11:41:16Z</time>
      </trkpt>
      <trkpt lat="44.15314" lon="4.69542">
        <ele>84.25</ele>
        <time>2016-11-19T11:41:21Z</time>
      </trkpt>
      <trkpt lat="44.15327" lon="4.6952">
        <ele>84.25</ele>
        <time>2016-11-19T11:41:28Z</time>
      </trkpt>
      <trkpt lat="44.15337" lon="4.69507">
        <ele>84.25</ele>
        <time>2016-11-19T11:41:32Z</time>
      </trkpt>
      <trkpt lat="44.15361" lon="4.69495">
        <ele>85.69</ele>
        <time>2016-11-19T11:41:41Z</time>
      </trkpt>
      <trkpt lat="44.15363" lon="4.69494">
        <ele>85.69</ele>
        <time>2016-11-19T11:41:42Z</time>
      </trkpt>
      <trkpt lat="44.15368" lon="4.6949">
        <ele>86.18</ele>
        <time>2016-11-19T11:41:45Z</time>
      </trkpt>
      <trkpt lat="44.15379" lon="4.69471">
        <ele>87.62</ele>
        <time>2016-11-19T11:41:54Z</time>
      </trkpt>
      <trkpt lat="44.15394" lon="4.6945">
        <ele>88.58</ele>
        <time>2016-11-19T11:42:03Z</time>
      </trkpt>
      <trkpt lat="44.15396" lon="4.69434">
        <ele>87.14</ele>
        <time>2016-11-19T11:42:07Z</time>
      </trkpt>
      <trkpt lat="44.15409" lon="4.6941">
        <ele>85.21</ele>
        <time>2016-11-19T11:42:15Z</time>
      </trkpt>
      <trkpt lat="44.15417" lon="4.69397">
        <ele>84.25</ele>
        <time>2016-11-19T11:42:18Z</time>
      </trkpt>
      <trkpt lat="44.15416" lon="4.69388">
        <ele>83.29</ele>
        <time>2016-11-19T11:42:25Z</time>
      </trkpt>
      <trkpt lat="44.15423" lon="4.69377">
        <ele>83.29</ele>
        <time>2016-11-19T11:42:33Z</time>
      </trkpt>
      <trkpt lat="44.15427" lon="4.69379">
        <ele>84.73</ele>
        <time>2016-11-19T11:42:43Z</time>
      </trkpt>
      <trkpt lat="44.15422" lon="4.69386">
        <ele>86.18</ele>
        <time>2016-11-19T11:42:55Z</time>
      </trkpt>
      <trkpt lat="44.15422" lon="4.69388">
        <ele>86.18</ele>
        <time>2016-11-19T11:42:57Z</time>
      </trkpt>
      <trkpt lat="44.15423" lon="4.69388">
        <ele>86.18</ele>
        <time>2016-11-19T11:43:13Z</time>
      </trkpt>
      <trkpt lat="44.15421" lon="4.69391">
        <ele>86.18</ele>
        <time>2016-11-19T11:43:39Z</time>
      </trkpt>
      <trkpt lat="44.15426" lon="4.69395">
        <ele>86.18</ele>
        <time>2016-11-19T11:44:12Z</time>
      </trkpt>
      <trkpt lat="44.15427" lon="4.69396">
        <ele>86.18</ele>
        <time>2016-11-19T11:44:38Z</time>
      </trkpt>
      <trkpt lat="44.15427" lon="4.69396">
        <ele>86.66</ele>
        <time>2016-11-19T11:45:09Z</time>
      </trkpt>
      <trkpt lat="44.15428" lon="4.69398">
        <ele>86.66</ele>
        <time>2016-11-19T11:45:40Z</time>
      </trkpt>
      <trkpt lat="44.15427" lon="4.69397">
        <ele>86.66</ele>
        <time>2016-11-19T11:46:08Z</time>
      </trkpt>
      <trkpt lat="44.1543" lon="4.69398">
        <ele>87.14</ele>
        <time>2016-11-19T11:46:29Z</time>
      </trkpt>
      <trkpt lat="44.1543" lon="4.69397">
        <ele>86.66</ele>
        <time>2016-11-19T11:47:01Z</time>
      </trkpt>
      <trkpt lat="44.15429" lon="4.69397">
        <ele>86.66</ele>
        <time>2016-11-19T11:47:28Z</time>
      </trkpt>
      <trkpt lat="44.15427" lon="4.69394">
        <ele>86.66</ele>
        <time>2016-11-19T11:47:53Z</time>
      </trkpt>
      <trkpt lat="44.15426" lon="4.69393">
        <ele>86.66</ele>
        <time>2016-11-19T11:48:09Z</time>
      </trkpt>
      <trkpt lat="44.15429" lon="4.69396">
        <ele>87.14</ele>
        <time>2016-11-19T11:48:30Z</time>
      </trkpt>
      <trkpt lat="44.1543" lon="4.69397">
        <ele>87.62</ele>
        <time>2016-11-19T11:48:49Z</time>
      </trkpt>
      <trkpt lat="44.15427" lon="4.69398">
        <ele>87.62</ele>
        <time>2016-11-19T11:49:14Z</time>
      </trkpt>
      <trkpt lat="44.15426" lon="4.69397">
        <ele>87.14</ele>
        <time>2016-11-19T11:49:42Z</time>
      </trkpt>
      <trkpt lat="44.15428" lon="4.69396">
        <ele>87.62</ele>
        <time>2016-11-19T11:50:11Z</time>
      </trkpt>
      <trkpt lat="44.15424" lon="4.69392">
        <ele>87.62</ele>
        <time>2016-11-19T11:50:39Z</time>
      </trkpt>
      <trkpt lat="44.15427" lon="4.69396">
        <ele>88.1</ele>
        <time>2016-11-19T11:51:00Z</time>
      </trkpt>
      <trkpt lat="44.15424" lon="4.69393">
        <ele>88.1</ele>
        <time>2016-11-19T11:51:26Z</time>
      </trkpt>
      <trkpt lat="44.15422" lon="4.69393">
        <ele>88.1</ele>
        <time>2016-11-19T11:51:48Z</time>
      </trkpt>
      <trkpt lat="44.15421" lon="4.69391">
        <ele>88.1</ele>
        <time>2016-11-19T11:52:14Z</time>
      </trkpt>
      <trkpt lat="44.15425" lon="4.69394">
        <ele>89.06</ele>
        <time>2016-11-19T11:52:44Z</time>
      </trkpt>
      <trkpt lat="44.15424" lon="4.69394">
        <ele>88.58</ele>
        <time>2016-11-19T11:52:55Z</time>
      </trkpt>
      <trkpt lat="44.1543" lon="4.69375">
        <ele>86.66</ele>
        <time>2016-11-19T11:53:03Z</time>
      </trkpt>
      <trkpt lat="44.15441" lon="4.69359">
        <ele>84.73</ele>
        <time>2016-11-19T11:53:11Z</time>
      </trkpt>
      <trkpt lat="44.15438" lon="4.69348">
        <ele>83.29</ele>
        <time>2016-11-19T11:53:14Z</time>
      </trkpt>
      <trkpt lat="44.1544" lon="4.69336">
        <ele>82.33</ele>
        <time>2016-11-19T11:53:19Z</time>
      </trkpt>
      <trkpt lat="44.15448" lon="4.69331">
        <ele>82.33</ele>
        <time>2016-11-19T11:53:22Z</time>
      </trkpt>
      <trkpt lat="44.15463" lon="4.69325">
        <ele>83.77</ele>
        <time>2016-11-19T11:53:30Z</time>
      </trkpt>
      <trkpt lat="44.15465" lon="4.69324">
        <ele>83.77</ele>
        <time>2016-11-19T11:53:32Z</time>
      </trkpt>
      <trkpt lat="44.15468" lon="4.69323">
        <ele>83.77</ele>
        <time>2016-11-19T11:53:34Z</time>
      </trkpt>
      <trkpt lat="44.15475" lon="4.69312">
        <ele>80.41</ele>
        <time>2016-11-19T11:53:40Z</time>
      </trkpt>
      <trkpt lat="44.15482" lon="4.69286">
        <ele>83.29</ele>
        <time>2016-11-19T11:53:49Z</time>
      </trkpt>
      <trkpt lat="44.15484" lon="4.69278">
        <ele>83.29</ele>
        <time>2016-11-19T11:53:51Z</time>
      </trkpt>
      <trkpt lat="44.15487" lon="4.6926">
        <ele>83.77</ele>
        <time>2016-11-19T11:53:55Z</time>
      </trkpt>
      <trkpt lat="44.15492" lon="4.6924">
        <ele>85.69</ele>
        <time>2016-11-19T11:54:01Z</time>
      </trkpt>
      <trkpt lat="44.15496" lon="4.69235">
        <ele>85.69</ele>
        <time>2016-11-19T11:54:03Z</time>
      </trkpt>
      <trkpt lat="44.15495" lon="4.69216">
        <ele>86.66</ele>
        <time>2016-11-19T11:54:08Z</time>
      </trkpt>
      <trkpt lat="44.15501" lon="4.69195">
        <ele>87.14</ele>
        <time>2016-11-19T11:54:14Z</time>
      </trkpt>
      <trkpt lat="44.15503" lon="4.69173">
        <ele>88.1</ele>
        <time>2016-11-19T11:54:21Z</time>
      </trkpt>
      <trkpt lat="44.15507" lon="4.6914">
        <ele>88.58</ele>
        <time>2016-11-19T11:54:32Z</time>
      </trkpt>
      <trkpt lat="44.15508" lon="4.69133">
        <ele>88.58</ele>
        <time>2016-11-19T11:54:34Z</time>
      </trkpt>
      <trkpt lat="44.15512" lon="4.69105">
        <ele>89.06</ele>
        <time>2016-11-19T11:54:43Z</time>
      </trkpt>
      <trkpt lat="44.15513" lon="4.69065">
        <ele>89.06</ele>
        <time>2016-11-19T11:54:52Z</time>
      </trkpt>
      <trkpt lat="44.15513" lon="4.69051">
        <ele>87.62</ele>
        <time>2016-11-19T11:54:55Z</time>
      </trkpt>
      <trkpt lat="44.15513" lon="4.69038">
        <ele>87.62</ele>
        <time>2016-11-19T11:54:59Z</time>
      </trkpt>
      <trkpt lat="44.15508" lon="4.6902">
        <ele>85.21</ele>
        <time>2016-11-19T11:55:03Z</time>
      </trkpt>
      <trkpt lat="44.15504" lon="4.68991">
        <ele>84.25</ele>
        <time>2016-11-19T11:55:08Z</time>
      </trkpt>
      <trkpt lat="44.155" lon="4.68971">
        <ele>81.37</ele>
        <time>2016-11-19T11:55:12Z</time>
      </trkpt>
      <trkpt lat="44.15497" lon="4.6896">
        <ele>79.93</ele>
        <time>2016-11-19T11:55:16Z</time>
      </trkpt>
      <trkpt lat="44.15496" lon="4.68947">
        <ele>79.93</ele>
        <time>2016-11-19T11:55:19Z</time>
      </trkpt>
      <trkpt lat="44.15483" lon="4.68921">
        <ele>76.56</ele>
        <time>2016-11-19T11:55:27Z</time>
      </trkpt>
      <trkpt lat="44.15483" lon="4.68919">
        <ele>76.56</ele>
        <time>2016-11-19T11:55:28Z</time>
      </trkpt>
      <trkpt lat="44.15479" lon="4.68905">
        <ele>73.68</ele>
        <time>2016-11-19T11:55:32Z</time>
      </trkpt>
      <trkpt lat="44.15475" lon="4.68887">
        <ele>74.16</ele>
        <time>2016-11-19T11:55:40Z</time>
      </trkpt>
      <trkpt lat="44.15476" lon="4.68889">
        <ele>74.16</ele>
        <time>2016-11-19T11:55:52Z</time>
      </trkpt>
      <trkpt lat="44.15476" lon="4.68889">
        <ele>74.16</ele>
        <time>2016-11-19T11:55:58Z</time>
      </trkpt>
      <trkpt lat="44.15475" lon="4.68876">
        <ele>74.16</ele>
        <time>2016-11-19T11:56:04Z</time>
      </trkpt>
      <trkpt lat="44.15473" lon="4.68863">
        <ele>74.16</ele>
        <time>2016-11-19T11:56:07Z</time>
      </trkpt>
      <trkpt lat="44.1547" lon="4.68851">
        <ele>73.68</ele>
        <time>2016-11-19T11:56:09Z</time>
      </trkpt>
      <trkpt lat="44.15478" lon="4.6881">
        <ele>73.68</ele>
        <time>2016-11-19T11:56:17Z</time>
      </trkpt>
      <trkpt lat="44.15474" lon="4.68783">
        <ele>72.72</ele>
        <time>2016-11-19T11:56:26Z</time>
      </trkpt>
      <trkpt lat="44.1548" lon="4.68765">
        <ele>72.72</ele>
        <time>2016-11-19T11:56:32Z</time>
      </trkpt>
      <trkpt lat="44.15483" lon="4.68753">
        <ele>74.16</ele>
        <time>2016-11-19T11:56:35Z</time>
      </trkpt>
      <trkpt lat="44.15492" lon="4.68735">
        <ele>75.6</ele>
        <time>2016-11-19T11:56:41Z</time>
      </trkpt>
      <trkpt lat="44.15494" lon="4.68731">
        <ele>76.08</ele>
        <time>2016-11-19T11:56:43Z</time>
      </trkpt>
      <trkpt lat="44.15494" lon="4.6871">
        <ele>76.56</ele>
        <time>2016-11-19T11:56:50Z</time>
      </trkpt>
      <trkpt lat="44.15492" lon="4.68704">
        <ele>76.56</ele>
        <time>2016-11-19T11:56:52Z</time>
      </trkpt>
      <trkpt lat="44.15491" lon="4.68687">
        <ele>76.56</ele>
        <time>2016-11-19T11:56:58Z</time>
      </trkpt>
      <trkpt lat="44.15487" lon="4.68678">
        <ele>76.56</ele>
        <time>2016-11-19T11:57:03Z</time>
      </trkpt>
      <trkpt lat="44.15484" lon="4.68679">
        <ele>75.6</ele>
        <time>2016-11-19T11:57:05Z</time>
      </trkpt>
      <trkpt lat="44.1548" lon="4.68678">
        <ele>74.64</ele>
        <time>2016-11-19T11:57:07Z</time>
      </trkpt>
      <trkpt lat="44.15477" lon="4.68677">
        <ele>73.68</ele>
        <time>2016-11-19T11:57:08Z</time>
      </trkpt>
      <trkpt lat="44.15474" lon="4.68676">
        <ele>73.68</ele>
        <time>2016-11-19T11:57:09Z</time>
      </trkpt>
      <trkpt lat="44.15455" lon="4.68674">
        <ele>70.79</ele>
        <time>2016-11-19T11:57:14Z</time>
      </trkpt>
      <trkpt lat="44.1543" lon="4.68669">
        <ele>67.43</ele>
        <time>2016-11-19T11:57:22Z</time>
      </trkpt>
      <trkpt lat="44.154" lon="4.68666">
        <ele>64.07</ele>
        <time>2016-11-19T11:57:31Z</time>
      </trkpt>
      <trkpt lat="44.15371" lon="4.68659">
        <ele>61.18</ele>
        <time>2016-11-19T11:57:39Z</time>
      </trkpt>
      <trkpt lat="44.15352" lon="4.68653">
        <ele>59.26</ele>
        <time>2016-11-19T11:57:44Z</time>
      </trkpt>
      <trkpt lat="44.15335" lon="4.68644">
        <ele>56.86</ele>
        <time>2016-11-19T11:57:48Z</time>
      </trkpt>
      <trkpt lat="44.15331" lon="4.68642">
        <ele>56.86</ele>
        <time>2016-11-19T11:57:49Z</time>
      </trkpt>
      <trkpt lat="44.15309" lon="4.68629">
        <ele>54.45</ele>
        <time>2016-11-19T11:57:54Z</time>
      </trkpt>
      <trkpt lat="44.15285" lon="4.68617">
        <ele>53.49</ele>
        <time>2016-11-19T11:57:59Z</time>
      </trkpt>
      <trkpt lat="44.1528" lon="4.68615">
        <ele>53.01</ele>
        <time>2016-11-19T11:58:00Z</time>
      </trkpt>
      <trkpt lat="44.15275" lon="4.68613">
        <ele>53.01</ele>
        <time>2016-11-19T11:58:01Z</time>
      </trkpt>
      <trkpt lat="44.15254" lon="4.68606">
        <ele>52.05</ele>
        <time>2016-11-19T11:58:05Z</time>
      </trkpt>
      <trkpt lat="44.15249" lon="4.68605">
        <ele>51.57</ele>
        <time>2016-11-19T11:58:06Z</time>
      </trkpt>
      <trkpt lat="44.15224" lon="4.68597">
        <ele>50.61</ele>
        <time>2016-11-19T11:58:11Z</time>
      </trkpt>
      <trkpt lat="44.1515" lon="4.68568">
        <ele>48.68</ele>
        <time>2016-11-19T11:58:27Z</time>
      </trkpt>
      <trkpt lat="44.15127" lon="4.68552">
        <ele>47.72</ele>
        <time>2016-11-19T11:58:36Z</time>
      </trkpt>
      <trkpt lat="44.15079" lon="4.68515">
        <ele>46.76</ele>
        <time>2016-11-19T11:58:51Z</time>
      </trkpt>
      <trkpt lat="44.15048" lon="4.68488">
        <ele>45.8</ele>
        <time>2016-11-19T11:59:01Z</time>
      </trkpt>
      <trkpt lat="44.15045" lon="4.68484">
        <ele>45.8</ele>
        <time>2016-11-19T11:59:02Z</time>
      </trkpt>
      <trkpt lat="44.15042" lon="4.6848">
        <ele>45.8</ele>
        <time>2016-11-19T11:59:03Z</time>
      </trkpt>
      <trkpt lat="44.14998" lon="4.68434">
        <ele>44.84</ele>
        <time>2016-11-19T11:59:19Z</time>
      </trkpt>
      <trkpt lat="44.14978" lon="4.68417">
        <ele>44.36</ele>
        <time>2016-11-19T11:59:31Z</time>
      </trkpt>
      <trkpt lat="44.14975" lon="4.68416">
        <ele>44.36</ele>
        <time>2016-11-19T11:59:35Z</time>
      </trkpt>
      <trkpt lat="44.14974" lon="4.68417">
        <ele>44.36</ele>
        <time>2016-11-19T11:59:36Z</time>
      </trkpt>
      <trkpt lat="44.14972" lon="4.68418">
        <ele>44.36</ele>
        <time>2016-11-19T11:59:37Z</time>
      </trkpt>
      <trkpt lat="44.14971" lon="4.68419">
        <ele>44.36</ele>
        <time>2016-11-19T11:59:38Z</time>
      </trkpt>
      <trkpt lat="44.14969" lon="4.6842">
        <ele>44.36</ele>
        <time>2016-11-19T11:59:39Z</time>
      </trkpt>
      <trkpt lat="44.14968" lon="4.68422">
        <ele>44.36</ele>
        <time>2016-11-19T11:59:40Z</time>
      </trkpt>
      <trkpt lat="44.14969" lon="4.68424">
        <ele>44.36</ele>
        <time>2016-11-19T11:59:41Z</time>
      </trkpt>
      <trkpt lat="44.1497" lon="4.68423">
        <ele>44.36</ele>
        <time>2016-11-19T11:59:42Z</time>
      </trkpt>
      <trkpt lat="44.1497" lon="4.68421">
        <ele>44.36</ele>
        <time>2016-11-19T11:59:43Z</time>
      </trkpt>
      <trkpt lat="44.14971" lon="4.68418">
        <ele>44.36</ele>
        <time>2016-11-19T11:59:44Z</time>
      </trkpt>
      <trkpt lat="44.14971" lon="4.68416">
        <ele>44.36</ele>
        <time>2016-11-19T11:59:45Z</time>
      </trkpt>
      <trkpt lat="44.1497" lon="4.68413">
        <ele>44.36</ele>
        <time>2016-11-19T11:59:46Z</time>
      </trkpt>
      <trkpt lat="44.14955" lon="4.68393">
        <ele>44.36</ele>
        <time>2016-11-19T11:59:56Z</time>
      </trkpt>
      <trkpt lat="44.14943" lon="4.68373">
        <ele>44.36</ele>
        <time>2016-11-19T12:00:05Z</time>
      </trkpt>
      <trkpt lat="44.14943" lon="4.68371">
        <ele>44.36</ele>
        <time>2016-11-19T12:00:06Z</time>
      </trkpt>
      <trkpt lat="44.14941" lon="4.68369">
        <ele>44.36</ele>
        <time>2016-11-19T12:00:08Z</time>
      </trkpt>
      <trkpt lat="44.14938" lon="4.68366">
        <ele>44.36</ele>
        <time>2016-11-19T12:00:11Z</time>
      </trkpt>
      <trkpt lat="44.14937" lon="4.68364">
        <ele>44.36</ele>
        <time>2016-11-19T12:00:12Z</time>
      </trkpt>
      <trkpt lat="44.14937" lon="4.68361">
        <ele>44.36</ele>
        <time>2016-11-19T12:00:13Z</time>
      </trkpt>
      <trkpt lat="44.14937" lon="4.68358">
        <ele>44.36</ele>
        <time>2016-11-19T12:00:14Z</time>
      </trkpt>
      <trkpt lat="44.14937" lon="4.68355">
        <ele>45.8</ele>
        <time>2016-11-19T12:00:15Z</time>
      </trkpt>
      <trkpt lat="44.14929" lon="4.68329">
        <ele>46.28</ele>
        <time>2016-11-19T12:00:25Z</time>
      </trkpt>
      <trkpt lat="44.14908" lon="4.68328">
        <ele>46.28</ele>
        <time>2016-11-19T12:00:33Z</time>
      </trkpt>
      <trkpt lat="44.14879" lon="4.68328">
        <ele>44.84</ele>
        <time>2016-11-19T12:00:42Z</time>
      </trkpt>
      <trkpt lat="44.14878" lon="4.68324">
        <ele>44.84</ele>
        <time>2016-11-19T12:00:43Z</time>
      </trkpt>
      <trkpt lat="44.14878" lon="4.68321">
        <ele>44.84</ele>
        <time>2016-11-19T12:00:44Z</time>
      </trkpt>
      <trkpt lat="44.14878" lon="4.68317">
        <ele>44.84</ele>
        <time>2016-11-19T12:00:45Z</time>
      </trkpt>
      <trkpt lat="44.14877" lon="4.68314">
        <ele>44.84</ele>
        <time>2016-11-19T12:00:46Z</time>
      </trkpt>
      <trkpt lat="44.14877" lon="4.68311">
        <ele>44.84</ele>
        <time>2016-11-19T12:00:47Z</time>
      </trkpt>
      <trkpt lat="44.14876" lon="4.68308">
        <ele>44.84</ele>
        <time>2016-11-19T12:00:48Z</time>
      </trkpt>
      <trkpt lat="44.14873" lon="4.68305">
        <ele>44.84</ele>
        <time>2016-11-19T12:00:49Z</time>
      </trkpt>
      <trkpt lat="44.1487" lon="4.68304">
        <ele>44.36</ele>
        <time>2016-11-19T12:00:50Z</time>
      </trkpt>
      <trkpt lat="44.14867" lon="4.68302">
        <ele>44.36</ele>
        <time>2016-11-19T12:00:51Z</time>
      </trkpt>
      <trkpt lat="44.14863" lon="4.68302">
        <ele>43.4</ele>
        <time>2016-11-19T12:00:52Z</time>
      </trkpt>
      <trkpt lat="44.14854" lon="4.68295">
        <ele>42.92</ele>
        <time>2016-11-19T12:01:00Z</time>
      </trkpt>
      <trkpt lat="44.1484" lon="4.68269">
        <ele>41.95</ele>
        <time>2016-11-19T12:01:10Z</time>
      </trkpt>
      <trkpt lat="44.14805" lon="4.68255">
        <ele>41.95</ele>
        <time>2016-11-19T12:01:22Z</time>
      </trkpt>
      <trkpt lat="44.14782" lon="4.68245">
        <ele>41.95</ele>
        <time>2016-11-19T12:01:32Z</time>
      </trkpt>
      <trkpt lat="44.14781" lon="4.68243">
        <ele>41.95</ele>
        <time>2016-11-19T12:01:33Z</time>
      </trkpt>
      <trkpt lat="44.14781" lon="4.68239">
        <ele>41.95</ele>
        <time>2016-11-19T12:01:34Z</time>
      </trkpt>
      <trkpt lat="44.14781" lon="4.68184">
        <ele>41.95</ele>
        <time>2016-11-19T12:01:48Z</time>
      </trkpt>
      <trkpt lat="44.14783" lon="4.68131">
        <ele>41.95</ele>
        <time>2016-11-19T12:02:01Z</time>
      </trkpt>
      <trkpt lat="44.14785" lon="4.68067">
        <ele>41.95</ele>
        <time>2016-11-19T12:02:15Z</time>
      </trkpt>
      <trkpt lat="44.14797" lon="4.67994">
        <ele>41.47</ele>
        <time>2016-11-19T12:02:31Z</time>
      </trkpt>
      <trkpt lat="44.14814" lon="4.67935">
        <ele>43.4</ele>
        <time>2016-11-19T12:02:46Z</time>
      </trkpt>
      <trkpt lat="44.14801" lon="4.67907">
        <ele>45.32</ele>
        <time>2016-11-19T12:02:57Z</time>
      </trkpt>
      <trkpt lat="44.14757" lon="4.67893">
        <ele>46.28</ele>
        <time>2016-11-19T12:03:12Z</time>
      </trkpt>
      <trkpt lat="44.14712" lon="4.67876">
        <ele>46.76</ele>
        <time>2016-11-19T12:03:27Z</time>
      </trkpt>
      <trkpt lat="44.14669" lon="4.67854">
        <ele>46.76</ele>
        <time>2016-11-19T12:03:42Z</time>
      </trkpt>
      <trkpt lat="44.14667" lon="4.67848">
        <ele>46.76</ele>
        <time>2016-11-19T12:03:44Z</time>
      </trkpt>
      <trkpt lat="44.14667" lon="4.67843">
        <ele>46.76</ele>
        <time>2016-11-19T12:03:45Z</time>
      </trkpt>
      <trkpt lat="44.14668" lon="4.67839">
        <ele>46.76</ele>
        <time>2016-11-19T12:03:46Z</time>
      </trkpt>
      <trkpt lat="44.14686" lon="4.67759">
        <ele>44.84</ele>
        <time>2016-11-19T12:04:04Z</time>
      </trkpt>
      <trkpt lat="44.14696" lon="4.67711">
        <ele>44.84</ele>
        <time>2016-11-19T12:04:19Z</time>
      </trkpt>
      <trkpt lat="44.1471" lon="4.67638">
        <ele>44.36</ele>
        <time>2016-11-19T12:04:37Z</time>
      </trkpt>
      <trkpt lat="44.14723" lon="4.67577">
        <ele>44.36</ele>
        <time>2016-11-19T12:04:54Z</time>
      </trkpt>
      <trkpt lat="44.14735" lon="4.67522">
        <ele>44.36</ele>
        <time>2016-11-19T12:05:07Z</time>
      </trkpt>
      <trkpt lat="44.14745" lon="4.67471">
        <ele>44.36</ele>
        <time>2016-11-19T12:05:22Z</time>
      </trkpt>
      <trkpt lat="44.14756" lon="4.67417">
        <ele>44.36</ele>
        <time>2016-11-19T12:05:36Z</time>
      </trkpt>
      <trkpt lat="44.14761" lon="4.67361">
        <ele>45.8</ele>
        <time>2016-11-19T12:05:50Z</time>
      </trkpt>
      <trkpt lat="44.14747" lon="4.673">
        <ele>46.76</ele>
        <time>2016-11-19T12:06:06Z</time>
      </trkpt>
      <trkpt lat="44.14738" lon="4.67262">
        <ele>46.76</ele>
        <time>2016-11-19T12:06:16Z</time>
      </trkpt>
      <trkpt lat="44.14739" lon="4.67259">
        <ele>46.76</ele>
        <time>2016-11-19T12:06:17Z</time>
      </trkpt>
      <trkpt lat="44.14752" lon="4.67253">
        <ele>46.76</ele>
        <time>2016-11-19T12:06:23Z</time>
      </trkpt>
      <trkpt lat="44.14775" lon="4.67249">
        <ele>46.76</ele>
        <time>2016-11-19T12:06:33Z</time>
      </trkpt>
      <trkpt lat="44.1478" lon="4.67245">
        <ele>46.76</ele>
        <time>2016-11-19T12:06:42Z</time>
      </trkpt>
      <trkpt lat="44.1478" lon="4.67245">
        <ele>46.76</ele>
        <time>2016-11-19T12:07:05Z</time>
      </trkpt>
      <trkpt lat="44.14781" lon="4.67246">
        <ele>46.76</ele>
        <time>2016-11-19T12:07:29Z</time>
      </trkpt>
      <trkpt lat="44.14782" lon="4.67245">
        <ele>46.76</ele>
        <time>2016-11-19T12:07:32Z</time>
      </trkpt>
      <trkpt lat="44.14783" lon="4.67249">
        <ele>46.76</ele>
        <time>2016-11-19T12:07:46Z</time>
      </trkpt>
      <trkpt lat="44.14781" lon="4.67252">
        <ele>46.76</ele>
        <time>2016-11-19T12:07:59Z</time>
      </trkpt>
      <trkpt lat="44.14781" lon="4.67253">
        <ele>45.32</ele>
        <time>2016-11-19T12:08:14Z</time>
      </trkpt>
      <trkpt lat="44.1478" lon="4.67255">
        <ele>45.32</ele>
        <time>2016-11-19T12:09:00Z</time>
      </trkpt>
      <trkpt lat="44.1478" lon="4.67255">
        <ele>44.84</ele>
        <time>2016-11-19T12:09:30Z</time>
      </trkpt>
      <trkpt lat="44.14781" lon="4.67254">
        <ele>44.84</ele>
        <time>2016-11-19T12:09:55Z</time>
      </trkpt>
      <trkpt lat="44.14782" lon="4.67254">
        <ele>44.84</ele>
        <time>2016-11-19T12:10:26Z</time>
      </trkpt>
      <trkpt lat="44.14783" lon="4.67255">
        <ele>44.36</ele>
        <time>2016-11-19T12:11:01Z</time>
      </trkpt>
      <trkpt lat="44.14782" lon="4.67257">
        <ele>44.36</ele>
        <time>2016-11-19T12:11:34Z</time>
      </trkpt>
      <trkpt lat="44.14781" lon="4.67257">
        <ele>44.36</ele>
        <time>2016-11-19T12:12:05Z</time>
      </trkpt>
      <trkpt lat="44.14782" lon="4.67253">
        <ele>44.36</ele>
        <time>2016-11-19T12:12:38Z</time>
      </trkpt>
      <trkpt lat="44.14782" lon="4.67254">
        <ele>43.88</ele>
        <time>2016-11-19T12:13:12Z</time>
      </trkpt>
      <trkpt lat="44.14782" lon="4.67255">
        <ele>43.88</ele>
        <time>2016-11-19T12:13:33Z</time>
      </trkpt>
      <trkpt lat="44.14781" lon="4.67255">
        <ele>43.88</ele>
        <time>2016-11-19T12:13:58Z</time>
      </trkpt>
      <trkpt lat="44.14782" lon="4.67258">
        <ele>43.88</ele>
        <time>2016-11-19T12:14:29Z</time>
      </trkpt>
      <trkpt lat="44.14781" lon="4.67259">
        <ele>44.84</ele>
        <time>2016-11-19T12:14:52Z</time>
      </trkpt>
      <trkpt lat="44.1478" lon="4.67257">
        <ele>44.84</ele>
        <time>2016-11-19T12:15:27Z</time>
      </trkpt>
      <trkpt lat="44.1478" lon="4.67257">
        <ele>44.84</ele>
        <time>2016-11-19T12:15:52Z</time>
      </trkpt>
      <trkpt lat="44.14781" lon="4.67257">
        <ele>44.84</ele>
        <time>2016-11-19T12:16:15Z</time>
      </trkpt>
      <trkpt lat="44.14782" lon="4.67256">
        <ele>44.84</ele>
        <time>2016-11-19T12:16:49Z</time>
      </trkpt>
      <trkpt lat="44.14781" lon="4.67257">
        <ele>44.84</ele>
        <time>2016-11-19T12:17:22Z</time>
      </trkpt>
      <trkpt lat="44.14781" lon="4.67258">
        <ele>44.84</ele>
        <time>2016-11-19T12:17:50Z</time>
      </trkpt>
      <trkpt lat="44.14782" lon="4.67256">
        <ele>44.84</ele>
        <time>2016-11-19T12:18:26Z</time>
      </trkpt>
      <trkpt lat="44.14783" lon="4.67257">
        <ele>44.84</ele>
        <time>2016-11-19T12:18:57Z</time>
      </trkpt>
      <trkpt lat="44.14782" lon="4.67255">
        <ele>44.84</ele>
        <time>2016-11-19T12:19:29Z</time>
      </trkpt>
      <trkpt lat="44.14783" lon="4.67256">
        <ele>44.84</ele>
        <time>2016-11-19T12:19:57Z</time>
      </trkpt>
      <trkpt lat="44.14783" lon="4.67256">
        <ele>44.84</ele>
        <time>2016-11-19T12:20:29Z</time>
      </trkpt>
      <trkpt lat="44.14781" lon="4.67253">
        <ele>44.36</ele>
        <time>2016-11-19T12:20:56Z</time>
      </trkpt>
      <trkpt lat="44.1478" lon="4.67253">
        <ele>44.84</ele>
        <time>2016-11-19T12:21:28Z</time>
      </trkpt>
      <trkpt lat="44.1478" lon="4.67257">
        <ele>44.84</ele>
        <time>2016-11-19T12:21:59Z</time>
      </trkpt>
      <trkpt lat="44.14782" lon="4.67257">
        <ele>44.84</ele>
        <time>2016-11-19T12:22:37Z</time>
      </trkpt>
      <trkpt lat="44.14781" lon="4.67255">
        <ele>45.32</ele>
        <time>2016-11-19T12:23:00Z</time>
      </trkpt>
      <trkpt lat="44.14783" lon="4.6725">
        <ele>45.8</ele>
        <time>2016-11-19T12:23:13Z</time>
      </trkpt>
      <trkpt lat="44.1478" lon="4.67243">
        <ele>45.8</ele>
        <time>2016-11-19T12:23:19Z</time>
      </trkpt>
      <trkpt lat="44.14756" lon="4.67251">
        <ele>45.8</ele>
        <time>2016-11-19T12:23:31Z</time>
      </trkpt>
      <trkpt lat="44.14754" lon="4.67257">
        <ele>45.8</ele>
        <time>2016-11-19T12:23:38Z</time>
      </trkpt>
      <trkpt lat="44.14781" lon="4.67252">
        <ele>45.8</ele>
        <time>2016-11-19T12:23:52Z</time>
      </trkpt>
      <trkpt lat="44.14781" lon="4.67252">
        <ele>45.8</ele>
        <time>2016-11-19T12:24:02Z</time>
      </trkpt>
      <trkpt lat="44.14779" lon="4.67247">
        <ele>45.8</ele>
        <time>2016-11-19T12:24:25Z</time>
      </trkpt>
      <trkpt lat="44.14777" lon="4.67251">
        <ele>45.8</ele>
        <time>2016-11-19T12:24:52Z</time>
      </trkpt>
      <trkpt lat="44.14778" lon="4.67251">
        <ele>45.32</ele>
        <time>2016-11-19T12:25:22Z</time>
      </trkpt>
      <trkpt lat="44.14778" lon="4.67249">
        <ele>45.32</ele>
        <time>2016-11-19T12:25:53Z</time>
      </trkpt>
      <trkpt lat="44.14776" lon="4.67248">
        <ele>45.32</ele>
        <time>2016-11-19T12:26:19Z</time>
      </trkpt>
      <trkpt lat="44.14778" lon="4.67251">
        <ele>45.32</ele>
        <time>2016-11-19T12:26:41Z</time>
      </trkpt>
      <trkpt lat="44.14778" lon="4.67252">
        <ele>45.32</ele>
        <time>2016-11-19T12:27:06Z</time>
      </trkpt>
      <trkpt lat="44.1478" lon="4.67252">
        <ele>46.28</ele>
        <time>2016-11-19T12:27:35Z</time>
      </trkpt>
      <trkpt lat="44.14782" lon="4.67251">
        <ele>46.28</ele>
        <time>2016-11-19T12:27:52Z</time>
      </trkpt>
      <trkpt lat="44.14782" lon="4.67251">
        <ele>46.28</ele>
        <time>2016-11-19T12:28:18Z</time>
      </trkpt>
      <trkpt lat="44.14773" lon="4.67247">
        <ele>46.28</ele>
        <time>2016-11-19T12:28:27Z</time>
      </trkpt>
      <trkpt lat="44.14757" lon="4.67251">
        <ele>46.28</ele>
        <time>2016-11-19T12:28:32Z</time>
      </trkpt>
      <trkpt lat="44.14738" lon="4.6726">
        <ele>46.28</ele>
        <time>2016-11-19T12:28:38Z</time>
      </trkpt>
      <trkpt lat="44.14738" lon="4.67263">
        <ele>46.28</ele>
        <time>2016-11-19T12:28:39Z</time>
      </trkpt>
      <trkpt lat="44.14738" lon="4.67267">
        <ele>46.28</ele>
        <time>2016-11-19T12:28:40Z</time>
      </trkpt>
      <trkpt lat="44.14758" lon="4.6734">
        <ele>46.28</ele>
        <time>2016-11-19T12:28:54Z</time>
      </trkpt>
      <trkpt lat="44.14759" lon="4.67346">
        <ele>46.28</ele>
        <time>2016-11-19T12:28:55Z</time>
      </trkpt>
      <trkpt lat="44.1476" lon="4.67352">
        <ele>46.28</ele>
        <time>2016-11-19T12:28:56Z</time>
      </trkpt>
      <trkpt lat="44.1476" lon="4.67358">
        <ele>46.28</ele>
        <time>2016-11-19T12:28:57Z</time>
      </trkpt>
      <trkpt lat="44.14759" lon="4.67385">
        <ele>46.28</ele>
        <time>2016-11-19T12:29:01Z</time>
      </trkpt>
      <trkpt lat="44.14758" lon="4.67392">
        <ele>46.28</ele>
        <time>2016-11-19T12:29:02Z</time>
      </trkpt>
      <trkpt lat="44.14757" lon="4.67399">
        <ele>45.32</ele>
        <time>2016-11-19T12:29:03Z</time>
      </trkpt>
      <trkpt lat="44.14756" lon="4.67407">
        <ele>45.32</ele>
        <time>2016-11-19T12:29:04Z</time>
      </trkpt>
      <trkpt lat="44.14729" lon="4.67533">
        <ele>44.36</ele>
        <time>2016-11-19T12:29:21Z</time>
      </trkpt>
      <trkpt lat="44.14703" lon="4.67664">
        <ele>44.36</ele>
        <time>2016-11-19T12:29:38Z</time>
      </trkpt>
      <trkpt lat="44.14675" lon="4.67801">
        <ele>44.36</ele>
        <time>2016-11-19T12:29:56Z</time>
      </trkpt>
      <trkpt lat="44.14665" lon="4.67857">
        <ele>46.28</ele>
        <time>2016-11-19T12:30:06Z</time>
      </trkpt>
      <trkpt lat="44.14668" lon="4.67861">
        <ele>46.28</ele>
        <time>2016-11-19T12:30:07Z</time>
      </trkpt>
      <trkpt lat="44.14672" lon="4.67865">
        <ele>46.28</ele>
        <time>2016-11-19T12:30:08Z</time>
      </trkpt>
      <trkpt lat="44.14676" lon="4.67867">
        <ele>46.28</ele>
        <time>2016-11-19T12:30:09Z</time>
      </trkpt>
      <trkpt lat="44.14681" lon="4.67869">
        <ele>46.28</ele>
        <time>2016-11-19T12:30:10Z</time>
      </trkpt>
      <trkpt lat="44.14686" lon="4.6787">
        <ele>46.28</ele>
        <time>2016-11-19T12:30:11Z</time>
      </trkpt>
      <trkpt lat="44.14719" lon="4.67882">
        <ele>46.28</ele>
        <time>2016-11-19T12:30:18Z</time>
      </trkpt>
      <trkpt lat="44.1479" lon="4.67908">
        <ele>44.84</ele>
        <time>2016-11-19T12:30:32Z</time>
      </trkpt>
      <trkpt lat="44.14805" lon="4.67914">
        <ele>44.36</ele>
        <time>2016-11-19T12:30:35Z</time>
      </trkpt>
      <trkpt lat="44.14809" lon="4.67918">
        <ele>44.36</ele>
        <time>2016-11-19T12:30:36Z</time>
      </trkpt>
      <trkpt lat="44.14812" lon="4.67925">
        <ele>44.36</ele>
        <time>2016-11-19T12:30:37Z</time>
      </trkpt>
      <trkpt lat="44.14813" lon="4.67933">
        <ele>43.4</ele>
        <time>2016-11-19T12:30:38Z</time>
      </trkpt>
      <trkpt lat="44.14811" lon="4.67942">
        <ele>42.92</ele>
        <time>2016-11-19T12:30:39Z</time>
      </trkpt>
      <trkpt lat="44.14809" lon="4.6795">
        <ele>42.44</ele>
        <time>2016-11-19T12:30:40Z</time>
      </trkpt>
      <trkpt lat="44.14806" lon="4.67959">
        <ele>42.44</ele>
        <time>2016-11-19T12:30:41Z</time>
      </trkpt>
      <trkpt lat="44.14785" lon="4.68059">
        <ele>41.95</ele>
        <time>2016-11-19T12:30:54Z</time>
      </trkpt>
      <trkpt lat="44.1478" lon="4.68117">
        <ele>41.47</ele>
        <time>2016-11-19T12:31:01Z</time>
      </trkpt>
      <trkpt lat="44.1478" lon="4.68125">
        <ele>41.47</ele>
        <time>2016-11-19T12:31:02Z</time>
      </trkpt>
      <trkpt lat="44.14777" lon="4.68227">
        <ele>41.47</ele>
        <time>2016-11-19T12:31:16Z</time>
      </trkpt>
      <trkpt lat="44.14778" lon="4.68233">
        <ele>41.47</ele>
        <time>2016-11-19T12:31:17Z</time>
      </trkpt>
      <trkpt lat="44.14782" lon="4.68247">
        <ele>41.47</ele>
        <time>2016-11-19T12:31:20Z</time>
      </trkpt>
      <trkpt lat="44.14784" lon="4.6825">
        <ele>41.47</ele>
        <time>2016-11-19T12:31:21Z</time>
      </trkpt>
      <trkpt lat="44.14786" lon="4.68252">
        <ele>41.47</ele>
        <time>2016-11-19T12:31:22Z</time>
      </trkpt>
      <trkpt lat="44.14789" lon="4.68254">
        <ele>41.47</ele>
        <time>2016-11-19T12:31:23Z</time>
      </trkpt>
      <trkpt lat="44.14791" lon="4.68255">
        <ele>41.47</ele>
        <time>2016-11-19T12:31:24Z</time>
      </trkpt>
      <trkpt lat="44.14793" lon="4.68257">
        <ele>41.47</ele>
        <time>2016-11-19T12:31:25Z</time>
      </trkpt>
      <trkpt lat="44.14796" lon="4.68258">
        <ele>41.47</ele>
        <time>2016-11-19T12:31:26Z</time>
      </trkpt>
      <trkpt lat="44.14811" lon="4.68261">
        <ele>41.47</ele>
        <time>2016-11-19T12:31:30Z</time>
      </trkpt>
      <trkpt lat="44.14815" lon="4.6826">
        <ele>40.99</ele>
        <time>2016-11-19T12:31:31Z</time>
      </trkpt>
      <trkpt lat="44.14819" lon="4.68261">
        <ele>40.99</ele>
        <time>2016-11-19T12:31:32Z</time>
      </trkpt>
      <trkpt lat="44.14832" lon="4.68263">
        <ele>40.99</ele>
        <time>2016-11-19T12:31:35Z</time>
      </trkpt>
      <trkpt lat="44.14848" lon="4.68259">
        <ele>40.99</ele>
        <time>2016-11-19T12:31:39Z</time>
      </trkpt>
      <trkpt lat="44.1485" lon="4.68255">
        <ele>40.99</ele>
        <time>2016-11-19T12:31:40Z</time>
      </trkpt>
      <trkpt lat="44.14851" lon="4.68251">
        <ele>40.99</ele>
        <time>2016-11-19T12:31:41Z</time>
      </trkpt>
      <trkpt lat="44.14852" lon="4.68247">
        <ele>40.99</ele>
        <time>2016-11-19T12:31:42Z</time>
      </trkpt>
      <trkpt lat="44.14853" lon="4.68243">
        <ele>40.99</ele>
        <time>2016-11-19T12:31:43Z</time>
      </trkpt>
      <trkpt lat="44.14852" lon="4.68234">
        <ele>41.95</ele>
        <time>2016-11-19T12:31:45Z</time>
      </trkpt>
      <trkpt lat="44.14849" lon="4.68232">
        <ele>41.95</ele>
        <time>2016-11-19T12:31:46Z</time>
      </trkpt>
      <trkpt lat="44.14846" lon="4.68233">
        <ele>41.95</ele>
        <time>2016-11-19T12:31:47Z</time>
      </trkpt>
      <trkpt lat="44.14844" lon="4.68234">
        <ele>41.95</ele>
        <time>2016-11-19T12:31:48Z</time>
      </trkpt>
      <trkpt lat="44.14842" lon="4.68237">
        <ele>41.95</ele>
        <time>2016-11-19T12:31:49Z</time>
      </trkpt>
      <trkpt lat="44.1484" lon="4.6824">
        <ele>41.95</ele>
        <time>2016-11-19T12:31:50Z</time>
      </trkpt>
      <trkpt lat="44.1484" lon="4.68243">
        <ele>41.95</ele>
        <time>2016-11-19T12:31:51Z</time>
      </trkpt>
      <trkpt lat="44.1484" lon="4.68245">
        <ele>41.95</ele>
        <time>2016-11-19T12:31:52Z</time>
      </trkpt>
      <trkpt lat="44.1484" lon="4.68245">
        <ele>41.95</ele>
        <time>2016-11-19T12:32:01Z</time>
      </trkpt>
      <trkpt lat="44.14839" lon="4.68247">
        <ele>41.95</ele>
        <time>2016-11-19T12:32:21Z</time>
      </trkpt>
      <trkpt lat="44.14839" lon="4.68249">
        <ele>41.95</ele>
        <time>2016-11-19T12:33:09Z</time>
      </trkpt>
    </trkseg>
  </trk>
</gpx>